<?xml version="1.0" encoding="UTF-8" standalone="no" ?>
<gpx xmlns="http://www.topografix.com/GPX/1/1" xmlns:xsi="http://www.w3.org/2001/XMLSchema-instance" xsi:schemaLocation="http://www.topografix.com/GPX/1/1 http://www.topografix.com/GPX/1/1/gpx.xsd" version="1.1" creator="VisuGPX - https://www.visugpx.com">
  <metadata>
    <name>Cadaques J18</name>
    <desc><![CDATA[File with points/tracks from Locus Map/4.26.1]]></desc>
  </metadata>
  <trk>
    <name><![CDATA[2024-10-03 Pueyo Narcatet J18]]></name>
    <extensions>
      <line xmlns="http://www.topografix.com/GPX/gpx_style/0/2">
        <color>0000FF</color>
        <opacity>0.70</opacity>
        <width>6.0</width>
      </line>
    </extensions>
    <trkseg>
      <trkpt lat="42.72062" lon="-0.29978">
        <ele>1105.24</ele>
        <time>2024-10-03T06:44:54.000Z</time>
      </trkpt>
      <trkpt lat="42.72069" lon="-0.29986">
        <ele>1106.3</ele>
        <time>2024-10-03T06:47:06.000Z</time>
      </trkpt>
      <trkpt lat="42.72076" lon="-0.29995">
        <ele>1106.87</ele>
        <time>2024-10-03T06:47:14.000Z</time>
      </trkpt>
      <trkpt lat="42.72085" lon="-0.3">
        <ele>1106.44</ele>
        <time>2024-10-03T06:47:53.000Z</time>
      </trkpt>
      <trkpt lat="42.72094" lon="-0.29998">
        <ele>1105.89</ele>
        <time>2024-10-03T06:48:02.000Z</time>
      </trkpt>
      <trkpt lat="42.72103" lon="-0.29995">
        <ele>1105.2</ele>
        <time>2024-10-03T06:48:13.000Z</time>
      </trkpt>
      <trkpt lat="42.72112" lon="-0.29992">
        <ele>1104.67</ele>
        <time>2024-10-03T06:48:22.000Z</time>
      </trkpt>
      <trkpt lat="42.72121" lon="-0.29987">
        <ele>1104</ele>
        <time>2024-10-03T06:48:35.000Z</time>
      </trkpt>
      <trkpt lat="42.72129" lon="-0.29982">
        <ele>1103.54</ele>
        <time>2024-10-03T06:48:46.000Z</time>
      </trkpt>
      <trkpt lat="42.72138" lon="-0.29976">
        <ele>1103.11</ele>
        <time>2024-10-03T06:49:01.000Z</time>
      </trkpt>
      <trkpt lat="42.72145" lon="-0.29967">
        <ele>1102.94</ele>
        <time>2024-10-03T06:49:15.000Z</time>
      </trkpt>
      <trkpt lat="42.72151" lon="-0.29957">
        <ele>1102.92</ele>
        <time>2024-10-03T06:49:25.000Z</time>
      </trkpt>
      <trkpt lat="42.72159" lon="-0.29952">
        <ele>1102.95</ele>
        <time>2024-10-03T06:49:33.000Z</time>
      </trkpt>
      <trkpt lat="42.72164" lon="-0.2994">
        <ele>1103</ele>
        <time>2024-10-03T06:49:42.000Z</time>
      </trkpt>
      <trkpt lat="42.72172" lon="-0.29934">
        <ele>1103.1</ele>
        <time>2024-10-03T06:50:28.000Z</time>
      </trkpt>
      <trkpt lat="42.72181" lon="-0.29938">
        <ele>1105.23</ele>
        <time>2024-10-03T06:51:49.000Z</time>
      </trkpt>
      <trkpt lat="42.72189" lon="-0.29947">
        <ele>1105.87</ele>
        <time>2024-10-03T06:51:57.000Z</time>
      </trkpt>
      <trkpt lat="42.72194" lon="-0.29958">
        <ele>1106.37</ele>
        <time>2024-10-03T06:52:04.000Z</time>
      </trkpt>
      <trkpt lat="42.72195" lon="-0.29971">
        <ele>1106.87</ele>
        <time>2024-10-03T06:52:12.000Z</time>
      </trkpt>
      <trkpt lat="42.72196" lon="-0.29984">
        <ele>1107.22</ele>
        <time>2024-10-03T06:52:18.000Z</time>
      </trkpt>
      <trkpt lat="42.72196" lon="-0.29997">
        <ele>1107.59</ele>
        <time>2024-10-03T06:52:25.000Z</time>
      </trkpt>
      <trkpt lat="42.72197" lon="-0.30011">
        <ele>1107.94</ele>
        <time>2024-10-03T06:52:32.000Z</time>
      </trkpt>
      <trkpt lat="42.72199" lon="-0.30024">
        <ele>1108.27</ele>
        <time>2024-10-03T06:52:39.000Z</time>
      </trkpt>
      <trkpt lat="42.722" lon="-0.30037">
        <ele>1108.58</ele>
        <time>2024-10-03T06:52:46.000Z</time>
      </trkpt>
      <trkpt lat="42.72202" lon="-0.3005">
        <ele>1108.88</ele>
        <time>2024-10-03T06:52:53.000Z</time>
      </trkpt>
      <trkpt lat="42.72205" lon="-0.30063">
        <ele>1109.18</ele>
        <time>2024-10-03T06:53:00.000Z</time>
      </trkpt>
      <trkpt lat="42.72209" lon="-0.30075">
        <ele>1109.46</ele>
        <time>2024-10-03T06:53:07.000Z</time>
      </trkpt>
      <trkpt lat="42.72215" lon="-0.30086">
        <ele>1109.74</ele>
        <time>2024-10-03T06:53:14.000Z</time>
      </trkpt>
      <trkpt lat="42.72223" lon="-0.30094">
        <ele>1110</ele>
        <time>2024-10-03T06:53:21.000Z</time>
      </trkpt>
      <trkpt lat="42.72233" lon="-0.30096">
        <ele>1110.23</ele>
        <time>2024-10-03T06:53:28.000Z</time>
      </trkpt>
      <trkpt lat="42.72242" lon="-0.30097">
        <ele>1110.45</ele>
        <time>2024-10-03T06:53:35.000Z</time>
      </trkpt>
      <trkpt lat="42.72251" lon="-0.301">
        <ele>1110.69</ele>
        <time>2024-10-03T06:53:42.000Z</time>
      </trkpt>
      <trkpt lat="42.72261" lon="-0.30105">
        <ele>1110.93</ele>
        <time>2024-10-03T06:53:49.000Z</time>
      </trkpt>
      <trkpt lat="42.7227" lon="-0.30111">
        <ele>1111.17</ele>
        <time>2024-10-03T06:53:56.000Z</time>
      </trkpt>
      <trkpt lat="42.72277" lon="-0.3012">
        <ele>1111.38</ele>
        <time>2024-10-03T06:54:02.000Z</time>
      </trkpt>
      <trkpt lat="42.72284" lon="-0.3013">
        <ele>1111.62</ele>
        <time>2024-10-03T06:54:09.000Z</time>
      </trkpt>
      <trkpt lat="42.72291" lon="-0.3014">
        <ele>1111.87</ele>
        <time>2024-10-03T06:54:16.000Z</time>
      </trkpt>
      <trkpt lat="42.72297" lon="-0.30152">
        <ele>1112.1</ele>
        <time>2024-10-03T06:54:22.000Z</time>
      </trkpt>
      <trkpt lat="42.72303" lon="-0.30162">
        <ele>1112.32</ele>
        <time>2024-10-03T06:54:28.000Z</time>
      </trkpt>
      <trkpt lat="42.72308" lon="-0.30173">
        <ele>1112.54</ele>
        <time>2024-10-03T06:54:34.000Z</time>
      </trkpt>
      <trkpt lat="42.72314" lon="-0.30183">
        <ele>1112.76</ele>
        <time>2024-10-03T06:54:40.000Z</time>
      </trkpt>
      <trkpt lat="42.72322" lon="-0.30192">
        <ele>1112.97</ele>
        <time>2024-10-03T06:54:46.000Z</time>
      </trkpt>
      <trkpt lat="42.72329" lon="-0.30201">
        <ele>1113.15</ele>
        <time>2024-10-03T06:54:51.000Z</time>
      </trkpt>
      <trkpt lat="42.72336" lon="-0.30213">
        <ele>1113.32</ele>
        <time>2024-10-03T06:54:56.000Z</time>
      </trkpt>
      <trkpt lat="42.72346" lon="-0.30223">
        <ele>1113.5</ele>
        <time>2024-10-03T06:55:01.000Z</time>
      </trkpt>
      <trkpt lat="42.72357" lon="-0.30228">
        <ele>1113.67</ele>
        <time>2024-10-03T06:55:06.000Z</time>
      </trkpt>
      <trkpt lat="42.7237" lon="-0.30229">
        <ele>1113.84</ele>
        <time>2024-10-03T06:55:11.000Z</time>
      </trkpt>
      <trkpt lat="42.72383" lon="-0.30229">
        <ele>1113.99</ele>
        <time>2024-10-03T06:55:16.000Z</time>
      </trkpt>
      <trkpt lat="42.72394" lon="-0.3023">
        <ele>1114.16</ele>
        <time>2024-10-03T06:55:22.000Z</time>
      </trkpt>
      <trkpt lat="42.72403" lon="-0.30229">
        <ele>1114.29</ele>
        <time>2024-10-03T06:55:27.000Z</time>
      </trkpt>
      <trkpt lat="42.72412" lon="-0.30229">
        <ele>1114.43</ele>
        <time>2024-10-03T06:55:33.000Z</time>
      </trkpt>
      <trkpt lat="42.72422" lon="-0.30231">
        <ele>1114.56</ele>
        <time>2024-10-03T06:55:39.000Z</time>
      </trkpt>
      <trkpt lat="42.72431" lon="-0.30231">
        <ele>1114.71</ele>
        <time>2024-10-03T06:55:46.000Z</time>
      </trkpt>
      <trkpt lat="42.7244" lon="-0.3023">
        <ele>1114.82</ele>
        <time>2024-10-03T06:55:52.000Z</time>
      </trkpt>
      <trkpt lat="42.72449" lon="-0.3023">
        <ele>1114.95</ele>
        <time>2024-10-03T06:55:58.000Z</time>
      </trkpt>
      <trkpt lat="42.7246" lon="-0.3023">
        <ele>1115.13</ele>
        <time>2024-10-03T06:56:05.000Z</time>
      </trkpt>
      <trkpt lat="42.7247" lon="-0.30229">
        <ele>1115.29</ele>
        <time>2024-10-03T06:56:11.000Z</time>
      </trkpt>
      <trkpt lat="42.72479" lon="-0.30229">
        <ele>1115.46</ele>
        <time>2024-10-03T06:56:17.000Z</time>
      </trkpt>
      <trkpt lat="42.72489" lon="-0.30229">
        <ele>1115.67</ele>
        <time>2024-10-03T06:56:24.000Z</time>
      </trkpt>
      <trkpt lat="42.72498" lon="-0.30228">
        <ele>1115.86</ele>
        <time>2024-10-03T06:56:30.000Z</time>
      </trkpt>
      <trkpt lat="42.72508" lon="-0.30228">
        <ele>1116.1</ele>
        <time>2024-10-03T06:56:37.000Z</time>
      </trkpt>
      <trkpt lat="42.72519" lon="-0.30228">
        <ele>1116.36</ele>
        <time>2024-10-03T06:56:44.000Z</time>
      </trkpt>
      <trkpt lat="42.72528" lon="-0.30227">
        <ele>1116.65</ele>
        <time>2024-10-03T06:56:51.000Z</time>
      </trkpt>
      <trkpt lat="42.72538" lon="-0.30225">
        <ele>1117.05</ele>
        <time>2024-10-03T06:56:59.000Z</time>
      </trkpt>
      <trkpt lat="42.72548" lon="-0.30221">
        <ele>1117.47</ele>
        <time>2024-10-03T06:57:06.000Z</time>
      </trkpt>
      <trkpt lat="42.72556" lon="-0.30214">
        <ele>1117.88</ele>
        <time>2024-10-03T06:57:12.000Z</time>
      </trkpt>
      <trkpt lat="42.72566" lon="-0.30208">
        <ele>1118.35</ele>
        <time>2024-10-03T06:57:17.999Z</time>
      </trkpt>
      <trkpt lat="42.72574" lon="-0.30201">
        <ele>1119.36</ele>
        <time>2024-10-03T06:57:33.999Z</time>
      </trkpt>
      <trkpt lat="42.72587" lon="-0.30195">
        <ele>1120</ele>
        <time>2024-10-03T06:57:38.999Z</time>
      </trkpt>
      <trkpt lat="42.72598" lon="-0.30188">
        <ele>1120.63</ele>
        <time>2024-10-03T06:57:43.999Z</time>
      </trkpt>
      <trkpt lat="42.7261" lon="-0.3018">
        <ele>1121.33</ele>
        <time>2024-10-03T06:57:48.999Z</time>
      </trkpt>
      <trkpt lat="42.72621" lon="-0.30172">
        <ele>1122.42</ele>
        <time>2024-10-03T06:57:53.999Z</time>
      </trkpt>
      <trkpt lat="42.72634" lon="-0.30163">
        <ele>1123.94</ele>
        <time>2024-10-03T06:57:58.999Z</time>
      </trkpt>
      <trkpt lat="42.72648" lon="-0.30158">
        <ele>1125.65</ele>
        <time>2024-10-03T06:58:03.999Z</time>
      </trkpt>
      <trkpt lat="42.72661" lon="-0.30155">
        <ele>1127.44</ele>
        <time>2024-10-03T06:58:08.999Z</time>
      </trkpt>
      <trkpt lat="42.72674" lon="-0.30155">
        <ele>1129.23</ele>
        <time>2024-10-03T06:58:13.999Z</time>
      </trkpt>
      <trkpt lat="42.72685" lon="-0.30155">
        <ele>1131.01</ele>
        <time>2024-10-03T06:58:18.999Z</time>
      </trkpt>
      <trkpt lat="42.72693" lon="-0.30148">
        <ele>1132.79</ele>
        <time>2024-10-03T06:58:23.999Z</time>
      </trkpt>
      <trkpt lat="42.72696" lon="-0.30135">
        <ele>1135.95</ele>
        <time>2024-10-03T06:58:33.999Z</time>
      </trkpt>
      <trkpt lat="42.72704" lon="-0.30125">
        <ele>1137.61</ele>
        <time>2024-10-03T06:58:38.999Z</time>
      </trkpt>
      <trkpt lat="42.72721" lon="-0.30117">
        <ele>1139.14</ele>
        <time>2024-10-03T06:58:43.999Z</time>
      </trkpt>
      <trkpt lat="42.72739" lon="-0.3011">
        <ele>1140.59</ele>
        <time>2024-10-03T06:58:48.999Z</time>
      </trkpt>
      <trkpt lat="42.7276" lon="-0.30111">
        <ele>1149.74</ele>
        <time>2024-10-03T06:58:53.999Z</time>
      </trkpt>
      <trkpt lat="42.72783" lon="-0.30123">
        <ele>1153.16</ele>
        <time>2024-10-03T06:58:58.999Z</time>
      </trkpt>
      <trkpt lat="42.72806" lon="-0.30149">
        <ele>1154.3</ele>
        <time>2024-10-03T06:59:03.999Z</time>
      </trkpt>
      <trkpt lat="42.72826" lon="-0.30186">
        <ele>1154.43</ele>
        <time>2024-10-03T06:59:08.999Z</time>
      </trkpt>
      <trkpt lat="42.72854" lon="-0.30213">
        <ele>1154.33</ele>
        <time>2024-10-03T06:59:13.999Z</time>
      </trkpt>
      <trkpt lat="42.72884" lon="-0.30201">
        <ele>1154.15</ele>
        <time>2024-10-03T06:59:18.999Z</time>
      </trkpt>
      <trkpt lat="42.72905" lon="-0.30174">
        <ele>1154.6</ele>
        <time>2024-10-03T06:59:23.999Z</time>
      </trkpt>
      <trkpt lat="42.72935" lon="-0.3017">
        <ele>1154.71</ele>
        <time>2024-10-03T06:59:28.999Z</time>
      </trkpt>
      <trkpt lat="42.7296" lon="-0.30199">
        <ele>1154.5</ele>
        <time>2024-10-03T06:59:33.999Z</time>
      </trkpt>
      <trkpt lat="42.7297" lon="-0.30248">
        <ele>1154.13</ele>
        <time>2024-10-03T06:59:38.999Z</time>
      </trkpt>
      <trkpt lat="42.72988" lon="-0.3029">
        <ele>1153.69</ele>
        <time>2024-10-03T06:59:43.999Z</time>
      </trkpt>
      <trkpt lat="42.73" lon="-0.30335">
        <ele>1153.07</ele>
        <time>2024-10-03T06:59:48.999Z</time>
      </trkpt>
      <trkpt lat="42.73003" lon="-0.3038">
        <ele>1152.06</ele>
        <time>2024-10-03T06:59:53.999Z</time>
      </trkpt>
      <trkpt lat="42.72993" lon="-0.30425">
        <ele>1151.31</ele>
        <time>2024-10-03T06:59:58.999Z</time>
      </trkpt>
      <trkpt lat="42.72985" lon="-0.30469">
        <ele>1150.93</ele>
        <time>2024-10-03T07:00:03.999Z</time>
      </trkpt>
      <trkpt lat="42.72993" lon="-0.30513">
        <ele>1150.02</ele>
        <time>2024-10-03T07:00:08.999Z</time>
      </trkpt>
      <trkpt lat="42.72997" lon="-0.30556">
        <ele>1149.17</ele>
        <time>2024-10-03T07:00:13.999Z</time>
      </trkpt>
      <trkpt lat="42.72992" lon="-0.30601">
        <ele>1148.63</ele>
        <time>2024-10-03T07:00:18.999Z</time>
      </trkpt>
      <trkpt lat="42.72976" lon="-0.30642">
        <ele>1148.34</ele>
        <time>2024-10-03T07:00:23.999Z</time>
      </trkpt>
      <trkpt lat="42.72965" lon="-0.30686">
        <ele>1147.12</ele>
        <time>2024-10-03T07:00:28.999Z</time>
      </trkpt>
      <trkpt lat="42.72961" lon="-0.30734">
        <ele>1146.09</ele>
        <time>2024-10-03T07:00:33.999Z</time>
      </trkpt>
      <trkpt lat="42.72982" lon="-0.30775">
        <ele>1144.61</ele>
        <time>2024-10-03T07:00:38.999Z</time>
      </trkpt>
      <trkpt lat="42.73012" lon="-0.30806">
        <ele>1143.02</ele>
        <time>2024-10-03T07:00:43.999Z</time>
      </trkpt>
      <trkpt lat="42.73037" lon="-0.30839">
        <ele>1141.81</ele>
        <time>2024-10-03T07:00:48.999Z</time>
      </trkpt>
      <trkpt lat="42.73028" lon="-0.30881">
        <ele>1140.85</ele>
        <time>2024-10-03T07:00:53.999Z</time>
      </trkpt>
      <trkpt lat="42.72996" lon="-0.30895">
        <ele>1138.98</ele>
        <time>2024-10-03T07:00:58.999Z</time>
      </trkpt>
      <trkpt lat="42.7296" lon="-0.30907">
        <ele>1137</ele>
        <time>2024-10-03T07:01:03.999Z</time>
      </trkpt>
      <trkpt lat="42.72923" lon="-0.30921">
        <ele>1135.72</ele>
        <time>2024-10-03T07:01:08.999Z</time>
      </trkpt>
      <trkpt lat="42.72885" lon="-0.30917">
        <ele>1135.06</ele>
        <time>2024-10-03T07:01:13.999Z</time>
      </trkpt>
      <trkpt lat="42.72856" lon="-0.30894">
        <ele>1136.61</ele>
        <time>2024-10-03T07:01:18.999Z</time>
      </trkpt>
      <trkpt lat="42.72838" lon="-0.30857">
        <ele>1137.64</ele>
        <time>2024-10-03T07:01:23.999Z</time>
      </trkpt>
      <trkpt lat="42.72822" lon="-0.30827">
        <ele>1137.54</ele>
        <time>2024-10-03T07:01:28.999Z</time>
      </trkpt>
      <trkpt lat="42.72806" lon="-0.30803">
        <ele>1137.11</ele>
        <time>2024-10-03T07:01:33.999Z</time>
      </trkpt>
      <trkpt lat="42.72794" lon="-0.30777">
        <ele>1135.8</ele>
        <time>2024-10-03T07:01:38.999Z</time>
      </trkpt>
      <trkpt lat="42.72779" lon="-0.30754">
        <ele>1134.67</ele>
        <time>2024-10-03T07:01:43.999Z</time>
      </trkpt>
      <trkpt lat="42.72759" lon="-0.30735">
        <ele>1134.01</ele>
        <time>2024-10-03T07:01:48.999Z</time>
      </trkpt>
      <trkpt lat="42.72737" lon="-0.30718">
        <ele>1133.89</ele>
        <time>2024-10-03T07:01:53.999Z</time>
      </trkpt>
      <trkpt lat="42.72716" lon="-0.30704">
        <ele>1134.07</ele>
        <time>2024-10-03T07:01:58.999Z</time>
      </trkpt>
      <trkpt lat="42.727" lon="-0.30716">
        <ele>1134.17</ele>
        <time>2024-10-03T07:02:03.999Z</time>
      </trkpt>
      <trkpt lat="42.72705" lon="-0.30734">
        <ele>1134.26</ele>
        <time>2024-10-03T07:02:08.999Z</time>
      </trkpt>
      <trkpt lat="42.72713" lon="-0.3074">
        <ele>1134.34</ele>
        <time>2024-10-03T07:02:13.999Z</time>
      </trkpt>
      <trkpt lat="42.72723" lon="-0.30746">
        <ele>1134.96</ele>
        <time>2024-10-03T07:03:45.999Z</time>
      </trkpt>
      <trkpt lat="42.72734" lon="-0.30752">
        <ele>1135.17</ele>
        <time>2024-10-03T07:03:50.999Z</time>
      </trkpt>
      <trkpt lat="42.72744" lon="-0.30758">
        <ele>1135.36</ele>
        <time>2024-10-03T07:03:55.999Z</time>
      </trkpt>
      <trkpt lat="42.72752" lon="-0.30764">
        <ele>1135.55</ele>
        <time>2024-10-03T07:04:00.999Z</time>
      </trkpt>
      <trkpt lat="42.7276" lon="-0.3077">
        <ele>1135.73</ele>
        <time>2024-10-03T07:04:05.999Z</time>
      </trkpt>
      <trkpt lat="42.72768" lon="-0.30779">
        <ele>1135.91</ele>
        <time>2024-10-03T07:04:10.999Z</time>
      </trkpt>
      <trkpt lat="42.72777" lon="-0.30786">
        <ele>1136.1</ele>
        <time>2024-10-03T07:04:15.999Z</time>
      </trkpt>
      <trkpt lat="42.72785" lon="-0.30793">
        <ele>1136.28</ele>
        <time>2024-10-03T07:04:20.999Z</time>
      </trkpt>
      <trkpt lat="42.72792" lon="-0.30802">
        <ele>1136.46</ele>
        <time>2024-10-03T07:04:25.999Z</time>
      </trkpt>
      <trkpt lat="42.72798" lon="-0.30812">
        <ele>1136.64</ele>
        <time>2024-10-03T07:04:30.999Z</time>
      </trkpt>
      <trkpt lat="42.72803" lon="-0.30823">
        <ele>1136.82</ele>
        <time>2024-10-03T07:04:35.999Z</time>
      </trkpt>
      <trkpt lat="42.72809" lon="-0.30833">
        <ele>1137.01</ele>
        <time>2024-10-03T07:04:40.999Z</time>
      </trkpt>
      <trkpt lat="42.72815" lon="-0.30843">
        <ele>1137.19</ele>
        <time>2024-10-03T07:04:45.999Z</time>
      </trkpt>
      <trkpt lat="42.7282" lon="-0.30853">
        <ele>1137.38</ele>
        <time>2024-10-03T07:04:50.999Z</time>
      </trkpt>
      <trkpt lat="42.72825" lon="-0.30863">
        <ele>1137.56</ele>
        <time>2024-10-03T07:04:55.999Z</time>
      </trkpt>
      <trkpt lat="42.72831" lon="-0.30873">
        <ele>1137.74</ele>
        <time>2024-10-03T07:05:00.999Z</time>
      </trkpt>
      <trkpt lat="42.72836" lon="-0.30884">
        <ele>1137.93</ele>
        <time>2024-10-03T07:05:05.999Z</time>
      </trkpt>
      <trkpt lat="42.72842" lon="-0.30896">
        <ele>1138.15</ele>
        <time>2024-10-03T07:05:11.999Z</time>
      </trkpt>
      <trkpt lat="42.72848" lon="-0.30906">
        <ele>1138.33</ele>
        <time>2024-10-03T07:05:16.999Z</time>
      </trkpt>
      <trkpt lat="42.72853" lon="-0.30916">
        <ele>1138.51</ele>
        <time>2024-10-03T07:05:21.999Z</time>
      </trkpt>
      <trkpt lat="42.7286" lon="-0.30926">
        <ele>1138.7</ele>
        <time>2024-10-03T07:05:26.999Z</time>
      </trkpt>
      <trkpt lat="42.72866" lon="-0.30935">
        <ele>1138.89</ele>
        <time>2024-10-03T07:05:31.999Z</time>
      </trkpt>
      <trkpt lat="42.72875" lon="-0.30942">
        <ele>1139.07</ele>
        <time>2024-10-03T07:05:36.999Z</time>
      </trkpt>
      <trkpt lat="42.72883" lon="-0.30949">
        <ele>1139.25</ele>
        <time>2024-10-03T07:05:41.999Z</time>
      </trkpt>
      <trkpt lat="42.72892" lon="-0.30954">
        <ele>1139.44</ele>
        <time>2024-10-03T07:05:46.999Z</time>
      </trkpt>
      <trkpt lat="42.72902" lon="-0.30957">
        <ele>1139.62</ele>
        <time>2024-10-03T07:05:51.999Z</time>
      </trkpt>
      <trkpt lat="42.72912" lon="-0.30959">
        <ele>1139.8</ele>
        <time>2024-10-03T07:05:56.999Z</time>
      </trkpt>
      <trkpt lat="42.72921" lon="-0.30958">
        <ele>1139.98</ele>
        <time>2024-10-03T07:06:01.999Z</time>
      </trkpt>
      <trkpt lat="42.72931" lon="-0.30955">
        <ele>1140.18</ele>
        <time>2024-10-03T07:06:07.999Z</time>
      </trkpt>
      <trkpt lat="42.72941" lon="-0.30953">
        <ele>1140.4</ele>
        <time>2024-10-03T07:06:13.999Z</time>
      </trkpt>
      <trkpt lat="42.7295" lon="-0.3095">
        <ele>1140.66</ele>
        <time>2024-10-03T07:06:19.999Z</time>
      </trkpt>
      <trkpt lat="42.72959" lon="-0.30947">
        <ele>1140.97</ele>
        <time>2024-10-03T07:06:25.999Z</time>
      </trkpt>
      <trkpt lat="42.7297" lon="-0.30944">
        <ele>1141.34</ele>
        <time>2024-10-03T07:06:31.999Z</time>
      </trkpt>
      <trkpt lat="42.7298" lon="-0.30943">
        <ele>1141.77</ele>
        <time>2024-10-03T07:06:37.999Z</time>
      </trkpt>
      <trkpt lat="42.7299" lon="-0.30944">
        <ele>1142.17</ele>
        <time>2024-10-03T07:06:43.999Z</time>
      </trkpt>
      <trkpt lat="42.73" lon="-0.30947">
        <ele>1142.54</ele>
        <time>2024-10-03T07:06:49.999Z</time>
      </trkpt>
      <trkpt lat="42.7301" lon="-0.3095">
        <ele>1142.9</ele>
        <time>2024-10-03T07:06:55.999Z</time>
      </trkpt>
      <trkpt lat="42.73018" lon="-0.30955">
        <ele>1143.23</ele>
        <time>2024-10-03T07:07:01.999Z</time>
      </trkpt>
      <trkpt lat="42.73026" lon="-0.30961">
        <ele>1143.56</ele>
        <time>2024-10-03T07:07:07.999Z</time>
      </trkpt>
      <trkpt lat="42.73035" lon="-0.30969">
        <ele>1143.9</ele>
        <time>2024-10-03T07:07:13.999Z</time>
      </trkpt>
      <trkpt lat="42.73043" lon="-0.30978">
        <ele>1144.26</ele>
        <time>2024-10-03T07:07:19.999Z</time>
      </trkpt>
      <trkpt lat="42.73051" lon="-0.30986">
        <ele>1144.55</ele>
        <time>2024-10-03T07:07:24.999Z</time>
      </trkpt>
      <trkpt lat="42.73058" lon="-0.30995">
        <ele>1144.92</ele>
        <time>2024-10-03T07:07:29.999Z</time>
      </trkpt>
      <trkpt lat="42.73067" lon="-0.31004">
        <ele>1145.46</ele>
        <time>2024-10-03T07:07:35.999Z</time>
      </trkpt>
      <trkpt lat="42.73075" lon="-0.31011">
        <ele>1145.97</ele>
        <time>2024-10-03T07:07:40.999Z</time>
      </trkpt>
      <trkpt lat="42.73083" lon="-0.31019">
        <ele>1146.51</ele>
        <time>2024-10-03T07:07:45.999Z</time>
      </trkpt>
      <trkpt lat="42.73091" lon="-0.31027">
        <ele>1147.07</ele>
        <time>2024-10-03T07:07:50.999Z</time>
      </trkpt>
      <trkpt lat="42.73099" lon="-0.31034">
        <ele>1147.66</ele>
        <time>2024-10-03T07:07:55.999Z</time>
      </trkpt>
      <trkpt lat="42.73107" lon="-0.31041">
        <ele>1148.26</ele>
        <time>2024-10-03T07:08:00.999Z</time>
      </trkpt>
      <trkpt lat="42.73116" lon="-0.31047">
        <ele>1148.86</ele>
        <time>2024-10-03T07:08:05.999Z</time>
      </trkpt>
      <trkpt lat="42.73125" lon="-0.31055">
        <ele>1149.47</ele>
        <time>2024-10-03T07:08:10.999Z</time>
      </trkpt>
      <trkpt lat="42.73135" lon="-0.31062">
        <ele>1150.06</ele>
        <time>2024-10-03T07:08:15.999Z</time>
      </trkpt>
      <trkpt lat="42.73146" lon="-0.3107">
        <ele>1150.64</ele>
        <time>2024-10-03T07:08:20.999Z</time>
      </trkpt>
      <trkpt lat="42.73157" lon="-0.31078">
        <ele>1151.2</ele>
        <time>2024-10-03T07:08:25.999Z</time>
      </trkpt>
      <trkpt lat="42.7317" lon="-0.31083">
        <ele>1151.76</ele>
        <time>2024-10-03T07:08:30.999Z</time>
      </trkpt>
      <trkpt lat="42.73181" lon="-0.31089">
        <ele>1152.28</ele>
        <time>2024-10-03T07:08:35.999Z</time>
      </trkpt>
      <trkpt lat="42.73193" lon="-0.31094">
        <ele>1152.79</ele>
        <time>2024-10-03T07:08:40.999Z</time>
      </trkpt>
      <trkpt lat="42.73207" lon="-0.31102">
        <ele>1153.26</ele>
        <time>2024-10-03T07:08:45.999Z</time>
      </trkpt>
      <trkpt lat="42.73219" lon="-0.31108">
        <ele>1153.71</ele>
        <time>2024-10-03T07:08:50.999Z</time>
      </trkpt>
      <trkpt lat="42.73229" lon="-0.31118">
        <ele>1154.12</ele>
        <time>2024-10-03T07:08:55.999Z</time>
      </trkpt>
      <trkpt lat="42.73238" lon="-0.3113">
        <ele>1154.51</ele>
        <time>2024-10-03T07:09:00.999Z</time>
      </trkpt>
      <trkpt lat="42.73249" lon="-0.31139">
        <ele>1154.89</ele>
        <time>2024-10-03T07:09:05.999Z</time>
      </trkpt>
      <trkpt lat="42.73261" lon="-0.31147">
        <ele>1155.28</ele>
        <time>2024-10-03T07:09:10.999Z</time>
      </trkpt>
      <trkpt lat="42.73272" lon="-0.31157">
        <ele>1155.68</ele>
        <time>2024-10-03T07:09:15.999Z</time>
      </trkpt>
      <trkpt lat="42.73283" lon="-0.31167">
        <ele>1156.09</ele>
        <time>2024-10-03T07:09:20.999Z</time>
      </trkpt>
      <trkpt lat="42.73293" lon="-0.31175">
        <ele>1156.52</ele>
        <time>2024-10-03T07:09:25.999Z</time>
      </trkpt>
      <trkpt lat="42.73304" lon="-0.31183">
        <ele>1156.96</ele>
        <time>2024-10-03T07:09:30.999Z</time>
      </trkpt>
      <trkpt lat="42.73317" lon="-0.31189">
        <ele>1157.39</ele>
        <time>2024-10-03T07:09:35.999Z</time>
      </trkpt>
      <trkpt lat="42.7333" lon="-0.31195">
        <ele>1157.8</ele>
        <time>2024-10-03T07:09:40.999Z</time>
      </trkpt>
      <trkpt lat="42.73344" lon="-0.31199">
        <ele>1158.17</ele>
        <time>2024-10-03T07:09:45.999Z</time>
      </trkpt>
      <trkpt lat="42.7336" lon="-0.31206">
        <ele>1158.52</ele>
        <time>2024-10-03T07:09:50.999Z</time>
      </trkpt>
      <trkpt lat="42.73375" lon="-0.3121">
        <ele>1158.84</ele>
        <time>2024-10-03T07:09:55.999Z</time>
      </trkpt>
      <trkpt lat="42.73393" lon="-0.31213">
        <ele>1159.14</ele>
        <time>2024-10-03T07:10:00.999Z</time>
      </trkpt>
      <trkpt lat="42.73412" lon="-0.31214">
        <ele>1159.48</ele>
        <time>2024-10-03T07:10:05.999Z</time>
      </trkpt>
      <trkpt lat="42.73429" lon="-0.31213">
        <ele>1161.43</ele>
        <time>2024-10-03T07:10:10.999Z</time>
      </trkpt>
      <trkpt lat="42.73445" lon="-0.31211">
        <ele>1161.87</ele>
        <time>2024-10-03T07:10:15.999Z</time>
      </trkpt>
      <trkpt lat="42.73459" lon="-0.31209">
        <ele>1162.16</ele>
        <time>2024-10-03T07:10:20.999Z</time>
      </trkpt>
      <trkpt lat="42.73475" lon="-0.31206">
        <ele>1162.54</ele>
        <time>2024-10-03T07:10:26.000Z</time>
      </trkpt>
      <trkpt lat="42.7349" lon="-0.31204">
        <ele>1162.98</ele>
        <time>2024-10-03T07:10:31.000Z</time>
      </trkpt>
      <trkpt lat="42.73507" lon="-0.31206">
        <ele>1163.45</ele>
        <time>2024-10-03T07:10:36.000Z</time>
      </trkpt>
      <trkpt lat="42.73528" lon="-0.31214">
        <ele>1164.62</ele>
        <time>2024-10-03T07:10:41.000Z</time>
      </trkpt>
      <trkpt lat="42.73545" lon="-0.31227">
        <ele>1167.38</ele>
        <time>2024-10-03T07:10:46.000Z</time>
      </trkpt>
      <trkpt lat="42.73558" lon="-0.31247">
        <ele>1168.88</ele>
        <time>2024-10-03T07:10:51.000Z</time>
      </trkpt>
      <trkpt lat="42.7357" lon="-0.31274">
        <ele>1169.85</ele>
        <time>2024-10-03T07:10:56.000Z</time>
      </trkpt>
      <trkpt lat="42.73575" lon="-0.313">
        <ele>1170.27</ele>
        <time>2024-10-03T07:11:01.000Z</time>
      </trkpt>
      <trkpt lat="42.73578" lon="-0.31318">
        <ele>1170.38</ele>
        <time>2024-10-03T07:11:06.000Z</time>
      </trkpt>
      <trkpt lat="42.73581" lon="-0.3133">
        <ele>1170.56</ele>
        <time>2024-10-03T07:11:11.000Z</time>
      </trkpt>
      <trkpt lat="42.73585" lon="-0.31343">
        <ele>1170.79</ele>
        <time>2024-10-03T07:11:16.000Z</time>
      </trkpt>
      <trkpt lat="42.73587" lon="-0.31355">
        <ele>1171.09</ele>
        <time>2024-10-03T07:11:21.000Z</time>
      </trkpt>
      <trkpt lat="42.73591" lon="-0.31367">
        <ele>1171.45</ele>
        <time>2024-10-03T07:11:26.000Z</time>
      </trkpt>
      <trkpt lat="42.73594" lon="-0.31379">
        <ele>1171.86</ele>
        <time>2024-10-03T07:11:31.000Z</time>
      </trkpt>
      <trkpt lat="42.73597" lon="-0.31392">
        <ele>1172.31</ele>
        <time>2024-10-03T07:11:36.000Z</time>
      </trkpt>
      <trkpt lat="42.73601" lon="-0.31404">
        <ele>1172.8</ele>
        <time>2024-10-03T07:11:41.000Z</time>
      </trkpt>
      <trkpt lat="42.73605" lon="-0.31416">
        <ele>1173.42</ele>
        <time>2024-10-03T07:11:47.000Z</time>
      </trkpt>
      <trkpt lat="42.7361" lon="-0.31429">
        <ele>1174.04</ele>
        <time>2024-10-03T07:11:53.000Z</time>
      </trkpt>
      <trkpt lat="42.73615" lon="-0.31442">
        <ele>1174.62</ele>
        <time>2024-10-03T07:11:59.000Z</time>
      </trkpt>
      <trkpt lat="42.7362" lon="-0.31454">
        <ele>1175.08</ele>
        <time>2024-10-03T07:12:04.000Z</time>
      </trkpt>
      <trkpt lat="42.73625" lon="-0.31466">
        <ele>1175.61</ele>
        <time>2024-10-03T07:12:10.000Z</time>
      </trkpt>
      <trkpt lat="42.7363" lon="-0.31477">
        <ele>1176.09</ele>
        <time>2024-10-03T07:12:16.000Z</time>
      </trkpt>
      <trkpt lat="42.73635" lon="-0.31487">
        <ele>1176.55</ele>
        <time>2024-10-03T07:12:22.000Z</time>
      </trkpt>
      <trkpt lat="42.73642" lon="-0.31497">
        <ele>1176.97</ele>
        <time>2024-10-03T07:12:28.000Z</time>
      </trkpt>
      <trkpt lat="42.73648" lon="-0.31507">
        <ele>1177.37</ele>
        <time>2024-10-03T07:12:34.000Z</time>
      </trkpt>
      <trkpt lat="42.73654" lon="-0.31517">
        <ele>1177.75</ele>
        <time>2024-10-03T07:12:40.000Z</time>
      </trkpt>
      <trkpt lat="42.73661" lon="-0.31527">
        <ele>1178.1</ele>
        <time>2024-10-03T07:12:46.000Z</time>
      </trkpt>
      <trkpt lat="42.73668" lon="-0.31537">
        <ele>1178.43</ele>
        <time>2024-10-03T07:12:52.000Z</time>
      </trkpt>
      <trkpt lat="42.73674" lon="-0.31548">
        <ele>1178.72</ele>
        <time>2024-10-03T07:12:58.000Z</time>
      </trkpt>
      <trkpt lat="42.7368" lon="-0.31559">
        <ele>1179</ele>
        <time>2024-10-03T07:13:04.000Z</time>
      </trkpt>
      <trkpt lat="42.73686" lon="-0.3157">
        <ele>1179.26</ele>
        <time>2024-10-03T07:13:10.000Z</time>
      </trkpt>
      <trkpt lat="42.73692" lon="-0.3158">
        <ele>1179.48</ele>
        <time>2024-10-03T07:13:15.000Z</time>
      </trkpt>
      <trkpt lat="42.73698" lon="-0.3159">
        <ele>1179.68</ele>
        <time>2024-10-03T07:13:20.000Z</time>
      </trkpt>
      <trkpt lat="42.73704" lon="-0.316">
        <ele>1179.89</ele>
        <time>2024-10-03T07:13:25.000Z</time>
      </trkpt>
      <trkpt lat="42.73712" lon="-0.31612">
        <ele>1180.08</ele>
        <time>2024-10-03T07:13:30.000Z</time>
      </trkpt>
      <trkpt lat="42.73719" lon="-0.3163">
        <ele>1180.26</ele>
        <time>2024-10-03T07:13:35.000Z</time>
      </trkpt>
      <trkpt lat="42.73723" lon="-0.31649">
        <ele>1180.42</ele>
        <time>2024-10-03T07:13:40.000Z</time>
      </trkpt>
      <trkpt lat="42.73727" lon="-0.31673">
        <ele>1181.01</ele>
        <time>2024-10-03T07:13:45.000Z</time>
      </trkpt>
      <trkpt lat="42.73731" lon="-0.31702">
        <ele>1181.8</ele>
        <time>2024-10-03T07:13:50.000Z</time>
      </trkpt>
      <trkpt lat="42.73737" lon="-0.31733">
        <ele>1182.22</ele>
        <time>2024-10-03T07:13:55.000Z</time>
      </trkpt>
      <trkpt lat="42.73747" lon="-0.31765">
        <ele>1182.35</ele>
        <time>2024-10-03T07:14:00.000Z</time>
      </trkpt>
      <trkpt lat="42.73764" lon="-0.31791">
        <ele>1182.4</ele>
        <time>2024-10-03T07:14:05.000Z</time>
      </trkpt>
      <trkpt lat="42.73783" lon="-0.31805">
        <ele>1182.48</ele>
        <time>2024-10-03T07:14:10.000Z</time>
      </trkpt>
      <trkpt lat="42.73801" lon="-0.31808">
        <ele>1182.51</ele>
        <time>2024-10-03T07:14:15.000Z</time>
      </trkpt>
      <trkpt lat="42.73817" lon="-0.31806">
        <ele>1182.53</ele>
        <time>2024-10-03T07:14:20.000Z</time>
      </trkpt>
      <trkpt lat="42.7383" lon="-0.31802">
        <ele>1182.55</ele>
        <time>2024-10-03T07:14:25.000Z</time>
      </trkpt>
      <trkpt lat="42.74279" lon="-0.31543">
        <ele>1183.31</ele>
        <time>2024-10-03T07:19:00.000Z</time>
      </trkpt>
      <trkpt lat="42.74288" lon="-0.31544">
        <ele>1184.06</ele>
        <time>2024-10-03T07:19:08.000Z</time>
      </trkpt>
      <trkpt lat="42.74302" lon="-0.31524">
        <ele>1184.86</ele>
        <time>2024-10-03T07:19:13.000Z</time>
      </trkpt>
      <trkpt lat="42.74309" lon="-0.31533">
        <ele>1186.41</ele>
        <time>2024-10-03T07:19:19.000Z</time>
      </trkpt>
      <trkpt lat="42.74317" lon="-0.3154">
        <ele>1188.53</ele>
        <time>2024-10-03T07:19:24.000Z</time>
      </trkpt>
      <trkpt lat="42.74326" lon="-0.31548">
        <ele>1191.04</ele>
        <time>2024-10-03T07:19:29.000Z</time>
      </trkpt>
      <trkpt lat="42.74333" lon="-0.31554">
        <ele>1193.7</ele>
        <time>2024-10-03T07:19:34.000Z</time>
      </trkpt>
      <trkpt lat="42.74341" lon="-0.31561">
        <ele>1197.04</ele>
        <time>2024-10-03T07:19:40.000Z</time>
      </trkpt>
      <trkpt lat="42.7435" lon="-0.31564">
        <ele>1200.41</ele>
        <time>2024-10-03T07:19:46.000Z</time>
      </trkpt>
      <trkpt lat="42.74359" lon="-0.31569">
        <ele>1203.19</ele>
        <time>2024-10-03T07:19:51.000Z</time>
      </trkpt>
      <trkpt lat="42.74368" lon="-0.31573">
        <ele>1206.32</ele>
        <time>2024-10-03T07:19:57.000Z</time>
      </trkpt>
      <trkpt lat="42.74378" lon="-0.31576">
        <ele>1209.65</ele>
        <time>2024-10-03T07:20:04.000Z</time>
      </trkpt>
      <trkpt lat="42.74388" lon="-0.31577">
        <ele>1212.21</ele>
        <time>2024-10-03T07:20:10.000Z</time>
      </trkpt>
      <trkpt lat="42.74398" lon="-0.31578">
        <ele>1214.61</ele>
        <time>2024-10-03T07:20:16.000Z</time>
      </trkpt>
      <trkpt lat="42.74409" lon="-0.31578">
        <ele>1216.88</ele>
        <time>2024-10-03T07:20:22.000Z</time>
      </trkpt>
      <trkpt lat="42.74419" lon="-0.31578">
        <ele>1219.42</ele>
        <time>2024-10-03T07:20:29.000Z</time>
      </trkpt>
      <trkpt lat="42.74429" lon="-0.31578">
        <ele>1221.5</ele>
        <time>2024-10-03T07:20:35.000Z</time>
      </trkpt>
      <trkpt lat="42.7444" lon="-0.31579">
        <ele>1223.5</ele>
        <time>2024-10-03T07:20:41.000Z</time>
      </trkpt>
      <trkpt lat="42.74449" lon="-0.31579">
        <ele>1225.43</ele>
        <time>2024-10-03T07:20:47.000Z</time>
      </trkpt>
      <trkpt lat="42.74458" lon="-0.31578">
        <ele>1227.79</ele>
        <time>2024-10-03T07:20:54.000Z</time>
      </trkpt>
      <trkpt lat="42.74469" lon="-0.31577">
        <ele>1230.18</ele>
        <time>2024-10-03T07:21:01.000Z</time>
      </trkpt>
      <trkpt lat="42.74478" lon="-0.31575">
        <ele>1232.46</ele>
        <time>2024-10-03T07:21:08.000Z</time>
      </trkpt>
      <trkpt lat="42.74487" lon="-0.31571">
        <ele>1234.35</ele>
        <time>2024-10-03T07:21:14.000Z</time>
      </trkpt>
      <trkpt lat="42.74497" lon="-0.31574">
        <ele>1236.51</ele>
        <time>2024-10-03T07:21:21.000Z</time>
      </trkpt>
      <trkpt lat="42.74507" lon="-0.31575">
        <ele>1238.5</ele>
        <time>2024-10-03T07:21:28.000Z</time>
      </trkpt>
      <trkpt lat="42.74516" lon="-0.31577">
        <ele>1240.06</ele>
        <time>2024-10-03T07:21:34.000Z</time>
      </trkpt>
      <trkpt lat="42.74525" lon="-0.3158">
        <ele>1241.68</ele>
        <time>2024-10-03T07:21:41.000Z</time>
      </trkpt>
      <trkpt lat="42.74534" lon="-0.31582">
        <ele>1242.9</ele>
        <time>2024-10-03T07:21:47.000Z</time>
      </trkpt>
      <trkpt lat="42.74542" lon="-0.31589">
        <ele>1244.04</ele>
        <time>2024-10-03T07:21:53.000Z</time>
      </trkpt>
      <trkpt lat="42.74551" lon="-0.31596">
        <ele>1245.14</ele>
        <time>2024-10-03T07:21:59.000Z</time>
      </trkpt>
      <trkpt lat="42.74559" lon="-0.31604">
        <ele>1246.22</ele>
        <time>2024-10-03T07:22:05.000Z</time>
      </trkpt>
      <trkpt lat="42.74568" lon="-0.31612">
        <ele>1247.47</ele>
        <time>2024-10-03T07:22:12.000Z</time>
      </trkpt>
      <trkpt lat="42.74576" lon="-0.31619">
        <ele>1248.38</ele>
        <time>2024-10-03T07:22:17.000Z</time>
      </trkpt>
      <trkpt lat="42.74584" lon="-0.31625">
        <ele>1249.46</ele>
        <time>2024-10-03T07:22:23.000Z</time>
      </trkpt>
      <trkpt lat="42.74593" lon="-0.31633">
        <ele>1250.49</ele>
        <time>2024-10-03T07:22:29.000Z</time>
      </trkpt>
      <trkpt lat="42.74603" lon="-0.31639">
        <ele>1251.49</ele>
        <time>2024-10-03T07:22:35.000Z</time>
      </trkpt>
      <trkpt lat="42.74612" lon="-0.31644">
        <ele>1252.6</ele>
        <time>2024-10-03T07:22:42.000Z</time>
      </trkpt>
      <trkpt lat="42.74621" lon="-0.31647">
        <ele>1253.47</ele>
        <time>2024-10-03T07:22:48.000Z</time>
      </trkpt>
      <trkpt lat="42.74631" lon="-0.31653">
        <ele>1254.15</ele>
        <time>2024-10-03T07:22:53.000Z</time>
      </trkpt>
      <trkpt lat="42.74642" lon="-0.31658">
        <ele>1254.78</ele>
        <time>2024-10-03T07:22:58.000Z</time>
      </trkpt>
      <trkpt lat="42.7465" lon="-0.31665">
        <ele>1255.61</ele>
        <time>2024-10-03T07:23:05.000Z</time>
      </trkpt>
      <trkpt lat="42.74657" lon="-0.31674">
        <ele>1256.19</ele>
        <time>2024-10-03T07:23:10.000Z</time>
      </trkpt>
      <trkpt lat="42.74667" lon="-0.31681">
        <ele>1257</ele>
        <time>2024-10-03T07:23:17.000Z</time>
      </trkpt>
      <trkpt lat="42.74676" lon="-0.31688">
        <ele>1257.68</ele>
        <time>2024-10-03T07:23:23.000Z</time>
      </trkpt>
      <trkpt lat="42.74685" lon="-0.31696">
        <ele>1258.34</ele>
        <time>2024-10-03T07:23:29.000Z</time>
      </trkpt>
      <trkpt lat="42.74694" lon="-0.31702">
        <ele>1258.99</ele>
        <time>2024-10-03T07:23:34.999Z</time>
      </trkpt>
      <trkpt lat="42.74703" lon="-0.31712">
        <ele>1259.51</ele>
        <time>2024-10-03T07:23:39.999Z</time>
      </trkpt>
      <trkpt lat="42.74711" lon="-0.31719">
        <ele>1260.03</ele>
        <time>2024-10-03T07:23:44.999Z</time>
      </trkpt>
      <trkpt lat="42.7472" lon="-0.31726">
        <ele>1260.62</ele>
        <time>2024-10-03T07:23:50.999Z</time>
      </trkpt>
      <trkpt lat="42.74729" lon="-0.31731">
        <ele>1261.19</ele>
        <time>2024-10-03T07:23:56.999Z</time>
      </trkpt>
      <trkpt lat="42.74739" lon="-0.31735">
        <ele>1261.74</ele>
        <time>2024-10-03T07:24:02.999Z</time>
      </trkpt>
      <trkpt lat="42.74749" lon="-0.31736">
        <ele>1262.27</ele>
        <time>2024-10-03T07:24:08.999Z</time>
      </trkpt>
      <trkpt lat="42.74758" lon="-0.31735">
        <ele>1262.78</ele>
        <time>2024-10-03T07:24:14.999Z</time>
      </trkpt>
      <trkpt lat="42.74768" lon="-0.31733">
        <ele>1263.26</ele>
        <time>2024-10-03T07:24:20.999Z</time>
      </trkpt>
      <trkpt lat="42.74779" lon="-0.31729">
        <ele>1263.72</ele>
        <time>2024-10-03T07:24:26.999Z</time>
      </trkpt>
      <trkpt lat="42.74789" lon="-0.31726">
        <ele>1264.16</ele>
        <time>2024-10-03T07:24:32.999Z</time>
      </trkpt>
      <trkpt lat="42.74799" lon="-0.31721">
        <ele>1264.59</ele>
        <time>2024-10-03T07:24:38.999Z</time>
      </trkpt>
      <trkpt lat="42.74808" lon="-0.31717">
        <ele>1265</ele>
        <time>2024-10-03T07:24:44.999Z</time>
      </trkpt>
      <trkpt lat="42.74817" lon="-0.31713">
        <ele>1265.39</ele>
        <time>2024-10-03T07:24:50.999Z</time>
      </trkpt>
      <trkpt lat="42.74825" lon="-0.31707">
        <ele>1265.77</ele>
        <time>2024-10-03T07:24:56.999Z</time>
      </trkpt>
      <trkpt lat="42.74834" lon="-0.31702">
        <ele>1266.14</ele>
        <time>2024-10-03T07:25:02.999Z</time>
      </trkpt>
      <trkpt lat="42.74842" lon="-0.31695">
        <ele>1266.51</ele>
        <time>2024-10-03T07:25:08.999Z</time>
      </trkpt>
      <trkpt lat="42.7485" lon="-0.31688">
        <ele>1266.87</ele>
        <time>2024-10-03T07:25:14.999Z</time>
      </trkpt>
      <trkpt lat="42.74859" lon="-0.3168">
        <ele>1267.21</ele>
        <time>2024-10-03T07:25:20.999Z</time>
      </trkpt>
      <trkpt lat="42.74867" lon="-0.31672">
        <ele>1267.55</ele>
        <time>2024-10-03T07:25:26.999Z</time>
      </trkpt>
      <trkpt lat="42.74875" lon="-0.31664">
        <ele>1267.83</ele>
        <time>2024-10-03T07:25:31.999Z</time>
      </trkpt>
      <trkpt lat="42.74883" lon="-0.31658">
        <ele>1268.13</ele>
        <time>2024-10-03T07:25:36.999Z</time>
      </trkpt>
      <trkpt lat="42.74891" lon="-0.3165">
        <ele>1268.51</ele>
        <time>2024-10-03T07:25:42.999Z</time>
      </trkpt>
      <trkpt lat="42.749" lon="-0.31641">
        <ele>1268.91</ele>
        <time>2024-10-03T07:25:48.999Z</time>
      </trkpt>
      <trkpt lat="42.74909" lon="-0.31633">
        <ele>1269.33</ele>
        <time>2024-10-03T07:25:54.999Z</time>
      </trkpt>
      <trkpt lat="42.74917" lon="-0.31627">
        <ele>1269.76</ele>
        <time>2024-10-03T07:26:00.999Z</time>
      </trkpt>
      <trkpt lat="42.74926" lon="-0.3162">
        <ele>1270.12</ele>
        <time>2024-10-03T07:26:05.999Z</time>
      </trkpt>
      <trkpt lat="42.74934" lon="-0.31611">
        <ele>1270.56</ele>
        <time>2024-10-03T07:26:11.999Z</time>
      </trkpt>
      <trkpt lat="42.74943" lon="-0.31605">
        <ele>1271.12</ele>
        <time>2024-10-03T07:26:18.999Z</time>
      </trkpt>
      <trkpt lat="42.74952" lon="-0.316">
        <ele>1271.68</ele>
        <time>2024-10-03T07:26:24.999Z</time>
      </trkpt>
      <trkpt lat="42.74961" lon="-0.31594">
        <ele>1272.25</ele>
        <time>2024-10-03T07:26:30.999Z</time>
      </trkpt>
      <trkpt lat="42.74971" lon="-0.31587">
        <ele>1272.85</ele>
        <time>2024-10-03T07:26:36.999Z</time>
      </trkpt>
      <trkpt lat="42.74981" lon="-0.31584">
        <ele>1273.47</ele>
        <time>2024-10-03T07:26:42.999Z</time>
      </trkpt>
      <trkpt lat="42.74991" lon="-0.31581">
        <ele>1274.13</ele>
        <time>2024-10-03T07:26:48.999Z</time>
      </trkpt>
      <trkpt lat="42.74998" lon="-0.31573">
        <ele>1274.9</ele>
        <time>2024-10-03T07:26:55.999Z</time>
      </trkpt>
      <trkpt lat="42.75006" lon="-0.31565">
        <ele>1276.15</ele>
        <time>2024-10-03T07:27:17.999Z</time>
      </trkpt>
      <trkpt lat="42.75014" lon="-0.31547">
        <ele>1276.77</ele>
        <time>2024-10-03T07:27:22.999Z</time>
      </trkpt>
      <trkpt lat="42.7502" lon="-0.31522">
        <ele>1279.18</ele>
        <time>2024-10-03T07:27:27.999Z</time>
      </trkpt>
      <trkpt lat="42.75025" lon="-0.31495">
        <ele>1282.54</ele>
        <time>2024-10-03T07:27:32.999Z</time>
      </trkpt>
      <trkpt lat="42.75025" lon="-0.31464">
        <ele>1284.06</ele>
        <time>2024-10-03T07:27:37.999Z</time>
      </trkpt>
      <trkpt lat="42.7502" lon="-0.31435">
        <ele>1284.84</ele>
        <time>2024-10-03T07:27:42.999Z</time>
      </trkpt>
      <trkpt lat="42.7501" lon="-0.31407">
        <ele>1285.33</ele>
        <time>2024-10-03T07:27:47.999Z</time>
      </trkpt>
      <trkpt lat="42.74996" lon="-0.31381">
        <ele>1285.76</ele>
        <time>2024-10-03T07:27:52.999Z</time>
      </trkpt>
      <trkpt lat="42.74986" lon="-0.31352">
        <ele>1286.11</ele>
        <time>2024-10-03T07:27:57.999Z</time>
      </trkpt>
      <trkpt lat="42.74992" lon="-0.31324">
        <ele>1286.33</ele>
        <time>2024-10-03T07:28:02.999Z</time>
      </trkpt>
      <trkpt lat="42.74994" lon="-0.31292">
        <ele>1286.53</ele>
        <time>2024-10-03T07:28:07.999Z</time>
      </trkpt>
      <trkpt lat="42.74992" lon="-0.31263">
        <ele>1286.7</ele>
        <time>2024-10-03T07:28:12.999Z</time>
      </trkpt>
      <trkpt lat="42.74991" lon="-0.31234">
        <ele>1286.87</ele>
        <time>2024-10-03T07:28:17.999Z</time>
      </trkpt>
      <trkpt lat="42.74987" lon="-0.31208">
        <ele>1286.95</ele>
        <time>2024-10-03T07:28:22.999Z</time>
      </trkpt>
      <trkpt lat="42.7498" lon="-0.31185">
        <ele>1287.01</ele>
        <time>2024-10-03T07:28:27.999Z</time>
      </trkpt>
      <trkpt lat="42.74972" lon="-0.31158">
        <ele>1287.07</ele>
        <time>2024-10-03T07:28:32.999Z</time>
      </trkpt>
      <trkpt lat="42.74965" lon="-0.31131">
        <ele>1287.16</ele>
        <time>2024-10-03T07:28:37.999Z</time>
      </trkpt>
      <trkpt lat="42.74957" lon="-0.31105">
        <ele>1287.34</ele>
        <time>2024-10-03T07:28:42.999Z</time>
      </trkpt>
      <trkpt lat="42.7495" lon="-0.31077">
        <ele>1287.57</ele>
        <time>2024-10-03T07:28:47.999Z</time>
      </trkpt>
      <trkpt lat="42.74939" lon="-0.31048">
        <ele>1287.8</ele>
        <time>2024-10-03T07:28:52.999Z</time>
      </trkpt>
      <trkpt lat="42.74921" lon="-0.31026">
        <ele>1288.05</ele>
        <time>2024-10-03T07:28:57.999Z</time>
      </trkpt>
      <trkpt lat="42.74904" lon="-0.30999">
        <ele>1288.31</ele>
        <time>2024-10-03T07:29:02.999Z</time>
      </trkpt>
      <trkpt lat="42.74893" lon="-0.3098">
        <ele>1288.4</ele>
        <time>2024-10-03T07:29:07.999Z</time>
      </trkpt>
      <trkpt lat="42.74885" lon="-0.3097">
        <ele>1288.45</ele>
        <time>2024-10-03T07:29:12.999Z</time>
      </trkpt>
      <trkpt lat="42.74878" lon="-0.30961">
        <ele>1288.52</ele>
        <time>2024-10-03T07:29:18.999Z</time>
      </trkpt>
      <trkpt lat="42.74871" lon="-0.30954">
        <ele>1288.6</ele>
        <time>2024-10-03T07:29:24.999Z</time>
      </trkpt>
      <trkpt lat="42.74863" lon="-0.30947">
        <ele>1288.68</ele>
        <time>2024-10-03T07:29:30.999Z</time>
      </trkpt>
      <trkpt lat="42.74854" lon="-0.3094">
        <ele>1288.76</ele>
        <time>2024-10-03T07:29:36.999Z</time>
      </trkpt>
      <trkpt lat="42.74847" lon="-0.30933">
        <ele>1288.84</ele>
        <time>2024-10-03T07:29:42.999Z</time>
      </trkpt>
      <trkpt lat="42.74842" lon="-0.30921">
        <ele>1288.92</ele>
        <time>2024-10-03T07:29:48.999Z</time>
      </trkpt>
      <trkpt lat="42.74844" lon="-0.30909">
        <ele>1288.98</ele>
        <time>2024-10-03T07:29:53.999Z</time>
      </trkpt>
      <trkpt lat="42.74852" lon="-0.309">
        <ele>1289.04</ele>
        <time>2024-10-03T07:29:58.999Z</time>
      </trkpt>
      <trkpt lat="42.74861" lon="-0.30896">
        <ele>1289.12</ele>
        <time>2024-10-03T07:30:04.999Z</time>
      </trkpt>
      <trkpt lat="42.74871" lon="-0.30897">
        <ele>1289.21</ele>
        <time>2024-10-03T07:30:10.999Z</time>
      </trkpt>
      <trkpt lat="42.7488" lon="-0.30898">
        <ele>1289.29</ele>
        <time>2024-10-03T07:30:16.999Z</time>
      </trkpt>
      <trkpt lat="42.7489" lon="-0.30899">
        <ele>1289.35</ele>
        <time>2024-10-03T07:30:21.999Z</time>
      </trkpt>
      <trkpt lat="42.74901" lon="-0.30899">
        <ele>1289.41</ele>
        <time>2024-10-03T07:30:26.999Z</time>
      </trkpt>
      <trkpt lat="42.74912" lon="-0.30897">
        <ele>1289.48</ele>
        <time>2024-10-03T07:30:31.999Z</time>
      </trkpt>
      <trkpt lat="42.74925" lon="-0.30898">
        <ele>1289.56</ele>
        <time>2024-10-03T07:30:36.999Z</time>
      </trkpt>
      <trkpt lat="42.74941" lon="-0.30902">
        <ele>1289.66</ele>
        <time>2024-10-03T07:30:41.999Z</time>
      </trkpt>
      <trkpt lat="42.74955" lon="-0.30906">
        <ele>1289.76</ele>
        <time>2024-10-03T07:30:46.999Z</time>
      </trkpt>
      <trkpt lat="42.74971" lon="-0.30903">
        <ele>1289.86</ele>
        <time>2024-10-03T07:30:51.999Z</time>
      </trkpt>
      <trkpt lat="42.74983" lon="-0.309">
        <ele>1289.99</ele>
        <time>2024-10-03T07:30:56.999Z</time>
      </trkpt>
      <trkpt lat="42.74994" lon="-0.309">
        <ele>1290.16</ele>
        <time>2024-10-03T07:31:02.999Z</time>
      </trkpt>
      <trkpt lat="42.75003" lon="-0.30903">
        <ele>1290.36</ele>
        <time>2024-10-03T07:31:08.999Z</time>
      </trkpt>
      <trkpt lat="42.75011" lon="-0.30906">
        <ele>1290.59</ele>
        <time>2024-10-03T07:31:14.999Z</time>
      </trkpt>
      <trkpt lat="42.7502" lon="-0.30913">
        <ele>1290.86</ele>
        <time>2024-10-03T07:31:20.999Z</time>
      </trkpt>
      <trkpt lat="42.7503" lon="-0.30917">
        <ele>1291.16</ele>
        <time>2024-10-03T07:31:25.999Z</time>
      </trkpt>
      <trkpt lat="42.75039" lon="-0.30922">
        <ele>1291.55</ele>
        <time>2024-10-03T07:31:31.999Z</time>
      </trkpt>
      <trkpt lat="42.75049" lon="-0.30928">
        <ele>1292</ele>
        <time>2024-10-03T07:31:38.999Z</time>
      </trkpt>
      <trkpt lat="42.75058" lon="-0.30925">
        <ele>1292.48</ele>
        <time>2024-10-03T07:31:46.999Z</time>
      </trkpt>
      <trkpt lat="42.75067" lon="-0.30927">
        <ele>1293.01</ele>
        <time>2024-10-03T07:31:56.999Z</time>
      </trkpt>
      <trkpt lat="42.75078" lon="-0.3093">
        <ele>1295.35</ele>
        <time>2024-10-03T07:35:31.999Z</time>
      </trkpt>
      <trkpt lat="42.75091" lon="-0.30936">
        <ele>1295.59</ele>
        <time>2024-10-03T07:35:36.999Z</time>
      </trkpt>
      <trkpt lat="42.75109" lon="-0.30941">
        <ele>1295.81</ele>
        <time>2024-10-03T07:35:41.999Z</time>
      </trkpt>
      <trkpt lat="42.75128" lon="-0.30949">
        <ele>1296.53</ele>
        <time>2024-10-03T07:35:46.999Z</time>
      </trkpt>
      <trkpt lat="42.75147" lon="-0.30958">
        <ele>1297.43</ele>
        <time>2024-10-03T07:35:51.999Z</time>
      </trkpt>
      <trkpt lat="42.75167" lon="-0.30968">
        <ele>1297.73</ele>
        <time>2024-10-03T07:35:56.999Z</time>
      </trkpt>
      <trkpt lat="42.75188" lon="-0.30978">
        <ele>1297.88</ele>
        <time>2024-10-03T07:36:01.999Z</time>
      </trkpt>
      <trkpt lat="42.75212" lon="-0.30986">
        <ele>1298.08</ele>
        <time>2024-10-03T07:36:06.999Z</time>
      </trkpt>
      <trkpt lat="42.75232" lon="-0.31002">
        <ele>1298.29</ele>
        <time>2024-10-03T07:36:11.999Z</time>
      </trkpt>
      <trkpt lat="42.7525" lon="-0.31019">
        <ele>1298.45</ele>
        <time>2024-10-03T07:36:16.999Z</time>
      </trkpt>
      <trkpt lat="42.75267" lon="-0.31037">
        <ele>1298.6</ele>
        <time>2024-10-03T07:36:21.999Z</time>
      </trkpt>
      <trkpt lat="42.75284" lon="-0.31055">
        <ele>1298.78</ele>
        <time>2024-10-03T07:36:26.999Z</time>
      </trkpt>
      <trkpt lat="42.75301" lon="-0.31073">
        <ele>1299.12</ele>
        <time>2024-10-03T07:36:31.999Z</time>
      </trkpt>
      <trkpt lat="42.75316" lon="-0.31088">
        <ele>1299.43</ele>
        <time>2024-10-03T07:36:36.999Z</time>
      </trkpt>
      <trkpt lat="42.75332" lon="-0.311">
        <ele>1299.54</ele>
        <time>2024-10-03T07:36:42.000Z</time>
      </trkpt>
      <trkpt lat="42.7535" lon="-0.3111">
        <ele>1300.38</ele>
        <time>2024-10-03T07:36:47.000Z</time>
      </trkpt>
      <trkpt lat="42.75368" lon="-0.31122">
        <ele>1301.4</ele>
        <time>2024-10-03T07:36:52.000Z</time>
      </trkpt>
      <trkpt lat="42.75383" lon="-0.3114">
        <ele>1302.05</ele>
        <time>2024-10-03T07:36:57.000Z</time>
      </trkpt>
      <trkpt lat="42.75397" lon="-0.31165">
        <ele>1302.49</ele>
        <time>2024-10-03T07:37:02.000Z</time>
      </trkpt>
      <trkpt lat="42.75411" lon="-0.31187">
        <ele>1302.85</ele>
        <time>2024-10-03T07:37:07.000Z</time>
      </trkpt>
      <trkpt lat="42.75425" lon="-0.31208">
        <ele>1303.2</ele>
        <time>2024-10-03T07:37:12.000Z</time>
      </trkpt>
      <trkpt lat="42.75439" lon="-0.31228">
        <ele>1303.56</ele>
        <time>2024-10-03T07:37:17.000Z</time>
      </trkpt>
      <trkpt lat="42.75457" lon="-0.31243">
        <ele>1303.91</ele>
        <time>2024-10-03T07:37:22.000Z</time>
      </trkpt>
      <trkpt lat="42.75474" lon="-0.31258">
        <ele>1304.2</ele>
        <time>2024-10-03T07:37:27.000Z</time>
      </trkpt>
      <trkpt lat="42.75494" lon="-0.31272">
        <ele>1304.44</ele>
        <time>2024-10-03T07:37:32.000Z</time>
      </trkpt>
      <trkpt lat="42.75512" lon="-0.31292">
        <ele>1304.74</ele>
        <time>2024-10-03T07:37:37.000Z</time>
      </trkpt>
      <trkpt lat="42.75529" lon="-0.31316">
        <ele>1305.14</ele>
        <time>2024-10-03T07:37:42.000Z</time>
      </trkpt>
      <trkpt lat="42.75549" lon="-0.31339">
        <ele>1305.55</ele>
        <time>2024-10-03T07:37:47.000Z</time>
      </trkpt>
      <trkpt lat="42.75569" lon="-0.31352">
        <ele>1305.95</ele>
        <time>2024-10-03T07:37:52.000Z</time>
      </trkpt>
      <trkpt lat="42.75589" lon="-0.31359">
        <ele>1306.34</ele>
        <time>2024-10-03T07:37:57.000Z</time>
      </trkpt>
      <trkpt lat="42.75609" lon="-0.31364">
        <ele>1306.65</ele>
        <time>2024-10-03T07:38:02.000Z</time>
      </trkpt>
      <trkpt lat="42.75626" lon="-0.31371">
        <ele>1306.71</ele>
        <time>2024-10-03T07:38:07.000Z</time>
      </trkpt>
      <trkpt lat="42.75643" lon="-0.3138">
        <ele>1306.8</ele>
        <time>2024-10-03T07:38:12.000Z</time>
      </trkpt>
      <trkpt lat="42.7566" lon="-0.31386">
        <ele>1306.91</ele>
        <time>2024-10-03T07:38:17.000Z</time>
      </trkpt>
      <trkpt lat="42.75675" lon="-0.31383">
        <ele>1307.06</ele>
        <time>2024-10-03T07:38:22.000Z</time>
      </trkpt>
      <trkpt lat="42.7569" lon="-0.31372">
        <ele>1307.21</ele>
        <time>2024-10-03T07:38:27.000Z</time>
      </trkpt>
      <trkpt lat="42.75707" lon="-0.31358">
        <ele>1307.84</ele>
        <time>2024-10-03T07:38:32.000Z</time>
      </trkpt>
      <trkpt lat="42.7572" lon="-0.31337">
        <ele>1308.72</ele>
        <time>2024-10-03T07:38:37.000Z</time>
      </trkpt>
      <trkpt lat="42.75744" lon="-0.31342">
        <ele>1309.12</ele>
        <time>2024-10-03T07:38:42.000Z</time>
      </trkpt>
      <trkpt lat="42.75748" lon="-0.31373">
        <ele>1309.32</ele>
        <time>2024-10-03T07:38:47.000Z</time>
      </trkpt>
      <trkpt lat="42.75746" lon="-0.31411">
        <ele>1309.45</ele>
        <time>2024-10-03T07:38:52.000Z</time>
      </trkpt>
      <trkpt lat="42.75747" lon="-0.31456">
        <ele>1309.67</ele>
        <time>2024-10-03T07:38:57.000Z</time>
      </trkpt>
      <trkpt lat="42.7575" lon="-0.31505">
        <ele>1309.84</ele>
        <time>2024-10-03T07:39:02.000Z</time>
      </trkpt>
      <trkpt lat="42.75786" lon="-0.31522">
        <ele>1310.05</ele>
        <time>2024-10-03T07:39:07.000Z</time>
      </trkpt>
      <trkpt lat="42.75823" lon="-0.31538">
        <ele>1310.14</ele>
        <time>2024-10-03T07:39:12.000Z</time>
      </trkpt>
      <trkpt lat="42.75851" lon="-0.3157">
        <ele>1310.21</ele>
        <time>2024-10-03T07:39:17.000Z</time>
      </trkpt>
      <trkpt lat="42.75877" lon="-0.31601">
        <ele>1310.03</ele>
        <time>2024-10-03T07:39:22.000Z</time>
      </trkpt>
      <trkpt lat="42.75903" lon="-0.31627">
        <ele>1309.89</ele>
        <time>2024-10-03T07:39:27.000Z</time>
      </trkpt>
      <trkpt lat="42.75927" lon="-0.31654">
        <ele>1309.66</ele>
        <time>2024-10-03T07:39:32.000Z</time>
      </trkpt>
      <trkpt lat="42.75949" lon="-0.31686">
        <ele>1308.87</ele>
        <time>2024-10-03T07:39:37.000Z</time>
      </trkpt>
      <trkpt lat="42.75975" lon="-0.31711">
        <ele>1308.28</ele>
        <time>2024-10-03T07:39:42.000Z</time>
      </trkpt>
      <trkpt lat="42.75996" lon="-0.31736">
        <ele>1307.8</ele>
        <time>2024-10-03T07:39:47.000Z</time>
      </trkpt>
      <trkpt lat="42.76013" lon="-0.31768">
        <ele>1307.17</ele>
        <time>2024-10-03T07:39:52.000Z</time>
      </trkpt>
      <trkpt lat="42.76029" lon="-0.31801">
        <ele>1306.75</ele>
        <time>2024-10-03T07:39:57.000Z</time>
      </trkpt>
      <trkpt lat="42.76044" lon="-0.31829">
        <ele>1306.49</ele>
        <time>2024-10-03T07:40:02.000Z</time>
      </trkpt>
      <trkpt lat="42.76057" lon="-0.31854">
        <ele>1306.24</ele>
        <time>2024-10-03T07:40:07.000Z</time>
      </trkpt>
      <trkpt lat="42.7607" lon="-0.31878">
        <ele>1306.25</ele>
        <time>2024-10-03T07:40:12.000Z</time>
      </trkpt>
      <trkpt lat="42.76081" lon="-0.31903">
        <ele>1306.38</ele>
        <time>2024-10-03T07:40:17.000Z</time>
      </trkpt>
      <trkpt lat="42.76091" lon="-0.31926">
        <ele>1306.37</ele>
        <time>2024-10-03T07:40:22.000Z</time>
      </trkpt>
      <trkpt lat="42.76104" lon="-0.31945">
        <ele>1306.21</ele>
        <time>2024-10-03T07:40:27.000Z</time>
      </trkpt>
      <trkpt lat="42.7612" lon="-0.31962">
        <ele>1305.95</ele>
        <time>2024-10-03T07:40:32.000Z</time>
      </trkpt>
      <trkpt lat="42.76131" lon="-0.31982">
        <ele>1305.89</ele>
        <time>2024-10-03T07:40:37.000Z</time>
      </trkpt>
      <trkpt lat="42.7614" lon="-0.32006">
        <ele>1305.9</ele>
        <time>2024-10-03T07:40:42.000Z</time>
      </trkpt>
      <trkpt lat="42.76147" lon="-0.32032">
        <ele>1306.04</ele>
        <time>2024-10-03T07:40:47.000Z</time>
      </trkpt>
      <trkpt lat="42.76158" lon="-0.32055">
        <ele>1306.26</ele>
        <time>2024-10-03T07:40:52.000Z</time>
      </trkpt>
      <trkpt lat="42.76171" lon="-0.32076">
        <ele>1306.6</ele>
        <time>2024-10-03T07:40:57.000Z</time>
      </trkpt>
      <trkpt lat="42.76186" lon="-0.32094">
        <ele>1307.02</ele>
        <time>2024-10-03T07:41:02.000Z</time>
      </trkpt>
      <trkpt lat="42.76202" lon="-0.32112">
        <ele>1307.43</ele>
        <time>2024-10-03T07:41:07.000Z</time>
      </trkpt>
      <trkpt lat="42.76217" lon="-0.3213">
        <ele>1307.75</ele>
        <time>2024-10-03T07:41:12.000Z</time>
      </trkpt>
      <trkpt lat="42.76234" lon="-0.32147">
        <ele>1308.02</ele>
        <time>2024-10-03T07:41:17.000Z</time>
      </trkpt>
      <trkpt lat="42.76249" lon="-0.32166">
        <ele>1308.32</ele>
        <time>2024-10-03T07:41:22.000Z</time>
      </trkpt>
      <trkpt lat="42.76267" lon="-0.32184">
        <ele>1308.73</ele>
        <time>2024-10-03T07:41:27.000Z</time>
      </trkpt>
      <trkpt lat="42.7629" lon="-0.32193">
        <ele>1309.11</ele>
        <time>2024-10-03T07:41:32.000Z</time>
      </trkpt>
      <trkpt lat="42.76313" lon="-0.32195">
        <ele>1309.41</ele>
        <time>2024-10-03T07:41:37.000Z</time>
      </trkpt>
      <trkpt lat="42.76336" lon="-0.32209">
        <ele>1309.69</ele>
        <time>2024-10-03T07:41:42.000Z</time>
      </trkpt>
      <trkpt lat="42.76349" lon="-0.3224">
        <ele>1309.85</ele>
        <time>2024-10-03T07:41:47.000Z</time>
      </trkpt>
      <trkpt lat="42.76368" lon="-0.32265">
        <ele>1309.98</ele>
        <time>2024-10-03T07:41:52.000Z</time>
      </trkpt>
      <trkpt lat="42.76392" lon="-0.32281">
        <ele>1310.07</ele>
        <time>2024-10-03T07:41:57.000Z</time>
      </trkpt>
      <trkpt lat="42.76416" lon="-0.32293">
        <ele>1310.15</ele>
        <time>2024-10-03T07:42:02.000Z</time>
      </trkpt>
      <trkpt lat="42.7644" lon="-0.32297">
        <ele>1310.23</ele>
        <time>2024-10-03T07:42:07.000Z</time>
      </trkpt>
      <trkpt lat="42.76465" lon="-0.32301">
        <ele>1310.31</ele>
        <time>2024-10-03T07:42:12.000Z</time>
      </trkpt>
      <trkpt lat="42.76488" lon="-0.32308">
        <ele>1310.31</ele>
        <time>2024-10-03T07:42:17.000Z</time>
      </trkpt>
      <trkpt lat="42.7651" lon="-0.32312">
        <ele>1310.26</ele>
        <time>2024-10-03T07:42:22.000Z</time>
      </trkpt>
      <trkpt lat="42.76534" lon="-0.32316">
        <ele>1310.29</ele>
        <time>2024-10-03T07:42:27.000Z</time>
      </trkpt>
      <trkpt lat="42.76559" lon="-0.32322">
        <ele>1310.31</ele>
        <time>2024-10-03T07:42:32.000Z</time>
      </trkpt>
      <trkpt lat="42.76584" lon="-0.32336">
        <ele>1310.32</ele>
        <time>2024-10-03T07:42:37.000Z</time>
      </trkpt>
      <trkpt lat="42.76605" lon="-0.32353">
        <ele>1310.32</ele>
        <time>2024-10-03T07:42:42.000Z</time>
      </trkpt>
      <trkpt lat="42.76625" lon="-0.32368">
        <ele>1310.34</ele>
        <time>2024-10-03T07:42:47.000Z</time>
      </trkpt>
      <trkpt lat="42.76645" lon="-0.32379">
        <ele>1310.27</ele>
        <time>2024-10-03T07:42:52.000Z</time>
      </trkpt>
      <trkpt lat="42.76665" lon="-0.32397">
        <ele>1310.18</ele>
        <time>2024-10-03T07:42:57.000Z</time>
      </trkpt>
      <trkpt lat="42.7668" lon="-0.32421">
        <ele>1310.11</ele>
        <time>2024-10-03T07:43:02.000Z</time>
      </trkpt>
      <trkpt lat="42.76692" lon="-0.32446">
        <ele>1310.02</ele>
        <time>2024-10-03T07:43:07.000Z</time>
      </trkpt>
      <trkpt lat="42.76706" lon="-0.32474">
        <ele>1309.92</ele>
        <time>2024-10-03T07:43:12.000Z</time>
      </trkpt>
      <trkpt lat="42.76722" lon="-0.32497">
        <ele>1309.86</ele>
        <time>2024-10-03T07:43:17.000Z</time>
      </trkpt>
      <trkpt lat="42.76733" lon="-0.3252">
        <ele>1309.84</ele>
        <time>2024-10-03T07:43:22.000Z</time>
      </trkpt>
      <trkpt lat="42.76744" lon="-0.32548">
        <ele>1309.8</ele>
        <time>2024-10-03T07:43:27.000Z</time>
      </trkpt>
      <trkpt lat="42.76754" lon="-0.32577">
        <ele>1309.77</ele>
        <time>2024-10-03T07:43:32.000Z</time>
      </trkpt>
      <trkpt lat="42.76764" lon="-0.32605">
        <ele>1309.75</ele>
        <time>2024-10-03T07:43:37.000Z</time>
      </trkpt>
      <trkpt lat="42.76776" lon="-0.32636">
        <ele>1309.72</ele>
        <time>2024-10-03T07:43:42.000Z</time>
      </trkpt>
      <trkpt lat="42.76781" lon="-0.32669">
        <ele>1309.66</ele>
        <time>2024-10-03T07:43:47.000Z</time>
      </trkpt>
      <trkpt lat="42.76788" lon="-0.32705">
        <ele>1309.54</ele>
        <time>2024-10-03T07:43:52.000Z</time>
      </trkpt>
      <trkpt lat="42.76793" lon="-0.32746">
        <ele>1309.4</ele>
        <time>2024-10-03T07:43:57.000Z</time>
      </trkpt>
      <trkpt lat="42.768" lon="-0.32793">
        <ele>1309.06</ele>
        <time>2024-10-03T07:44:02.000Z</time>
      </trkpt>
      <trkpt lat="42.76813" lon="-0.32842">
        <ele>1308.5</ele>
        <time>2024-10-03T07:44:07.000Z</time>
      </trkpt>
      <trkpt lat="42.76828" lon="-0.32888">
        <ele>1307.68</ele>
        <time>2024-10-03T07:44:12.000Z</time>
      </trkpt>
      <trkpt lat="42.7684" lon="-0.32941">
        <ele>1306.59</ele>
        <time>2024-10-03T07:44:17.000Z</time>
      </trkpt>
      <trkpt lat="42.76836" lon="-0.32985">
        <ele>1306.51</ele>
        <time>2024-10-03T07:44:22.000Z</time>
      </trkpt>
      <trkpt lat="42.76838" lon="-0.33021">
        <ele>1306.15</ele>
        <time>2024-10-03T07:44:27.000Z</time>
      </trkpt>
      <trkpt lat="42.76851" lon="-0.33053">
        <ele>1304.68</ele>
        <time>2024-10-03T07:44:32.000Z</time>
      </trkpt>
      <trkpt lat="42.76864" lon="-0.33088">
        <ele>1303.19</ele>
        <time>2024-10-03T07:44:37.000Z</time>
      </trkpt>
      <trkpt lat="42.76882" lon="-0.33123">
        <ele>1301.54</ele>
        <time>2024-10-03T07:44:42.000Z</time>
      </trkpt>
      <trkpt lat="42.76904" lon="-0.33169">
        <ele>1299.39</ele>
        <time>2024-10-03T07:44:47.000Z</time>
      </trkpt>
      <trkpt lat="42.76933" lon="-0.33222">
        <ele>1297.48</ele>
        <time>2024-10-03T07:44:52.000Z</time>
      </trkpt>
      <trkpt lat="42.76963" lon="-0.33253">
        <ele>1296.67</ele>
        <time>2024-10-03T07:44:57.000Z</time>
      </trkpt>
      <trkpt lat="42.76969" lon="-0.33278">
        <ele>1296.61</ele>
        <time>2024-10-03T07:45:02.000Z</time>
      </trkpt>
      <trkpt lat="42.76959" lon="-0.33295">
        <ele>1296.6</ele>
        <time>2024-10-03T07:45:07.000Z</time>
      </trkpt>
      <trkpt lat="42.7695" lon="-0.33309">
        <ele>1296.48</ele>
        <time>2024-10-03T07:45:12.000Z</time>
      </trkpt>
      <trkpt lat="42.76944" lon="-0.33323">
        <ele>1295.93</ele>
        <time>2024-10-03T07:45:42.000Z</time>
      </trkpt>
      <trkpt lat="42.76937" lon="-0.33333">
        <ele>1295.44</ele>
        <time>2024-10-03T07:45:48.000Z</time>
      </trkpt>
      <trkpt lat="42.76932" lon="-0.33345">
        <ele>1295.01</ele>
        <time>2024-10-03T07:45:53.000Z</time>
      </trkpt>
      <trkpt lat="42.76928" lon="-0.33362">
        <ele>1294.63</ele>
        <time>2024-10-03T07:45:58.000Z</time>
      </trkpt>
      <trkpt lat="42.76927" lon="-0.33379">
        <ele>1294.29</ele>
        <time>2024-10-03T07:46:03.000Z</time>
      </trkpt>
      <trkpt lat="42.76927" lon="-0.33393">
        <ele>1294.01</ele>
        <time>2024-10-03T07:46:08.000Z</time>
      </trkpt>
      <trkpt lat="42.76926" lon="-0.33407">
        <ele>1293.78</ele>
        <time>2024-10-03T07:46:13.000Z</time>
      </trkpt>
      <trkpt lat="42.76924" lon="-0.33419">
        <ele>1293.63</ele>
        <time>2024-10-03T07:46:18.000Z</time>
      </trkpt>
      <trkpt lat="42.7692" lon="-0.33432">
        <ele>1293.49</ele>
        <time>2024-10-03T07:46:24.000Z</time>
      </trkpt>
      <trkpt lat="42.76915" lon="-0.33443">
        <ele>1293.39</ele>
        <time>2024-10-03T07:46:29.000Z</time>
      </trkpt>
      <trkpt lat="42.76912" lon="-0.33455">
        <ele>1293.3</ele>
        <time>2024-10-03T07:46:34.000Z</time>
      </trkpt>
      <trkpt lat="42.76909" lon="-0.33468">
        <ele>1293.22</ele>
        <time>2024-10-03T07:46:40.000Z</time>
      </trkpt>
      <trkpt lat="42.76903" lon="-0.33479">
        <ele>1293.16</ele>
        <time>2024-10-03T07:46:45.000Z</time>
      </trkpt>
      <trkpt lat="42.76896" lon="-0.33488">
        <ele>1293.11</ele>
        <time>2024-10-03T07:46:50.000Z</time>
      </trkpt>
      <trkpt lat="42.76886" lon="-0.33492">
        <ele>1293.08</ele>
        <time>2024-10-03T07:46:56.000Z</time>
      </trkpt>
      <trkpt lat="42.76877" lon="-0.33497">
        <ele>1293.07</ele>
        <time>2024-10-03T07:47:01.000Z</time>
      </trkpt>
      <trkpt lat="42.76866" lon="-0.33501">
        <ele>1293.07</ele>
        <time>2024-10-03T07:47:06.000Z</time>
      </trkpt>
      <trkpt lat="42.76854" lon="-0.33505">
        <ele>1293.08</ele>
        <time>2024-10-03T07:47:11.000Z</time>
      </trkpt>
      <trkpt lat="42.76843" lon="-0.3351">
        <ele>1293.09</ele>
        <time>2024-10-03T07:47:16.000Z</time>
      </trkpt>
      <trkpt lat="42.76834" lon="-0.33513">
        <ele>1293.13</ele>
        <time>2024-10-03T07:47:22.000Z</time>
      </trkpt>
      <trkpt lat="42.76823" lon="-0.33513">
        <ele>1293.21</ele>
        <time>2024-10-03T07:47:29.000Z</time>
      </trkpt>
      <trkpt lat="42.76813" lon="-0.33515">
        <ele>1293.31</ele>
        <time>2024-10-03T07:47:36.000Z</time>
      </trkpt>
      <trkpt lat="42.76804" lon="-0.33516">
        <ele>1293.41</ele>
        <time>2024-10-03T07:47:42.000Z</time>
      </trkpt>
      <trkpt lat="42.76794" lon="-0.33517">
        <ele>1293.54</ele>
        <time>2024-10-03T07:47:48.000Z</time>
      </trkpt>
      <trkpt lat="42.76784" lon="-0.33518">
        <ele>1293.7</ele>
        <time>2024-10-03T07:47:55.000Z</time>
      </trkpt>
      <trkpt lat="42.76775" lon="-0.33519">
        <ele>1293.86</ele>
        <time>2024-10-03T07:48:01.000Z</time>
      </trkpt>
      <trkpt lat="42.76765" lon="-0.33519">
        <ele>1294.05</ele>
        <time>2024-10-03T07:48:07.000Z</time>
      </trkpt>
      <trkpt lat="42.76756" lon="-0.33519">
        <ele>1294.25</ele>
        <time>2024-10-03T07:48:13.000Z</time>
      </trkpt>
      <trkpt lat="42.76746" lon="-0.3352">
        <ele>1294.52</ele>
        <time>2024-10-03T07:48:20.000Z</time>
      </trkpt>
      <trkpt lat="42.76736" lon="-0.33522">
        <ele>1294.82</ele>
        <time>2024-10-03T07:48:27.000Z</time>
      </trkpt>
      <trkpt lat="42.76727" lon="-0.33524">
        <ele>1295.18</ele>
        <time>2024-10-03T07:48:35.000Z</time>
      </trkpt>
      <trkpt lat="42.76717" lon="-0.33526">
        <ele>1295.49</ele>
        <time>2024-10-03T07:48:42.000Z</time>
      </trkpt>
      <trkpt lat="42.76708" lon="-0.33529">
        <ele>1295.74</ele>
        <time>2024-10-03T07:48:48.000Z</time>
      </trkpt>
      <trkpt lat="42.76699" lon="-0.33534">
        <ele>1296.03</ele>
        <time>2024-10-03T07:48:55.000Z</time>
      </trkpt>
      <trkpt lat="42.76691" lon="-0.33539">
        <ele>1296.3</ele>
        <time>2024-10-03T07:49:02.000Z</time>
      </trkpt>
      <trkpt lat="42.76682" lon="-0.33545">
        <ele>1296.57</ele>
        <time>2024-10-03T07:49:09.000Z</time>
      </trkpt>
      <trkpt lat="42.76673" lon="-0.3355">
        <ele>1296.83</ele>
        <time>2024-10-03T07:49:16.000Z</time>
      </trkpt>
      <trkpt lat="42.76664" lon="-0.33557">
        <ele>1297.12</ele>
        <time>2024-10-03T07:49:23.000Z</time>
      </trkpt>
      <trkpt lat="42.76656" lon="-0.33562">
        <ele>1297.37</ele>
        <time>2024-10-03T07:49:29.000Z</time>
      </trkpt>
      <trkpt lat="42.76647" lon="-0.3357">
        <ele>1297.68</ele>
        <time>2024-10-03T07:49:36.000Z</time>
      </trkpt>
      <trkpt lat="42.76639" lon="-0.33576">
        <ele>1297.96</ele>
        <time>2024-10-03T07:49:42.000Z</time>
      </trkpt>
      <trkpt lat="42.7663" lon="-0.33582">
        <ele>1298.3</ele>
        <time>2024-10-03T07:49:48.999Z</time>
      </trkpt>
      <trkpt lat="42.76621" lon="-0.33589">
        <ele>1298.66</ele>
        <time>2024-10-03T07:49:55.999Z</time>
      </trkpt>
      <trkpt lat="42.76612" lon="-0.33595">
        <ele>1299.04</ele>
        <time>2024-10-03T07:50:02.999Z</time>
      </trkpt>
      <trkpt lat="42.76604" lon="-0.336">
        <ele>1299.38</ele>
        <time>2024-10-03T07:50:08.999Z</time>
      </trkpt>
      <trkpt lat="42.76596" lon="-0.33608">
        <ele>1299.78</ele>
        <time>2024-10-03T07:50:15.999Z</time>
      </trkpt>
      <trkpt lat="42.76587" lon="-0.33613">
        <ele>1300.18</ele>
        <time>2024-10-03T07:50:22.999Z</time>
      </trkpt>
      <trkpt lat="42.76578" lon="-0.33619">
        <ele>1300.59</ele>
        <time>2024-10-03T07:50:29.999Z</time>
      </trkpt>
      <trkpt lat="42.76568" lon="-0.33624">
        <ele>1301.02</ele>
        <time>2024-10-03T07:50:36.999Z</time>
      </trkpt>
      <trkpt lat="42.76559" lon="-0.3363">
        <ele>1301.46</ele>
        <time>2024-10-03T07:50:43.999Z</time>
      </trkpt>
      <trkpt lat="42.76551" lon="-0.33637">
        <ele>1301.91</ele>
        <time>2024-10-03T07:50:50.999Z</time>
      </trkpt>
      <trkpt lat="42.76542" lon="-0.33642">
        <ele>1302.36</ele>
        <time>2024-10-03T07:50:57.999Z</time>
      </trkpt>
      <trkpt lat="42.76532" lon="-0.33647">
        <ele>1302.81</ele>
        <time>2024-10-03T07:51:04.999Z</time>
      </trkpt>
      <trkpt lat="42.76522" lon="-0.33648">
        <ele>1303.2</ele>
        <time>2024-10-03T07:51:10.999Z</time>
      </trkpt>
      <trkpt lat="42.76513" lon="-0.33649">
        <ele>1303.52</ele>
        <time>2024-10-03T07:51:15.999Z</time>
      </trkpt>
      <trkpt lat="42.76504" lon="-0.33646">
        <ele>1303.93</ele>
        <time>2024-10-03T07:51:21.999Z</time>
      </trkpt>
      <trkpt lat="42.76494" lon="-0.33643">
        <ele>1304.34</ele>
        <time>2024-10-03T07:51:27.999Z</time>
      </trkpt>
      <trkpt lat="42.76485" lon="-0.33639">
        <ele>1304.76</ele>
        <time>2024-10-03T07:51:33.999Z</time>
      </trkpt>
      <trkpt lat="42.76475" lon="-0.33634">
        <ele>1305.19</ele>
        <time>2024-10-03T07:51:39.999Z</time>
      </trkpt>
      <trkpt lat="42.76466" lon="-0.3363">
        <ele>1305.55</ele>
        <time>2024-10-03T07:51:44.999Z</time>
      </trkpt>
      <trkpt lat="42.76456" lon="-0.33626">
        <ele>1305.99</ele>
        <time>2024-10-03T07:51:50.999Z</time>
      </trkpt>
      <trkpt lat="42.76447" lon="-0.33622">
        <ele>1306.44</ele>
        <time>2024-10-03T07:51:56.999Z</time>
      </trkpt>
      <trkpt lat="42.76437" lon="-0.33618">
        <ele>1306.83</ele>
        <time>2024-10-03T07:52:01.999Z</time>
      </trkpt>
      <trkpt lat="42.76427" lon="-0.33616">
        <ele>1307.2</ele>
        <time>2024-10-03T07:52:06.999Z</time>
      </trkpt>
      <trkpt lat="42.76418" lon="-0.33616">
        <ele>1307.57</ele>
        <time>2024-10-03T07:52:11.999Z</time>
      </trkpt>
      <trkpt lat="42.76408" lon="-0.33614">
        <ele>1308.07</ele>
        <time>2024-10-03T07:52:18.999Z</time>
      </trkpt>
      <trkpt lat="42.76398" lon="-0.33612">
        <ele>1308.47</ele>
        <time>2024-10-03T07:52:24.999Z</time>
      </trkpt>
      <trkpt lat="42.76388" lon="-0.3361">
        <ele>1308.85</ele>
        <time>2024-10-03T07:52:30.999Z</time>
      </trkpt>
      <trkpt lat="42.7638" lon="-0.33603">
        <ele>1309.16</ele>
        <time>2024-10-03T07:52:35.999Z</time>
      </trkpt>
      <trkpt lat="42.76371" lon="-0.33599">
        <ele>1309.46</ele>
        <time>2024-10-03T07:52:40.999Z</time>
      </trkpt>
      <trkpt lat="42.7636" lon="-0.33597">
        <ele>1309.74</ele>
        <time>2024-10-03T07:52:46.999Z</time>
      </trkpt>
      <trkpt lat="42.76351" lon="-0.33598">
        <ele>1309.99</ele>
        <time>2024-10-03T07:52:51.999Z</time>
      </trkpt>
      <trkpt lat="42.7634" lon="-0.33598">
        <ele>1310.36</ele>
        <time>2024-10-03T07:52:57.999Z</time>
      </trkpt>
      <trkpt lat="42.7633" lon="-0.336">
        <ele>1310.79</ele>
        <time>2024-10-03T07:53:03.999Z</time>
      </trkpt>
      <trkpt lat="42.7632" lon="-0.33602">
        <ele>1311.3</ele>
        <time>2024-10-03T07:53:09.999Z</time>
      </trkpt>
      <trkpt lat="42.7631" lon="-0.33603">
        <ele>1311.86</ele>
        <time>2024-10-03T07:53:15.999Z</time>
      </trkpt>
      <trkpt lat="42.763" lon="-0.33602">
        <ele>1312.54</ele>
        <time>2024-10-03T07:53:21.999Z</time>
      </trkpt>
      <trkpt lat="42.7629" lon="-0.33602">
        <ele>1313.51</ele>
        <time>2024-10-03T07:53:27.999Z</time>
      </trkpt>
      <trkpt lat="42.76281" lon="-0.33599">
        <ele>1314.61</ele>
        <time>2024-10-03T07:53:33.999Z</time>
      </trkpt>
      <trkpt lat="42.76272" lon="-0.33595">
        <ele>1315.59</ele>
        <time>2024-10-03T07:53:38.999Z</time>
      </trkpt>
      <trkpt lat="42.76262" lon="-0.33589">
        <ele>1316.81</ele>
        <time>2024-10-03T07:53:44.999Z</time>
      </trkpt>
      <trkpt lat="42.76254" lon="-0.33583">
        <ele>1317.85</ele>
        <time>2024-10-03T07:53:49.999Z</time>
      </trkpt>
      <trkpt lat="42.76246" lon="-0.33576">
        <ele>1318.9</ele>
        <time>2024-10-03T07:53:54.999Z</time>
      </trkpt>
      <trkpt lat="42.76239" lon="-0.33568">
        <ele>1319.95</ele>
        <time>2024-10-03T07:53:59.999Z</time>
      </trkpt>
      <trkpt lat="42.76233" lon="-0.33558">
        <ele>1320.99</ele>
        <time>2024-10-03T07:54:04.999Z</time>
      </trkpt>
      <trkpt lat="42.76228" lon="-0.33545">
        <ele>1322.19</ele>
        <time>2024-10-03T07:54:10.999Z</time>
      </trkpt>
      <trkpt lat="42.76222" lon="-0.33535">
        <ele>1323.16</ele>
        <time>2024-10-03T07:54:15.999Z</time>
      </trkpt>
      <trkpt lat="42.76217" lon="-0.33522">
        <ele>1324.27</ele>
        <time>2024-10-03T07:54:21.999Z</time>
      </trkpt>
      <trkpt lat="42.76212" lon="-0.33509">
        <ele>1325.16</ele>
        <time>2024-10-03T07:54:26.999Z</time>
      </trkpt>
      <trkpt lat="42.76207" lon="-0.33497">
        <ele>1326.03</ele>
        <time>2024-10-03T07:54:31.999Z</time>
      </trkpt>
      <trkpt lat="42.76201" lon="-0.33485">
        <ele>1326.89</ele>
        <time>2024-10-03T07:54:36.999Z</time>
      </trkpt>
      <trkpt lat="42.76194" lon="-0.33474">
        <ele>1327.73</ele>
        <time>2024-10-03T07:54:41.999Z</time>
      </trkpt>
      <trkpt lat="42.76186" lon="-0.33466">
        <ele>1328.56</ele>
        <time>2024-10-03T07:54:46.999Z</time>
      </trkpt>
      <trkpt lat="42.76177" lon="-0.33456">
        <ele>1329.36</ele>
        <time>2024-10-03T07:54:51.999Z</time>
      </trkpt>
      <trkpt lat="42.76169" lon="-0.33446">
        <ele>1330.17</ele>
        <time>2024-10-03T07:54:56.999Z</time>
      </trkpt>
      <trkpt lat="42.76161" lon="-0.33437">
        <ele>1330.97</ele>
        <time>2024-10-03T07:55:01.999Z</time>
      </trkpt>
      <trkpt lat="42.76154" lon="-0.3343">
        <ele>1331.77</ele>
        <time>2024-10-03T07:55:06.999Z</time>
      </trkpt>
      <trkpt lat="42.76145" lon="-0.33422">
        <ele>1332.55</ele>
        <time>2024-10-03T07:55:11.999Z</time>
      </trkpt>
      <trkpt lat="42.76137" lon="-0.33415">
        <ele>1333.31</ele>
        <time>2024-10-03T07:55:16.999Z</time>
      </trkpt>
      <trkpt lat="42.76128" lon="-0.3341">
        <ele>1334.05</ele>
        <time>2024-10-03T07:55:21.999Z</time>
      </trkpt>
      <trkpt lat="42.7612" lon="-0.33402">
        <ele>1334.76</ele>
        <time>2024-10-03T07:55:26.999Z</time>
      </trkpt>
      <trkpt lat="42.76112" lon="-0.33394">
        <ele>1335.47</ele>
        <time>2024-10-03T07:55:31.999Z</time>
      </trkpt>
      <trkpt lat="42.76104" lon="-0.33387">
        <ele>1336.17</ele>
        <time>2024-10-03T07:55:36.999Z</time>
      </trkpt>
      <trkpt lat="42.76095" lon="-0.33382">
        <ele>1336.85</ele>
        <time>2024-10-03T07:55:41.999Z</time>
      </trkpt>
      <trkpt lat="42.76086" lon="-0.33388">
        <ele>1337.64</ele>
        <time>2024-10-03T07:55:47.999Z</time>
      </trkpt>
      <trkpt lat="42.76088" lon="-0.33402">
        <ele>1338.4</ele>
        <time>2024-10-03T07:55:53.999Z</time>
      </trkpt>
      <trkpt lat="42.76092" lon="-0.33416">
        <ele>1345.66</ele>
        <time>2024-10-03T07:59:01.999Z</time>
      </trkpt>
      <trkpt lat="42.76098" lon="-0.3343">
        <ele>1346.34</ele>
        <time>2024-10-03T07:59:06.999Z</time>
      </trkpt>
      <trkpt lat="42.76104" lon="-0.33442">
        <ele>1346.96</ele>
        <time>2024-10-03T07:59:11.999Z</time>
      </trkpt>
      <trkpt lat="42.76109" lon="-0.33454">
        <ele>1347.53</ele>
        <time>2024-10-03T07:59:16.999Z</time>
      </trkpt>
      <trkpt lat="42.76114" lon="-0.33467">
        <ele>1348.04</ele>
        <time>2024-10-03T07:59:21.999Z</time>
      </trkpt>
      <trkpt lat="42.76119" lon="-0.33478">
        <ele>1348.52</ele>
        <time>2024-10-03T07:59:26.999Z</time>
      </trkpt>
      <trkpt lat="42.76124" lon="-0.3349">
        <ele>1348.95</ele>
        <time>2024-10-03T07:59:31.999Z</time>
      </trkpt>
      <trkpt lat="42.76129" lon="-0.33503">
        <ele>1349.35</ele>
        <time>2024-10-03T07:59:36.999Z</time>
      </trkpt>
      <trkpt lat="42.76134" lon="-0.33516">
        <ele>1349.73</ele>
        <time>2024-10-03T07:59:41.999Z</time>
      </trkpt>
      <trkpt lat="42.76139" lon="-0.33528">
        <ele>1350.08</ele>
        <time>2024-10-03T07:59:46.999Z</time>
      </trkpt>
      <trkpt lat="42.76144" lon="-0.33541">
        <ele>1350.41</ele>
        <time>2024-10-03T07:59:51.999Z</time>
      </trkpt>
      <trkpt lat="42.76149" lon="-0.33554">
        <ele>1350.72</ele>
        <time>2024-10-03T07:59:56.999Z</time>
      </trkpt>
      <trkpt lat="42.76155" lon="-0.33568">
        <ele>1351.01</ele>
        <time>2024-10-03T08:00:01.999Z</time>
      </trkpt>
      <trkpt lat="42.7616" lon="-0.3358">
        <ele>1351.27</ele>
        <time>2024-10-03T08:00:06.999Z</time>
      </trkpt>
      <trkpt lat="42.76165" lon="-0.33595">
        <ele>1351.52</ele>
        <time>2024-10-03T08:00:11.999Z</time>
      </trkpt>
      <trkpt lat="42.7617" lon="-0.33607">
        <ele>1351.76</ele>
        <time>2024-10-03T08:00:16.999Z</time>
      </trkpt>
      <trkpt lat="42.76176" lon="-0.33618">
        <ele>1351.98</ele>
        <time>2024-10-03T08:00:21.999Z</time>
      </trkpt>
      <trkpt lat="42.76183" lon="-0.33629">
        <ele>1352.2</ele>
        <time>2024-10-03T08:00:26.999Z</time>
      </trkpt>
      <trkpt lat="42.7619" lon="-0.3364">
        <ele>1352.41</ele>
        <time>2024-10-03T08:00:31.999Z</time>
      </trkpt>
      <trkpt lat="42.76198" lon="-0.33651">
        <ele>1352.62</ele>
        <time>2024-10-03T08:00:36.999Z</time>
      </trkpt>
      <trkpt lat="42.76205" lon="-0.33663">
        <ele>1352.82</ele>
        <time>2024-10-03T08:00:41.999Z</time>
      </trkpt>
      <trkpt lat="42.76213" lon="-0.33673">
        <ele>1353.02</ele>
        <time>2024-10-03T08:00:46.999Z</time>
      </trkpt>
      <trkpt lat="42.76221" lon="-0.33683">
        <ele>1353.22</ele>
        <time>2024-10-03T08:00:51.999Z</time>
      </trkpt>
      <trkpt lat="42.76229" lon="-0.33694">
        <ele>1353.42</ele>
        <time>2024-10-03T08:00:56.999Z</time>
      </trkpt>
      <trkpt lat="42.76237" lon="-0.33703">
        <ele>1353.63</ele>
        <time>2024-10-03T08:01:01.999Z</time>
      </trkpt>
      <trkpt lat="42.76245" lon="-0.33713">
        <ele>1353.83</ele>
        <time>2024-10-03T08:01:06.999Z</time>
      </trkpt>
      <trkpt lat="42.76252" lon="-0.33723">
        <ele>1354.03</ele>
        <time>2024-10-03T08:01:11.999Z</time>
      </trkpt>
      <trkpt lat="42.76261" lon="-0.33732">
        <ele>1354.23</ele>
        <time>2024-10-03T08:01:16.999Z</time>
      </trkpt>
      <trkpt lat="42.76269" lon="-0.3374">
        <ele>1354.42</ele>
        <time>2024-10-03T08:01:21.999Z</time>
      </trkpt>
      <trkpt lat="42.76279" lon="-0.33753">
        <ele>1354.61</ele>
        <time>2024-10-03T08:01:26.999Z</time>
      </trkpt>
      <trkpt lat="42.76289" lon="-0.3377">
        <ele>1354.79</ele>
        <time>2024-10-03T08:01:31.999Z</time>
      </trkpt>
      <trkpt lat="42.76299" lon="-0.33791">
        <ele>1354.97</ele>
        <time>2024-10-03T08:01:36.999Z</time>
      </trkpt>
      <trkpt lat="42.76309" lon="-0.33813">
        <ele>1355.16</ele>
        <time>2024-10-03T08:01:41.999Z</time>
      </trkpt>
      <trkpt lat="42.76319" lon="-0.33833">
        <ele>1355.35</ele>
        <time>2024-10-03T08:01:46.999Z</time>
      </trkpt>
      <trkpt lat="42.76328" lon="-0.33852">
        <ele>1355.54</ele>
        <time>2024-10-03T08:01:51.999Z</time>
      </trkpt>
      <trkpt lat="42.76336" lon="-0.33872">
        <ele>1355.74</ele>
        <time>2024-10-03T08:01:56.999Z</time>
      </trkpt>
      <trkpt lat="42.76343" lon="-0.33889">
        <ele>1355.94</ele>
        <time>2024-10-03T08:02:01.999Z</time>
      </trkpt>
      <trkpt lat="42.76349" lon="-0.33904">
        <ele>1356.15</ele>
        <time>2024-10-03T08:02:06.999Z</time>
      </trkpt>
      <trkpt lat="42.76355" lon="-0.33915">
        <ele>1356.36</ele>
        <time>2024-10-03T08:02:11.999Z</time>
      </trkpt>
      <trkpt lat="42.76362" lon="-0.33926">
        <ele>1356.58</ele>
        <time>2024-10-03T08:02:16.999Z</time>
      </trkpt>
      <trkpt lat="42.7637" lon="-0.33934">
        <ele>1356.79</ele>
        <time>2024-10-03T08:02:21.999Z</time>
      </trkpt>
      <trkpt lat="42.76378" lon="-0.33942">
        <ele>1357</ele>
        <time>2024-10-03T08:02:26.999Z</time>
      </trkpt>
      <trkpt lat="42.76386" lon="-0.3395">
        <ele>1357.21</ele>
        <time>2024-10-03T08:02:32.000Z</time>
      </trkpt>
      <trkpt lat="42.76396" lon="-0.33957">
        <ele>1357.43</ele>
        <time>2024-10-03T08:02:37.000Z</time>
      </trkpt>
      <trkpt lat="42.76406" lon="-0.33964">
        <ele>1357.65</ele>
        <time>2024-10-03T08:02:42.000Z</time>
      </trkpt>
      <trkpt lat="42.76416" lon="-0.33969">
        <ele>1357.89</ele>
        <time>2024-10-03T08:02:47.000Z</time>
      </trkpt>
      <trkpt lat="42.76425" lon="-0.33974">
        <ele>1358.13</ele>
        <time>2024-10-03T08:02:52.000Z</time>
      </trkpt>
      <trkpt lat="42.76435" lon="-0.33977">
        <ele>1358.48</ele>
        <time>2024-10-03T08:02:59.000Z</time>
      </trkpt>
      <trkpt lat="42.76444" lon="-0.33981">
        <ele>1358.77</ele>
        <time>2024-10-03T08:03:05.000Z</time>
      </trkpt>
      <trkpt lat="42.76454" lon="-0.33986">
        <ele>1359.07</ele>
        <time>2024-10-03T08:03:11.000Z</time>
      </trkpt>
      <trkpt lat="42.76463" lon="-0.33991">
        <ele>1359.37</ele>
        <time>2024-10-03T08:03:17.000Z</time>
      </trkpt>
      <trkpt lat="42.76473" lon="-0.33995">
        <ele>1359.69</ele>
        <time>2024-10-03T08:03:23.000Z</time>
      </trkpt>
      <trkpt lat="42.76483" lon="-0.33999">
        <ele>1359.96</ele>
        <time>2024-10-03T08:03:28.000Z</time>
      </trkpt>
      <trkpt lat="42.76492" lon="-0.34002">
        <ele>1360.24</ele>
        <time>2024-10-03T08:03:33.000Z</time>
      </trkpt>
      <trkpt lat="42.76502" lon="-0.34005">
        <ele>1360.68</ele>
        <time>2024-10-03T08:03:41.000Z</time>
      </trkpt>
      <trkpt lat="42.76512" lon="-0.34008">
        <ele>1361.03</ele>
        <time>2024-10-03T08:03:47.000Z</time>
      </trkpt>
      <trkpt lat="42.76523" lon="-0.34011">
        <ele>1361.46</ele>
        <time>2024-10-03T08:03:54.000Z</time>
      </trkpt>
      <trkpt lat="42.76532" lon="-0.34013">
        <ele>1361.77</ele>
        <time>2024-10-03T08:03:59.000Z</time>
      </trkpt>
      <trkpt lat="42.76542" lon="-0.34016">
        <ele>1362.15</ele>
        <time>2024-10-03T08:04:05.000Z</time>
      </trkpt>
      <trkpt lat="42.76551" lon="-0.34019">
        <ele>1362.72</ele>
        <time>2024-10-03T08:04:14.000Z</time>
      </trkpt>
      <trkpt lat="42.7656" lon="-0.34022">
        <ele>1363.11</ele>
        <time>2024-10-03T08:04:20.000Z</time>
      </trkpt>
      <trkpt lat="42.76568" lon="-0.34028">
        <ele>1363.48</ele>
        <time>2024-10-03T08:04:26.000Z</time>
      </trkpt>
      <trkpt lat="42.76576" lon="-0.34036">
        <ele>1363.85</ele>
        <time>2024-10-03T08:04:32.000Z</time>
      </trkpt>
      <trkpt lat="42.76583" lon="-0.34046">
        <ele>1364.27</ele>
        <time>2024-10-03T08:04:39.000Z</time>
      </trkpt>
      <trkpt lat="42.7659" lon="-0.34055">
        <ele>1364.55</ele>
        <time>2024-10-03T08:04:44.000Z</time>
      </trkpt>
      <trkpt lat="42.76595" lon="-0.34066">
        <ele>1364.84</ele>
        <time>2024-10-03T08:04:49.000Z</time>
      </trkpt>
      <trkpt lat="42.76601" lon="-0.34077">
        <ele>1365.13</ele>
        <time>2024-10-03T08:04:54.000Z</time>
      </trkpt>
      <trkpt lat="42.76606" lon="-0.34087">
        <ele>1365.49</ele>
        <time>2024-10-03T08:05:00.000Z</time>
      </trkpt>
      <trkpt lat="42.76611" lon="-0.34099">
        <ele>1365.84</ele>
        <time>2024-10-03T08:05:06.000Z</time>
      </trkpt>
      <trkpt lat="42.76616" lon="-0.34111">
        <ele>1366.13</ele>
        <time>2024-10-03T08:05:11.000Z</time>
      </trkpt>
      <trkpt lat="42.7662" lon="-0.34122">
        <ele>1366.44</ele>
        <time>2024-10-03T08:05:16.000Z</time>
      </trkpt>
      <trkpt lat="42.76623" lon="-0.34134">
        <ele>1366.76</ele>
        <time>2024-10-03T08:05:21.000Z</time>
      </trkpt>
      <trkpt lat="42.76626" lon="-0.34146">
        <ele>1367.08</ele>
        <time>2024-10-03T08:05:26.000Z</time>
      </trkpt>
      <trkpt lat="42.76627" lon="-0.34162">
        <ele>1367.42</ele>
        <time>2024-10-03T08:05:31.000Z</time>
      </trkpt>
      <trkpt lat="42.76629" lon="-0.34177">
        <ele>1367.75</ele>
        <time>2024-10-03T08:05:36.000Z</time>
      </trkpt>
      <trkpt lat="42.76628" lon="-0.34191">
        <ele>1368.09</ele>
        <time>2024-10-03T08:05:41.000Z</time>
      </trkpt>
      <trkpt lat="42.76629" lon="-0.34205">
        <ele>1368.51</ele>
        <time>2024-10-03T08:05:47.000Z</time>
      </trkpt>
      <trkpt lat="42.76629" lon="-0.34219">
        <ele>1368.94</ele>
        <time>2024-10-03T08:05:53.000Z</time>
      </trkpt>
      <trkpt lat="42.7663" lon="-0.34234">
        <ele>1369.38</ele>
        <time>2024-10-03T08:05:59.000Z</time>
      </trkpt>
      <trkpt lat="42.7663" lon="-0.34248">
        <ele>1369.83</ele>
        <time>2024-10-03T08:06:05.000Z</time>
      </trkpt>
      <trkpt lat="42.7663" lon="-0.34262">
        <ele>1370.31</ele>
        <time>2024-10-03T08:06:11.000Z</time>
      </trkpt>
      <trkpt lat="42.76631" lon="-0.34276">
        <ele>1370.8</ele>
        <time>2024-10-03T08:06:17.000Z</time>
      </trkpt>
      <trkpt lat="42.76632" lon="-0.3429">
        <ele>1371.3</ele>
        <time>2024-10-03T08:06:23.000Z</time>
      </trkpt>
      <trkpt lat="42.76633" lon="-0.34304">
        <ele>1371.81</ele>
        <time>2024-10-03T08:06:29.000Z</time>
      </trkpt>
      <trkpt lat="42.76634" lon="-0.34316">
        <ele>1372.25</ele>
        <time>2024-10-03T08:06:34.000Z</time>
      </trkpt>
      <trkpt lat="42.76638" lon="-0.34329">
        <ele>1372.76</ele>
        <time>2024-10-03T08:06:40.000Z</time>
      </trkpt>
      <trkpt lat="42.76644" lon="-0.34341">
        <ele>1373.27</ele>
        <time>2024-10-03T08:06:46.000Z</time>
      </trkpt>
      <trkpt lat="42.76653" lon="-0.34348">
        <ele>1373.77</ele>
        <time>2024-10-03T08:06:52.000Z</time>
      </trkpt>
      <trkpt lat="42.76664" lon="-0.34354">
        <ele>1374.17</ele>
        <time>2024-10-03T08:06:57.000Z</time>
      </trkpt>
      <trkpt lat="42.76675" lon="-0.3436">
        <ele>1374.54</ele>
        <time>2024-10-03T08:07:02.000Z</time>
      </trkpt>
      <trkpt lat="42.76686" lon="-0.34367">
        <ele>1374.9</ele>
        <time>2024-10-03T08:07:07.000Z</time>
      </trkpt>
      <trkpt lat="42.76696" lon="-0.34374">
        <ele>1375.26</ele>
        <time>2024-10-03T08:07:12.000Z</time>
      </trkpt>
      <trkpt lat="42.76705" lon="-0.34382">
        <ele>1375.68</ele>
        <time>2024-10-03T08:07:18.000Z</time>
      </trkpt>
      <trkpt lat="42.76712" lon="-0.3439">
        <ele>1376.09</ele>
        <time>2024-10-03T08:07:24.000Z</time>
      </trkpt>
      <trkpt lat="42.7672" lon="-0.34399">
        <ele>1376.54</ele>
        <time>2024-10-03T08:07:31.000Z</time>
      </trkpt>
      <trkpt lat="42.76727" lon="-0.34408">
        <ele>1376.92</ele>
        <time>2024-10-03T08:07:37.000Z</time>
      </trkpt>
      <trkpt lat="42.76733" lon="-0.34416">
        <ele>1377.36</ele>
        <time>2024-10-03T08:07:44.000Z</time>
      </trkpt>
      <trkpt lat="42.7674" lon="-0.34425">
        <ele>1377.74</ele>
        <time>2024-10-03T08:07:50.000Z</time>
      </trkpt>
      <trkpt lat="42.76747" lon="-0.34435">
        <ele>1378.17</ele>
        <time>2024-10-03T08:07:57.000Z</time>
      </trkpt>
      <trkpt lat="42.76754" lon="-0.34445">
        <ele>1378.64</ele>
        <time>2024-10-03T08:08:04.000Z</time>
      </trkpt>
      <trkpt lat="42.7676" lon="-0.34454">
        <ele>1379.16</ele>
        <time>2024-10-03T08:08:11.000Z</time>
      </trkpt>
      <trkpt lat="42.76767" lon="-0.34463">
        <ele>1379.63</ele>
        <time>2024-10-03T08:08:17.000Z</time>
      </trkpt>
      <trkpt lat="42.76773" lon="-0.34473">
        <ele>1380.17</ele>
        <time>2024-10-03T08:08:24.000Z</time>
      </trkpt>
      <trkpt lat="42.7678" lon="-0.34483">
        <ele>1380.91</ele>
        <time>2024-10-03T08:08:33.000Z</time>
      </trkpt>
      <trkpt lat="42.76786" lon="-0.34493">
        <ele>1381.59</ele>
        <time>2024-10-03T08:08:41.000Z</time>
      </trkpt>
      <trkpt lat="42.76793" lon="-0.34502">
        <ele>1382.16</ele>
        <time>2024-10-03T08:08:47.000Z</time>
      </trkpt>
      <trkpt lat="42.76799" lon="-0.34511">
        <ele>1382.98</ele>
        <time>2024-10-03T08:08:55.000Z</time>
      </trkpt>
      <trkpt lat="42.76805" lon="-0.34521">
        <ele>1383.75</ele>
        <time>2024-10-03T08:09:02.000Z</time>
      </trkpt>
      <trkpt lat="42.76811" lon="-0.34532">
        <ele>1384.48</ele>
        <time>2024-10-03T08:09:08.000Z</time>
      </trkpt>
      <trkpt lat="42.76816" lon="-0.34544">
        <ele>1385.64</ele>
        <time>2024-10-03T08:09:16.000Z</time>
      </trkpt>
      <trkpt lat="42.7682" lon="-0.34556">
        <ele>1386.99</ele>
        <time>2024-10-03T08:09:24.000Z</time>
      </trkpt>
      <trkpt lat="42.76825" lon="-0.34568">
        <ele>1388.08</ele>
        <time>2024-10-03T08:09:30.000Z</time>
      </trkpt>
      <trkpt lat="42.76828" lon="-0.3458">
        <ele>1389.33</ele>
        <time>2024-10-03T08:09:36.000Z</time>
      </trkpt>
      <trkpt lat="42.76832" lon="-0.34592">
        <ele>1390.98</ele>
        <time>2024-10-03T08:09:43.000Z</time>
      </trkpt>
      <trkpt lat="42.76835" lon="-0.34604">
        <ele>1392.77</ele>
        <time>2024-10-03T08:09:50.000Z</time>
      </trkpt>
      <trkpt lat="42.76837" lon="-0.34616">
        <ele>1394.63</ele>
        <time>2024-10-03T08:09:57.000Z</time>
      </trkpt>
      <trkpt lat="42.76839" lon="-0.3463">
        <ele>1396.78</ele>
        <time>2024-10-03T08:10:05.000Z</time>
      </trkpt>
      <trkpt lat="42.76841" lon="-0.34643">
        <ele>1398.62</ele>
        <time>2024-10-03T08:10:12.000Z</time>
      </trkpt>
      <trkpt lat="42.76842" lon="-0.34656">
        <ele>1400.41</ele>
        <time>2024-10-03T08:10:19.000Z</time>
      </trkpt>
      <trkpt lat="42.76843" lon="-0.3467">
        <ele>1402.14</ele>
        <time>2024-10-03T08:10:26.000Z</time>
      </trkpt>
      <trkpt lat="42.76844" lon="-0.34683">
        <ele>1403.8</ele>
        <time>2024-10-03T08:10:33.000Z</time>
      </trkpt>
      <trkpt lat="42.76845" lon="-0.34697">
        <ele>1405.39</ele>
        <time>2024-10-03T08:10:40.000Z</time>
      </trkpt>
      <trkpt lat="42.76846" lon="-0.34711">
        <ele>1406.9</ele>
        <time>2024-10-03T08:10:47.000Z</time>
      </trkpt>
      <trkpt lat="42.76848" lon="-0.34724">
        <ele>1408.35</ele>
        <time>2024-10-03T08:10:54.000Z</time>
      </trkpt>
      <trkpt lat="42.7685" lon="-0.34737">
        <ele>1409.74</ele>
        <time>2024-10-03T08:11:01.000Z</time>
      </trkpt>
      <trkpt lat="42.76853" lon="-0.34749">
        <ele>1411.05</ele>
        <time>2024-10-03T08:11:08.000Z</time>
      </trkpt>
      <trkpt lat="42.76857" lon="-0.34761">
        <ele>1412.31</ele>
        <time>2024-10-03T08:11:15.000Z</time>
      </trkpt>
      <trkpt lat="42.76862" lon="-0.34773">
        <ele>1413.66</ele>
        <time>2024-10-03T08:11:23.000Z</time>
      </trkpt>
      <trkpt lat="42.76866" lon="-0.34784">
        <ele>1414.78</ele>
        <time>2024-10-03T08:11:30.000Z</time>
      </trkpt>
      <trkpt lat="42.7687" lon="-0.34797">
        <ele>1415.85</ele>
        <time>2024-10-03T08:11:37.000Z</time>
      </trkpt>
      <trkpt lat="42.76873" lon="-0.3481">
        <ele>1416.88</ele>
        <time>2024-10-03T08:11:44.000Z</time>
      </trkpt>
      <trkpt lat="42.76875" lon="-0.34823">
        <ele>1417.88</ele>
        <time>2024-10-03T08:11:51.000Z</time>
      </trkpt>
      <trkpt lat="42.76874" lon="-0.34836">
        <ele>1418.83</ele>
        <time>2024-10-03T08:11:58.000Z</time>
      </trkpt>
      <trkpt lat="42.76871" lon="-0.34849">
        <ele>1419.75</ele>
        <time>2024-10-03T08:12:05.000Z</time>
      </trkpt>
      <trkpt lat="42.76869" lon="-0.34861">
        <ele>1420.63</ele>
        <time>2024-10-03T08:12:12.000Z</time>
      </trkpt>
      <trkpt lat="42.76865" lon="-0.34873">
        <ele>1421.45</ele>
        <time>2024-10-03T08:12:19.000Z</time>
      </trkpt>
      <trkpt lat="42.76864" lon="-0.34886">
        <ele>1422.11</ele>
        <time>2024-10-03T08:12:25.000Z</time>
      </trkpt>
      <trkpt lat="42.76861" lon="-0.34898">
        <ele>1422.86</ele>
        <time>2024-10-03T08:12:32.000Z</time>
      </trkpt>
      <trkpt lat="42.7686" lon="-0.34911">
        <ele>1423.48</ele>
        <time>2024-10-03T08:12:38.000Z</time>
      </trkpt>
      <trkpt lat="42.76858" lon="-0.34925">
        <ele>1424.16</ele>
        <time>2024-10-03T08:12:45.000Z</time>
      </trkpt>
      <trkpt lat="42.76856" lon="-0.34938">
        <ele>1424.84</ele>
        <time>2024-10-03T08:12:52.000Z</time>
      </trkpt>
      <trkpt lat="42.76853" lon="-0.34951">
        <ele>1425.52</ele>
        <time>2024-10-03T08:12:59.000Z</time>
      </trkpt>
      <trkpt lat="42.76851" lon="-0.34965">
        <ele>1426.19</ele>
        <time>2024-10-03T08:13:06.000Z</time>
      </trkpt>
      <trkpt lat="42.7685" lon="-0.34977">
        <ele>1426.67</ele>
        <time>2024-10-03T08:13:11.000Z</time>
      </trkpt>
      <trkpt lat="42.76848" lon="-0.3499">
        <ele>1427.14</ele>
        <time>2024-10-03T08:13:16.000Z</time>
      </trkpt>
      <trkpt lat="42.76848" lon="-0.35002">
        <ele>1427.7</ele>
        <time>2024-10-03T08:13:22.000Z</time>
      </trkpt>
      <trkpt lat="42.76848" lon="-0.35016">
        <ele>1428.34</ele>
        <time>2024-10-03T08:13:29.000Z</time>
      </trkpt>
      <trkpt lat="42.76848" lon="-0.35029">
        <ele>1428.88</ele>
        <time>2024-10-03T08:13:35.000Z</time>
      </trkpt>
      <trkpt lat="42.76849" lon="-0.35041">
        <ele>1429.42</ele>
        <time>2024-10-03T08:13:41.000Z</time>
      </trkpt>
      <trkpt lat="42.76851" lon="-0.35054">
        <ele>1430.13</ele>
        <time>2024-10-03T08:13:49.000Z</time>
      </trkpt>
      <trkpt lat="42.76856" lon="-0.35067">
        <ele>1430.64</ele>
        <time>2024-10-03T08:13:55.000Z</time>
      </trkpt>
      <trkpt lat="42.76859" lon="-0.35079">
        <ele>1431.15</ele>
        <time>2024-10-03T08:14:01.000Z</time>
      </trkpt>
      <trkpt lat="42.76863" lon="-0.35091">
        <ele>1431.82</ele>
        <time>2024-10-03T08:14:09.000Z</time>
      </trkpt>
      <trkpt lat="42.76867" lon="-0.35102">
        <ele>1432.38</ele>
        <time>2024-10-03T08:14:16.000Z</time>
      </trkpt>
      <trkpt lat="42.76872" lon="-0.35114">
        <ele>1432.9</ele>
        <time>2024-10-03T08:14:23.000Z</time>
      </trkpt>
      <trkpt lat="42.76877" lon="-0.35126">
        <ele>1433.38</ele>
        <time>2024-10-03T08:14:30.000Z</time>
      </trkpt>
      <trkpt lat="42.76882" lon="-0.35138">
        <ele>1433.84</ele>
        <time>2024-10-03T08:14:37.000Z</time>
      </trkpt>
      <trkpt lat="42.76887" lon="-0.35149">
        <ele>1434.26</ele>
        <time>2024-10-03T08:14:44.000Z</time>
      </trkpt>
      <trkpt lat="42.76892" lon="-0.3516">
        <ele>1434.61</ele>
        <time>2024-10-03T08:14:50.000Z</time>
      </trkpt>
      <trkpt lat="42.76898" lon="-0.35172">
        <ele>1435</ele>
        <time>2024-10-03T08:14:57.000Z</time>
      </trkpt>
      <trkpt lat="42.76902" lon="-0.35183">
        <ele>1435.32</ele>
        <time>2024-10-03T08:15:03.000Z</time>
      </trkpt>
      <trkpt lat="42.76906" lon="-0.35196">
        <ele>1435.65</ele>
        <time>2024-10-03T08:15:09.000Z</time>
      </trkpt>
      <trkpt lat="42.7691" lon="-0.35208">
        <ele>1436.01</ele>
        <time>2024-10-03T08:15:15.000Z</time>
      </trkpt>
      <trkpt lat="42.76912" lon="-0.35221">
        <ele>1436.4</ele>
        <time>2024-10-03T08:15:20.999Z</time>
      </trkpt>
      <trkpt lat="42.76912" lon="-0.35235">
        <ele>1436.89</ele>
        <time>2024-10-03T08:15:27.999Z</time>
      </trkpt>
      <trkpt lat="42.76912" lon="-0.35247">
        <ele>1437.4</ele>
        <time>2024-10-03T08:15:34.999Z</time>
      </trkpt>
      <trkpt lat="42.76911" lon="-0.3526">
        <ele>1437.92</ele>
        <time>2024-10-03T08:15:41.999Z</time>
      </trkpt>
      <trkpt lat="42.76911" lon="-0.35275">
        <ele>1438.46</ele>
        <time>2024-10-03T08:15:48.999Z</time>
      </trkpt>
      <trkpt lat="42.7691" lon="-0.35288">
        <ele>1439.01</ele>
        <time>2024-10-03T08:15:55.999Z</time>
      </trkpt>
      <trkpt lat="42.76909" lon="-0.35302">
        <ele>1439.57</ele>
        <time>2024-10-03T08:16:02.999Z</time>
      </trkpt>
      <trkpt lat="42.76908" lon="-0.35314">
        <ele>1440.05</ele>
        <time>2024-10-03T08:16:08.999Z</time>
      </trkpt>
      <trkpt lat="42.76907" lon="-0.35326">
        <ele>1440.54</ele>
        <time>2024-10-03T08:16:14.999Z</time>
      </trkpt>
      <trkpt lat="42.76906" lon="-0.3534">
        <ele>1441.12</ele>
        <time>2024-10-03T08:16:21.999Z</time>
      </trkpt>
      <trkpt lat="42.76905" lon="-0.35352">
        <ele>1441.62</ele>
        <time>2024-10-03T08:16:27.999Z</time>
      </trkpt>
      <trkpt lat="42.76904" lon="-0.35366">
        <ele>1442.22</ele>
        <time>2024-10-03T08:16:34.999Z</time>
      </trkpt>
      <trkpt lat="42.76902" lon="-0.3538">
        <ele>1442.82</ele>
        <time>2024-10-03T08:16:41.999Z</time>
      </trkpt>
      <trkpt lat="42.76901" lon="-0.35392">
        <ele>1443.34</ele>
        <time>2024-10-03T08:16:47.999Z</time>
      </trkpt>
      <trkpt lat="42.769" lon="-0.35406">
        <ele>1443.94</ele>
        <time>2024-10-03T08:16:54.999Z</time>
      </trkpt>
      <trkpt lat="42.76899" lon="-0.35418">
        <ele>1444.46</ele>
        <time>2024-10-03T08:17:00.999Z</time>
      </trkpt>
      <trkpt lat="42.76899" lon="-0.35432">
        <ele>1445.06</ele>
        <time>2024-10-03T08:17:07.999Z</time>
      </trkpt>
      <trkpt lat="42.76898" lon="-0.35446">
        <ele>1445.67</ele>
        <time>2024-10-03T08:17:14.999Z</time>
      </trkpt>
      <trkpt lat="42.76898" lon="-0.3546">
        <ele>1446.27</ele>
        <time>2024-10-03T08:17:21.999Z</time>
      </trkpt>
      <trkpt lat="42.76899" lon="-0.35475">
        <ele>1446.87</ele>
        <time>2024-10-03T08:17:28.999Z</time>
      </trkpt>
      <trkpt lat="42.769" lon="-0.35487">
        <ele>1447.38</ele>
        <time>2024-10-03T08:17:34.999Z</time>
      </trkpt>
      <trkpt lat="42.76901" lon="-0.35501">
        <ele>1447.97</ele>
        <time>2024-10-03T08:17:41.999Z</time>
      </trkpt>
      <trkpt lat="42.76903" lon="-0.35513">
        <ele>1448.48</ele>
        <time>2024-10-03T08:17:47.999Z</time>
      </trkpt>
      <trkpt lat="42.76906" lon="-0.35526">
        <ele>1449.07</ele>
        <time>2024-10-03T08:17:54.999Z</time>
      </trkpt>
      <trkpt lat="42.76911" lon="-0.35537">
        <ele>1449.67</ele>
        <time>2024-10-03T08:18:01.999Z</time>
      </trkpt>
      <trkpt lat="42.76918" lon="-0.35546">
        <ele>1452.27</ele>
        <time>2024-10-03T08:19:26.999Z</time>
      </trkpt>
      <trkpt lat="42.76922" lon="-0.35557">
        <ele>1453.23</ele>
        <time>2024-10-03T08:19:41.999Z</time>
      </trkpt>
      <trkpt lat="42.76926" lon="-0.35569">
        <ele>1453.95</ele>
        <time>2024-10-03T08:19:48.999Z</time>
      </trkpt>
      <trkpt lat="42.76931" lon="-0.35582">
        <ele>1454.55</ele>
        <time>2024-10-03T08:19:54.999Z</time>
      </trkpt>
      <trkpt lat="42.76935" lon="-0.35593">
        <ele>1455.13</ele>
        <time>2024-10-03T08:20:00.999Z</time>
      </trkpt>
      <trkpt lat="42.76939" lon="-0.35604">
        <ele>1455.69</ele>
        <time>2024-10-03T08:20:06.999Z</time>
      </trkpt>
      <trkpt lat="42.76941" lon="-0.35616">
        <ele>1456.25</ele>
        <time>2024-10-03T08:20:12.999Z</time>
      </trkpt>
      <trkpt lat="42.76944" lon="-0.35628">
        <ele>1456.8</ele>
        <time>2024-10-03T08:20:18.999Z</time>
      </trkpt>
      <trkpt lat="42.76946" lon="-0.35642">
        <ele>1457.43</ele>
        <time>2024-10-03T08:20:25.999Z</time>
      </trkpt>
      <trkpt lat="42.76948" lon="-0.35654">
        <ele>1457.96</ele>
        <time>2024-10-03T08:20:31.999Z</time>
      </trkpt>
      <trkpt lat="42.76949" lon="-0.35667">
        <ele>1458.57</ele>
        <time>2024-10-03T08:20:38.999Z</time>
      </trkpt>
      <trkpt lat="42.76949" lon="-0.35681">
        <ele>1459.17</ele>
        <time>2024-10-03T08:20:45.999Z</time>
      </trkpt>
      <trkpt lat="42.76948" lon="-0.35695">
        <ele>1459.75</ele>
        <time>2024-10-03T08:20:52.999Z</time>
      </trkpt>
      <trkpt lat="42.76946" lon="-0.35708">
        <ele>1460.33</ele>
        <time>2024-10-03T08:20:59.999Z</time>
      </trkpt>
      <trkpt lat="42.76941" lon="-0.3572">
        <ele>1460.95</ele>
        <time>2024-10-03T08:21:07.999Z</time>
      </trkpt>
      <trkpt lat="42.76937" lon="-0.35733">
        <ele>1461.4</ele>
        <time>2024-10-03T08:21:13.999Z</time>
      </trkpt>
      <trkpt lat="42.76934" lon="-0.35745">
        <ele>1461.87</ele>
        <time>2024-10-03T08:21:19.999Z</time>
      </trkpt>
      <trkpt lat="42.76929" lon="-0.35758">
        <ele>1462.43</ele>
        <time>2024-10-03T08:21:26.999Z</time>
      </trkpt>
      <trkpt lat="42.76924" lon="-0.35768">
        <ele>1462.93</ele>
        <time>2024-10-03T08:21:32.999Z</time>
      </trkpt>
      <trkpt lat="42.76918" lon="-0.35777">
        <ele>1463.43</ele>
        <time>2024-10-03T08:21:38.999Z</time>
      </trkpt>
      <trkpt lat="42.76912" lon="-0.35789">
        <ele>1463.95</ele>
        <time>2024-10-03T08:21:44.999Z</time>
      </trkpt>
      <trkpt lat="42.76906" lon="-0.358">
        <ele>1464.38</ele>
        <time>2024-10-03T08:21:49.999Z</time>
      </trkpt>
      <trkpt lat="42.76899" lon="-0.35809">
        <ele>1464.89</ele>
        <time>2024-10-03T08:21:55.999Z</time>
      </trkpt>
      <trkpt lat="42.76894" lon="-0.35819">
        <ele>1465.33</ele>
        <time>2024-10-03T08:22:00.999Z</time>
      </trkpt>
      <trkpt lat="42.76887" lon="-0.3583">
        <ele>1465.85</ele>
        <time>2024-10-03T08:22:06.999Z</time>
      </trkpt>
      <trkpt lat="42.76879" lon="-0.35838">
        <ele>1466.38</ele>
        <time>2024-10-03T08:22:12.999Z</time>
      </trkpt>
      <trkpt lat="42.76872" lon="-0.35847">
        <ele>1466.88</ele>
        <time>2024-10-03T08:22:18.999Z</time>
      </trkpt>
      <trkpt lat="42.76865" lon="-0.35856">
        <ele>1467.43</ele>
        <time>2024-10-03T08:22:25.999Z</time>
      </trkpt>
      <trkpt lat="42.76861" lon="-0.35867">
        <ele>1467.78</ele>
        <time>2024-10-03T08:22:30.999Z</time>
      </trkpt>
      <trkpt lat="42.76858" lon="-0.35879">
        <ele>1468.13</ele>
        <time>2024-10-03T08:22:35.999Z</time>
      </trkpt>
      <trkpt lat="42.76856" lon="-0.35892">
        <ele>1468.53</ele>
        <time>2024-10-03T08:22:41.999Z</time>
      </trkpt>
      <trkpt lat="42.76858" lon="-0.35905">
        <ele>1468.87</ele>
        <time>2024-10-03T08:22:46.999Z</time>
      </trkpt>
      <trkpt lat="42.76861" lon="-0.35917">
        <ele>1469.24</ele>
        <time>2024-10-03T08:22:51.999Z</time>
      </trkpt>
      <trkpt lat="42.76865" lon="-0.35929">
        <ele>1469.7</ele>
        <time>2024-10-03T08:22:57.999Z</time>
      </trkpt>
      <trkpt lat="42.76869" lon="-0.3594">
        <ele>1470.1</ele>
        <time>2024-10-03T08:23:02.999Z</time>
      </trkpt>
      <trkpt lat="42.76876" lon="-0.35951">
        <ele>1470.75</ele>
        <time>2024-10-03T08:23:10.999Z</time>
      </trkpt>
      <trkpt lat="42.76882" lon="-0.3596">
        <ele>1471.2</ele>
        <time>2024-10-03T08:23:16.999Z</time>
      </trkpt>
      <trkpt lat="42.76889" lon="-0.35968">
        <ele>1471.61</ele>
        <time>2024-10-03T08:23:22.999Z</time>
      </trkpt>
      <trkpt lat="42.76897" lon="-0.35977">
        <ele>1472.06</ele>
        <time>2024-10-03T08:23:29.999Z</time>
      </trkpt>
      <trkpt lat="42.76905" lon="-0.35983">
        <ele>1472.45</ele>
        <time>2024-10-03T08:23:35.999Z</time>
      </trkpt>
      <trkpt lat="42.76913" lon="-0.3599">
        <ele>1472.84</ele>
        <time>2024-10-03T08:23:41.999Z</time>
      </trkpt>
      <trkpt lat="42.76921" lon="-0.35996">
        <ele>1473.24</ele>
        <time>2024-10-03T08:23:47.999Z</time>
      </trkpt>
      <trkpt lat="42.7693" lon="-0.36003">
        <ele>1473.72</ele>
        <time>2024-10-03T08:23:54.999Z</time>
      </trkpt>
      <trkpt lat="42.76938" lon="-0.36009">
        <ele>1474.16</ele>
        <time>2024-10-03T08:24:00.999Z</time>
      </trkpt>
      <trkpt lat="42.76948" lon="-0.36015">
        <ele>1474.71</ele>
        <time>2024-10-03T08:24:07.999Z</time>
      </trkpt>
      <trkpt lat="42.76956" lon="-0.3602">
        <ele>1475.22</ele>
        <time>2024-10-03T08:24:13.999Z</time>
      </trkpt>
      <trkpt lat="42.76964" lon="-0.36027">
        <ele>1475.71</ele>
        <time>2024-10-03T08:24:19.999Z</time>
      </trkpt>
      <trkpt lat="42.76973" lon="-0.36034">
        <ele>1476.16</ele>
        <time>2024-10-03T08:24:25.999Z</time>
      </trkpt>
      <trkpt lat="42.76982" lon="-0.36041">
        <ele>1476.58</ele>
        <time>2024-10-03T08:24:31.999Z</time>
      </trkpt>
      <trkpt lat="42.7699" lon="-0.36048">
        <ele>1476.97</ele>
        <time>2024-10-03T08:24:37.999Z</time>
      </trkpt>
      <trkpt lat="42.76998" lon="-0.36058">
        <ele>1477.29</ele>
        <time>2024-10-03T08:24:42.999Z</time>
      </trkpt>
      <trkpt lat="42.77005" lon="-0.36068">
        <ele>1477.59</ele>
        <time>2024-10-03T08:24:47.999Z</time>
      </trkpt>
      <trkpt lat="42.7701" lon="-0.3608">
        <ele>1477.87</ele>
        <time>2024-10-03T08:24:52.999Z</time>
      </trkpt>
      <trkpt lat="42.77014" lon="-0.36092">
        <ele>1478.16</ele>
        <time>2024-10-03T08:24:57.999Z</time>
      </trkpt>
      <trkpt lat="42.77018" lon="-0.36107">
        <ele>1478.46</ele>
        <time>2024-10-03T08:25:02.999Z</time>
      </trkpt>
      <trkpt lat="42.7702" lon="-0.36122">
        <ele>1478.75</ele>
        <time>2024-10-03T08:25:07.999Z</time>
      </trkpt>
      <trkpt lat="42.77023" lon="-0.36142">
        <ele>1479.03</ele>
        <time>2024-10-03T08:25:12.999Z</time>
      </trkpt>
      <trkpt lat="42.77026" lon="-0.36164">
        <ele>1479.34</ele>
        <time>2024-10-03T08:25:17.999Z</time>
      </trkpt>
      <trkpt lat="42.77029" lon="-0.36194">
        <ele>1479.78</ele>
        <time>2024-10-03T08:25:22.999Z</time>
      </trkpt>
      <trkpt lat="42.77032" lon="-0.36223">
        <ele>1481.21</ele>
        <time>2024-10-03T08:25:27.999Z</time>
      </trkpt>
      <trkpt lat="42.77033" lon="-0.36247">
        <ele>1485.96</ele>
        <time>2024-10-03T08:25:32.999Z</time>
      </trkpt>
      <trkpt lat="42.77033" lon="-0.36272">
        <ele>1493.87</ele>
        <time>2024-10-03T08:25:37.999Z</time>
      </trkpt>
      <trkpt lat="42.77032" lon="-0.36301">
        <ele>1500.63</ele>
        <time>2024-10-03T08:25:42.999Z</time>
      </trkpt>
      <trkpt lat="42.77034" lon="-0.36332">
        <ele>1503.49</ele>
        <time>2024-10-03T08:25:47.999Z</time>
      </trkpt>
      <trkpt lat="42.77049" lon="-0.36359">
        <ele>1504.5</ele>
        <time>2024-10-03T08:25:52.999Z</time>
      </trkpt>
      <trkpt lat="42.77075" lon="-0.36373">
        <ele>1504.91</ele>
        <time>2024-10-03T08:25:57.999Z</time>
      </trkpt>
      <trkpt lat="42.771" lon="-0.36385">
        <ele>1505.19</ele>
        <time>2024-10-03T08:26:02.999Z</time>
      </trkpt>
      <trkpt lat="42.77123" lon="-0.36396">
        <ele>1505.24</ele>
        <time>2024-10-03T08:26:07.999Z</time>
      </trkpt>
      <trkpt lat="42.77145" lon="-0.36407">
        <ele>1505.13</ele>
        <time>2024-10-03T08:26:12.999Z</time>
      </trkpt>
      <trkpt lat="42.77166" lon="-0.36417">
        <ele>1504.95</ele>
        <time>2024-10-03T08:26:17.999Z</time>
      </trkpt>
      <trkpt lat="42.77188" lon="-0.36428">
        <ele>1504.75</ele>
        <time>2024-10-03T08:26:22.999Z</time>
      </trkpt>
      <trkpt lat="42.77209" lon="-0.36437">
        <ele>1504.58</ele>
        <time>2024-10-03T08:26:27.999Z</time>
      </trkpt>
      <trkpt lat="42.77225" lon="-0.36447">
        <ele>1504.48</ele>
        <time>2024-10-03T08:26:32.999Z</time>
      </trkpt>
      <trkpt lat="42.77238" lon="-0.36457">
        <ele>1504.45</ele>
        <time>2024-10-03T08:26:37.999Z</time>
      </trkpt>
      <trkpt lat="42.77247" lon="-0.36465">
        <ele>1504.41</ele>
        <time>2024-10-03T08:26:42.999Z</time>
      </trkpt>
      <trkpt lat="42.77255" lon="-0.36473">
        <ele>1504.36</ele>
        <time>2024-10-03T08:26:47.999Z</time>
      </trkpt>
      <trkpt lat="42.77263" lon="-0.36482">
        <ele>1504.3</ele>
        <time>2024-10-03T08:26:52.999Z</time>
      </trkpt>
      <trkpt lat="42.77272" lon="-0.3649">
        <ele>1504.23</ele>
        <time>2024-10-03T08:26:57.999Z</time>
      </trkpt>
      <trkpt lat="42.7728" lon="-0.36498">
        <ele>1504.15</ele>
        <time>2024-10-03T08:27:02.999Z</time>
      </trkpt>
      <trkpt lat="42.77288" lon="-0.36507">
        <ele>1504.06</ele>
        <time>2024-10-03T08:27:07.999Z</time>
      </trkpt>
      <trkpt lat="42.77298" lon="-0.36516">
        <ele>1503.98</ele>
        <time>2024-10-03T08:27:12.999Z</time>
      </trkpt>
      <trkpt lat="42.77307" lon="-0.36526">
        <ele>1503.89</ele>
        <time>2024-10-03T08:27:17.999Z</time>
      </trkpt>
      <trkpt lat="42.77316" lon="-0.36535">
        <ele>1503.81</ele>
        <time>2024-10-03T08:27:22.999Z</time>
      </trkpt>
      <trkpt lat="42.77325" lon="-0.36542">
        <ele>1503.73</ele>
        <time>2024-10-03T08:27:27.999Z</time>
      </trkpt>
      <trkpt lat="42.77333" lon="-0.36551">
        <ele>1503.66</ele>
        <time>2024-10-03T08:27:32.999Z</time>
      </trkpt>
      <trkpt lat="42.77342" lon="-0.3656">
        <ele>1503.59</ele>
        <time>2024-10-03T08:27:37.999Z</time>
      </trkpt>
      <trkpt lat="42.77349" lon="-0.3657">
        <ele>1503.53</ele>
        <time>2024-10-03T08:27:42.999Z</time>
      </trkpt>
      <trkpt lat="42.77354" lon="-0.3658">
        <ele>1503.49</ele>
        <time>2024-10-03T08:27:47.999Z</time>
      </trkpt>
      <trkpt lat="42.77361" lon="-0.36592">
        <ele>1503.47</ele>
        <time>2024-10-03T08:27:52.999Z</time>
      </trkpt>
      <trkpt lat="42.77366" lon="-0.36605">
        <ele>1503.46</ele>
        <time>2024-10-03T08:27:57.999Z</time>
      </trkpt>
      <trkpt lat="42.77371" lon="-0.36621">
        <ele>1503.47</ele>
        <time>2024-10-03T08:28:02.999Z</time>
      </trkpt>
      <trkpt lat="42.77374" lon="-0.36639">
        <ele>1503.5</ele>
        <time>2024-10-03T08:28:07.999Z</time>
      </trkpt>
      <trkpt lat="42.77377" lon="-0.36661">
        <ele>1503.55</ele>
        <time>2024-10-03T08:28:13.000Z</time>
      </trkpt>
      <trkpt lat="42.77379" lon="-0.36682">
        <ele>1503.63</ele>
        <time>2024-10-03T08:28:18.000Z</time>
      </trkpt>
      <trkpt lat="42.77379" lon="-0.36702">
        <ele>1503.74</ele>
        <time>2024-10-03T08:28:23.000Z</time>
      </trkpt>
      <trkpt lat="42.77373" lon="-0.36719">
        <ele>1503.87</ele>
        <time>2024-10-03T08:28:28.000Z</time>
      </trkpt>
      <trkpt lat="42.77371" lon="-0.36736">
        <ele>1504.01</ele>
        <time>2024-10-03T08:28:33.000Z</time>
      </trkpt>
      <trkpt lat="42.77376" lon="-0.36751">
        <ele>1504.16</ele>
        <time>2024-10-03T08:28:38.000Z</time>
      </trkpt>
      <trkpt lat="42.7738" lon="-0.36766">
        <ele>1504.33</ele>
        <time>2024-10-03T08:28:43.000Z</time>
      </trkpt>
      <trkpt lat="42.77386" lon="-0.3678">
        <ele>1504.5</ele>
        <time>2024-10-03T08:28:48.000Z</time>
      </trkpt>
      <trkpt lat="42.77399" lon="-0.36784">
        <ele>1504.66</ele>
        <time>2024-10-03T08:28:53.000Z</time>
      </trkpt>
      <trkpt lat="42.77412" lon="-0.36791">
        <ele>1504.81</ele>
        <time>2024-10-03T08:28:58.000Z</time>
      </trkpt>
      <trkpt lat="42.77423" lon="-0.36806">
        <ele>1504.94</ele>
        <time>2024-10-03T08:29:03.000Z</time>
      </trkpt>
      <trkpt lat="42.77433" lon="-0.3682">
        <ele>1505.07</ele>
        <time>2024-10-03T08:29:08.000Z</time>
      </trkpt>
      <trkpt lat="42.77443" lon="-0.3683">
        <ele>1505.18</ele>
        <time>2024-10-03T08:29:13.000Z</time>
      </trkpt>
      <trkpt lat="42.77452" lon="-0.36839">
        <ele>1505.3</ele>
        <time>2024-10-03T08:29:18.000Z</time>
      </trkpt>
      <trkpt lat="42.77459" lon="-0.36847">
        <ele>1505.41</ele>
        <time>2024-10-03T08:29:23.000Z</time>
      </trkpt>
      <trkpt lat="42.77465" lon="-0.36861">
        <ele>1505.52</ele>
        <time>2024-10-03T08:29:28.000Z</time>
      </trkpt>
      <trkpt lat="42.77471" lon="-0.36876">
        <ele>1505.62</ele>
        <time>2024-10-03T08:29:33.000Z</time>
      </trkpt>
      <trkpt lat="42.77479" lon="-0.36889">
        <ele>1505.72</ele>
        <time>2024-10-03T08:29:38.000Z</time>
      </trkpt>
      <trkpt lat="42.77491" lon="-0.36895">
        <ele>1505.82</ele>
        <time>2024-10-03T08:29:43.000Z</time>
      </trkpt>
      <trkpt lat="42.77501" lon="-0.36895">
        <ele>1505.92</ele>
        <time>2024-10-03T08:29:48.000Z</time>
      </trkpt>
      <trkpt lat="42.77514" lon="-0.36897">
        <ele>1506.02</ele>
        <time>2024-10-03T08:29:53.000Z</time>
      </trkpt>
      <trkpt lat="42.77524" lon="-0.36909">
        <ele>1506.14</ele>
        <time>2024-10-03T08:29:58.000Z</time>
      </trkpt>
      <trkpt lat="42.77532" lon="-0.36918">
        <ele>1506.25</ele>
        <time>2024-10-03T08:30:03.000Z</time>
      </trkpt>
      <trkpt lat="42.77541" lon="-0.36923">
        <ele>1506.36</ele>
        <time>2024-10-03T08:30:08.000Z</time>
      </trkpt>
      <trkpt lat="42.7755" lon="-0.36926">
        <ele>1506.45</ele>
        <time>2024-10-03T08:30:13.000Z</time>
      </trkpt>
      <trkpt lat="42.77557" lon="-0.36939">
        <ele>1506.54</ele>
        <time>2024-10-03T08:30:18.000Z</time>
      </trkpt>
      <trkpt lat="42.77557" lon="-0.3696">
        <ele>1506.64</ele>
        <time>2024-10-03T08:30:23.000Z</time>
      </trkpt>
      <trkpt lat="42.77553" lon="-0.3698">
        <ele>1506.75</ele>
        <time>2024-10-03T08:30:28.000Z</time>
      </trkpt>
      <trkpt lat="42.77552" lon="-0.36996">
        <ele>1506.86</ele>
        <time>2024-10-03T08:30:33.000Z</time>
      </trkpt>
      <trkpt lat="42.77552" lon="-0.3701">
        <ele>1506.98</ele>
        <time>2024-10-03T08:30:38.000Z</time>
      </trkpt>
      <trkpt lat="42.77553" lon="-0.37023">
        <ele>1507.11</ele>
        <time>2024-10-03T08:30:43.000Z</time>
      </trkpt>
      <trkpt lat="42.77554" lon="-0.37037">
        <ele>1507.27</ele>
        <time>2024-10-03T08:30:49.000Z</time>
      </trkpt>
      <trkpt lat="42.77555" lon="-0.37051">
        <ele>1507.44</ele>
        <time>2024-10-03T08:30:55.000Z</time>
      </trkpt>
      <trkpt lat="42.77555" lon="-0.37065">
        <ele>1507.61</ele>
        <time>2024-10-03T08:31:01.000Z</time>
      </trkpt>
      <trkpt lat="42.77556" lon="-0.37078">
        <ele>1507.8</ele>
        <time>2024-10-03T08:31:07.000Z</time>
      </trkpt>
      <trkpt lat="42.77557" lon="-0.37091">
        <ele>1508</ele>
        <time>2024-10-03T08:31:13.000Z</time>
      </trkpt>
      <trkpt lat="42.77558" lon="-0.37104">
        <ele>1508.2</ele>
        <time>2024-10-03T08:31:19.000Z</time>
      </trkpt>
      <trkpt lat="42.77559" lon="-0.37117">
        <ele>1508.4</ele>
        <time>2024-10-03T08:31:25.000Z</time>
      </trkpt>
      <trkpt lat="42.7756" lon="-0.37131">
        <ele>1508.6</ele>
        <time>2024-10-03T08:31:31.000Z</time>
      </trkpt>
      <trkpt lat="42.77561" lon="-0.37145">
        <ele>1508.81</ele>
        <time>2024-10-03T08:31:37.000Z</time>
      </trkpt>
      <trkpt lat="42.77562" lon="-0.37158">
        <ele>1509.02</ele>
        <time>2024-10-03T08:31:43.000Z</time>
      </trkpt>
      <trkpt lat="42.77562" lon="-0.37171">
        <ele>1509.23</ele>
        <time>2024-10-03T08:31:49.000Z</time>
      </trkpt>
      <trkpt lat="42.77563" lon="-0.37185">
        <ele>1509.44</ele>
        <time>2024-10-03T08:31:55.000Z</time>
      </trkpt>
      <trkpt lat="42.77563" lon="-0.37198">
        <ele>1509.66</ele>
        <time>2024-10-03T08:32:01.000Z</time>
      </trkpt>
      <trkpt lat="42.77564" lon="-0.37212">
        <ele>1509.93</ele>
        <time>2024-10-03T08:32:08.000Z</time>
      </trkpt>
      <trkpt lat="42.77565" lon="-0.37226">
        <ele>1510.2</ele>
        <time>2024-10-03T08:32:15.000Z</time>
      </trkpt>
      <trkpt lat="42.77566" lon="-0.3724">
        <ele>1510.48</ele>
        <time>2024-10-03T08:32:22.000Z</time>
      </trkpt>
      <trkpt lat="42.77567" lon="-0.37252">
        <ele>1510.72</ele>
        <time>2024-10-03T08:32:28.000Z</time>
      </trkpt>
      <trkpt lat="42.77568" lon="-0.37266">
        <ele>1511.01</ele>
        <time>2024-10-03T08:32:35.000Z</time>
      </trkpt>
      <trkpt lat="42.77569" lon="-0.3728">
        <ele>1511.3</ele>
        <time>2024-10-03T08:32:42.000Z</time>
      </trkpt>
      <trkpt lat="42.7757" lon="-0.37293">
        <ele>1511.56</ele>
        <time>2024-10-03T08:32:48.000Z</time>
      </trkpt>
      <trkpt lat="42.77572" lon="-0.37307">
        <ele>1511.86</ele>
        <time>2024-10-03T08:32:55.000Z</time>
      </trkpt>
      <trkpt lat="42.77573" lon="-0.37319">
        <ele>1512.14</ele>
        <time>2024-10-03T08:33:01.000Z</time>
      </trkpt>
      <trkpt lat="42.77575" lon="-0.37331">
        <ele>1512.41</ele>
        <time>2024-10-03T08:33:07.000Z</time>
      </trkpt>
      <trkpt lat="42.77577" lon="-0.37345">
        <ele>1512.74</ele>
        <time>2024-10-03T08:33:14.000Z</time>
      </trkpt>
      <trkpt lat="42.77579" lon="-0.37357">
        <ele>1513.02</ele>
        <time>2024-10-03T08:33:20.000Z</time>
      </trkpt>
      <trkpt lat="42.77582" lon="-0.3737">
        <ele>1513.31</ele>
        <time>2024-10-03T08:33:26.000Z</time>
      </trkpt>
      <trkpt lat="42.77585" lon="-0.37383">
        <ele>1513.59</ele>
        <time>2024-10-03T08:33:32.000Z</time>
      </trkpt>
      <trkpt lat="42.77589" lon="-0.37396">
        <ele>1513.86</ele>
        <time>2024-10-03T08:33:38.000Z</time>
      </trkpt>
      <trkpt lat="42.77593" lon="-0.37409">
        <ele>1514.14</ele>
        <time>2024-10-03T08:33:44.000Z</time>
      </trkpt>
      <trkpt lat="42.77596" lon="-0.37421">
        <ele>1514.41</ele>
        <time>2024-10-03T08:33:50.000Z</time>
      </trkpt>
      <trkpt lat="42.776" lon="-0.37433">
        <ele>1514.68</ele>
        <time>2024-10-03T08:33:56.000Z</time>
      </trkpt>
      <trkpt lat="42.77604" lon="-0.37445">
        <ele>1514.95</ele>
        <time>2024-10-03T08:34:02.000Z</time>
      </trkpt>
      <trkpt lat="42.77609" lon="-0.37457">
        <ele>1515.22</ele>
        <time>2024-10-03T08:34:08.000Z</time>
      </trkpt>
      <trkpt lat="42.77614" lon="-0.37469">
        <ele>1515.49</ele>
        <time>2024-10-03T08:34:14.000Z</time>
      </trkpt>
      <trkpt lat="42.77619" lon="-0.3748">
        <ele>1515.75</ele>
        <time>2024-10-03T08:34:20.000Z</time>
      </trkpt>
      <trkpt lat="42.77624" lon="-0.37492">
        <ele>1516</ele>
        <time>2024-10-03T08:34:26.000Z</time>
      </trkpt>
      <trkpt lat="42.77629" lon="-0.37504">
        <ele>1516.25</ele>
        <time>2024-10-03T08:34:32.000Z</time>
      </trkpt>
      <trkpt lat="42.77634" lon="-0.37514">
        <ele>1516.49</ele>
        <time>2024-10-03T08:34:38.000Z</time>
      </trkpt>
      <trkpt lat="42.7764" lon="-0.37524">
        <ele>1516.69</ele>
        <time>2024-10-03T08:34:43.000Z</time>
      </trkpt>
      <trkpt lat="42.77645" lon="-0.37534">
        <ele>1516.88</ele>
        <time>2024-10-03T08:34:48.000Z</time>
      </trkpt>
      <trkpt lat="42.7765" lon="-0.37545">
        <ele>1517.06</ele>
        <time>2024-10-03T08:34:53.000Z</time>
      </trkpt>
      <trkpt lat="42.77655" lon="-0.37556">
        <ele>1517.25</ele>
        <time>2024-10-03T08:34:58.000Z</time>
      </trkpt>
      <trkpt lat="42.77662" lon="-0.37569">
        <ele>1517.44</ele>
        <time>2024-10-03T08:35:03.000Z</time>
      </trkpt>
      <trkpt lat="42.77669" lon="-0.37585">
        <ele>1517.63</ele>
        <time>2024-10-03T08:35:08.000Z</time>
      </trkpt>
      <trkpt lat="42.77676" lon="-0.37602">
        <ele>1517.82</ele>
        <time>2024-10-03T08:35:13.000Z</time>
      </trkpt>
      <trkpt lat="42.77683" lon="-0.37621">
        <ele>1518.01</ele>
        <time>2024-10-03T08:35:18.000Z</time>
      </trkpt>
      <trkpt lat="42.7769" lon="-0.37639">
        <ele>1518.2</ele>
        <time>2024-10-03T08:35:23.000Z</time>
      </trkpt>
      <trkpt lat="42.77697" lon="-0.37658">
        <ele>1518.41</ele>
        <time>2024-10-03T08:35:28.000Z</time>
      </trkpt>
      <trkpt lat="42.77705" lon="-0.37679">
        <ele>1518.62</ele>
        <time>2024-10-03T08:35:33.000Z</time>
      </trkpt>
      <trkpt lat="42.77711" lon="-0.37699">
        <ele>1518.84</ele>
        <time>2024-10-03T08:35:38.000Z</time>
      </trkpt>
      <trkpt lat="42.77716" lon="-0.37717">
        <ele>1519.08</ele>
        <time>2024-10-03T08:35:43.000Z</time>
      </trkpt>
      <trkpt lat="42.77721" lon="-0.37736">
        <ele>1519.34</ele>
        <time>2024-10-03T08:35:48.000Z</time>
      </trkpt>
      <trkpt lat="42.77726" lon="-0.37754">
        <ele>1519.63</ele>
        <time>2024-10-03T08:35:53.000Z</time>
      </trkpt>
      <trkpt lat="42.77731" lon="-0.37773">
        <ele>1519.93</ele>
        <time>2024-10-03T08:35:58.000Z</time>
      </trkpt>
      <trkpt lat="42.77736" lon="-0.37792">
        <ele>1520.24</ele>
        <time>2024-10-03T08:36:03.000Z</time>
      </trkpt>
      <trkpt lat="42.77742" lon="-0.37811">
        <ele>1520.55</ele>
        <time>2024-10-03T08:36:08.000Z</time>
      </trkpt>
      <trkpt lat="42.77747" lon="-0.3783">
        <ele>1520.88</ele>
        <time>2024-10-03T08:36:13.000Z</time>
      </trkpt>
      <trkpt lat="42.77752" lon="-0.37848">
        <ele>1521.23</ele>
        <time>2024-10-03T08:36:18.000Z</time>
      </trkpt>
      <trkpt lat="42.77756" lon="-0.37866">
        <ele>1521.58</ele>
        <time>2024-10-03T08:36:23.000Z</time>
      </trkpt>
      <trkpt lat="42.77761" lon="-0.37884">
        <ele>1521.92</ele>
        <time>2024-10-03T08:36:28.000Z</time>
      </trkpt>
      <trkpt lat="42.77765" lon="-0.37899">
        <ele>1522.24</ele>
        <time>2024-10-03T08:36:33.000Z</time>
      </trkpt>
      <trkpt lat="42.77768" lon="-0.37912">
        <ele>1522.55</ele>
        <time>2024-10-03T08:36:38.000Z</time>
      </trkpt>
      <trkpt lat="42.77773" lon="-0.37925">
        <ele>1522.86</ele>
        <time>2024-10-03T08:36:43.000Z</time>
      </trkpt>
      <trkpt lat="42.77778" lon="-0.37939">
        <ele>1523.14</ele>
        <time>2024-10-03T08:36:48.000Z</time>
      </trkpt>
      <trkpt lat="42.77782" lon="-0.37952">
        <ele>1523.41</ele>
        <time>2024-10-03T08:36:53.000Z</time>
      </trkpt>
      <trkpt lat="42.77787" lon="-0.37965">
        <ele>1523.67</ele>
        <time>2024-10-03T08:36:58.000Z</time>
      </trkpt>
      <trkpt lat="42.77792" lon="-0.37978">
        <ele>1523.93</ele>
        <time>2024-10-03T08:37:03.000Z</time>
      </trkpt>
      <trkpt lat="42.77797" lon="-0.37992">
        <ele>1524.16</ele>
        <time>2024-10-03T08:37:08.000Z</time>
      </trkpt>
      <trkpt lat="42.77801" lon="-0.38004">
        <ele>1524.37</ele>
        <time>2024-10-03T08:37:13.000Z</time>
      </trkpt>
      <trkpt lat="42.77807" lon="-0.38017">
        <ele>1524.57</ele>
        <time>2024-10-03T08:37:18.000Z</time>
      </trkpt>
      <trkpt lat="42.77813" lon="-0.38031">
        <ele>1524.74</ele>
        <time>2024-10-03T08:37:23.000Z</time>
      </trkpt>
      <trkpt lat="42.77818" lon="-0.38042">
        <ele>1524.9</ele>
        <time>2024-10-03T08:37:28.000Z</time>
      </trkpt>
      <trkpt lat="42.77823" lon="-0.38053">
        <ele>1525.08</ele>
        <time>2024-10-03T08:37:34.000Z</time>
      </trkpt>
      <trkpt lat="42.77829" lon="-0.38064">
        <ele>1525.28</ele>
        <time>2024-10-03T08:37:40.000Z</time>
      </trkpt>
      <trkpt lat="42.77835" lon="-0.38075">
        <ele>1525.48</ele>
        <time>2024-10-03T08:37:46.000Z</time>
      </trkpt>
      <trkpt lat="42.77841" lon="-0.38084">
        <ele>1525.65</ele>
        <time>2024-10-03T08:37:51.000Z</time>
      </trkpt>
      <trkpt lat="42.77846" lon="-0.38096">
        <ele>1525.86</ele>
        <time>2024-10-03T08:37:57.000Z</time>
      </trkpt>
      <trkpt lat="42.77852" lon="-0.38107">
        <ele>1526.11</ele>
        <time>2024-10-03T08:38:03.000Z</time>
      </trkpt>
      <trkpt lat="42.77859" lon="-0.38117">
        <ele>1526.37</ele>
        <time>2024-10-03T08:38:09.000Z</time>
      </trkpt>
      <trkpt lat="42.77865" lon="-0.38128">
        <ele>1526.68</ele>
        <time>2024-10-03T08:38:15.000Z</time>
      </trkpt>
      <trkpt lat="42.77871" lon="-0.38137">
        <ele>1527.05</ele>
        <time>2024-10-03T08:38:21.000Z</time>
      </trkpt>
      <trkpt lat="42.77878" lon="-0.38145">
        <ele>1527.54</ele>
        <time>2024-10-03T08:38:28.000Z</time>
      </trkpt>
      <trkpt lat="42.77885" lon="-0.38155">
        <ele>1528.22</ele>
        <time>2024-10-03T08:38:35.000Z</time>
      </trkpt>
      <trkpt lat="42.77891" lon="-0.38165">
        <ele>1528.96</ele>
        <time>2024-10-03T08:38:42.000Z</time>
      </trkpt>
      <trkpt lat="42.77898" lon="-0.38174">
        <ele>1529.73</ele>
        <time>2024-10-03T08:38:49.000Z</time>
      </trkpt>
      <trkpt lat="42.77904" lon="-0.38184">
        <ele>1530.53</ele>
        <time>2024-10-03T08:38:56.000Z</time>
      </trkpt>
      <trkpt lat="42.7791" lon="-0.38194">
        <ele>1531.33</ele>
        <time>2024-10-03T08:39:03.000Z</time>
      </trkpt>
      <trkpt lat="42.77916" lon="-0.38203">
        <ele>1532.07</ele>
        <time>2024-10-03T08:39:10.000Z</time>
      </trkpt>
      <trkpt lat="42.77922" lon="-0.38212">
        <ele>1532.73</ele>
        <time>2024-10-03T08:39:17.000Z</time>
      </trkpt>
      <trkpt lat="42.7793" lon="-0.3822">
        <ele>1533.34</ele>
        <time>2024-10-03T08:39:24.000Z</time>
      </trkpt>
      <trkpt lat="42.77938" lon="-0.38228">
        <ele>1533.97</ele>
        <time>2024-10-03T08:39:32.000Z</time>
      </trkpt>
      <trkpt lat="42.77946" lon="-0.38235">
        <ele>1534.41</ele>
        <time>2024-10-03T08:39:38.000Z</time>
      </trkpt>
      <trkpt lat="42.77954" lon="-0.38241">
        <ele>1534.9</ele>
        <time>2024-10-03T08:39:45.000Z</time>
      </trkpt>
      <trkpt lat="42.77963" lon="-0.38247">
        <ele>1535.43</ele>
        <time>2024-10-03T08:39:53.000Z</time>
      </trkpt>
      <trkpt lat="42.77971" lon="-0.38252">
        <ele>1535.87</ele>
        <time>2024-10-03T08:40:00.000Z</time>
      </trkpt>
      <trkpt lat="42.7798" lon="-0.38257">
        <ele>1536.31</ele>
        <time>2024-10-03T08:40:07.000Z</time>
      </trkpt>
      <trkpt lat="42.7799" lon="-0.38261">
        <ele>1536.76</ele>
        <time>2024-10-03T08:40:14.000Z</time>
      </trkpt>
      <trkpt lat="42.77999" lon="-0.38265">
        <ele>1537.29</ele>
        <time>2024-10-03T08:40:22.000Z</time>
      </trkpt>
      <trkpt lat="42.78008" lon="-0.38271">
        <ele>1537.8</ele>
        <time>2024-10-03T08:40:30.000Z</time>
      </trkpt>
      <trkpt lat="42.78018" lon="-0.38273">
        <ele>1538.31</ele>
        <time>2024-10-03T08:40:37.000Z</time>
      </trkpt>
      <trkpt lat="42.78027" lon="-0.38278">
        <ele>1538.91</ele>
        <time>2024-10-03T08:40:44.000Z</time>
      </trkpt>
      <trkpt lat="42.78035" lon="-0.38286">
        <ele>1539.53</ele>
        <time>2024-10-03T08:40:52.000Z</time>
      </trkpt>
      <trkpt lat="42.78043" lon="-0.38293">
        <ele>1540.06</ele>
        <time>2024-10-03T08:40:59.000Z</time>
      </trkpt>
      <trkpt lat="42.7805" lon="-0.38305">
        <ele>1540.61</ele>
        <time>2024-10-03T08:41:06.000Z</time>
      </trkpt>
      <trkpt lat="42.78057" lon="-0.38314">
        <ele>1541.23</ele>
        <time>2024-10-03T08:41:13.999Z</time>
      </trkpt>
      <trkpt lat="42.78063" lon="-0.38326">
        <ele>1541.88</ele>
        <time>2024-10-03T08:41:21.999Z</time>
      </trkpt>
      <trkpt lat="42.78069" lon="-0.38337">
        <ele>1542.41</ele>
        <time>2024-10-03T08:41:27.999Z</time>
      </trkpt>
      <trkpt lat="42.78073" lon="-0.38348">
        <ele>1542.99</ele>
        <time>2024-10-03T08:41:33.999Z</time>
      </trkpt>
      <trkpt lat="42.78077" lon="-0.38361">
        <ele>1543.61</ele>
        <time>2024-10-03T08:41:39.999Z</time>
      </trkpt>
      <trkpt lat="42.7808" lon="-0.38372">
        <ele>1544.28</ele>
        <time>2024-10-03T08:41:45.999Z</time>
      </trkpt>
      <trkpt lat="42.78083" lon="-0.38385">
        <ele>1545.1</ele>
        <time>2024-10-03T08:41:52.999Z</time>
      </trkpt>
      <trkpt lat="42.78087" lon="-0.38396">
        <ele>1551.32</ele>
        <time>2024-10-03T08:44:22.999Z</time>
      </trkpt>
      <trkpt lat="42.78084" lon="-0.38408">
        <ele>1560.42</ele>
        <time>2024-10-03T08:47:04.999Z</time>
      </trkpt>
      <trkpt lat="42.78084" lon="-0.38422">
        <ele>1562.08</ele>
        <time>2024-10-03T08:47:11.999Z</time>
      </trkpt>
      <trkpt lat="42.78083" lon="-0.38434">
        <ele>1563.37</ele>
        <time>2024-10-03T08:47:17.999Z</time>
      </trkpt>
      <trkpt lat="42.78083" lon="-0.38447">
        <ele>1564.55</ele>
        <time>2024-10-03T08:47:23.999Z</time>
      </trkpt>
      <trkpt lat="42.78082" lon="-0.3846">
        <ele>1565.82</ele>
        <time>2024-10-03T08:47:30.999Z</time>
      </trkpt>
      <trkpt lat="42.78081" lon="-0.38472">
        <ele>1566.96</ele>
        <time>2024-10-03T08:47:37.999Z</time>
      </trkpt>
      <trkpt lat="42.78082" lon="-0.38486">
        <ele>1568</ele>
        <time>2024-10-03T08:47:44.999Z</time>
      </trkpt>
      <trkpt lat="42.78082" lon="-0.38498">
        <ele>1568.95</ele>
        <time>2024-10-03T08:47:51.999Z</time>
      </trkpt>
      <trkpt lat="42.78082" lon="-0.38512">
        <ele>1569.81</ele>
        <time>2024-10-03T08:47:58.999Z</time>
      </trkpt>
      <trkpt lat="42.78082" lon="-0.38526">
        <ele>1570.72</ele>
        <time>2024-10-03T08:48:06.999Z</time>
      </trkpt>
      <trkpt lat="42.7808" lon="-0.38539">
        <ele>1571.46</ele>
        <time>2024-10-03T08:48:13.999Z</time>
      </trkpt>
      <trkpt lat="42.78081" lon="-0.38552">
        <ele>1572.15</ele>
        <time>2024-10-03T08:48:20.999Z</time>
      </trkpt>
      <trkpt lat="42.7808" lon="-0.38566">
        <ele>1572.8</ele>
        <time>2024-10-03T08:48:27.999Z</time>
      </trkpt>
      <trkpt lat="42.7808" lon="-0.3858">
        <ele>1573.4</ele>
        <time>2024-10-03T08:48:34.999Z</time>
      </trkpt>
      <trkpt lat="42.7808" lon="-0.38593">
        <ele>1573.98</ele>
        <time>2024-10-03T08:48:41.999Z</time>
      </trkpt>
      <trkpt lat="42.78079" lon="-0.38606">
        <ele>1574.54</ele>
        <time>2024-10-03T08:48:48.999Z</time>
      </trkpt>
      <trkpt lat="42.78081" lon="-0.38619">
        <ele>1575.07</ele>
        <time>2024-10-03T08:48:55.999Z</time>
      </trkpt>
      <trkpt lat="42.78084" lon="-0.38632">
        <ele>1575.58</ele>
        <time>2024-10-03T08:49:02.999Z</time>
      </trkpt>
      <trkpt lat="42.78087" lon="-0.38644">
        <ele>1576.08</ele>
        <time>2024-10-03T08:49:09.999Z</time>
      </trkpt>
      <trkpt lat="42.7809" lon="-0.38656">
        <ele>1576.62</ele>
        <time>2024-10-03T08:49:17.999Z</time>
      </trkpt>
      <trkpt lat="42.78094" lon="-0.38669">
        <ele>1577.21</ele>
        <time>2024-10-03T08:49:26.999Z</time>
      </trkpt>
      <trkpt lat="42.78099" lon="-0.3868">
        <ele>1577.7</ele>
        <time>2024-10-03T08:49:34.999Z</time>
      </trkpt>
      <trkpt lat="42.78103" lon="-0.38691">
        <ele>1578.16</ele>
        <time>2024-10-03T08:49:42.999Z</time>
      </trkpt>
      <trkpt lat="42.78108" lon="-0.38702">
        <ele>1578.61</ele>
        <time>2024-10-03T08:49:50.999Z</time>
      </trkpt>
      <trkpt lat="42.78115" lon="-0.38713">
        <ele>1579.1</ele>
        <time>2024-10-03T08:49:59.999Z</time>
      </trkpt>
      <trkpt lat="42.78121" lon="-0.38723">
        <ele>1579.61</ele>
        <time>2024-10-03T08:50:08.999Z</time>
      </trkpt>
      <trkpt lat="42.78128" lon="-0.38733">
        <ele>1580.05</ele>
        <time>2024-10-03T08:50:16.999Z</time>
      </trkpt>
      <trkpt lat="42.78137" lon="-0.38741">
        <ele>1580.48</ele>
        <time>2024-10-03T08:50:24.999Z</time>
      </trkpt>
      <trkpt lat="42.78145" lon="-0.38749">
        <ele>1580.96</ele>
        <time>2024-10-03T08:50:33.999Z</time>
      </trkpt>
      <trkpt lat="42.78153" lon="-0.38756">
        <ele>1581.34</ele>
        <time>2024-10-03T08:50:40.999Z</time>
      </trkpt>
      <trkpt lat="42.78161" lon="-0.38762">
        <ele>1581.71</ele>
        <time>2024-10-03T08:50:47.999Z</time>
      </trkpt>
      <trkpt lat="42.78169" lon="-0.38767">
        <ele>1582.08</ele>
        <time>2024-10-03T08:50:54.999Z</time>
      </trkpt>
      <trkpt lat="42.78178" lon="-0.38771">
        <ele>1582.45</ele>
        <time>2024-10-03T08:51:01.999Z</time>
      </trkpt>
      <trkpt lat="42.78188" lon="-0.38776">
        <ele>1582.82</ele>
        <time>2024-10-03T08:51:08.999Z</time>
      </trkpt>
      <trkpt lat="42.78197" lon="-0.38779">
        <ele>1583.23</ele>
        <time>2024-10-03T08:51:16.999Z</time>
      </trkpt>
      <trkpt lat="42.78206" lon="-0.38784">
        <ele>1583.6</ele>
        <time>2024-10-03T08:51:23.999Z</time>
      </trkpt>
      <trkpt lat="42.78215" lon="-0.38789">
        <ele>1583.97</ele>
        <time>2024-10-03T08:51:30.999Z</time>
      </trkpt>
      <trkpt lat="42.78224" lon="-0.38793">
        <ele>1584.34</ele>
        <time>2024-10-03T08:51:37.999Z</time>
      </trkpt>
      <trkpt lat="42.78233" lon="-0.38798">
        <ele>1584.78</ele>
        <time>2024-10-03T08:51:45.999Z</time>
      </trkpt>
      <trkpt lat="42.78242" lon="-0.38803">
        <ele>1585.16</ele>
        <time>2024-10-03T08:51:52.999Z</time>
      </trkpt>
      <trkpt lat="42.78251" lon="-0.38809">
        <ele>1585.55</ele>
        <time>2024-10-03T08:52:00.999Z</time>
      </trkpt>
      <trkpt lat="42.7826" lon="-0.38814">
        <ele>1585.91</ele>
        <time>2024-10-03T08:52:08.999Z</time>
      </trkpt>
      <trkpt lat="42.78271" lon="-0.38817">
        <ele>1586.19</ele>
        <time>2024-10-03T08:52:15.999Z</time>
      </trkpt>
      <trkpt lat="42.78279" lon="-0.38823">
        <ele>1586.48</ele>
        <time>2024-10-03T08:52:22.999Z</time>
      </trkpt>
      <trkpt lat="42.78288" lon="-0.38829">
        <ele>1586.74</ele>
        <time>2024-10-03T08:52:29.999Z</time>
      </trkpt>
      <trkpt lat="42.78298" lon="-0.38833">
        <ele>1586.98</ele>
        <time>2024-10-03T08:52:36.999Z</time>
      </trkpt>
      <trkpt lat="42.78307" lon="-0.38838">
        <ele>1587.21</ele>
        <time>2024-10-03T08:52:43.999Z</time>
      </trkpt>
      <trkpt lat="42.78317" lon="-0.38843">
        <ele>1587.43</ele>
        <time>2024-10-03T08:52:50.999Z</time>
      </trkpt>
      <trkpt lat="42.78325" lon="-0.38847">
        <ele>1587.63</ele>
        <time>2024-10-03T08:52:56.999Z</time>
      </trkpt>
      <trkpt lat="42.78335" lon="-0.38852">
        <ele>1587.89</ele>
        <time>2024-10-03T08:53:03.999Z</time>
      </trkpt>
      <trkpt lat="42.78345" lon="-0.38858">
        <ele>1588.15</ele>
        <time>2024-10-03T08:53:09.999Z</time>
      </trkpt>
      <trkpt lat="42.78353" lon="-0.38861">
        <ele>1588.38</ele>
        <time>2024-10-03T08:53:14.999Z</time>
      </trkpt>
      <trkpt lat="42.78363" lon="-0.38866">
        <ele>1588.62</ele>
        <time>2024-10-03T08:53:19.999Z</time>
      </trkpt>
      <trkpt lat="42.78373" lon="-0.3887">
        <ele>1588.93</ele>
        <time>2024-10-03T08:53:25.999Z</time>
      </trkpt>
      <trkpt lat="42.78382" lon="-0.38875">
        <ele>1589.21</ele>
        <time>2024-10-03T08:53:30.999Z</time>
      </trkpt>
      <trkpt lat="42.78392" lon="-0.38882">
        <ele>1589.57</ele>
        <time>2024-10-03T08:53:36.999Z</time>
      </trkpt>
      <trkpt lat="42.78401" lon="-0.38887">
        <ele>1589.9</ele>
        <time>2024-10-03T08:53:41.999Z</time>
      </trkpt>
      <trkpt lat="42.7841" lon="-0.38892">
        <ele>1590.24</ele>
        <time>2024-10-03T08:53:46.999Z</time>
      </trkpt>
      <trkpt lat="42.78418" lon="-0.38898">
        <ele>1590.6</ele>
        <time>2024-10-03T08:53:51.999Z</time>
      </trkpt>
      <trkpt lat="42.78426" lon="-0.38906">
        <ele>1590.99</ele>
        <time>2024-10-03T08:53:56.999Z</time>
      </trkpt>
      <trkpt lat="42.78435" lon="-0.38915">
        <ele>1591.49</ele>
        <time>2024-10-03T08:54:03.000Z</time>
      </trkpt>
      <trkpt lat="42.78443" lon="-0.38923">
        <ele>1591.93</ele>
        <time>2024-10-03T08:54:08.000Z</time>
      </trkpt>
      <trkpt lat="42.78453" lon="-0.38932">
        <ele>1592.38</ele>
        <time>2024-10-03T08:54:13.000Z</time>
      </trkpt>
      <trkpt lat="42.78461" lon="-0.38942">
        <ele>1592.84</ele>
        <time>2024-10-03T08:54:18.000Z</time>
      </trkpt>
      <trkpt lat="42.78469" lon="-0.38952">
        <ele>1593.3</ele>
        <time>2024-10-03T08:54:23.000Z</time>
      </trkpt>
      <trkpt lat="42.78475" lon="-0.38962">
        <ele>1593.76</ele>
        <time>2024-10-03T08:54:28.000Z</time>
      </trkpt>
      <trkpt lat="42.78483" lon="-0.38973">
        <ele>1594.23</ele>
        <time>2024-10-03T08:54:33.000Z</time>
      </trkpt>
      <trkpt lat="42.78488" lon="-0.38983">
        <ele>1594.69</ele>
        <time>2024-10-03T08:54:38.000Z</time>
      </trkpt>
      <trkpt lat="42.78494" lon="-0.38994">
        <ele>1595.24</ele>
        <time>2024-10-03T08:54:44.000Z</time>
      </trkpt>
      <trkpt lat="42.78499" lon="-0.39004">
        <ele>1595.79</ele>
        <time>2024-10-03T08:54:50.000Z</time>
      </trkpt>
      <trkpt lat="42.78504" lon="-0.39015">
        <ele>1596.35</ele>
        <time>2024-10-03T08:54:56.000Z</time>
      </trkpt>
      <trkpt lat="42.78509" lon="-0.39027">
        <ele>1596.94</ele>
        <time>2024-10-03T08:55:02.000Z</time>
      </trkpt>
      <trkpt lat="42.78513" lon="-0.39039">
        <ele>1597.65</ele>
        <time>2024-10-03T08:55:09.000Z</time>
      </trkpt>
      <trkpt lat="42.78518" lon="-0.39051">
        <ele>1598.38</ele>
        <time>2024-10-03T08:55:16.000Z</time>
      </trkpt>
      <trkpt lat="42.78522" lon="-0.39062">
        <ele>1599.12</ele>
        <time>2024-10-03T08:55:23.000Z</time>
      </trkpt>
      <trkpt lat="42.78527" lon="-0.39073">
        <ele>1599.88</ele>
        <time>2024-10-03T08:55:30.000Z</time>
      </trkpt>
      <trkpt lat="42.78531" lon="-0.39084">
        <ele>1600.66</ele>
        <time>2024-10-03T08:55:37.000Z</time>
      </trkpt>
      <trkpt lat="42.78536" lon="-0.39096">
        <ele>1601.45</ele>
        <time>2024-10-03T08:55:44.000Z</time>
      </trkpt>
      <trkpt lat="42.7854" lon="-0.39107">
        <ele>1602.25</ele>
        <time>2024-10-03T08:55:51.000Z</time>
      </trkpt>
      <trkpt lat="42.78545" lon="-0.39118">
        <ele>1603.05</ele>
        <time>2024-10-03T08:55:58.000Z</time>
      </trkpt>
      <trkpt lat="42.78549" lon="-0.39129">
        <ele>1603.97</ele>
        <time>2024-10-03T08:56:06.000Z</time>
      </trkpt>
      <trkpt lat="42.78554" lon="-0.3914">
        <ele>1604.78</ele>
        <time>2024-10-03T08:56:13.000Z</time>
      </trkpt>
      <trkpt lat="42.78558" lon="-0.39151">
        <ele>1605.57</ele>
        <time>2024-10-03T08:56:20.000Z</time>
      </trkpt>
      <trkpt lat="42.78564" lon="-0.39162">
        <ele>1606.37</ele>
        <time>2024-10-03T08:56:27.000Z</time>
      </trkpt>
      <trkpt lat="42.78569" lon="-0.39172">
        <ele>1607.15</ele>
        <time>2024-10-03T08:56:34.000Z</time>
      </trkpt>
      <trkpt lat="42.78576" lon="-0.39181">
        <ele>1608.25</ele>
        <time>2024-10-03T08:56:42.000Z</time>
      </trkpt>
      <trkpt lat="42.78582" lon="-0.39191">
        <ele>1609.39</ele>
        <time>2024-10-03T08:56:49.000Z</time>
      </trkpt>
      <trkpt lat="42.78588" lon="-0.39202">
        <ele>1610.6</ele>
        <time>2024-10-03T08:56:56.000Z</time>
      </trkpt>
      <trkpt lat="42.78594" lon="-0.39212">
        <ele>1611.69</ele>
        <time>2024-10-03T08:57:02.000Z</time>
      </trkpt>
      <trkpt lat="42.786" lon="-0.39222">
        <ele>1613</ele>
        <time>2024-10-03T08:57:09.000Z</time>
      </trkpt>
      <trkpt lat="42.78605" lon="-0.39232">
        <ele>1614.32</ele>
        <time>2024-10-03T08:57:16.000Z</time>
      </trkpt>
      <trkpt lat="42.78611" lon="-0.39243">
        <ele>1615.6</ele>
        <time>2024-10-03T08:57:23.000Z</time>
      </trkpt>
      <trkpt lat="42.78617" lon="-0.39252">
        <ele>1616.83</ele>
        <time>2024-10-03T08:57:30.000Z</time>
      </trkpt>
      <trkpt lat="42.78623" lon="-0.39264">
        <ele>1618.01</ele>
        <time>2024-10-03T08:57:37.000Z</time>
      </trkpt>
      <trkpt lat="42.78629" lon="-0.39274">
        <ele>1619.17</ele>
        <time>2024-10-03T08:57:44.000Z</time>
      </trkpt>
      <trkpt lat="42.78636" lon="-0.39284">
        <ele>1620.27</ele>
        <time>2024-10-03T08:57:51.000Z</time>
      </trkpt>
      <trkpt lat="42.78642" lon="-0.39293">
        <ele>1621.17</ele>
        <time>2024-10-03T08:57:57.000Z</time>
      </trkpt>
      <trkpt lat="42.78649" lon="-0.39303">
        <ele>1622.19</ele>
        <time>2024-10-03T08:58:04.000Z</time>
      </trkpt>
      <trkpt lat="42.78655" lon="-0.39313">
        <ele>1623.19</ele>
        <time>2024-10-03T08:58:11.000Z</time>
      </trkpt>
      <trkpt lat="42.78661" lon="-0.39323">
        <ele>1624.16</ele>
        <time>2024-10-03T08:58:18.000Z</time>
      </trkpt>
      <trkpt lat="42.78667" lon="-0.39334">
        <ele>1625.12</ele>
        <time>2024-10-03T08:58:25.000Z</time>
      </trkpt>
      <trkpt lat="42.78674" lon="-0.39344">
        <ele>1626.08</ele>
        <time>2024-10-03T08:58:32.000Z</time>
      </trkpt>
      <trkpt lat="42.78682" lon="-0.39353">
        <ele>1626.89</ele>
        <time>2024-10-03T08:58:38.000Z</time>
      </trkpt>
      <trkpt lat="42.78689" lon="-0.39362">
        <ele>1627.83</ele>
        <time>2024-10-03T08:58:45.000Z</time>
      </trkpt>
      <trkpt lat="42.78696" lon="-0.39371">
        <ele>1628.74</ele>
        <time>2024-10-03T08:58:52.000Z</time>
      </trkpt>
      <trkpt lat="42.78704" lon="-0.3938">
        <ele>1629.63</ele>
        <time>2024-10-03T08:58:59.000Z</time>
      </trkpt>
      <trkpt lat="42.78711" lon="-0.3939">
        <ele>1630.49</ele>
        <time>2024-10-03T08:59:06.000Z</time>
      </trkpt>
      <trkpt lat="42.78719" lon="-0.39398">
        <ele>1631.32</ele>
        <time>2024-10-03T08:59:13.000Z</time>
      </trkpt>
      <trkpt lat="42.78727" lon="-0.39407">
        <ele>1632.12</ele>
        <time>2024-10-03T08:59:20.000Z</time>
      </trkpt>
      <trkpt lat="42.78734" lon="-0.39416">
        <ele>1632.79</ele>
        <time>2024-10-03T08:59:26.000Z</time>
      </trkpt>
      <trkpt lat="42.78741" lon="-0.39424">
        <ele>1633.43</ele>
        <time>2024-10-03T08:59:32.000Z</time>
      </trkpt>
      <trkpt lat="42.78748" lon="-0.39433">
        <ele>1634.06</ele>
        <time>2024-10-03T08:59:38.000Z</time>
      </trkpt>
      <trkpt lat="42.78756" lon="-0.39442">
        <ele>1634.67</ele>
        <time>2024-10-03T08:59:44.000Z</time>
      </trkpt>
      <trkpt lat="42.78763" lon="-0.3945">
        <ele>1635.17</ele>
        <time>2024-10-03T08:59:49.000Z</time>
      </trkpt>
      <trkpt lat="42.7877" lon="-0.39459">
        <ele>1635.76</ele>
        <time>2024-10-03T08:59:55.000Z</time>
      </trkpt>
      <trkpt lat="42.78778" lon="-0.39468">
        <ele>1636.44</ele>
        <time>2024-10-03T09:00:02.000Z</time>
      </trkpt>
      <trkpt lat="42.78786" lon="-0.39477">
        <ele>1637</ele>
        <time>2024-10-03T09:00:08.000Z</time>
      </trkpt>
      <trkpt lat="42.78793" lon="-0.39487">
        <ele>1637.55</ele>
        <time>2024-10-03T09:00:14.000Z</time>
      </trkpt>
      <trkpt lat="42.788" lon="-0.39496">
        <ele>1638.08</ele>
        <time>2024-10-03T09:00:20.000Z</time>
      </trkpt>
      <trkpt lat="42.78808" lon="-0.39506">
        <ele>1638.61</ele>
        <time>2024-10-03T09:00:26.000Z</time>
      </trkpt>
      <trkpt lat="42.78814" lon="-0.39515">
        <ele>1639.03</ele>
        <time>2024-10-03T09:00:31.000Z</time>
      </trkpt>
      <trkpt lat="42.78821" lon="-0.39524">
        <ele>1639.46</ele>
        <time>2024-10-03T09:00:36.000Z</time>
      </trkpt>
      <trkpt lat="42.78827" lon="-0.39533">
        <ele>1639.88</ele>
        <time>2024-10-03T09:00:41.000Z</time>
      </trkpt>
      <trkpt lat="42.78834" lon="-0.39543">
        <ele>1640.3</ele>
        <time>2024-10-03T09:00:46.000Z</time>
      </trkpt>
      <trkpt lat="42.7884" lon="-0.39553">
        <ele>1640.72</ele>
        <time>2024-10-03T09:00:51.000Z</time>
      </trkpt>
      <trkpt lat="42.78847" lon="-0.39564">
        <ele>1641.14</ele>
        <time>2024-10-03T09:00:56.000Z</time>
      </trkpt>
      <trkpt lat="42.78853" lon="-0.39573">
        <ele>1641.55</ele>
        <time>2024-10-03T09:01:01.000Z</time>
      </trkpt>
      <trkpt lat="42.7886" lon="-0.39585">
        <ele>1641.96</ele>
        <time>2024-10-03T09:01:06.000Z</time>
      </trkpt>
      <trkpt lat="42.78866" lon="-0.39594">
        <ele>1642.36</ele>
        <time>2024-10-03T09:01:11.000Z</time>
      </trkpt>
      <trkpt lat="42.78873" lon="-0.39604">
        <ele>1642.77</ele>
        <time>2024-10-03T09:01:16.000Z</time>
      </trkpt>
      <trkpt lat="42.7888" lon="-0.39614">
        <ele>1643.17</ele>
        <time>2024-10-03T09:01:21.000Z</time>
      </trkpt>
      <trkpt lat="42.78886" lon="-0.39624">
        <ele>1643.57</ele>
        <time>2024-10-03T09:01:26.000Z</time>
      </trkpt>
      <trkpt lat="42.78892" lon="-0.39634">
        <ele>1643.97</ele>
        <time>2024-10-03T09:01:31.000Z</time>
      </trkpt>
      <trkpt lat="42.78899" lon="-0.39644">
        <ele>1644.36</ele>
        <time>2024-10-03T09:01:36.000Z</time>
      </trkpt>
      <trkpt lat="42.78906" lon="-0.39655">
        <ele>1644.75</ele>
        <time>2024-10-03T09:01:41.000Z</time>
      </trkpt>
      <trkpt lat="42.78913" lon="-0.39666">
        <ele>1645.13</ele>
        <time>2024-10-03T09:01:46.000Z</time>
      </trkpt>
      <trkpt lat="42.78919" lon="-0.39676">
        <ele>1645.52</ele>
        <time>2024-10-03T09:01:51.000Z</time>
      </trkpt>
      <trkpt lat="42.78924" lon="-0.39686">
        <ele>1645.89</ele>
        <time>2024-10-03T09:01:56.000Z</time>
      </trkpt>
      <trkpt lat="42.78931" lon="-0.39696">
        <ele>1646.26</ele>
        <time>2024-10-03T09:02:01.000Z</time>
      </trkpt>
      <trkpt lat="42.78936" lon="-0.39707">
        <ele>1646.62</ele>
        <time>2024-10-03T09:02:06.000Z</time>
      </trkpt>
      <trkpt lat="42.78942" lon="-0.39718">
        <ele>1646.98</ele>
        <time>2024-10-03T09:02:11.000Z</time>
      </trkpt>
      <trkpt lat="42.78947" lon="-0.39729">
        <ele>1647.34</ele>
        <time>2024-10-03T09:02:16.000Z</time>
      </trkpt>
      <trkpt lat="42.78952" lon="-0.39741">
        <ele>1647.7</ele>
        <time>2024-10-03T09:02:21.000Z</time>
      </trkpt>
      <trkpt lat="42.78958" lon="-0.39753">
        <ele>1648.13</ele>
        <time>2024-10-03T09:02:27.000Z</time>
      </trkpt>
      <trkpt lat="42.78962" lon="-0.39766">
        <ele>1648.62</ele>
        <time>2024-10-03T09:02:34.000Z</time>
      </trkpt>
      <trkpt lat="42.78966" lon="-0.39777">
        <ele>1649.1</ele>
        <time>2024-10-03T09:02:41.000Z</time>
      </trkpt>
      <trkpt lat="42.78969" lon="-0.39788">
        <ele>1649.49</ele>
        <time>2024-10-03T09:02:47.000Z</time>
      </trkpt>
      <trkpt lat="42.78973" lon="-0.39802">
        <ele>1649.94</ele>
        <time>2024-10-03T09:02:54.000Z</time>
      </trkpt>
      <trkpt lat="42.78977" lon="-0.39815">
        <ele>1650.43</ele>
        <time>2024-10-03T09:03:02.000Z</time>
      </trkpt>
      <trkpt lat="42.78982" lon="-0.39825">
        <ele>1650.73</ele>
        <time>2024-10-03T09:03:07.000Z</time>
      </trkpt>
      <trkpt lat="42.78986" lon="-0.39837">
        <ele>1651.15</ele>
        <time>2024-10-03T09:03:14.000Z</time>
      </trkpt>
      <trkpt lat="42.7899" lon="-0.39849">
        <ele>1651.57</ele>
        <time>2024-10-03T09:03:21.000Z</time>
      </trkpt>
      <trkpt lat="42.78991" lon="-0.39862">
        <ele>1652.04</ele>
        <time>2024-10-03T09:03:29.000Z</time>
      </trkpt>
      <trkpt lat="42.78996" lon="-0.39872">
        <ele>1652.35</ele>
        <time>2024-10-03T09:03:34.000Z</time>
      </trkpt>
      <trkpt lat="42.79" lon="-0.39885">
        <ele>1652.9</ele>
        <time>2024-10-03T09:03:43.000Z</time>
      </trkpt>
      <trkpt lat="42.79001" lon="-0.39899">
        <ele>1653.33</ele>
        <time>2024-10-03T09:03:50.000Z</time>
      </trkpt>
      <trkpt lat="42.79002" lon="-0.39912">
        <ele>1653.68</ele>
        <time>2024-10-03T09:03:56.000Z</time>
      </trkpt>
      <trkpt lat="42.79004" lon="-0.39925">
        <ele>1654</ele>
        <time>2024-10-03T09:04:02.000Z</time>
      </trkpt>
      <trkpt lat="42.79007" lon="-0.39938">
        <ele>1654.3</ele>
        <time>2024-10-03T09:04:08.000Z</time>
      </trkpt>
      <trkpt lat="42.79009" lon="-0.39951">
        <ele>1654.58</ele>
        <time>2024-10-03T09:04:14.000Z</time>
      </trkpt>
      <trkpt lat="42.79011" lon="-0.39964">
        <ele>1654.84</ele>
        <time>2024-10-03T09:04:20.000Z</time>
      </trkpt>
      <trkpt lat="42.79015" lon="-0.39976">
        <ele>1655.09</ele>
        <time>2024-10-03T09:04:26.000Z</time>
      </trkpt>
      <trkpt lat="42.7902" lon="-0.39989">
        <ele>1655.36</ele>
        <time>2024-10-03T09:04:33.000Z</time>
      </trkpt>
      <trkpt lat="42.79026" lon="-0.4">
        <ele>1655.63</ele>
        <time>2024-10-03T09:04:40.000Z</time>
      </trkpt>
      <trkpt lat="42.79031" lon="-0.40011">
        <ele>1655.93</ele>
        <time>2024-10-03T09:04:48.000Z</time>
      </trkpt>
      <trkpt lat="42.79036" lon="-0.40022">
        <ele>1656.19</ele>
        <time>2024-10-03T09:04:55.000Z</time>
      </trkpt>
      <trkpt lat="42.79041" lon="-0.40033">
        <ele>1656.44</ele>
        <time>2024-10-03T09:05:02.000Z</time>
      </trkpt>
      <trkpt lat="42.79047" lon="-0.40043">
        <ele>1656.67</ele>
        <time>2024-10-03T09:05:08.000Z</time>
      </trkpt>
      <trkpt lat="42.79053" lon="-0.40054">
        <ele>1656.93</ele>
        <time>2024-10-03T09:05:15.000Z</time>
      </trkpt>
      <trkpt lat="42.79059" lon="-0.40065">
        <ele>1657.22</ele>
        <time>2024-10-03T09:05:22.000Z</time>
      </trkpt>
      <trkpt lat="42.79065" lon="-0.40076">
        <ele>1657.55</ele>
        <time>2024-10-03T09:05:29.000Z</time>
      </trkpt>
      <trkpt lat="42.79071" lon="-0.40086">
        <ele>1657.86</ele>
        <time>2024-10-03T09:05:35.000Z</time>
      </trkpt>
      <trkpt lat="42.79076" lon="-0.40096">
        <ele>1658.2</ele>
        <time>2024-10-03T09:05:41.000Z</time>
      </trkpt>
      <trkpt lat="42.79082" lon="-0.40106">
        <ele>1658.58</ele>
        <time>2024-10-03T09:05:47.000Z</time>
      </trkpt>
      <trkpt lat="42.79088" lon="-0.40117">
        <ele>1659</ele>
        <time>2024-10-03T09:05:53.000Z</time>
      </trkpt>
      <trkpt lat="42.79094" lon="-0.40127">
        <ele>1659.61</ele>
        <time>2024-10-03T09:06:00.000Z</time>
      </trkpt>
      <trkpt lat="42.79099" lon="-0.40139">
        <ele>1660.29</ele>
        <time>2024-10-03T09:06:07.000Z</time>
      </trkpt>
      <trkpt lat="42.79105" lon="-0.4015">
        <ele>1661.05</ele>
        <time>2024-10-03T09:06:14.000Z</time>
      </trkpt>
      <trkpt lat="42.79111" lon="-0.4016">
        <ele>1661.74</ele>
        <time>2024-10-03T09:06:20.000Z</time>
      </trkpt>
      <trkpt lat="42.79118" lon="-0.40169">
        <ele>1662.58</ele>
        <time>2024-10-03T09:06:27.000Z</time>
      </trkpt>
      <trkpt lat="42.79125" lon="-0.40178">
        <ele>1663.34</ele>
        <time>2024-10-03T09:06:33.000Z</time>
      </trkpt>
      <trkpt lat="42.79133" lon="-0.40185">
        <ele>1664.26</ele>
        <time>2024-10-03T09:06:40.000Z</time>
      </trkpt>
      <trkpt lat="42.79142" lon="-0.40191">
        <ele>1665.28</ele>
        <time>2024-10-03T09:06:47.000Z</time>
      </trkpt>
      <trkpt lat="42.79151" lon="-0.40193">
        <ele>1666.35</ele>
        <time>2024-10-03T09:06:54.000Z</time>
      </trkpt>
      <trkpt lat="42.79159" lon="-0.40197">
        <ele>1667.45</ele>
        <time>2024-10-03T09:07:01.000Z</time>
      </trkpt>
      <trkpt lat="42.79169" lon="-0.40197">
        <ele>1668.55</ele>
        <time>2024-10-03T09:07:07.999Z</time>
      </trkpt>
      <trkpt lat="42.79179" lon="-0.40197">
        <ele>1669.65</ele>
        <time>2024-10-03T09:07:14.999Z</time>
      </trkpt>
      <trkpt lat="42.79189" lon="-0.40198">
        <ele>1670.75</ele>
        <time>2024-10-03T09:07:21.999Z</time>
      </trkpt>
      <trkpt lat="42.79199" lon="-0.40198">
        <ele>1671.84</ele>
        <time>2024-10-03T09:07:28.999Z</time>
      </trkpt>
      <trkpt lat="42.79209" lon="-0.40198">
        <ele>1672.92</ele>
        <time>2024-10-03T09:07:35.999Z</time>
      </trkpt>
      <trkpt lat="42.79219" lon="-0.40199">
        <ele>1673.99</ele>
        <time>2024-10-03T09:07:42.999Z</time>
      </trkpt>
      <trkpt lat="42.79228" lon="-0.40202">
        <ele>1674.88</ele>
        <time>2024-10-03T09:07:48.999Z</time>
      </trkpt>
      <trkpt lat="42.79238" lon="-0.40206">
        <ele>1675.93</ele>
        <time>2024-10-03T09:07:55.999Z</time>
      </trkpt>
      <trkpt lat="42.79247" lon="-0.40209">
        <ele>1676.68</ele>
        <time>2024-10-03T09:08:00.999Z</time>
      </trkpt>
      <trkpt lat="42.79256" lon="-0.40213">
        <ele>1677.58</ele>
        <time>2024-10-03T09:08:06.999Z</time>
      </trkpt>
      <trkpt lat="42.79264" lon="-0.40219">
        <ele>1678.51</ele>
        <time>2024-10-03T09:08:12.999Z</time>
      </trkpt>
      <trkpt lat="42.79273" lon="-0.40224">
        <ele>1679.6</ele>
        <time>2024-10-03T09:08:19.999Z</time>
      </trkpt>
      <trkpt lat="42.79282" lon="-0.4023">
        <ele>1680.54</ele>
        <time>2024-10-03T09:08:25.999Z</time>
      </trkpt>
      <trkpt lat="42.7929" lon="-0.40235">
        <ele>1681.65</ele>
        <time>2024-10-03T09:08:32.999Z</time>
      </trkpt>
      <trkpt lat="42.79297" lon="-0.40243">
        <ele>1682.6</ele>
        <time>2024-10-03T09:08:38.999Z</time>
      </trkpt>
      <trkpt lat="42.79306" lon="-0.40249">
        <ele>1683.72</ele>
        <time>2024-10-03T09:08:45.999Z</time>
      </trkpt>
      <trkpt lat="42.79315" lon="-0.40254">
        <ele>1684.66</ele>
        <time>2024-10-03T09:08:51.999Z</time>
      </trkpt>
      <trkpt lat="42.79323" lon="-0.4026">
        <ele>1685.6</ele>
        <time>2024-10-03T09:08:57.999Z</time>
      </trkpt>
      <trkpt lat="42.79331" lon="-0.40266">
        <ele>1686.52</ele>
        <time>2024-10-03T09:09:03.999Z</time>
      </trkpt>
      <trkpt lat="42.79341" lon="-0.4027">
        <ele>1687.58</ele>
        <time>2024-10-03T09:09:10.999Z</time>
      </trkpt>
      <trkpt lat="42.7935" lon="-0.40274">
        <ele>1688.62</ele>
        <time>2024-10-03T09:09:17.999Z</time>
      </trkpt>
      <trkpt lat="42.79358" lon="-0.40278">
        <ele>1689.5</ele>
        <time>2024-10-03T09:09:23.999Z</time>
      </trkpt>
      <trkpt lat="42.79368" lon="-0.4028">
        <ele>1690.36</ele>
        <time>2024-10-03T09:09:29.999Z</time>
      </trkpt>
      <trkpt lat="42.79379" lon="-0.40283">
        <ele>1691.19</ele>
        <time>2024-10-03T09:09:35.999Z</time>
      </trkpt>
      <trkpt lat="42.79389" lon="-0.40285">
        <ele>1691.98</ele>
        <time>2024-10-03T09:09:41.999Z</time>
      </trkpt>
      <trkpt lat="42.79398" lon="-0.40288">
        <ele>1692.62</ele>
        <time>2024-10-03T09:09:46.999Z</time>
      </trkpt>
      <trkpt lat="42.79409" lon="-0.4029">
        <ele>1693.24</ele>
        <time>2024-10-03T09:09:51.999Z</time>
      </trkpt>
      <trkpt lat="42.7942" lon="-0.40295">
        <ele>1693.85</ele>
        <time>2024-10-03T09:09:56.999Z</time>
      </trkpt>
      <trkpt lat="42.79431" lon="-0.40302">
        <ele>1694.44</ele>
        <time>2024-10-03T09:10:01.999Z</time>
      </trkpt>
      <trkpt lat="42.79442" lon="-0.40313">
        <ele>1695.03</ele>
        <time>2024-10-03T09:10:06.999Z</time>
      </trkpt>
      <trkpt lat="42.79453" lon="-0.40325">
        <ele>1695.6</ele>
        <time>2024-10-03T09:10:11.999Z</time>
      </trkpt>
      <trkpt lat="42.79464" lon="-0.40339">
        <ele>1696.17</ele>
        <time>2024-10-03T09:10:16.999Z</time>
      </trkpt>
      <trkpt lat="42.79474" lon="-0.40355">
        <ele>1696.84</ele>
        <time>2024-10-03T09:10:21.999Z</time>
      </trkpt>
      <trkpt lat="42.79481" lon="-0.40374">
        <ele>1697.63</ele>
        <time>2024-10-03T09:10:26.999Z</time>
      </trkpt>
      <trkpt lat="42.79484" lon="-0.40394">
        <ele>1698.47</ele>
        <time>2024-10-03T09:10:31.999Z</time>
      </trkpt>
      <trkpt lat="42.79485" lon="-0.40416">
        <ele>1699.34</ele>
        <time>2024-10-03T09:10:36.999Z</time>
      </trkpt>
      <trkpt lat="42.79485" lon="-0.4044">
        <ele>1700.21</ele>
        <time>2024-10-03T09:10:41.999Z</time>
      </trkpt>
      <trkpt lat="42.79482" lon="-0.40463">
        <ele>1701.08</ele>
        <time>2024-10-03T09:10:46.999Z</time>
      </trkpt>
      <trkpt lat="42.79478" lon="-0.40488">
        <ele>1701.94</ele>
        <time>2024-10-03T09:10:51.999Z</time>
      </trkpt>
      <trkpt lat="42.79475" lon="-0.4051">
        <ele>1702.79</ele>
        <time>2024-10-03T09:10:56.999Z</time>
      </trkpt>
      <trkpt lat="42.79473" lon="-0.40528">
        <ele>1703.63</ele>
        <time>2024-10-03T09:11:01.999Z</time>
      </trkpt>
      <trkpt lat="42.79471" lon="-0.40547">
        <ele>1704.46</ele>
        <time>2024-10-03T09:11:06.999Z</time>
      </trkpt>
      <trkpt lat="42.79468" lon="-0.40565">
        <ele>1705.27</ele>
        <time>2024-10-03T09:11:11.999Z</time>
      </trkpt>
      <trkpt lat="42.79466" lon="-0.40584">
        <ele>1706.03</ele>
        <time>2024-10-03T09:11:16.999Z</time>
      </trkpt>
      <trkpt lat="42.79468" lon="-0.40603">
        <ele>1706.76</ele>
        <time>2024-10-03T09:11:21.999Z</time>
      </trkpt>
      <trkpt lat="42.79472" lon="-0.40621">
        <ele>1707.44</ele>
        <time>2024-10-03T09:11:26.999Z</time>
      </trkpt>
      <trkpt lat="42.7947" lon="-0.40637">
        <ele>1708.1</ele>
        <time>2024-10-03T09:11:31.999Z</time>
      </trkpt>
      <trkpt lat="42.79473" lon="-0.40655">
        <ele>1708.76</ele>
        <time>2024-10-03T09:11:36.999Z</time>
      </trkpt>
      <trkpt lat="42.79477" lon="-0.40671">
        <ele>1709.41</ele>
        <time>2024-10-03T09:11:41.999Z</time>
      </trkpt>
      <trkpt lat="42.7948" lon="-0.40686">
        <ele>1710.07</ele>
        <time>2024-10-03T09:11:46.999Z</time>
      </trkpt>
      <trkpt lat="42.79484" lon="-0.40703">
        <ele>1710.73</ele>
        <time>2024-10-03T09:11:51.999Z</time>
      </trkpt>
      <trkpt lat="42.79487" lon="-0.40719">
        <ele>1711.37</ele>
        <time>2024-10-03T09:11:56.999Z</time>
      </trkpt>
      <trkpt lat="42.79491" lon="-0.40733">
        <ele>1712</ele>
        <time>2024-10-03T09:12:01.999Z</time>
      </trkpt>
      <trkpt lat="42.79495" lon="-0.40749">
        <ele>1712.61</ele>
        <time>2024-10-03T09:12:06.999Z</time>
      </trkpt>
      <trkpt lat="42.795" lon="-0.40764">
        <ele>1713.2</ele>
        <time>2024-10-03T09:12:11.999Z</time>
      </trkpt>
      <trkpt lat="42.79503" lon="-0.40778">
        <ele>1713.78</ele>
        <time>2024-10-03T09:12:16.999Z</time>
      </trkpt>
      <trkpt lat="42.79507" lon="-0.40793">
        <ele>1714.35</ele>
        <time>2024-10-03T09:12:21.999Z</time>
      </trkpt>
      <trkpt lat="42.79511" lon="-0.40806">
        <ele>1714.91</ele>
        <time>2024-10-03T09:12:26.999Z</time>
      </trkpt>
      <trkpt lat="42.79514" lon="-0.40819">
        <ele>1715.45</ele>
        <time>2024-10-03T09:12:31.999Z</time>
      </trkpt>
      <trkpt lat="42.79518" lon="-0.40833">
        <ele>1715.97</ele>
        <time>2024-10-03T09:12:36.999Z</time>
      </trkpt>
      <trkpt lat="42.79522" lon="-0.40845">
        <ele>1716.46</ele>
        <time>2024-10-03T09:12:41.999Z</time>
      </trkpt>
      <trkpt lat="42.79526" lon="-0.40856">
        <ele>1716.91</ele>
        <time>2024-10-03T09:12:46.999Z</time>
      </trkpt>
      <trkpt lat="42.7953" lon="-0.40868">
        <ele>1717.33</ele>
        <time>2024-10-03T09:12:51.999Z</time>
      </trkpt>
      <trkpt lat="42.79535" lon="-0.40881">
        <ele>1717.8</ele>
        <time>2024-10-03T09:12:57.999Z</time>
      </trkpt>
      <trkpt lat="42.79537" lon="-0.40893">
        <ele>1718.24</ele>
        <time>2024-10-03T09:13:03.999Z</time>
      </trkpt>
      <trkpt lat="42.79542" lon="-0.40906">
        <ele>1718.64</ele>
        <time>2024-10-03T09:13:09.999Z</time>
      </trkpt>
      <trkpt lat="42.79547" lon="-0.40917">
        <ele>1719</ele>
        <time>2024-10-03T09:13:15.999Z</time>
      </trkpt>
      <trkpt lat="42.7955" lon="-0.40931">
        <ele>1719.38</ele>
        <time>2024-10-03T09:13:22.999Z</time>
      </trkpt>
      <trkpt lat="42.79555" lon="-0.40942">
        <ele>1719.67</ele>
        <time>2024-10-03T09:13:28.999Z</time>
      </trkpt>
      <trkpt lat="42.79559" lon="-0.40955">
        <ele>1719.99</ele>
        <time>2024-10-03T09:13:35.999Z</time>
      </trkpt>
      <trkpt lat="42.79564" lon="-0.40966">
        <ele>1720.25</ele>
        <time>2024-10-03T09:13:41.999Z</time>
      </trkpt>
      <trkpt lat="42.79568" lon="-0.40979">
        <ele>1720.48</ele>
        <time>2024-10-03T09:13:47.999Z</time>
      </trkpt>
      <trkpt lat="42.79573" lon="-0.4099">
        <ele>1720.71</ele>
        <time>2024-10-03T09:13:53.999Z</time>
      </trkpt>
      <trkpt lat="42.79577" lon="-0.41002">
        <ele>1720.99</ele>
        <time>2024-10-03T09:14:01.999Z</time>
      </trkpt>
      <trkpt lat="42.79581" lon="-0.41014">
        <ele>1721.19</ele>
        <time>2024-10-03T09:14:07.999Z</time>
      </trkpt>
      <trkpt lat="42.79585" lon="-0.41025">
        <ele>1721.42</ele>
        <time>2024-10-03T09:14:14.999Z</time>
      </trkpt>
      <trkpt lat="42.79589" lon="-0.41037">
        <ele>1721.68</ele>
        <time>2024-10-03T09:14:22.999Z</time>
      </trkpt>
      <trkpt lat="42.79593" lon="-0.41049">
        <ele>1721.88</ele>
        <time>2024-10-03T09:14:28.999Z</time>
      </trkpt>
      <trkpt lat="42.79597" lon="-0.4106">
        <ele>1722.08</ele>
        <time>2024-10-03T09:14:34.999Z</time>
      </trkpt>
      <trkpt lat="42.79601" lon="-0.41074">
        <ele>1722.31</ele>
        <time>2024-10-03T09:14:41.999Z</time>
      </trkpt>
      <trkpt lat="42.79605" lon="-0.41085">
        <ele>1722.55</ele>
        <time>2024-10-03T09:14:48.999Z</time>
      </trkpt>
      <trkpt lat="42.7961" lon="-0.41097">
        <ele>1722.79</ele>
        <time>2024-10-03T09:14:55.999Z</time>
      </trkpt>
      <trkpt lat="42.79614" lon="-0.4111">
        <ele>1723.04</ele>
        <time>2024-10-03T09:15:02.999Z</time>
      </trkpt>
      <trkpt lat="42.79619" lon="-0.41121">
        <ele>1723.24</ele>
        <time>2024-10-03T09:15:08.999Z</time>
      </trkpt>
      <trkpt lat="42.79623" lon="-0.41132">
        <ele>1723.48</ele>
        <time>2024-10-03T09:15:15.999Z</time>
      </trkpt>
      <trkpt lat="42.79628" lon="-0.41144">
        <ele>1723.67</ele>
        <time>2024-10-03T09:15:21.999Z</time>
      </trkpt>
      <trkpt lat="42.79634" lon="-0.41155">
        <ele>1723.9</ele>
        <time>2024-10-03T09:15:28.999Z</time>
      </trkpt>
      <trkpt lat="42.7964" lon="-0.41166">
        <ele>1724.13</ele>
        <time>2024-10-03T09:15:35.999Z</time>
      </trkpt>
      <trkpt lat="42.79646" lon="-0.41176">
        <ele>1724.36</ele>
        <time>2024-10-03T09:15:42.999Z</time>
      </trkpt>
      <trkpt lat="42.79653" lon="-0.41185">
        <ele>1724.6</ele>
        <time>2024-10-03T09:15:49.999Z</time>
      </trkpt>
      <trkpt lat="42.7966" lon="-0.41195">
        <ele>1724.83</ele>
        <time>2024-10-03T09:15:56.999Z</time>
      </trkpt>
      <trkpt lat="42.79666" lon="-0.41204">
        <ele>1725.04</ele>
        <time>2024-10-03T09:16:02.999Z</time>
      </trkpt>
      <trkpt lat="42.79673" lon="-0.41215">
        <ele>1725.29</ele>
        <time>2024-10-03T09:16:09.999Z</time>
      </trkpt>
      <trkpt lat="42.7968" lon="-0.41224">
        <ele>1725.54</ele>
        <time>2024-10-03T09:16:16.999Z</time>
      </trkpt>
      <trkpt lat="42.79687" lon="-0.41233">
        <ele>1725.79</ele>
        <time>2024-10-03T09:16:23.999Z</time>
      </trkpt>
      <trkpt lat="42.79695" lon="-0.41241">
        <ele>1726.01</ele>
        <time>2024-10-03T09:16:29.999Z</time>
      </trkpt>
      <trkpt lat="42.79694" lon="-0.41254">
        <ele>1726.2</ele>
        <time>2024-10-03T09:16:34.999Z</time>
      </trkpt>
      <trkpt lat="42.79702" lon="-0.41261">
        <ele>1726.5</ele>
        <time>2024-10-03T09:16:42.999Z</time>
      </trkpt>
      <trkpt lat="42.79711" lon="-0.41268">
        <ele>1726.72</ele>
        <time>2024-10-03T09:16:48.999Z</time>
      </trkpt>
      <trkpt lat="42.79721" lon="-0.41273">
        <ele>1726.98</ele>
        <time>2024-10-03T09:16:55.999Z</time>
      </trkpt>
      <trkpt lat="42.7973" lon="-0.41277">
        <ele>1727.24</ele>
        <time>2024-10-03T09:17:02.999Z</time>
      </trkpt>
      <trkpt lat="42.79739" lon="-0.41282">
        <ele>1727.47</ele>
        <time>2024-10-03T09:17:08.999Z</time>
      </trkpt>
      <trkpt lat="42.79748" lon="-0.41284">
        <ele>1727.72</ele>
        <time>2024-10-03T09:17:14.999Z</time>
      </trkpt>
      <trkpt lat="42.79758" lon="-0.41286">
        <ele>1728.04</ele>
        <time>2024-10-03T09:17:21.999Z</time>
      </trkpt>
      <trkpt lat="42.79768" lon="-0.41289">
        <ele>1728.31</ele>
        <time>2024-10-03T09:17:27.999Z</time>
      </trkpt>
      <trkpt lat="42.79778" lon="-0.41291">
        <ele>1728.67</ele>
        <time>2024-10-03T09:17:34.999Z</time>
      </trkpt>
      <trkpt lat="42.79787" lon="-0.41297">
        <ele>1729.04</ele>
        <time>2024-10-03T09:17:41.999Z</time>
      </trkpt>
      <trkpt lat="42.79797" lon="-0.413">
        <ele>1729.43</ele>
        <time>2024-10-03T09:17:48.999Z</time>
      </trkpt>
      <trkpt lat="42.79806" lon="-0.41305">
        <ele>1729.84</ele>
        <time>2024-10-03T09:17:55.999Z</time>
      </trkpt>
      <trkpt lat="42.79815" lon="-0.41311">
        <ele>1730.27</ele>
        <time>2024-10-03T09:18:02.999Z</time>
      </trkpt>
      <trkpt lat="42.79825" lon="-0.41315">
        <ele>1730.69</ele>
        <time>2024-10-03T09:18:08.999Z</time>
      </trkpt>
      <trkpt lat="42.79834" lon="-0.41319">
        <ele>1731.25</ele>
        <time>2024-10-03T09:18:15.999Z</time>
      </trkpt>
      <trkpt lat="42.79843" lon="-0.41324">
        <ele>1731.75</ele>
        <time>2024-10-03T09:18:21.999Z</time>
      </trkpt>
      <trkpt lat="42.79851" lon="-0.41327">
        <ele>1732.41</ele>
        <time>2024-10-03T09:18:28.999Z</time>
      </trkpt>
      <trkpt lat="42.79862" lon="-0.4133">
        <ele>1733.13</ele>
        <time>2024-10-03T09:18:35.999Z</time>
      </trkpt>
      <trkpt lat="42.79871" lon="-0.41336">
        <ele>1733.88</ele>
        <time>2024-10-03T09:18:42.999Z</time>
      </trkpt>
      <trkpt lat="42.7988" lon="-0.41341">
        <ele>1734.58</ele>
        <time>2024-10-03T09:18:48.999Z</time>
      </trkpt>
      <trkpt lat="42.79888" lon="-0.41346">
        <ele>1735.44</ele>
        <time>2024-10-03T09:18:55.999Z</time>
      </trkpt>
      <trkpt lat="42.79897" lon="-0.4135">
        <ele>1736.37</ele>
        <time>2024-10-03T09:19:02.999Z</time>
      </trkpt>
      <trkpt lat="42.79907" lon="-0.41355">
        <ele>1737.33</ele>
        <time>2024-10-03T09:19:09.999Z</time>
      </trkpt>
      <trkpt lat="42.79916" lon="-0.4136">
        <ele>1738.21</ele>
        <time>2024-10-03T09:19:15.999Z</time>
      </trkpt>
      <trkpt lat="42.79925" lon="-0.41366">
        <ele>1739.27</ele>
        <time>2024-10-03T09:19:22.999Z</time>
      </trkpt>
      <trkpt lat="42.79935" lon="-0.4137">
        <ele>1740.37</ele>
        <time>2024-10-03T09:19:29.999Z</time>
      </trkpt>
      <trkpt lat="42.79945" lon="-0.41372">
        <ele>1741.64</ele>
        <time>2024-10-03T09:19:37.999Z</time>
      </trkpt>
      <trkpt lat="42.79954" lon="-0.41377">
        <ele>1742.59</ele>
        <time>2024-10-03T09:19:43.999Z</time>
      </trkpt>
      <trkpt lat="42.79963" lon="-0.41382">
        <ele>1743.55</ele>
        <time>2024-10-03T09:19:49.999Z</time>
      </trkpt>
      <trkpt lat="42.79972" lon="-0.41386">
        <ele>1744.66</ele>
        <time>2024-10-03T09:19:56.999Z</time>
      </trkpt>
      <trkpt lat="42.79981" lon="-0.41389">
        <ele>1745.72</ele>
        <time>2024-10-03T09:20:03.999Z</time>
      </trkpt>
      <trkpt lat="42.79989" lon="-0.41393">
        <ele>1746.59</ele>
        <time>2024-10-03T09:20:10.000Z</time>
      </trkpt>
      <trkpt lat="42.79999" lon="-0.41396">
        <ele>1747.44</ele>
        <time>2024-10-03T09:20:16.000Z</time>
      </trkpt>
      <trkpt lat="42.80008" lon="-0.41398">
        <ele>1748.4</ele>
        <time>2024-10-03T09:20:23.000Z</time>
      </trkpt>
      <trkpt lat="42.80018" lon="-0.41403">
        <ele>1749.33</ele>
        <time>2024-10-03T09:20:30.000Z</time>
      </trkpt>
      <trkpt lat="42.80027" lon="-0.41408">
        <ele>1750.22</ele>
        <time>2024-10-03T09:20:37.000Z</time>
      </trkpt>
      <trkpt lat="42.80036" lon="-0.41412">
        <ele>1751.11</ele>
        <time>2024-10-03T09:20:44.000Z</time>
      </trkpt>
      <trkpt lat="42.80045" lon="-0.4142">
        <ele>1752.13</ele>
        <time>2024-10-03T09:20:52.000Z</time>
      </trkpt>
      <trkpt lat="42.80054" lon="-0.41425">
        <ele>1753.13</ele>
        <time>2024-10-03T09:21:00.000Z</time>
      </trkpt>
      <trkpt lat="42.80063" lon="-0.41431">
        <ele>1753.96</ele>
        <time>2024-10-03T09:21:07.000Z</time>
      </trkpt>
      <trkpt lat="42.80072" lon="-0.41437">
        <ele>1754.9</ele>
        <time>2024-10-03T09:21:15.000Z</time>
      </trkpt>
      <trkpt lat="42.80081" lon="-0.41445">
        <ele>1755.73</ele>
        <time>2024-10-03T09:21:22.000Z</time>
      </trkpt>
      <trkpt lat="42.80087" lon="-0.41454">
        <ele>1756.57</ele>
        <time>2024-10-03T09:21:29.000Z</time>
      </trkpt>
      <trkpt lat="42.80094" lon="-0.41465">
        <ele>1757.41</ele>
        <time>2024-10-03T09:21:36.000Z</time>
      </trkpt>
      <trkpt lat="42.80101" lon="-0.41474">
        <ele>1758.24</ele>
        <time>2024-10-03T09:21:43.000Z</time>
      </trkpt>
      <trkpt lat="42.80107" lon="-0.41484">
        <ele>1758.93</ele>
        <time>2024-10-03T09:21:49.000Z</time>
      </trkpt>
      <trkpt lat="42.80113" lon="-0.41493">
        <ele>1759.6</ele>
        <time>2024-10-03T09:21:55.000Z</time>
      </trkpt>
      <trkpt lat="42.80121" lon="-0.415">
        <ele>1760.24</ele>
        <time>2024-10-03T09:22:01.000Z</time>
      </trkpt>
      <trkpt lat="42.80128" lon="-0.4151">
        <ele>1760.97</ele>
        <time>2024-10-03T09:22:08.000Z</time>
      </trkpt>
      <trkpt lat="42.80134" lon="-0.4152">
        <ele>1761.59</ele>
        <time>2024-10-03T09:22:14.000Z</time>
      </trkpt>
      <trkpt lat="42.80142" lon="-0.41529">
        <ele>1762.32</ele>
        <time>2024-10-03T09:22:20.000Z</time>
      </trkpt>
      <trkpt lat="42.80149" lon="-0.4154">
        <ele>1763.28</ele>
        <time>2024-10-03T09:22:27.000Z</time>
      </trkpt>
      <trkpt lat="42.80153" lon="-0.41553">
        <ele>1764.46</ele>
        <time>2024-10-03T09:22:35.000Z</time>
      </trkpt>
      <trkpt lat="42.80158" lon="-0.41563">
        <ele>1765.5</ele>
        <time>2024-10-03T09:22:42.000Z</time>
      </trkpt>
      <trkpt lat="42.80163" lon="-0.41574">
        <ele>1766.35</ele>
        <time>2024-10-03T09:22:48.000Z</time>
      </trkpt>
      <trkpt lat="42.80168" lon="-0.41585">
        <ele>1767.31</ele>
        <time>2024-10-03T09:22:55.000Z</time>
      </trkpt>
      <trkpt lat="42.80177" lon="-0.41595">
        <ele>1768.12</ele>
        <time>2024-10-03T09:23:01.000Z</time>
      </trkpt>
      <trkpt lat="42.80183" lon="-0.41604">
        <ele>1769.11</ele>
        <time>2024-10-03T09:23:08.000Z</time>
      </trkpt>
      <trkpt lat="42.80193" lon="-0.41609">
        <ele>1770.06</ele>
        <time>2024-10-03T09:23:15.000Z</time>
      </trkpt>
      <trkpt lat="42.80202" lon="-0.41606">
        <ele>1770.71</ele>
        <time>2024-10-03T09:23:20.000Z</time>
      </trkpt>
      <trkpt lat="42.80212" lon="-0.41604">
        <ele>1771.46</ele>
        <time>2024-10-03T09:23:26.000Z</time>
      </trkpt>
      <trkpt lat="42.80221" lon="-0.41609">
        <ele>1772.06</ele>
        <time>2024-10-03T09:23:31.000Z</time>
      </trkpt>
      <trkpt lat="42.80231" lon="-0.41615">
        <ele>1772.65</ele>
        <time>2024-10-03T09:23:36.000Z</time>
      </trkpt>
      <trkpt lat="42.80238" lon="-0.41624">
        <ele>1773.24</ele>
        <time>2024-10-03T09:23:41.000Z</time>
      </trkpt>
      <trkpt lat="42.80246" lon="-0.4163">
        <ele>1773.93</ele>
        <time>2024-10-03T09:23:47.000Z</time>
      </trkpt>
      <trkpt lat="42.80255" lon="-0.41634">
        <ele>1774.57</ele>
        <time>2024-10-03T09:23:53.000Z</time>
      </trkpt>
      <trkpt lat="42.80264" lon="-0.4164">
        <ele>1775.18</ele>
        <time>2024-10-03T09:23:59.000Z</time>
      </trkpt>
      <trkpt lat="42.80273" lon="-0.41643">
        <ele>1775.85</ele>
        <time>2024-10-03T09:24:06.000Z</time>
      </trkpt>
      <trkpt lat="42.80282" lon="-0.4165">
        <ele>1776.39</ele>
        <time>2024-10-03T09:24:12.000Z</time>
      </trkpt>
      <trkpt lat="42.8029" lon="-0.41657">
        <ele>1777.09</ele>
        <time>2024-10-03T09:24:20.000Z</time>
      </trkpt>
      <trkpt lat="42.80297" lon="-0.41666">
        <ele>1777.66</ele>
        <time>2024-10-03T09:24:27.000Z</time>
      </trkpt>
      <trkpt lat="42.80305" lon="-0.41674">
        <ele>1778.13</ele>
        <time>2024-10-03T09:24:33.000Z</time>
      </trkpt>
      <trkpt lat="42.80313" lon="-0.41684">
        <ele>1778.72</ele>
        <time>2024-10-03T09:24:41.000Z</time>
      </trkpt>
      <trkpt lat="42.8032" lon="-0.41693">
        <ele>1779.13</ele>
        <time>2024-10-03T09:24:47.000Z</time>
      </trkpt>
      <trkpt lat="42.80327" lon="-0.41702">
        <ele>1779.59</ele>
        <time>2024-10-03T09:24:54.000Z</time>
      </trkpt>
      <trkpt lat="42.80334" lon="-0.4171">
        <ele>1779.99</ele>
        <time>2024-10-03T09:25:00.000Z</time>
      </trkpt>
      <trkpt lat="42.80341" lon="-0.41718">
        <ele>1780.38</ele>
        <time>2024-10-03T09:25:06.000Z</time>
      </trkpt>
      <trkpt lat="42.80348" lon="-0.41727">
        <ele>1780.77</ele>
        <time>2024-10-03T09:25:12.000Z</time>
      </trkpt>
      <trkpt lat="42.80355" lon="-0.41736">
        <ele>1781.22</ele>
        <time>2024-10-03T09:25:19.000Z</time>
      </trkpt>
      <trkpt lat="42.80362" lon="-0.41746">
        <ele>1781.67</ele>
        <time>2024-10-03T09:25:26.000Z</time>
      </trkpt>
      <trkpt lat="42.8037" lon="-0.41756">
        <ele>1782.13</ele>
        <time>2024-10-03T09:25:33.000Z</time>
      </trkpt>
      <trkpt lat="42.80379" lon="-0.41765">
        <ele>1782.59</ele>
        <time>2024-10-03T09:25:40.000Z</time>
      </trkpt>
      <trkpt lat="42.80386" lon="-0.41775">
        <ele>1783.05</ele>
        <time>2024-10-03T09:25:47.000Z</time>
      </trkpt>
      <trkpt lat="42.80392" lon="-0.41784">
        <ele>1783.49</ele>
        <time>2024-10-03T09:25:54.000Z</time>
      </trkpt>
      <trkpt lat="42.804" lon="-0.41793">
        <ele>1784</ele>
        <time>2024-10-03T09:26:02.000Z</time>
      </trkpt>
      <trkpt lat="42.80408" lon="-0.418">
        <ele>1784.38</ele>
        <time>2024-10-03T09:26:08.000Z</time>
      </trkpt>
      <trkpt lat="42.80417" lon="-0.41806">
        <ele>1784.88</ele>
        <time>2024-10-03T09:26:16.000Z</time>
      </trkpt>
      <trkpt lat="42.80426" lon="-0.418">
        <ele>1785.28</ele>
        <time>2024-10-03T09:26:23.000Z</time>
      </trkpt>
      <trkpt lat="42.80434" lon="-0.41793">
        <ele>1785.67</ele>
        <time>2024-10-03T09:26:30.000Z</time>
      </trkpt>
      <trkpt lat="42.80443" lon="-0.41798">
        <ele>1786.03</ele>
        <time>2024-10-03T09:26:37.000Z</time>
      </trkpt>
      <trkpt lat="42.80449" lon="-0.41808">
        <ele>1786.3</ele>
        <time>2024-10-03T09:26:42.000Z</time>
      </trkpt>
      <trkpt lat="42.80449" lon="-0.41822">
        <ele>1786.57</ele>
        <time>2024-10-03T09:26:47.000Z</time>
      </trkpt>
      <trkpt lat="42.80451" lon="-0.41835">
        <ele>1786.83</ele>
        <time>2024-10-03T09:26:52.000Z</time>
      </trkpt>
      <trkpt lat="42.80455" lon="-0.41846">
        <ele>1787.15</ele>
        <time>2024-10-03T09:26:58.000Z</time>
      </trkpt>
      <trkpt lat="42.80464" lon="-0.41851">
        <ele>1787.48</ele>
        <time>2024-10-03T09:27:04.000Z</time>
      </trkpt>
      <trkpt lat="42.80472" lon="-0.41855">
        <ele>1787.82</ele>
        <time>2024-10-03T09:27:10.000Z</time>
      </trkpt>
      <trkpt lat="42.80481" lon="-0.4186">
        <ele>1788.1</ele>
        <time>2024-10-03T09:27:15.000Z</time>
      </trkpt>
      <trkpt lat="42.80491" lon="-0.41867">
        <ele>1788.39</ele>
        <time>2024-10-03T09:27:20.000Z</time>
      </trkpt>
      <trkpt lat="42.805" lon="-0.41867">
        <ele>1788.74</ele>
        <time>2024-10-03T09:27:26.000Z</time>
      </trkpt>
      <trkpt lat="42.8051" lon="-0.41865">
        <ele>1789.03</ele>
        <time>2024-10-03T09:27:31.000Z</time>
      </trkpt>
      <trkpt lat="42.80521" lon="-0.41863">
        <ele>1789.37</ele>
        <time>2024-10-03T09:27:37.000Z</time>
      </trkpt>
      <trkpt lat="42.8053" lon="-0.4186">
        <ele>1789.66</ele>
        <time>2024-10-03T09:27:42.000Z</time>
      </trkpt>
      <trkpt lat="42.8054" lon="-0.41856">
        <ele>1790.02</ele>
        <time>2024-10-03T09:27:48.000Z</time>
      </trkpt>
      <trkpt lat="42.80551" lon="-0.41854">
        <ele>1790.37</ele>
        <time>2024-10-03T09:27:54.000Z</time>
      </trkpt>
      <trkpt lat="42.80559" lon="-0.41847">
        <ele>1790.72</ele>
        <time>2024-10-03T09:28:00.000Z</time>
      </trkpt>
      <trkpt lat="42.80569" lon="-0.41849">
        <ele>1792.29</ele>
        <time>2024-10-03T09:28:27.000Z</time>
      </trkpt>
      <trkpt lat="42.80562" lon="-0.41857">
        <ele>1792.99</ele>
        <time>2024-10-03T09:28:33.000Z</time>
      </trkpt>
      <trkpt lat="42.8055" lon="-0.41863">
        <ele>1793.55</ele>
        <time>2024-10-03T09:28:38.000Z</time>
      </trkpt>
      <trkpt lat="42.80536" lon="-0.41868">
        <ele>1794.07</ele>
        <time>2024-10-03T09:28:43.000Z</time>
      </trkpt>
      <trkpt lat="42.80526" lon="-0.41869">
        <ele>1794.56</ele>
        <time>2024-10-03T09:28:48.000Z</time>
      </trkpt>
      <trkpt lat="42.80517" lon="-0.41871">
        <ele>1795.25</ele>
        <time>2024-10-03T09:28:54.000Z</time>
      </trkpt>
      <trkpt lat="42.80507" lon="-0.41872">
        <ele>1795.9</ele>
        <time>2024-10-03T09:28:59.000Z</time>
      </trkpt>
      <trkpt lat="42.80496" lon="-0.41872">
        <ele>1796.54</ele>
        <time>2024-10-03T09:29:04.000Z</time>
      </trkpt>
      <trkpt lat="42.80486" lon="-0.41872">
        <ele>1797.14</ele>
        <time>2024-10-03T09:29:09.000Z</time>
      </trkpt>
      <trkpt lat="42.80476" lon="-0.4187">
        <ele>1797.74</ele>
        <time>2024-10-03T09:29:14.000Z</time>
      </trkpt>
      <trkpt lat="42.80466" lon="-0.41869">
        <ele>1798.31</ele>
        <time>2024-10-03T09:29:19.000Z</time>
      </trkpt>
      <trkpt lat="42.80457" lon="-0.41865">
        <ele>1798.87</ele>
        <time>2024-10-03T09:29:24.000Z</time>
      </trkpt>
      <trkpt lat="42.80449" lon="-0.41857">
        <ele>1799.43</ele>
        <time>2024-10-03T09:29:29.000Z</time>
      </trkpt>
      <trkpt lat="42.80443" lon="-0.41835">
        <ele>1801.64</ele>
        <time>2024-10-03T09:29:34.000Z</time>
      </trkpt>
      <trkpt lat="42.80443" lon="-0.41812">
        <ele>1802.06</ele>
        <time>2024-10-03T09:29:39.000Z</time>
      </trkpt>
      <trkpt lat="42.8044" lon="-0.41795">
        <ele>1802.36</ele>
        <time>2024-10-03T09:29:44.000Z</time>
      </trkpt>
      <trkpt lat="42.80436" lon="-0.41781">
        <ele>1802.63</ele>
        <time>2024-10-03T09:29:49.000Z</time>
      </trkpt>
      <trkpt lat="42.80431" lon="-0.41769">
        <ele>1802.93</ele>
        <time>2024-10-03T09:29:55.000Z</time>
      </trkpt>
      <trkpt lat="42.80427" lon="-0.41757">
        <ele>1804.36</ele>
        <time>2024-10-03T09:30:43.000Z</time>
      </trkpt>
      <trkpt lat="42.80426" lon="-0.4177">
        <ele>1800.49</ele>
        <time>2024-10-03T10:09:55.998Z</time>
      </trkpt>
      <trkpt lat="42.80435" lon="-0.41776">
        <ele>1801.05</ele>
        <time>2024-10-03T10:10:00.998Z</time>
      </trkpt>
      <trkpt lat="42.80443" lon="-0.41784">
        <ele>1801.52</ele>
        <time>2024-10-03T10:10:05.998Z</time>
      </trkpt>
      <trkpt lat="42.80451" lon="-0.41789">
        <ele>1802.02</ele>
        <time>2024-10-03T10:10:11.998Z</time>
      </trkpt>
      <trkpt lat="42.8046" lon="-0.41784">
        <ele>1802.38</ele>
        <time>2024-10-03T10:10:20.998Z</time>
      </trkpt>
      <trkpt lat="42.80466" lon="-0.41771">
        <ele>1802.66</ele>
        <time>2024-10-03T10:10:26.998Z</time>
      </trkpt>
      <trkpt lat="42.80469" lon="-0.41759">
        <ele>1802.84</ele>
        <time>2024-10-03T10:10:31.998Z</time>
      </trkpt>
      <trkpt lat="42.80461" lon="-0.41766">
        <ele>1803.05</ele>
        <time>2024-10-03T10:10:46.998Z</time>
      </trkpt>
      <trkpt lat="42.80452" lon="-0.41798">
        <ele>1803.08</ele>
        <time>2024-10-03T10:10:51.998Z</time>
      </trkpt>
      <trkpt lat="42.80446" lon="-0.41822">
        <ele>1803.15</ele>
        <time>2024-10-03T10:10:56.998Z</time>
      </trkpt>
      <trkpt lat="42.80454" lon="-0.41847">
        <ele>1803.12</ele>
        <time>2024-10-03T10:11:01.998Z</time>
      </trkpt>
      <trkpt lat="42.80462" lon="-0.41857">
        <ele>1802.99</ele>
        <time>2024-10-03T10:11:06.998Z</time>
      </trkpt>
      <trkpt lat="42.80471" lon="-0.41864">
        <ele>1802.84</ele>
        <time>2024-10-03T10:11:11.998Z</time>
      </trkpt>
      <trkpt lat="42.80481" lon="-0.41868">
        <ele>1802.67</ele>
        <time>2024-10-03T10:11:17.998Z</time>
      </trkpt>
      <trkpt lat="42.8049" lon="-0.41867">
        <ele>1802.5</ele>
        <time>2024-10-03T10:11:23.998Z</time>
      </trkpt>
      <trkpt lat="42.805" lon="-0.41866">
        <ele>1802.36</ele>
        <time>2024-10-03T10:11:29.998Z</time>
      </trkpt>
      <trkpt lat="42.80498" lon="-0.41853">
        <ele>1802.19</ele>
        <time>2024-10-03T10:11:39.998Z</time>
      </trkpt>
      <trkpt lat="42.80503" lon="-0.41841">
        <ele>1801.3</ele>
        <time>2024-10-03T10:12:40.998Z</time>
      </trkpt>
      <trkpt lat="42.80494" lon="-0.41847">
        <ele>1801.36</ele>
        <time>2024-10-03T10:12:52.998Z</time>
      </trkpt>
      <trkpt lat="42.80483" lon="-0.41849">
        <ele>1801.49</ele>
        <time>2024-10-03T10:13:13.998Z</time>
      </trkpt>
      <trkpt lat="42.80475" lon="-0.41842">
        <ele>1801.57</ele>
        <time>2024-10-03T10:13:19.998Z</time>
      </trkpt>
      <trkpt lat="42.80473" lon="-0.41822">
        <ele>1801.74</ele>
        <time>2024-10-03T10:13:24.998Z</time>
      </trkpt>
      <trkpt lat="42.80461" lon="-0.41796">
        <ele>1802.07</ele>
        <time>2024-10-03T10:13:29.998Z</time>
      </trkpt>
      <trkpt lat="42.80452" lon="-0.41791">
        <ele>1802.11</ele>
        <time>2024-10-03T10:13:34.998Z</time>
      </trkpt>
      <trkpt lat="42.80458" lon="-0.4178">
        <ele>1802.12</ele>
        <time>2024-10-03T10:13:46.998Z</time>
      </trkpt>
      <trkpt lat="42.80465" lon="-0.41766">
        <ele>1802.1</ele>
        <time>2024-10-03T10:13:51.998Z</time>
      </trkpt>
      <trkpt lat="42.80469" lon="-0.41754">
        <ele>1802.08</ele>
        <time>2024-10-03T10:13:56.998Z</time>
      </trkpt>
      <trkpt lat="42.80477" lon="-0.41746">
        <ele>1802.03</ele>
        <time>2024-10-03T10:14:05.998Z</time>
      </trkpt>
      <trkpt lat="42.80472" lon="-0.41764">
        <ele>1801.94</ele>
        <time>2024-10-03T10:15:27.998Z</time>
      </trkpt>
      <trkpt lat="42.80468" lon="-0.41744">
        <ele>1801.9</ele>
        <time>2024-10-03T10:15:41.998Z</time>
      </trkpt>
      <trkpt lat="42.80478" lon="-0.4173">
        <ele>1801.96</ele>
        <time>2024-10-03T10:15:46.998Z</time>
      </trkpt>
      <trkpt lat="42.80485" lon="-0.4172">
        <ele>1802.1</ele>
        <time>2024-10-03T10:15:57.998Z</time>
      </trkpt>
      <trkpt lat="42.80477" lon="-0.41725">
        <ele>1802.14</ele>
        <time>2024-10-03T10:16:04.998Z</time>
      </trkpt>
      <trkpt lat="42.80469" lon="-0.41735">
        <ele>1801.4</ele>
        <time>2024-10-03T10:16:43.998Z</time>
      </trkpt>
      <trkpt lat="42.80472" lon="-0.41753">
        <ele>1801.41</ele>
        <time>2024-10-03T10:16:48.998Z</time>
      </trkpt>
      <trkpt lat="42.80481" lon="-0.4175">
        <ele>1801.57</ele>
        <time>2024-10-03T10:17:07.998Z</time>
      </trkpt>
      <trkpt lat="42.8049" lon="-0.41743">
        <ele>1801.67</ele>
        <time>2024-10-03T10:17:12.998Z</time>
      </trkpt>
      <trkpt lat="42.80474" lon="-0.41728">
        <ele>1803.01</ele>
        <time>2024-10-03T10:21:17.000Z</time>
      </trkpt>
      <trkpt lat="42.80465" lon="-0.41731">
        <ele>1803.1</ele>
        <time>2024-10-03T10:21:34.000Z</time>
      </trkpt>
      <trkpt lat="42.80475" lon="-0.41733">
        <ele>1803.35</ele>
        <time>2024-10-03T10:21:50.999Z</time>
      </trkpt>
      <trkpt lat="42.80485" lon="-0.41733">
        <ele>1803.27</ele>
        <time>2024-10-03T10:22:05.999Z</time>
      </trkpt>
      <trkpt lat="42.80477" lon="-0.41738">
        <ele>1803.24</ele>
        <time>2024-10-03T10:22:19.999Z</time>
      </trkpt>
      <trkpt lat="42.8047" lon="-0.41748">
        <ele>1803.21</ele>
        <time>2024-10-03T10:23:02.999Z</time>
      </trkpt>
      <trkpt lat="42.80491" lon="-0.41754">
        <ele>1803.7</ele>
        <time>2024-10-03T10:23:53.999Z</time>
      </trkpt>
      <trkpt lat="42.8048" lon="-0.41754">
        <ele>1803.85</ele>
        <time>2024-10-03T10:24:03.999Z</time>
      </trkpt>
      <trkpt lat="42.80473" lon="-0.41745">
        <ele>1804.25</ele>
        <time>2024-10-03T10:24:31.999Z</time>
      </trkpt>
      <trkpt lat="42.80477" lon="-0.41733">
        <ele>1804.19</ele>
        <time>2024-10-03T10:28:03.999Z</time>
      </trkpt>
      <trkpt lat="42.80475" lon="-0.41721">
        <ele>1804.4</ele>
        <time>2024-10-03T10:28:18.999Z</time>
      </trkpt>
      <trkpt lat="42.80482" lon="-0.41733">
        <ele>1804.32</ele>
        <time>2024-10-03T10:28:26.999Z</time>
      </trkpt>
      <trkpt lat="42.80473" lon="-0.4173">
        <ele>1804.26</ele>
        <time>2024-10-03T10:28:34.999Z</time>
      </trkpt>
      <trkpt lat="42.80481" lon="-0.41735">
        <ele>1804.35</ele>
        <time>2024-10-03T10:28:48.999Z</time>
      </trkpt>
      <trkpt lat="42.80491" lon="-0.4173">
        <ele>1804.36</ele>
        <time>2024-10-03T10:29:19.999Z</time>
      </trkpt>
      <trkpt lat="42.80502" lon="-0.41728">
        <ele>1804.41</ele>
        <time>2024-10-03T10:29:48.999Z</time>
      </trkpt>
      <trkpt lat="42.80493" lon="-0.41728">
        <ele>1804.48</ele>
        <time>2024-10-03T10:29:57.999Z</time>
      </trkpt>
      <trkpt lat="42.8048" lon="-0.41727">
        <ele>1804.58</ele>
        <time>2024-10-03T10:30:10.999Z</time>
      </trkpt>
      <trkpt lat="42.80443" lon="-0.41718">
        <ele>1804.43</ele>
        <time>2024-10-03T11:14:28.999Z</time>
      </trkpt>
      <trkpt lat="42.80457" lon="-0.41759">
        <ele>1804.86</ele>
        <time>2024-10-03T11:14:48.999Z</time>
      </trkpt>
      <trkpt lat="42.80448" lon="-0.41748">
        <ele>1804.92</ele>
        <time>2024-10-03T11:14:53.999Z</time>
      </trkpt>
      <trkpt lat="42.80456" lon="-0.41737">
        <ele>1804.98</ele>
        <time>2024-10-03T11:14:58.999Z</time>
      </trkpt>
      <trkpt lat="42.80496" lon="-0.41685">
        <ele>1804.66</ele>
        <time>2024-10-03T11:20:12.999Z</time>
      </trkpt>
      <trkpt lat="42.80484" lon="-0.41739">
        <ele>1805.24</ele>
        <time>2024-10-03T11:21:45.000Z</time>
      </trkpt>
      <trkpt lat="42.80475" lon="-0.41732">
        <ele>1805.22</ele>
        <time>2024-10-03T11:22:11.000Z</time>
      </trkpt>
      <trkpt lat="42.80465" lon="-0.41739">
        <ele>1805.64</ele>
        <time>2024-10-03T11:22:17.000Z</time>
      </trkpt>
      <trkpt lat="42.80454" lon="-0.41737">
        <ele>1805.88</ele>
        <time>2024-10-03T11:22:38.000Z</time>
      </trkpt>
      <trkpt lat="42.80429" lon="-0.41719">
        <ele>1805.8</ele>
        <time>2024-10-03T11:22:45.000Z</time>
      </trkpt>
      <trkpt lat="42.80421" lon="-0.4173">
        <ele>1805.68</ele>
        <time>2024-10-03T11:22:50.000Z</time>
      </trkpt>
      <trkpt lat="42.80427" lon="-0.41756">
        <ele>1805.26</ele>
        <time>2024-10-03T11:23:10.000Z</time>
      </trkpt>
      <trkpt lat="42.80466" lon="-0.41734">
        <ele>1807.26</ele>
        <time>2024-10-03T11:26:45.000Z</time>
      </trkpt>
      <trkpt lat="42.80466" lon="-0.41722">
        <ele>1808.45</ele>
        <time>2024-10-03T11:27:03.000Z</time>
      </trkpt>
      <trkpt lat="42.80475" lon="-0.41717">
        <ele>1807.96</ele>
        <time>2024-10-03T11:27:51.000Z</time>
      </trkpt>
      <trkpt lat="42.80476" lon="-0.41731">
        <ele>1808.84</ele>
        <time>2024-10-03T11:28:10.000Z</time>
      </trkpt>
      <trkpt lat="42.8047" lon="-0.41748">
        <ele>1809.57</ele>
        <time>2024-10-03T11:28:15.000Z</time>
      </trkpt>
      <trkpt lat="42.80463" lon="-0.41739">
        <ele>1809.48</ele>
        <time>2024-10-03T11:28:41.000Z</time>
      </trkpt>
      <trkpt lat="42.80463" lon="-0.41716">
        <ele>1809.6</ele>
        <time>2024-10-03T11:29:27.000Z</time>
      </trkpt>
      <trkpt lat="42.80473" lon="-0.41708">
        <ele>1809.6</ele>
        <time>2024-10-03T11:29:32.000Z</time>
      </trkpt>
      <trkpt lat="42.8047" lon="-0.41728">
        <ele>1806.18</ele>
        <time>2024-10-03T11:30:39.000Z</time>
      </trkpt>
      <trkpt lat="42.80483" lon="-0.41728">
        <ele>1804.41</ele>
        <time>2024-10-03T11:51:38.000Z</time>
      </trkpt>
      <trkpt lat="42.80478" lon="-0.4174">
        <ele>1804.84</ele>
        <time>2024-10-03T11:52:21.000Z</time>
      </trkpt>
      <trkpt lat="42.80469" lon="-0.4174">
        <ele>1805.03</ele>
        <time>2024-10-03T11:52:32.000Z</time>
      </trkpt>
      <trkpt lat="42.80459" lon="-0.41743">
        <ele>1804.82</ele>
        <time>2024-10-03T11:52:38.000Z</time>
      </trkpt>
      <trkpt lat="42.80485" lon="-0.41735">
        <ele>1804.68</ele>
        <time>2024-10-03T11:52:43.000Z</time>
      </trkpt>
      <trkpt lat="42.80475" lon="-0.41739">
        <ele>1804.78</ele>
        <time>2024-10-03T11:52:49.000Z</time>
      </trkpt>
      <trkpt lat="42.80483" lon="-0.41732">
        <ele>1805.08</ele>
        <time>2024-10-03T11:52:55.000Z</time>
      </trkpt>
      <trkpt lat="42.80492" lon="-0.41724">
        <ele>1805.26</ele>
        <time>2024-10-03T11:53:00.000Z</time>
      </trkpt>
      <trkpt lat="42.80479" lon="-0.41731">
        <ele>1806.55</ele>
        <time>2024-10-03T12:00:11.999Z</time>
      </trkpt>
      <trkpt lat="42.80478" lon="-0.41718">
        <ele>1807.74</ele>
        <time>2024-10-03T12:00:26.999Z</time>
      </trkpt>
      <trkpt lat="42.80478" lon="-0.41731">
        <ele>1814.24</ele>
        <time>2024-10-03T12:06:41.999Z</time>
      </trkpt>
      <trkpt lat="42.8048" lon="-0.41743">
        <ele>1815.1</ele>
        <time>2024-10-03T12:07:00.999Z</time>
      </trkpt>
      <trkpt lat="42.80487" lon="-0.41752">
        <ele>1815.39</ele>
        <time>2024-10-03T12:07:05.999Z</time>
      </trkpt>
      <trkpt lat="42.80495" lon="-0.41761">
        <ele>1815.65</ele>
        <time>2024-10-03T12:07:10.999Z</time>
      </trkpt>
      <trkpt lat="42.80502" lon="-0.41774">
        <ele>1815.89</ele>
        <time>2024-10-03T12:07:15.999Z</time>
      </trkpt>
      <trkpt lat="42.80507" lon="-0.41789">
        <ele>1816.11</ele>
        <time>2024-10-03T12:07:20.999Z</time>
      </trkpt>
      <trkpt lat="42.80508" lon="-0.41806">
        <ele>1816.31</ele>
        <time>2024-10-03T12:07:25.999Z</time>
      </trkpt>
      <trkpt lat="42.80509" lon="-0.41823">
        <ele>1816.49</ele>
        <time>2024-10-03T12:07:30.999Z</time>
      </trkpt>
      <trkpt lat="42.80511" lon="-0.41841">
        <ele>1816.65</ele>
        <time>2024-10-03T12:07:35.999Z</time>
      </trkpt>
      <trkpt lat="42.80512" lon="-0.41859">
        <ele>1816.79</ele>
        <time>2024-10-03T12:07:40.999Z</time>
      </trkpt>
      <trkpt lat="42.80521" lon="-0.4186">
        <ele>1816.94</ele>
        <time>2024-10-03T12:07:45.999Z</time>
      </trkpt>
      <trkpt lat="42.80531" lon="-0.41857">
        <ele>1817.08</ele>
        <time>2024-10-03T12:07:50.999Z</time>
      </trkpt>
      <trkpt lat="42.80542" lon="-0.41854">
        <ele>1817.21</ele>
        <time>2024-10-03T12:07:55.999Z</time>
      </trkpt>
      <trkpt lat="42.80553" lon="-0.41853">
        <ele>1817.33</ele>
        <time>2024-10-03T12:08:00.999Z</time>
      </trkpt>
      <trkpt lat="42.80565" lon="-0.41851">
        <ele>1817.44</ele>
        <time>2024-10-03T12:08:05.999Z</time>
      </trkpt>
      <trkpt lat="42.80577" lon="-0.4185">
        <ele>1817.56</ele>
        <time>2024-10-03T12:08:10.999Z</time>
      </trkpt>
      <trkpt lat="42.80589" lon="-0.41845">
        <ele>1817.68</ele>
        <time>2024-10-03T12:08:15.999Z</time>
      </trkpt>
      <trkpt lat="42.80606" lon="-0.41841">
        <ele>1817.82</ele>
        <time>2024-10-03T12:08:21.999Z</time>
      </trkpt>
      <trkpt lat="42.80616" lon="-0.4184">
        <ele>1817.94</ele>
        <time>2024-10-03T12:08:26.999Z</time>
      </trkpt>
      <trkpt lat="42.80626" lon="-0.41842">
        <ele>1818.08</ele>
        <time>2024-10-03T12:08:32.999Z</time>
      </trkpt>
      <trkpt lat="42.80635" lon="-0.41844">
        <ele>1818.22</ele>
        <time>2024-10-03T12:08:38.999Z</time>
      </trkpt>
      <trkpt lat="42.80644" lon="-0.41846">
        <ele>1818.48</ele>
        <time>2024-10-03T12:10:17.000Z</time>
      </trkpt>
      <trkpt lat="42.80648" lon="-0.41859">
        <ele>1818.58</ele>
        <time>2024-10-03T12:10:35.000Z</time>
      </trkpt>
      <trkpt lat="42.80661" lon="-0.41876">
        <ele>1818.78</ele>
        <time>2024-10-03T12:10:40.000Z</time>
      </trkpt>
      <trkpt lat="42.80678" lon="-0.41898">
        <ele>1819.01</ele>
        <time>2024-10-03T12:10:45.000Z</time>
      </trkpt>
      <trkpt lat="42.80699" lon="-0.41923">
        <ele>1819.04</ele>
        <time>2024-10-03T12:10:50.000Z</time>
      </trkpt>
      <trkpt lat="42.80732" lon="-0.41928">
        <ele>1818.99</ele>
        <time>2024-10-03T12:10:55.000Z</time>
      </trkpt>
      <trkpt lat="42.8077" lon="-0.41907">
        <ele>1818.63</ele>
        <time>2024-10-03T12:11:00.000Z</time>
      </trkpt>
      <trkpt lat="42.80809" lon="-0.41873">
        <ele>1817.96</ele>
        <time>2024-10-03T12:11:05.000Z</time>
      </trkpt>
      <trkpt lat="42.80844" lon="-0.41827">
        <ele>1817.34</ele>
        <time>2024-10-03T12:11:10.000Z</time>
      </trkpt>
      <trkpt lat="42.80885" lon="-0.41793">
        <ele>1816.65</ele>
        <time>2024-10-03T12:11:15.000Z</time>
      </trkpt>
      <trkpt lat="42.80922" lon="-0.41828">
        <ele>1815.39</ele>
        <time>2024-10-03T12:11:20.000Z</time>
      </trkpt>
      <trkpt lat="42.80956" lon="-0.41863">
        <ele>1814.18</ele>
        <time>2024-10-03T12:11:25.000Z</time>
      </trkpt>
      <trkpt lat="42.81" lon="-0.41879">
        <ele>1812.68</ele>
        <time>2024-10-03T12:11:30.000Z</time>
      </trkpt>
      <trkpt lat="42.81048" lon="-0.41887">
        <ele>1811.17</ele>
        <time>2024-10-03T12:11:35.000Z</time>
      </trkpt>
      <trkpt lat="42.81098" lon="-0.41896">
        <ele>1809.84</ele>
        <time>2024-10-03T12:11:40.000Z</time>
      </trkpt>
      <trkpt lat="42.81147" lon="-0.41904">
        <ele>1807.8</ele>
        <time>2024-10-03T12:11:45.000Z</time>
      </trkpt>
      <trkpt lat="42.81197" lon="-0.4191">
        <ele>1806.05</ele>
        <time>2024-10-03T12:11:50.000Z</time>
      </trkpt>
      <trkpt lat="42.81249" lon="-0.41913">
        <ele>1804.52</ele>
        <time>2024-10-03T12:11:55.000Z</time>
      </trkpt>
      <trkpt lat="42.81299" lon="-0.41892">
        <ele>1801.89</ele>
        <time>2024-10-03T12:12:00.000Z</time>
      </trkpt>
      <trkpt lat="42.81349" lon="-0.41865">
        <ele>1798.98</ele>
        <time>2024-10-03T12:12:05.000Z</time>
      </trkpt>
      <trkpt lat="42.81395" lon="-0.41824">
        <ele>1795.67</ele>
        <time>2024-10-03T12:12:10.000Z</time>
      </trkpt>
      <trkpt lat="42.81448" lon="-0.41807">
        <ele>1792.36</ele>
        <time>2024-10-03T12:12:15.000Z</time>
      </trkpt>
      <trkpt lat="42.81503" lon="-0.41802">
        <ele>1789.14</ele>
        <time>2024-10-03T12:12:20.000Z</time>
      </trkpt>
      <trkpt lat="42.81547" lon="-0.41757">
        <ele>1786.3</ele>
        <time>2024-10-03T12:12:25.000Z</time>
      </trkpt>
      <trkpt lat="42.81583" lon="-0.417">
        <ele>1783.26</ele>
        <time>2024-10-03T12:12:30.000Z</time>
      </trkpt>
      <trkpt lat="42.81618" lon="-0.41641">
        <ele>1780.53</ele>
        <time>2024-10-03T12:12:35.000Z</time>
      </trkpt>
      <trkpt lat="42.81668" lon="-0.41628">
        <ele>1776.49</ele>
        <time>2024-10-03T12:12:40.000Z</time>
      </trkpt>
      <trkpt lat="42.81718" lon="-0.41628">
        <ele>1773.66</ele>
        <time>2024-10-03T12:12:45.000Z</time>
      </trkpt>
      <trkpt lat="42.81762" lon="-0.41606">
        <ele>1770.23</ele>
        <time>2024-10-03T12:12:50.000Z</time>
      </trkpt>
      <trkpt lat="42.81807" lon="-0.41601">
        <ele>1765.66</ele>
        <time>2024-10-03T12:12:55.000Z</time>
      </trkpt>
      <trkpt lat="42.81847" lon="-0.41598">
        <ele>1761.4</ele>
        <time>2024-10-03T12:13:00.000Z</time>
      </trkpt>
      <trkpt lat="42.81869" lon="-0.41559">
        <ele>1758.09</ele>
        <time>2024-10-03T12:13:05.000Z</time>
      </trkpt>
      <trkpt lat="42.81875" lon="-0.41513">
        <ele>1755.13</ele>
        <time>2024-10-03T12:13:10.000Z</time>
      </trkpt>
      <trkpt lat="42.81883" lon="-0.41466">
        <ele>1753.49</ele>
        <time>2024-10-03T12:13:15.000Z</time>
      </trkpt>
      <trkpt lat="42.8188" lon="-0.41416">
        <ele>1750.98</ele>
        <time>2024-10-03T12:13:20.000Z</time>
      </trkpt>
      <trkpt lat="42.81884" lon="-0.41369">
        <ele>1748.9</ele>
        <time>2024-10-03T12:13:25.000Z</time>
      </trkpt>
      <trkpt lat="42.81897" lon="-0.41319">
        <ele>1746.65</ele>
        <time>2024-10-03T12:13:30.000Z</time>
      </trkpt>
      <trkpt lat="42.81909" lon="-0.41269">
        <ele>1744.38</ele>
        <time>2024-10-03T12:13:35.000Z</time>
      </trkpt>
      <trkpt lat="42.81923" lon="-0.41219">
        <ele>1742.48</ele>
        <time>2024-10-03T12:13:40.000Z</time>
      </trkpt>
      <trkpt lat="42.81951" lon="-0.41179">
        <ele>1740.63</ele>
        <time>2024-10-03T12:13:45.000Z</time>
      </trkpt>
      <trkpt lat="42.8198" lon="-0.41136">
        <ele>1738.25</ele>
        <time>2024-10-03T12:13:50.000Z</time>
      </trkpt>
      <trkpt lat="42.81995" lon="-0.41077">
        <ele>1734.56</ele>
        <time>2024-10-03T12:13:55.000Z</time>
      </trkpt>
      <trkpt lat="42.81993" lon="-0.41021">
        <ele>1731.15</ele>
        <time>2024-10-03T12:14:00.000Z</time>
      </trkpt>
      <trkpt lat="42.82006" lon="-0.40972">
        <ele>1728.25</ele>
        <time>2024-10-03T12:14:05.000Z</time>
      </trkpt>
      <trkpt lat="42.82027" lon="-0.40924">
        <ele>1725.33</ele>
        <time>2024-10-03T12:14:10.000Z</time>
      </trkpt>
      <trkpt lat="42.82055" lon="-0.40886">
        <ele>1722.4</ele>
        <time>2024-10-03T12:14:15.000Z</time>
      </trkpt>
      <trkpt lat="42.82083" lon="-0.40849">
        <ele>1720.2</ele>
        <time>2024-10-03T12:14:20.000Z</time>
      </trkpt>
      <trkpt lat="42.82111" lon="-0.40806">
        <ele>1718.52</ele>
        <time>2024-10-03T12:14:25.000Z</time>
      </trkpt>
      <trkpt lat="42.82142" lon="-0.40757">
        <ele>1716.64</ele>
        <time>2024-10-03T12:14:30.000Z</time>
      </trkpt>
      <trkpt lat="42.82159" lon="-0.40691">
        <ele>1714.1</ele>
        <time>2024-10-03T12:14:35.000Z</time>
      </trkpt>
      <trkpt lat="42.82171" lon="-0.4062">
        <ele>1710.93</ele>
        <time>2024-10-03T12:14:40.000Z</time>
      </trkpt>
      <trkpt lat="42.82187" lon="-0.4055">
        <ele>1708.91</ele>
        <time>2024-10-03T12:14:45.000Z</time>
      </trkpt>
      <trkpt lat="42.82154" lon="-0.405">
        <ele>1706.71</ele>
        <time>2024-10-03T12:14:50.000Z</time>
      </trkpt>
      <trkpt lat="42.82112" lon="-0.40514">
        <ele>1703</ele>
        <time>2024-10-03T12:14:55.000Z</time>
      </trkpt>
      <trkpt lat="42.82072" lon="-0.4055">
        <ele>1698</ele>
        <time>2024-10-03T12:15:00.000Z</time>
      </trkpt>
      <trkpt lat="42.82022" lon="-0.40583">
        <ele>1693.48</ele>
        <time>2024-10-03T12:15:05.000Z</time>
      </trkpt>
      <trkpt lat="42.81981" lon="-0.40576">
        <ele>1688.97</ele>
        <time>2024-10-03T12:15:10.000Z</time>
      </trkpt>
      <trkpt lat="42.82005" lon="-0.40526">
        <ele>1686.17</ele>
        <time>2024-10-03T12:15:15.000Z</time>
      </trkpt>
      <trkpt lat="42.82014" lon="-0.40466">
        <ele>1682.15</ele>
        <time>2024-10-03T12:15:20.000Z</time>
      </trkpt>
      <trkpt lat="42.81991" lon="-0.40411">
        <ele>1677.86</ele>
        <time>2024-10-03T12:15:25.000Z</time>
      </trkpt>
      <trkpt lat="42.81955" lon="-0.40382">
        <ele>1675.01</ele>
        <time>2024-10-03T12:15:30.000Z</time>
      </trkpt>
      <trkpt lat="42.81913" lon="-0.40387">
        <ele>1670.57</ele>
        <time>2024-10-03T12:15:35.000Z</time>
      </trkpt>
      <trkpt lat="42.81865" lon="-0.40389">
        <ele>1666.55</ele>
        <time>2024-10-03T12:15:40.000Z</time>
      </trkpt>
      <trkpt lat="42.81821" lon="-0.4035">
        <ele>1662.46</ele>
        <time>2024-10-03T12:15:45.000Z</time>
      </trkpt>
      <trkpt lat="42.81802" lon="-0.40279">
        <ele>1658.46</ele>
        <time>2024-10-03T12:15:50.000Z</time>
      </trkpt>
      <trkpt lat="42.81795" lon="-0.40203">
        <ele>1654.41</ele>
        <time>2024-10-03T12:15:55.000Z</time>
      </trkpt>
      <trkpt lat="42.81797" lon="-0.40128">
        <ele>1651.05</ele>
        <time>2024-10-03T12:16:00.000Z</time>
      </trkpt>
      <trkpt lat="42.818" lon="-0.40053">
        <ele>1648.14</ele>
        <time>2024-10-03T12:16:05.000Z</time>
      </trkpt>
      <trkpt lat="42.81811" lon="-0.39979">
        <ele>1645.75</ele>
        <time>2024-10-03T12:16:10.000Z</time>
      </trkpt>
      <trkpt lat="42.81839" lon="-0.39915">
        <ele>1642.6</ele>
        <time>2024-10-03T12:16:15.000Z</time>
      </trkpt>
      <trkpt lat="42.81877" lon="-0.39857">
        <ele>1638.69</ele>
        <time>2024-10-03T12:16:20.000Z</time>
      </trkpt>
      <trkpt lat="42.81924" lon="-0.39814">
        <ele>1635.58</ele>
        <time>2024-10-03T12:16:25.000Z</time>
      </trkpt>
      <trkpt lat="42.81967" lon="-0.39767">
        <ele>1632.28</ele>
        <time>2024-10-03T12:16:30.000Z</time>
      </trkpt>
      <trkpt lat="42.82004" lon="-0.39713">
        <ele>1629.1</ele>
        <time>2024-10-03T12:16:35.000Z</time>
      </trkpt>
      <trkpt lat="42.82036" lon="-0.39655">
        <ele>1626.28</ele>
        <time>2024-10-03T12:16:40.000Z</time>
      </trkpt>
      <trkpt lat="42.82073" lon="-0.39603">
        <ele>1623.65</ele>
        <time>2024-10-03T12:16:45.000Z</time>
      </trkpt>
      <trkpt lat="42.82111" lon="-0.39553">
        <ele>1619.62</ele>
        <time>2024-10-03T12:16:50.000Z</time>
      </trkpt>
      <trkpt lat="42.82161" lon="-0.39531">
        <ele>1614.99</ele>
        <time>2024-10-03T12:16:55.000Z</time>
      </trkpt>
      <trkpt lat="42.8221" lon="-0.39503">
        <ele>1611.08</ele>
        <time>2024-10-03T12:17:00.000Z</time>
      </trkpt>
      <trkpt lat="42.82258" lon="-0.39472">
        <ele>1608.02</ele>
        <time>2024-10-03T12:17:05.000Z</time>
      </trkpt>
      <trkpt lat="42.82274" lon="-0.39416">
        <ele>1604.28</ele>
        <time>2024-10-03T12:17:10.000Z</time>
      </trkpt>
      <trkpt lat="42.82242" lon="-0.3937">
        <ele>1600.55</ele>
        <time>2024-10-03T12:17:15.000Z</time>
      </trkpt>
      <trkpt lat="42.82257" lon="-0.39249">
        <ele>1597.53</ele>
        <time>2024-10-03T12:17:25.000Z</time>
      </trkpt>
      <trkpt lat="42.82309" lon="-0.39198">
        <ele>1594.04</ele>
        <time>2024-10-03T12:17:30.000Z</time>
      </trkpt>
      <trkpt lat="42.82346" lon="-0.39133">
        <ele>1584.79</ele>
        <time>2024-10-03T12:17:35.000Z</time>
      </trkpt>
      <trkpt lat="42.82373" lon="-0.39067">
        <ele>1575.6</ele>
        <time>2024-10-03T12:17:40.000Z</time>
      </trkpt>
      <trkpt lat="42.82398" lon="-0.38999">
        <ele>1568.97</ele>
        <time>2024-10-03T12:17:45.000Z</time>
      </trkpt>
      <trkpt lat="42.82427" lon="-0.38938">
        <ele>1564.4</ele>
        <time>2024-10-03T12:17:50.000Z</time>
      </trkpt>
      <trkpt lat="42.82458" lon="-0.38878">
        <ele>1562.4</ele>
        <time>2024-10-03T12:17:55.000Z</time>
      </trkpt>
      <trkpt lat="42.82505" lon="-0.38796">
        <ele>1560.29</ele>
        <time>2024-10-03T12:18:02.000Z</time>
      </trkpt>
      <trkpt lat="42.8255" lon="-0.38742">
        <ele>1559.85</ele>
        <time>2024-10-03T12:18:07.000Z</time>
      </trkpt>
      <trkpt lat="42.82604" lon="-0.38706">
        <ele>1553.39</ele>
        <time>2024-10-03T12:18:12.000Z</time>
      </trkpt>
      <trkpt lat="42.82656" lon="-0.38659">
        <ele>1545.31</ele>
        <time>2024-10-03T12:18:17.000Z</time>
      </trkpt>
      <trkpt lat="42.82705" lon="-0.38619">
        <ele>1536.88</ele>
        <time>2024-10-03T12:18:22.000Z</time>
      </trkpt>
      <trkpt lat="42.82755" lon="-0.38579">
        <ele>1529.68</ele>
        <time>2024-10-03T12:18:27.000Z</time>
      </trkpt>
      <trkpt lat="42.82814" lon="-0.3857">
        <ele>1522.06</ele>
        <time>2024-10-03T12:18:32.000Z</time>
      </trkpt>
      <trkpt lat="42.8287" lon="-0.38537">
        <ele>1515.58</ele>
        <time>2024-10-03T12:18:37.000Z</time>
      </trkpt>
      <trkpt lat="42.82927" lon="-0.38524">
        <ele>1510.62</ele>
        <time>2024-10-03T12:18:42.000Z</time>
      </trkpt>
      <trkpt lat="42.82982" lon="-0.38501">
        <ele>1506.86</ele>
        <time>2024-10-03T12:18:47.000Z</time>
      </trkpt>
      <trkpt lat="42.83038" lon="-0.38486">
        <ele>1504.22</ele>
        <time>2024-10-03T12:18:52.000Z</time>
      </trkpt>
      <trkpt lat="42.8309" lon="-0.38456">
        <ele>1500.81</ele>
        <time>2024-10-03T12:18:57.000Z</time>
      </trkpt>
      <trkpt lat="42.83137" lon="-0.38424">
        <ele>1496.96</ele>
        <time>2024-10-03T12:19:02.000Z</time>
      </trkpt>
      <trkpt lat="42.83185" lon="-0.38404">
        <ele>1493.25</ele>
        <time>2024-10-03T12:19:07.000Z</time>
      </trkpt>
      <trkpt lat="42.83233" lon="-0.38386">
        <ele>1490.25</ele>
        <time>2024-10-03T12:19:12.000Z</time>
      </trkpt>
      <trkpt lat="42.83281" lon="-0.3837">
        <ele>1487</ele>
        <time>2024-10-03T12:19:17.000Z</time>
      </trkpt>
      <trkpt lat="42.8333" lon="-0.3835">
        <ele>1484.03</ele>
        <time>2024-10-03T12:19:22.000Z</time>
      </trkpt>
      <trkpt lat="42.83379" lon="-0.38338">
        <ele>1480.48</ele>
        <time>2024-10-03T12:19:27.000Z</time>
      </trkpt>
      <trkpt lat="42.83428" lon="-0.38328">
        <ele>1476.74</ele>
        <time>2024-10-03T12:19:32.000Z</time>
      </trkpt>
      <trkpt lat="42.83476" lon="-0.38312">
        <ele>1472.99</ele>
        <time>2024-10-03T12:19:37.000Z</time>
      </trkpt>
      <trkpt lat="42.83519" lon="-0.38357">
        <ele>1468.8</ele>
        <time>2024-10-03T12:19:42.000Z</time>
      </trkpt>
      <trkpt lat="42.83554" lon="-0.38401">
        <ele>1464.5</ele>
        <time>2024-10-03T12:19:47.000Z</time>
      </trkpt>
      <trkpt lat="42.83594" lon="-0.3837">
        <ele>1460.6</ele>
        <time>2024-10-03T12:19:52.000Z</time>
      </trkpt>
      <trkpt lat="42.83633" lon="-0.38332">
        <ele>1456.99</ele>
        <time>2024-10-03T12:19:57.000Z</time>
      </trkpt>
      <trkpt lat="42.83671" lon="-0.38301">
        <ele>1453.85</ele>
        <time>2024-10-03T12:20:02.000Z</time>
      </trkpt>
      <trkpt lat="42.83712" lon="-0.38296">
        <ele>1450.98</ele>
        <time>2024-10-03T12:20:07.000Z</time>
      </trkpt>
      <trkpt lat="42.83757" lon="-0.38297">
        <ele>1448.61</ele>
        <time>2024-10-03T12:20:12.000Z</time>
      </trkpt>
      <trkpt lat="42.83801" lon="-0.383">
        <ele>1446.67</ele>
        <time>2024-10-03T12:20:17.000Z</time>
      </trkpt>
      <trkpt lat="42.83842" lon="-0.3831">
        <ele>1444.55</ele>
        <time>2024-10-03T12:20:22.000Z</time>
      </trkpt>
      <trkpt lat="42.83889" lon="-0.38317">
        <ele>1442.25</ele>
        <time>2024-10-03T12:20:27.000Z</time>
      </trkpt>
      <trkpt lat="42.83936" lon="-0.38315">
        <ele>1439.24</ele>
        <time>2024-10-03T12:20:32.000Z</time>
      </trkpt>
      <trkpt lat="42.8398" lon="-0.38322">
        <ele>1436.39</ele>
        <time>2024-10-03T12:20:37.000Z</time>
      </trkpt>
      <trkpt lat="42.84019" lon="-0.3835">
        <ele>1433.25</ele>
        <time>2024-10-03T12:20:42.000Z</time>
      </trkpt>
      <trkpt lat="42.8406" lon="-0.38374">
        <ele>1431</ele>
        <time>2024-10-03T12:20:47.000Z</time>
      </trkpt>
      <trkpt lat="42.841" lon="-0.38397">
        <ele>1429.12</ele>
        <time>2024-10-03T12:20:52.000Z</time>
      </trkpt>
      <trkpt lat="42.84139" lon="-0.38422">
        <ele>1427.31</ele>
        <time>2024-10-03T12:20:57.000Z</time>
      </trkpt>
      <trkpt lat="42.84178" lon="-0.38448">
        <ele>1425.49</ele>
        <time>2024-10-03T12:21:02.000Z</time>
      </trkpt>
      <trkpt lat="42.84217" lon="-0.38471">
        <ele>1423.37</ele>
        <time>2024-10-03T12:21:07.000Z</time>
      </trkpt>
      <trkpt lat="42.84253" lon="-0.38491">
        <ele>1420.36</ele>
        <time>2024-10-03T12:21:12.000Z</time>
      </trkpt>
      <trkpt lat="42.84289" lon="-0.38518">
        <ele>1418.06</ele>
        <time>2024-10-03T12:21:17.000Z</time>
      </trkpt>
      <trkpt lat="42.84327" lon="-0.38542">
        <ele>1415.88</ele>
        <time>2024-10-03T12:21:22.000Z</time>
      </trkpt>
      <trkpt lat="42.84364" lon="-0.38565">
        <ele>1414.12</ele>
        <time>2024-10-03T12:21:27.000Z</time>
      </trkpt>
      <trkpt lat="42.84405" lon="-0.38581">
        <ele>1411.99</ele>
        <time>2024-10-03T12:21:32.000Z</time>
      </trkpt>
      <trkpt lat="42.84444" lon="-0.38594">
        <ele>1410</ele>
        <time>2024-10-03T12:21:37.000Z</time>
      </trkpt>
      <trkpt lat="42.84484" lon="-0.38605">
        <ele>1407.66</ele>
        <time>2024-10-03T12:21:42.000Z</time>
      </trkpt>
      <trkpt lat="42.84526" lon="-0.38616">
        <ele>1405.41</ele>
        <time>2024-10-03T12:21:47.000Z</time>
      </trkpt>
      <trkpt lat="42.84568" lon="-0.38632">
        <ele>1403.71</ele>
        <time>2024-10-03T12:21:52.000Z</time>
      </trkpt>
      <trkpt lat="42.8461" lon="-0.38674">
        <ele>1401.82</ele>
        <time>2024-10-03T12:21:57.999Z</time>
      </trkpt>
      <trkpt lat="42.84644" lon="-0.38711">
        <ele>1400.29</ele>
        <time>2024-10-03T12:22:02.999Z</time>
      </trkpt>
      <trkpt lat="42.84679" lon="-0.38744">
        <ele>1398.98</ele>
        <time>2024-10-03T12:22:07.999Z</time>
      </trkpt>
      <trkpt lat="42.84718" lon="-0.38755">
        <ele>1397.42</ele>
        <time>2024-10-03T12:22:12.999Z</time>
      </trkpt>
      <trkpt lat="42.84756" lon="-0.38763">
        <ele>1396.07</ele>
        <time>2024-10-03T12:22:17.999Z</time>
      </trkpt>
      <trkpt lat="42.84794" lon="-0.38767">
        <ele>1395.06</ele>
        <time>2024-10-03T12:22:22.999Z</time>
      </trkpt>
      <trkpt lat="42.84831" lon="-0.38771">
        <ele>1393.93</ele>
        <time>2024-10-03T12:22:27.999Z</time>
      </trkpt>
      <trkpt lat="42.84868" lon="-0.38786">
        <ele>1392.41</ele>
        <time>2024-10-03T12:22:32.999Z</time>
      </trkpt>
      <trkpt lat="42.84907" lon="-0.38802">
        <ele>1390.9</ele>
        <time>2024-10-03T12:22:37.999Z</time>
      </trkpt>
      <trkpt lat="42.84945" lon="-0.38819">
        <ele>1389.07</ele>
        <time>2024-10-03T12:22:42.999Z</time>
      </trkpt>
      <trkpt lat="42.8498" lon="-0.38835">
        <ele>1387.88</ele>
        <time>2024-10-03T12:22:47.999Z</time>
      </trkpt>
      <trkpt lat="42.85018" lon="-0.38846">
        <ele>1386.19</ele>
        <time>2024-10-03T12:22:52.999Z</time>
      </trkpt>
      <trkpt lat="42.85062" lon="-0.38869">
        <ele>1381.75</ele>
        <time>2024-10-03T12:22:57.999Z</time>
      </trkpt>
      <trkpt lat="42.85105" lon="-0.38877">
        <ele>1382.27</ele>
        <time>2024-10-03T12:23:02.999Z</time>
      </trkpt>
      <trkpt lat="42.85146" lon="-0.38876">
        <ele>1383.31</ele>
        <time>2024-10-03T12:23:07.999Z</time>
      </trkpt>
      <trkpt lat="42.85187" lon="-0.38881">
        <ele>1383.99</ele>
        <time>2024-10-03T12:23:12.999Z</time>
      </trkpt>
      <trkpt lat="42.85226" lon="-0.3891">
        <ele>1382.18</ele>
        <time>2024-10-03T12:23:17.999Z</time>
      </trkpt>
      <trkpt lat="42.85265" lon="-0.38938">
        <ele>1379.24</ele>
        <time>2024-10-03T12:23:22.999Z</time>
      </trkpt>
      <trkpt lat="42.85302" lon="-0.38951">
        <ele>1376.77</ele>
        <time>2024-10-03T12:23:27.999Z</time>
      </trkpt>
      <trkpt lat="42.85337" lon="-0.38971">
        <ele>1375.14</ele>
        <time>2024-10-03T12:23:32.999Z</time>
      </trkpt>
      <trkpt lat="42.85372" lon="-0.38981">
        <ele>1371.19</ele>
        <time>2024-10-03T12:23:37.999Z</time>
      </trkpt>
      <trkpt lat="42.85406" lon="-0.3898">
        <ele>1367.41</ele>
        <time>2024-10-03T12:23:42.999Z</time>
      </trkpt>
      <trkpt lat="42.85439" lon="-0.3898">
        <ele>1365.29</ele>
        <time>2024-10-03T12:23:47.999Z</time>
      </trkpt>
      <trkpt lat="42.85472" lon="-0.38979">
        <ele>1363.39</ele>
        <time>2024-10-03T12:23:52.999Z</time>
      </trkpt>
      <trkpt lat="42.85507" lon="-0.38972">
        <ele>1361.22</ele>
        <time>2024-10-03T12:23:57.999Z</time>
      </trkpt>
      <trkpt lat="42.85544" lon="-0.38978">
        <ele>1359.18</ele>
        <time>2024-10-03T12:24:02.999Z</time>
      </trkpt>
      <trkpt lat="42.85577" lon="-0.39001">
        <ele>1356.74</ele>
        <time>2024-10-03T12:24:07.999Z</time>
      </trkpt>
      <trkpt lat="42.85605" lon="-0.39035">
        <ele>1354.66</ele>
        <time>2024-10-03T12:24:12.999Z</time>
      </trkpt>
      <trkpt lat="42.85636" lon="-0.39062">
        <ele>1352.2</ele>
        <time>2024-10-03T12:24:17.999Z</time>
      </trkpt>
      <trkpt lat="42.85672" lon="-0.39076">
        <ele>1350.54</ele>
        <time>2024-10-03T12:24:22.999Z</time>
      </trkpt>
      <trkpt lat="42.85707" lon="-0.39074">
        <ele>1349.6</ele>
        <time>2024-10-03T12:24:27.999Z</time>
      </trkpt>
      <trkpt lat="42.85745" lon="-0.39076">
        <ele>1348.55</ele>
        <time>2024-10-03T12:24:32.999Z</time>
      </trkpt>
      <trkpt lat="42.8578" lon="-0.39085">
        <ele>1347.56</ele>
        <time>2024-10-03T12:24:37.999Z</time>
      </trkpt>
      <trkpt lat="42.85816" lon="-0.39099">
        <ele>1345.85</ele>
        <time>2024-10-03T12:24:42.999Z</time>
      </trkpt>
      <trkpt lat="42.85848" lon="-0.39124">
        <ele>1343.46</ele>
        <time>2024-10-03T12:24:47.999Z</time>
      </trkpt>
      <trkpt lat="42.85876" lon="-0.39156">
        <ele>1341.24</ele>
        <time>2024-10-03T12:24:52.999Z</time>
      </trkpt>
      <trkpt lat="42.859" lon="-0.392">
        <ele>1339.05</ele>
        <time>2024-10-03T12:24:57.999Z</time>
      </trkpt>
      <trkpt lat="42.85941" lon="-0.39204">
        <ele>1336.49</ele>
        <time>2024-10-03T12:25:02.999Z</time>
      </trkpt>
      <trkpt lat="42.85981" lon="-0.39198">
        <ele>1333.61</ele>
        <time>2024-10-03T12:25:07.999Z</time>
      </trkpt>
      <trkpt lat="42.86017" lon="-0.39181">
        <ele>1330.91</ele>
        <time>2024-10-03T12:25:12.999Z</time>
      </trkpt>
      <trkpt lat="42.86046" lon="-0.39144">
        <ele>1328.23</ele>
        <time>2024-10-03T12:25:17.999Z</time>
      </trkpt>
      <trkpt lat="42.86084" lon="-0.39129">
        <ele>1326.18</ele>
        <time>2024-10-03T12:25:22.999Z</time>
      </trkpt>
      <trkpt lat="42.86123" lon="-0.39131">
        <ele>1324.9</ele>
        <time>2024-10-03T12:25:27.999Z</time>
      </trkpt>
      <trkpt lat="42.86158" lon="-0.39151">
        <ele>1323.32</ele>
        <time>2024-10-03T12:25:32.999Z</time>
      </trkpt>
      <trkpt lat="42.86197" lon="-0.39174">
        <ele>1320.41</ele>
        <time>2024-10-03T12:25:37.999Z</time>
      </trkpt>
      <trkpt lat="42.86237" lon="-0.3918">
        <ele>1317.44</ele>
        <time>2024-10-03T12:25:42.999Z</time>
      </trkpt>
      <trkpt lat="42.86281" lon="-0.39185">
        <ele>1314.25</ele>
        <time>2024-10-03T12:25:47.999Z</time>
      </trkpt>
      <trkpt lat="42.86322" lon="-0.39185">
        <ele>1311.7</ele>
        <time>2024-10-03T12:25:52.999Z</time>
      </trkpt>
      <trkpt lat="42.86348" lon="-0.39226">
        <ele>1308.66</ele>
        <time>2024-10-03T12:25:57.999Z</time>
      </trkpt>
      <trkpt lat="42.86373" lon="-0.39273">
        <ele>1306.12</ele>
        <time>2024-10-03T12:26:02.999Z</time>
      </trkpt>
      <trkpt lat="42.86406" lon="-0.39307">
        <ele>1303.73</ele>
        <time>2024-10-03T12:26:07.999Z</time>
      </trkpt>
      <trkpt lat="42.86441" lon="-0.39329">
        <ele>1301.43</ele>
        <time>2024-10-03T12:26:12.999Z</time>
      </trkpt>
      <trkpt lat="42.86471" lon="-0.39342">
        <ele>1299.22</ele>
        <time>2024-10-03T12:26:17.999Z</time>
      </trkpt>
      <trkpt lat="42.865" lon="-0.39346">
        <ele>1297.34</ele>
        <time>2024-10-03T12:26:22.999Z</time>
      </trkpt>
      <trkpt lat="42.86528" lon="-0.39349">
        <ele>1295.85</ele>
        <time>2024-10-03T12:26:27.999Z</time>
      </trkpt>
      <trkpt lat="42.86557" lon="-0.39365">
        <ele>1294.88</ele>
        <time>2024-10-03T12:26:32.999Z</time>
      </trkpt>
      <trkpt lat="42.86587" lon="-0.39392">
        <ele>1293.25</ele>
        <time>2024-10-03T12:26:37.999Z</time>
      </trkpt>
      <trkpt lat="42.86618" lon="-0.39422">
        <ele>1291.71</ele>
        <time>2024-10-03T12:26:42.999Z</time>
      </trkpt>
      <trkpt lat="42.86652" lon="-0.39437">
        <ele>1290.42</ele>
        <time>2024-10-03T12:26:47.999Z</time>
      </trkpt>
      <trkpt lat="42.86685" lon="-0.39433">
        <ele>1289.33</ele>
        <time>2024-10-03T12:26:52.999Z</time>
      </trkpt>
      <trkpt lat="42.86713" lon="-0.39418">
        <ele>1288.44</ele>
        <time>2024-10-03T12:26:57.999Z</time>
      </trkpt>
      <trkpt lat="42.86741" lon="-0.39406">
        <ele>1287.56</ele>
        <time>2024-10-03T12:27:02.999Z</time>
      </trkpt>
      <trkpt lat="42.86773" lon="-0.39407">
        <ele>1286.47</ele>
        <time>2024-10-03T12:27:07.999Z</time>
      </trkpt>
      <trkpt lat="42.86799" lon="-0.39421">
        <ele>1285.22</ele>
        <time>2024-10-03T12:27:12.999Z</time>
      </trkpt>
      <trkpt lat="42.86822" lon="-0.39438">
        <ele>1284.42</ele>
        <time>2024-10-03T12:27:17.999Z</time>
      </trkpt>
      <trkpt lat="42.86836" lon="-0.39452">
        <ele>1284.33</ele>
        <time>2024-10-03T12:27:22.999Z</time>
      </trkpt>
      <trkpt lat="42.86844" lon="-0.3946">
        <ele>1284.33</ele>
        <time>2024-10-03T12:27:27.999Z</time>
      </trkpt>
      <trkpt lat="42.86851" lon="-0.39469">
        <ele>1284.43</ele>
        <time>2024-10-03T12:27:33.999Z</time>
      </trkpt>
      <trkpt lat="42.86853" lon="-0.39481">
        <ele>1284.58</ele>
        <time>2024-10-03T12:27:54.999Z</time>
      </trkpt>
      <trkpt lat="42.86861" lon="-0.39497">
        <ele>1284.6</ele>
        <time>2024-10-03T12:27:59.999Z</time>
      </trkpt>
      <trkpt lat="42.86874" lon="-0.39513">
        <ele>1284.59</ele>
        <time>2024-10-03T12:28:04.999Z</time>
      </trkpt>
      <trkpt lat="42.86889" lon="-0.39529">
        <ele>1284.46</ele>
        <time>2024-10-03T12:28:09.999Z</time>
      </trkpt>
      <trkpt lat="42.86905" lon="-0.39543">
        <ele>1284.42</ele>
        <time>2024-10-03T12:28:14.999Z</time>
      </trkpt>
      <trkpt lat="42.86922" lon="-0.39557">
        <ele>1284.13</ele>
        <time>2024-10-03T12:28:19.999Z</time>
      </trkpt>
      <trkpt lat="42.8694" lon="-0.39572">
        <ele>1283.88</ele>
        <time>2024-10-03T12:28:24.999Z</time>
      </trkpt>
      <trkpt lat="42.8696" lon="-0.39587">
        <ele>1283.78</ele>
        <time>2024-10-03T12:28:29.999Z</time>
      </trkpt>
      <trkpt lat="42.86979" lon="-0.39604">
        <ele>1283.79</ele>
        <time>2024-10-03T12:28:34.999Z</time>
      </trkpt>
      <trkpt lat="42.86997" lon="-0.39623">
        <ele>1283.84</ele>
        <time>2024-10-03T12:28:39.999Z</time>
      </trkpt>
      <trkpt lat="42.87018" lon="-0.39641">
        <ele>1283.89</ele>
        <time>2024-10-03T12:28:44.999Z</time>
      </trkpt>
      <trkpt lat="42.87039" lon="-0.39653">
        <ele>1283.89</ele>
        <time>2024-10-03T12:28:49.999Z</time>
      </trkpt>
      <trkpt lat="42.8706" lon="-0.39665">
        <ele>1283.85</ele>
        <time>2024-10-03T12:28:54.999Z</time>
      </trkpt>
      <trkpt lat="42.87078" lon="-0.39674">
        <ele>1283.83</ele>
        <time>2024-10-03T12:28:59.999Z</time>
      </trkpt>
      <trkpt lat="42.87093" lon="-0.39684">
        <ele>1283.83</ele>
        <time>2024-10-03T12:29:04.999Z</time>
      </trkpt>
      <trkpt lat="42.87111" lon="-0.39694">
        <ele>1283.82</ele>
        <time>2024-10-03T12:29:09.999Z</time>
      </trkpt>
      <trkpt lat="42.87131" lon="-0.39697">
        <ele>1283.83</ele>
        <time>2024-10-03T12:29:14.999Z</time>
      </trkpt>
      <trkpt lat="42.87152" lon="-0.39693">
        <ele>1283.86</ele>
        <time>2024-10-03T12:29:19.999Z</time>
      </trkpt>
      <trkpt lat="42.87173" lon="-0.39694">
        <ele>1283.87</ele>
        <time>2024-10-03T12:29:24.999Z</time>
      </trkpt>
      <trkpt lat="42.87193" lon="-0.39705">
        <ele>1283.88</ele>
        <time>2024-10-03T12:29:29.999Z</time>
      </trkpt>
      <trkpt lat="42.87212" lon="-0.39719">
        <ele>1283.89</ele>
        <time>2024-10-03T12:29:34.999Z</time>
      </trkpt>
      <trkpt lat="42.87236" lon="-0.39735">
        <ele>1283.87</ele>
        <time>2024-10-03T12:29:39.999Z</time>
      </trkpt>
      <trkpt lat="42.87256" lon="-0.39744">
        <ele>1283.85</ele>
        <time>2024-10-03T12:29:44.999Z</time>
      </trkpt>
      <trkpt lat="42.87273" lon="-0.39752">
        <ele>1283.85</ele>
        <time>2024-10-03T12:29:49.999Z</time>
      </trkpt>
      <trkpt lat="42.87296" lon="-0.39762">
        <ele>1283.91</ele>
        <time>2024-10-03T12:29:54.999Z</time>
      </trkpt>
      <trkpt lat="42.87315" lon="-0.3977">
        <ele>1283.94</ele>
        <time>2024-10-03T12:29:59.999Z</time>
      </trkpt>
      <trkpt lat="42.87336" lon="-0.39778">
        <ele>1283.97</ele>
        <time>2024-10-03T12:30:04.999Z</time>
      </trkpt>
      <trkpt lat="42.87355" lon="-0.39783">
        <ele>1284</ele>
        <time>2024-10-03T12:30:09.999Z</time>
      </trkpt>
      <trkpt lat="42.87378" lon="-0.39794">
        <ele>1284.03</ele>
        <time>2024-10-03T12:30:14.999Z</time>
      </trkpt>
      <trkpt lat="42.87395" lon="-0.39806">
        <ele>1284.04</ele>
        <time>2024-10-03T12:30:19.999Z</time>
      </trkpt>
      <trkpt lat="42.87409" lon="-0.39818">
        <ele>1284.05</ele>
        <time>2024-10-03T12:30:24.999Z</time>
      </trkpt>
      <trkpt lat="42.87426" lon="-0.39831">
        <ele>1284.06</ele>
        <time>2024-10-03T12:30:29.999Z</time>
      </trkpt>
      <trkpt lat="42.87447" lon="-0.39839">
        <ele>1284.08</ele>
        <time>2024-10-03T12:30:34.999Z</time>
      </trkpt>
      <trkpt lat="42.87467" lon="-0.39843">
        <ele>1284.18</ele>
        <time>2024-10-03T12:30:39.999Z</time>
      </trkpt>
      <trkpt lat="42.87488" lon="-0.39848">
        <ele>1284.23</ele>
        <time>2024-10-03T12:30:44.999Z</time>
      </trkpt>
      <trkpt lat="42.87511" lon="-0.39858">
        <ele>1284.27</ele>
        <time>2024-10-03T12:30:49.999Z</time>
      </trkpt>
      <trkpt lat="42.87534" lon="-0.3987">
        <ele>1284.29</ele>
        <time>2024-10-03T12:30:54.999Z</time>
      </trkpt>
      <trkpt lat="42.8756" lon="-0.39884">
        <ele>1284.3</ele>
        <time>2024-10-03T12:30:59.999Z</time>
      </trkpt>
      <trkpt lat="42.87587" lon="-0.399">
        <ele>1284.3</ele>
        <time>2024-10-03T12:31:04.999Z</time>
      </trkpt>
      <trkpt lat="42.87607" lon="-0.39911">
        <ele>1284.31</ele>
        <time>2024-10-03T12:31:09.999Z</time>
      </trkpt>
      <trkpt lat="42.87625" lon="-0.3992">
        <ele>1284.32</ele>
        <time>2024-10-03T12:31:14.999Z</time>
      </trkpt>
      <trkpt lat="42.87642" lon="-0.39927">
        <ele>1284.33</ele>
        <time>2024-10-03T12:31:19.999Z</time>
      </trkpt>
      <trkpt lat="42.87658" lon="-0.39937">
        <ele>1284.34</ele>
        <time>2024-10-03T12:31:24.999Z</time>
      </trkpt>
      <trkpt lat="42.87675" lon="-0.3995">
        <ele>1284.36</ele>
        <time>2024-10-03T12:31:29.999Z</time>
      </trkpt>
      <trkpt lat="42.87695" lon="-0.39964">
        <ele>1284.47</ele>
        <time>2024-10-03T12:31:34.999Z</time>
      </trkpt>
      <trkpt lat="42.87715" lon="-0.3998">
        <ele>1284.52</ele>
        <time>2024-10-03T12:31:39.999Z</time>
      </trkpt>
      <trkpt lat="42.87737" lon="-0.39996">
        <ele>1284.53</ele>
        <time>2024-10-03T12:31:44.999Z</time>
      </trkpt>
      <trkpt lat="42.87756" lon="-0.40009">
        <ele>1284.53</ele>
        <time>2024-10-03T12:31:49.999Z</time>
      </trkpt>
      <trkpt lat="42.87776" lon="-0.40023">
        <ele>1284.53</ele>
        <time>2024-10-03T12:31:54.999Z</time>
      </trkpt>
      <trkpt lat="42.87795" lon="-0.40039">
        <ele>1284.54</ele>
        <time>2024-10-03T12:31:59.999Z</time>
      </trkpt>
      <trkpt lat="42.87811" lon="-0.40053">
        <ele>1284.57</ele>
        <time>2024-10-03T12:32:04.999Z</time>
      </trkpt>
      <trkpt lat="42.87828" lon="-0.40067">
        <ele>1284.64</ele>
        <time>2024-10-03T12:32:09.999Z</time>
      </trkpt>
      <trkpt lat="42.87849" lon="-0.40084">
        <ele>1284.7</ele>
        <time>2024-10-03T12:32:14.999Z</time>
      </trkpt>
      <trkpt lat="42.87871" lon="-0.40105">
        <ele>1284.75</ele>
        <time>2024-10-03T12:32:19.999Z</time>
      </trkpt>
      <trkpt lat="42.87895" lon="-0.40126">
        <ele>1284.8</ele>
        <time>2024-10-03T12:32:24.999Z</time>
      </trkpt>
      <trkpt lat="42.87914" lon="-0.40144">
        <ele>1284.83</ele>
        <time>2024-10-03T12:32:29.999Z</time>
      </trkpt>
      <trkpt lat="42.87929" lon="-0.40158">
        <ele>1284.84</ele>
        <time>2024-10-03T12:32:34.999Z</time>
      </trkpt>
      <trkpt lat="42.87946" lon="-0.40175">
        <ele>1284.84</ele>
        <time>2024-10-03T12:32:39.999Z</time>
      </trkpt>
      <trkpt lat="42.87958" lon="-0.40195">
        <ele>1284.84</ele>
        <time>2024-10-03T12:32:44.999Z</time>
      </trkpt>
      <trkpt lat="42.8797" lon="-0.40216">
        <ele>1284.85</ele>
        <time>2024-10-03T12:32:49.999Z</time>
      </trkpt>
      <trkpt lat="42.87981" lon="-0.40235">
        <ele>1284.87</ele>
        <time>2024-10-03T12:32:54.999Z</time>
      </trkpt>
      <trkpt lat="42.87999" lon="-0.40252">
        <ele>1284.9</ele>
        <time>2024-10-03T12:32:59.999Z</time>
      </trkpt>
      <trkpt lat="42.88021" lon="-0.40257">
        <ele>1284.91</ele>
        <time>2024-10-03T12:33:04.999Z</time>
      </trkpt>
      <trkpt lat="42.88046" lon="-0.4026">
        <ele>1284.87</ele>
        <time>2024-10-03T12:33:09.999Z</time>
      </trkpt>
      <trkpt lat="42.88068" lon="-0.40256">
        <ele>1284.84</ele>
        <time>2024-10-03T12:33:14.999Z</time>
      </trkpt>
      <trkpt lat="42.88091" lon="-0.40238">
        <ele>1284.83</ele>
        <time>2024-10-03T12:33:19.999Z</time>
      </trkpt>
      <trkpt lat="42.88118" lon="-0.40225">
        <ele>1284.81</ele>
        <time>2024-10-03T12:33:24.999Z</time>
      </trkpt>
      <trkpt lat="42.88154" lon="-0.40216">
        <ele>1284.73</ele>
        <time>2024-10-03T12:33:29.999Z</time>
      </trkpt>
      <trkpt lat="42.88199" lon="-0.40208">
        <ele>1284.5</ele>
        <time>2024-10-03T12:33:34.999Z</time>
      </trkpt>
      <trkpt lat="42.88235" lon="-0.40237">
        <ele>1284.12</ele>
        <time>2024-10-03T12:33:39.999Z</time>
      </trkpt>
      <trkpt lat="42.88267" lon="-0.40274">
        <ele>1283.54</ele>
        <time>2024-10-03T12:33:44.999Z</time>
      </trkpt>
      <trkpt lat="42.88303" lon="-0.40304">
        <ele>1283.11</ele>
        <time>2024-10-03T12:33:49.999Z</time>
      </trkpt>
      <trkpt lat="42.88343" lon="-0.4035">
        <ele>1282.54</ele>
        <time>2024-10-03T12:33:54.999Z</time>
      </trkpt>
      <trkpt lat="42.88368" lon="-0.40413">
        <ele>1281.82</ele>
        <time>2024-10-03T12:33:59.999Z</time>
      </trkpt>
      <trkpt lat="42.88381" lon="-0.40483">
        <ele>1280.54</ele>
        <time>2024-10-03T12:34:04.999Z</time>
      </trkpt>
      <trkpt lat="42.88395" lon="-0.40543">
        <ele>1278.06</ele>
        <time>2024-10-03T12:34:09.999Z</time>
      </trkpt>
      <trkpt lat="42.88424" lon="-0.40531">
        <ele>1277.15</ele>
        <time>2024-10-03T12:34:14.999Z</time>
      </trkpt>
      <trkpt lat="42.88405" lon="-0.40487">
        <ele>1277.13</ele>
        <time>2024-10-03T12:34:19.999Z</time>
      </trkpt>
      <trkpt lat="42.88393" lon="-0.40426">
        <ele>1275.19</ele>
        <time>2024-10-03T12:34:24.999Z</time>
      </trkpt>
      <trkpt lat="42.88384" lon="-0.40353">
        <ele>1273.79</ele>
        <time>2024-10-03T12:34:29.999Z</time>
      </trkpt>
      <trkpt lat="42.88344" lon="-0.40297">
        <ele>1271.62</ele>
        <time>2024-10-03T12:34:34.999Z</time>
      </trkpt>
      <trkpt lat="42.88321" lon="-0.40246">
        <ele>1268.35</ele>
        <time>2024-10-03T12:34:39.999Z</time>
      </trkpt>
      <trkpt lat="42.88351" lon="-0.40245">
        <ele>1267.44</ele>
        <time>2024-10-03T12:34:44.999Z</time>
      </trkpt>
      <trkpt lat="42.88365" lon="-0.40307">
        <ele>1261.62</ele>
        <time>2024-10-03T12:34:50.000Z</time>
      </trkpt>
      <trkpt lat="42.88399" lon="-0.4035">
        <ele>1254.33</ele>
        <time>2024-10-03T12:34:55.000Z</time>
      </trkpt>
      <trkpt lat="42.88437" lon="-0.40398">
        <ele>1247.01</ele>
        <time>2024-10-03T12:35:00.000Z</time>
      </trkpt>
      <trkpt lat="42.8848" lon="-0.40442">
        <ele>1241.66</ele>
        <time>2024-10-03T12:35:05.000Z</time>
      </trkpt>
      <trkpt lat="42.8849" lon="-0.40512">
        <ele>1235.74</ele>
        <time>2024-10-03T12:35:10.000Z</time>
      </trkpt>
      <trkpt lat="42.88484" lon="-0.40588">
        <ele>1230.7</ele>
        <time>2024-10-03T12:35:15.000Z</time>
      </trkpt>
      <trkpt lat="42.88486" lon="-0.40662">
        <ele>1227.67</ele>
        <time>2024-10-03T12:35:20.000Z</time>
      </trkpt>
      <trkpt lat="42.885" lon="-0.40728">
        <ele>1224.99</ele>
        <time>2024-10-03T12:35:25.000Z</time>
      </trkpt>
      <trkpt lat="42.88525" lon="-0.40782">
        <ele>1222.72</ele>
        <time>2024-10-03T12:35:30.000Z</time>
      </trkpt>
      <trkpt lat="42.88555" lon="-0.40828">
        <ele>1221.38</ele>
        <time>2024-10-03T12:35:35.000Z</time>
      </trkpt>
      <trkpt lat="42.88573" lon="-0.40887">
        <ele>1218.37</ele>
        <time>2024-10-03T12:35:40.000Z</time>
      </trkpt>
      <trkpt lat="42.8861" lon="-0.40934">
        <ele>1213.9</ele>
        <time>2024-10-03T12:35:45.000Z</time>
      </trkpt>
      <trkpt lat="42.88627" lon="-0.41">
        <ele>1209.38</ele>
        <time>2024-10-03T12:35:50.000Z</time>
      </trkpt>
      <trkpt lat="42.88597" lon="-0.41059">
        <ele>1205.82</ele>
        <time>2024-10-03T12:35:55.000Z</time>
      </trkpt>
      <trkpt lat="42.88587" lon="-0.41129">
        <ele>1203.6</ele>
        <time>2024-10-03T12:36:00.000Z</time>
      </trkpt>
      <trkpt lat="42.88608" lon="-0.41195">
        <ele>1199.56</ele>
        <time>2024-10-03T12:36:05.000Z</time>
      </trkpt>
      <trkpt lat="42.88611" lon="-0.41262">
        <ele>1197.48</ele>
        <time>2024-10-03T12:36:10.000Z</time>
      </trkpt>
      <trkpt lat="42.88638" lon="-0.41306">
        <ele>1195.73</ele>
        <time>2024-10-03T12:36:15.000Z</time>
      </trkpt>
      <trkpt lat="42.88659" lon="-0.41351">
        <ele>1191.73</ele>
        <time>2024-10-03T12:36:20.000Z</time>
      </trkpt>
      <trkpt lat="42.88678" lon="-0.41404">
        <ele>1186.89</ele>
        <time>2024-10-03T12:36:25.000Z</time>
      </trkpt>
      <trkpt lat="42.88702" lon="-0.41464">
        <ele>1182.63</ele>
        <time>2024-10-03T12:36:30.000Z</time>
      </trkpt>
      <trkpt lat="42.88714" lon="-0.41538">
        <ele>1179.05</ele>
        <time>2024-10-03T12:36:35.000Z</time>
      </trkpt>
      <trkpt lat="42.88718" lon="-0.4162">
        <ele>1175.77</ele>
        <time>2024-10-03T12:36:40.000Z</time>
      </trkpt>
      <trkpt lat="42.88732" lon="-0.41696">
        <ele>1172.4</ele>
        <time>2024-10-03T12:36:45.000Z</time>
      </trkpt>
      <trkpt lat="42.88755" lon="-0.41768">
        <ele>1168.85</ele>
        <time>2024-10-03T12:36:50.000Z</time>
      </trkpt>
      <trkpt lat="42.88769" lon="-0.41842">
        <ele>1164.65</ele>
        <time>2024-10-03T12:36:55.000Z</time>
      </trkpt>
      <trkpt lat="42.88754" lon="-0.41921">
        <ele>1160.44</ele>
        <time>2024-10-03T12:37:00.000Z</time>
      </trkpt>
      <trkpt lat="42.88742" lon="-0.42005">
        <ele>1155.75</ele>
        <time>2024-10-03T12:37:05.000Z</time>
      </trkpt>
      <trkpt lat="42.88757" lon="-0.42089">
        <ele>1150.29</ele>
        <time>2024-10-03T12:37:10.000Z</time>
      </trkpt>
      <trkpt lat="42.88771" lon="-0.42171">
        <ele>1144.37</ele>
        <time>2024-10-03T12:37:15.000Z</time>
      </trkpt>
      <trkpt lat="42.88759" lon="-0.42256">
        <ele>1138.53</ele>
        <time>2024-10-03T12:37:20.000Z</time>
      </trkpt>
      <trkpt lat="42.8875" lon="-0.42336">
        <ele>1133.54</ele>
        <time>2024-10-03T12:37:25.000Z</time>
      </trkpt>
      <trkpt lat="42.88738" lon="-0.42417">
        <ele>1128.7</ele>
        <time>2024-10-03T12:37:30.000Z</time>
      </trkpt>
      <trkpt lat="42.88698" lon="-0.42468">
        <ele>1125.96</ele>
        <time>2024-10-03T12:37:35.000Z</time>
      </trkpt>
      <trkpt lat="42.8869" lon="-0.425">
        <ele>1121.9</ele>
        <time>2024-10-03T12:37:40.000Z</time>
      </trkpt>
      <trkpt lat="42.8872" lon="-0.42475">
        <ele>1117.92</ele>
        <time>2024-10-03T12:37:45.000Z</time>
      </trkpt>
      <trkpt lat="42.88761" lon="-0.42456">
        <ele>1112.47</ele>
        <time>2024-10-03T12:37:50.000Z</time>
      </trkpt>
      <trkpt lat="42.88808" lon="-0.42441">
        <ele>1106.54</ele>
        <time>2024-10-03T12:37:55.000Z</time>
      </trkpt>
      <trkpt lat="42.88815" lon="-0.42495">
        <ele>1101.1</ele>
        <time>2024-10-03T12:38:00.000Z</time>
      </trkpt>
      <trkpt lat="42.88769" lon="-0.42514">
        <ele>1096.84</ele>
        <time>2024-10-03T12:38:05.000Z</time>
      </trkpt>
      <trkpt lat="42.88738" lon="-0.42569">
        <ele>1092.8</ele>
        <time>2024-10-03T12:38:10.000Z</time>
      </trkpt>
      <trkpt lat="42.88705" lon="-0.42628">
        <ele>1088.52</ele>
        <time>2024-10-03T12:38:15.000Z</time>
      </trkpt>
      <trkpt lat="42.88689" lon="-0.42692">
        <ele>1084.2</ele>
        <time>2024-10-03T12:38:20.000Z</time>
      </trkpt>
      <trkpt lat="42.88725" lon="-0.42744">
        <ele>1080.42</ele>
        <time>2024-10-03T12:38:25.000Z</time>
      </trkpt>
      <trkpt lat="42.88773" lon="-0.42743">
        <ele>1076.3</ele>
        <time>2024-10-03T12:38:30.000Z</time>
      </trkpt>
      <trkpt lat="42.88828" lon="-0.42742">
        <ele>1074.98</ele>
        <time>2024-10-03T12:38:35.000Z</time>
      </trkpt>
      <trkpt lat="42.88873" lon="-0.42754">
        <ele>1072.41</ele>
        <time>2024-10-03T12:38:40.000Z</time>
      </trkpt>
      <trkpt lat="42.88911" lon="-0.42768">
        <ele>1069.09</ele>
        <time>2024-10-03T12:38:45.000Z</time>
      </trkpt>
      <trkpt lat="42.88945" lon="-0.42779">
        <ele>1067.31</ele>
        <time>2024-10-03T12:38:50.000Z</time>
      </trkpt>
      <trkpt lat="42.88976" lon="-0.42785">
        <ele>1066.37</ele>
        <time>2024-10-03T12:38:55.000Z</time>
      </trkpt>
      <trkpt lat="42.89003" lon="-0.42794">
        <ele>1065.92</ele>
        <time>2024-10-03T12:39:00.000Z</time>
      </trkpt>
      <trkpt lat="42.89027" lon="-0.42803">
        <ele>1065.02</ele>
        <time>2024-10-03T12:39:05.000Z</time>
      </trkpt>
      <trkpt lat="42.89047" lon="-0.42818">
        <ele>1063.8</ele>
        <time>2024-10-03T12:39:10.000Z</time>
      </trkpt>
      <trkpt lat="42.8907" lon="-0.42832">
        <ele>1062.79</ele>
        <time>2024-10-03T12:39:15.000Z</time>
      </trkpt>
      <trkpt lat="42.89094" lon="-0.42849">
        <ele>1061.78</ele>
        <time>2024-10-03T12:39:20.000Z</time>
      </trkpt>
      <trkpt lat="42.89125" lon="-0.42863">
        <ele>1060.26</ele>
        <time>2024-10-03T12:39:25.000Z</time>
      </trkpt>
      <trkpt lat="42.89163" lon="-0.42881">
        <ele>1057.84</ele>
        <time>2024-10-03T12:39:30.000Z</time>
      </trkpt>
      <trkpt lat="42.89199" lon="-0.4291">
        <ele>1056.37</ele>
        <time>2024-10-03T12:39:35.000Z</time>
      </trkpt>
      <trkpt lat="42.89229" lon="-0.42945">
        <ele>1055.38</ele>
        <time>2024-10-03T12:39:40.000Z</time>
      </trkpt>
      <trkpt lat="42.89265" lon="-0.42961">
        <ele>1054.73</ele>
        <time>2024-10-03T12:39:45.000Z</time>
      </trkpt>
      <trkpt lat="42.89302" lon="-0.42966">
        <ele>1054.09</ele>
        <time>2024-10-03T12:39:50.000Z</time>
      </trkpt>
      <trkpt lat="42.89339" lon="-0.42961">
        <ele>1053.67</ele>
        <time>2024-10-03T12:39:55.000Z</time>
      </trkpt>
      <trkpt lat="42.89372" lon="-0.42965">
        <ele>1053.33</ele>
        <time>2024-10-03T12:40:00.000Z</time>
      </trkpt>
      <trkpt lat="42.89405" lon="-0.42971">
        <ele>1052.23</ele>
        <time>2024-10-03T12:40:05.000Z</time>
      </trkpt>
      <trkpt lat="42.89441" lon="-0.4297">
        <ele>1050.87</ele>
        <time>2024-10-03T12:40:10.000Z</time>
      </trkpt>
      <trkpt lat="42.89478" lon="-0.42953">
        <ele>1049.5</ele>
        <time>2024-10-03T12:40:15.000Z</time>
      </trkpt>
      <trkpt lat="42.89509" lon="-0.42922">
        <ele>1048.22</ele>
        <time>2024-10-03T12:40:20.000Z</time>
      </trkpt>
      <trkpt lat="42.89541" lon="-0.42911">
        <ele>1046.59</ele>
        <time>2024-10-03T12:40:25.000Z</time>
      </trkpt>
      <trkpt lat="42.89575" lon="-0.4294">
        <ele>1044.62</ele>
        <time>2024-10-03T12:40:30.000Z</time>
      </trkpt>
      <trkpt lat="42.89582" lon="-0.42996">
        <ele>1042.96</ele>
        <time>2024-10-03T12:40:35.000Z</time>
      </trkpt>
      <trkpt lat="42.89599" lon="-0.43052">
        <ele>1041.03</ele>
        <time>2024-10-03T12:40:40.000Z</time>
      </trkpt>
      <trkpt lat="42.89631" lon="-0.43102">
        <ele>1039.32</ele>
        <time>2024-10-03T12:40:45.000Z</time>
      </trkpt>
      <trkpt lat="42.89675" lon="-0.43137">
        <ele>1037.81</ele>
        <time>2024-10-03T12:40:50.000Z</time>
      </trkpt>
      <trkpt lat="42.89725" lon="-0.43175">
        <ele>1035.62</ele>
        <time>2024-10-03T12:40:55.000Z</time>
      </trkpt>
      <trkpt lat="42.89771" lon="-0.43222">
        <ele>1032.49</ele>
        <time>2024-10-03T12:41:00.000Z</time>
      </trkpt>
      <trkpt lat="42.89818" lon="-0.43269">
        <ele>1029.27</ele>
        <time>2024-10-03T12:41:05.000Z</time>
      </trkpt>
      <trkpt lat="42.89871" lon="-0.433">
        <ele>1026.14</ele>
        <time>2024-10-03T12:41:10.000Z</time>
      </trkpt>
      <trkpt lat="42.89924" lon="-0.43327">
        <ele>1022.9</ele>
        <time>2024-10-03T12:41:15.000Z</time>
      </trkpt>
      <trkpt lat="42.89975" lon="-0.43354">
        <ele>1019.59</ele>
        <time>2024-10-03T12:41:20.000Z</time>
      </trkpt>
      <trkpt lat="42.90026" lon="-0.43348">
        <ele>1016.99</ele>
        <time>2024-10-03T12:41:25.000Z</time>
      </trkpt>
      <trkpt lat="42.90071" lon="-0.43323">
        <ele>1015.29</ele>
        <time>2024-10-03T12:41:30.000Z</time>
      </trkpt>
      <trkpt lat="42.90108" lon="-0.43298">
        <ele>1014.46</ele>
        <time>2024-10-03T12:41:35.000Z</time>
      </trkpt>
      <trkpt lat="42.90142" lon="-0.43273">
        <ele>1011.67</ele>
        <time>2024-10-03T12:41:40.000Z</time>
      </trkpt>
      <trkpt lat="42.90177" lon="-0.4325">
        <ele>1007.99</ele>
        <time>2024-10-03T12:41:45.000Z</time>
      </trkpt>
      <trkpt lat="42.90211" lon="-0.43235">
        <ele>1005.95</ele>
        <time>2024-10-03T12:41:50.000Z</time>
      </trkpt>
      <trkpt lat="42.90243" lon="-0.43224">
        <ele>1005.06</ele>
        <time>2024-10-03T12:41:55.000Z</time>
      </trkpt>
      <trkpt lat="42.90276" lon="-0.43212">
        <ele>1004.09</ele>
        <time>2024-10-03T12:42:00.000Z</time>
      </trkpt>
      <trkpt lat="42.90307" lon="-0.43207">
        <ele>1002.91</ele>
        <time>2024-10-03T12:42:05.000Z</time>
      </trkpt>
      <trkpt lat="42.90335" lon="-0.43205">
        <ele>1001.5</ele>
        <time>2024-10-03T12:42:10.000Z</time>
      </trkpt>
      <trkpt lat="42.90361" lon="-0.432">
        <ele>1000.91</ele>
        <time>2024-10-03T12:42:15.000Z</time>
      </trkpt>
      <trkpt lat="42.90383" lon="-0.43193">
        <ele>999.94</ele>
        <time>2024-10-03T12:42:20.000Z</time>
      </trkpt>
      <trkpt lat="42.90404" lon="-0.43179">
        <ele>998.88</ele>
        <time>2024-10-03T12:42:25.000Z</time>
      </trkpt>
      <trkpt lat="42.90425" lon="-0.43152">
        <ele>998.15</ele>
        <time>2024-10-03T12:42:30.000Z</time>
      </trkpt>
      <trkpt lat="42.90445" lon="-0.43121">
        <ele>997.97</ele>
        <time>2024-10-03T12:42:35.000Z</time>
      </trkpt>
      <trkpt lat="42.90473" lon="-0.43094">
        <ele>998.69</ele>
        <time>2024-10-03T12:42:40.000Z</time>
      </trkpt>
      <trkpt lat="42.90505" lon="-0.43072">
        <ele>998.67</ele>
        <time>2024-10-03T12:42:45.000Z</time>
      </trkpt>
      <trkpt lat="42.90544" lon="-0.43069">
        <ele>997.35</ele>
        <time>2024-10-03T12:42:50.000Z</time>
      </trkpt>
      <trkpt lat="42.9059" lon="-0.43084">
        <ele>995.61</ele>
        <time>2024-10-03T12:42:55.000Z</time>
      </trkpt>
      <trkpt lat="42.90641" lon="-0.43102">
        <ele>993.71</ele>
        <time>2024-10-03T12:43:00.000Z</time>
      </trkpt>
      <trkpt lat="42.90698" lon="-0.431">
        <ele>992.89</ele>
        <time>2024-10-03T12:43:05.000Z</time>
      </trkpt>
      <trkpt lat="42.90734" lon="-0.43149">
        <ele>992.14</ele>
        <time>2024-10-03T12:43:10.000Z</time>
      </trkpt>
      <trkpt lat="42.90741" lon="-0.43227">
        <ele>989.78</ele>
        <time>2024-10-03T12:43:15.000Z</time>
      </trkpt>
      <trkpt lat="42.90748" lon="-0.43307">
        <ele>986.49</ele>
        <time>2024-10-03T12:43:20.000Z</time>
      </trkpt>
      <trkpt lat="42.90774" lon="-0.43379">
        <ele>982.32</ele>
        <time>2024-10-03T12:43:25.000Z</time>
      </trkpt>
      <trkpt lat="42.9081" lon="-0.43452">
        <ele>978.79</ele>
        <time>2024-10-03T12:43:30.000Z</time>
      </trkpt>
      <trkpt lat="42.90837" lon="-0.43524">
        <ele>977.15</ele>
        <time>2024-10-03T12:43:35.000Z</time>
      </trkpt>
      <trkpt lat="42.90874" lon="-0.43583">
        <ele>974.82</ele>
        <time>2024-10-03T12:43:40.000Z</time>
      </trkpt>
      <trkpt lat="42.90927" lon="-0.4361">
        <ele>971.46</ele>
        <time>2024-10-03T12:43:45.000Z</time>
      </trkpt>
      <trkpt lat="42.90937" lon="-0.43683">
        <ele>966.94</ele>
        <time>2024-10-03T12:43:50.000Z</time>
      </trkpt>
      <trkpt lat="42.90967" lon="-0.43748">
        <ele>960.37</ele>
        <time>2024-10-03T12:43:55.000Z</time>
      </trkpt>
      <trkpt lat="42.90984" lon="-0.43809">
        <ele>954.39</ele>
        <time>2024-10-03T12:44:00.000Z</time>
      </trkpt>
      <trkpt lat="42.91013" lon="-0.43791">
        <ele>949.57</ele>
        <time>2024-10-03T12:44:05.000Z</time>
      </trkpt>
      <trkpt lat="42.90996" lon="-0.43732">
        <ele>944.28</ele>
        <time>2024-10-03T12:44:10.000Z</time>
      </trkpt>
      <trkpt lat="42.91004" lon="-0.43675">
        <ele>938.03</ele>
        <time>2024-10-03T12:44:15.000Z</time>
      </trkpt>
      <trkpt lat="42.91032" lon="-0.4371">
        <ele>931.89</ele>
        <time>2024-10-03T12:44:20.000Z</time>
      </trkpt>
      <trkpt lat="42.91043" lon="-0.43778">
        <ele>928.02</ele>
        <time>2024-10-03T12:44:25.000Z</time>
      </trkpt>
      <trkpt lat="42.91089" lon="-0.4381">
        <ele>924.27</ele>
        <time>2024-10-03T12:44:30.000Z</time>
      </trkpt>
      <trkpt lat="42.91142" lon="-0.43838">
        <ele>920.74</ele>
        <time>2024-10-03T12:44:35.000Z</time>
      </trkpt>
      <trkpt lat="42.91198" lon="-0.43851">
        <ele>916.89</ele>
        <time>2024-10-03T12:44:40.000Z</time>
      </trkpt>
      <trkpt lat="42.91238" lon="-0.43905">
        <ele>912.8</ele>
        <time>2024-10-03T12:44:45.000Z</time>
      </trkpt>
      <trkpt lat="42.91295" lon="-0.43936">
        <ele>908.42</ele>
        <time>2024-10-03T12:44:50.000Z</time>
      </trkpt>
      <trkpt lat="42.9134" lon="-0.4397">
        <ele>906.47</ele>
        <time>2024-10-03T12:44:55.000Z</time>
      </trkpt>
      <trkpt lat="42.91391" lon="-0.43945">
        <ele>903.73</ele>
        <time>2024-10-03T12:45:00.000Z</time>
      </trkpt>
      <trkpt lat="42.91448" lon="-0.43947">
        <ele>898.83</ele>
        <time>2024-10-03T12:45:05.000Z</time>
      </trkpt>
      <trkpt lat="42.91508" lon="-0.43939">
        <ele>892.87</ele>
        <time>2024-10-03T12:45:10.000Z</time>
      </trkpt>
      <trkpt lat="42.9157" lon="-0.43938">
        <ele>888.45</ele>
        <time>2024-10-03T12:45:15.000Z</time>
      </trkpt>
      <trkpt lat="42.91629" lon="-0.4396">
        <ele>884.81</ele>
        <time>2024-10-03T12:45:20.000Z</time>
      </trkpt>
      <trkpt lat="42.91679" lon="-0.44005">
        <ele>879.49</ele>
        <time>2024-10-03T12:45:25.000Z</time>
      </trkpt>
      <trkpt lat="42.91729" lon="-0.44049">
        <ele>873.65</ele>
        <time>2024-10-03T12:45:30.000Z</time>
      </trkpt>
      <trkpt lat="42.91761" lon="-0.44117">
        <ele>868.63</ele>
        <time>2024-10-03T12:45:35.000Z</time>
      </trkpt>
      <trkpt lat="42.91781" lon="-0.44193">
        <ele>863.49</ele>
        <time>2024-10-03T12:45:40.000Z</time>
      </trkpt>
      <trkpt lat="42.91822" lon="-0.44253">
        <ele>858.35</ele>
        <time>2024-10-03T12:45:45.000Z</time>
      </trkpt>
      <trkpt lat="42.91876" lon="-0.44287">
        <ele>854.86</ele>
        <time>2024-10-03T12:45:50.000Z</time>
      </trkpt>
      <trkpt lat="42.91925" lon="-0.44315">
        <ele>851.67</ele>
        <time>2024-10-03T12:45:55.000Z</time>
      </trkpt>
      <trkpt lat="42.91964" lon="-0.44357">
        <ele>849.76</ele>
        <time>2024-10-03T12:46:00.000Z</time>
      </trkpt>
      <trkpt lat="42.92005" lon="-0.44391">
        <ele>846.34</ele>
        <time>2024-10-03T12:46:05.000Z</time>
      </trkpt>
      <trkpt lat="42.92048" lon="-0.44412">
        <ele>843.35</ele>
        <time>2024-10-03T12:46:10.000Z</time>
      </trkpt>
      <trkpt lat="42.92085" lon="-0.44428">
        <ele>840.01</ele>
        <time>2024-10-03T12:46:15.000Z</time>
      </trkpt>
      <trkpt lat="42.92113" lon="-0.44465">
        <ele>837.15</ele>
        <time>2024-10-03T12:46:20.000Z</time>
      </trkpt>
      <trkpt lat="42.92149" lon="-0.44486">
        <ele>834.49</ele>
        <time>2024-10-03T12:46:25.000Z</time>
      </trkpt>
      <trkpt lat="42.92182" lon="-0.44509">
        <ele>832.52</ele>
        <time>2024-10-03T12:46:30.000Z</time>
      </trkpt>
      <trkpt lat="42.92222" lon="-0.44523">
        <ele>830.13</ele>
        <time>2024-10-03T12:46:35.000Z</time>
      </trkpt>
      <trkpt lat="42.92264" lon="-0.44539">
        <ele>827.14</ele>
        <time>2024-10-03T12:46:40.000Z</time>
      </trkpt>
      <trkpt lat="42.92308" lon="-0.44565">
        <ele>824.01</ele>
        <time>2024-10-03T12:46:45.000Z</time>
      </trkpt>
      <trkpt lat="42.92356" lon="-0.44586">
        <ele>820.55</ele>
        <time>2024-10-03T12:46:50.000Z</time>
      </trkpt>
      <trkpt lat="42.92403" lon="-0.44611">
        <ele>816.37</ele>
        <time>2024-10-03T12:46:55.000Z</time>
      </trkpt>
      <trkpt lat="42.92446" lon="-0.44655">
        <ele>815.2</ele>
        <time>2024-10-03T12:47:00.000Z</time>
      </trkpt>
      <trkpt lat="42.9249" lon="-0.44685">
        <ele>815.09</ele>
        <time>2024-10-03T12:47:05.000Z</time>
      </trkpt>
      <trkpt lat="42.92536" lon="-0.44699">
        <ele>812.96</ele>
        <time>2024-10-03T12:47:10.000Z</time>
      </trkpt>
      <trkpt lat="42.92583" lon="-0.44728">
        <ele>809.5</ele>
        <time>2024-10-03T12:47:15.000Z</time>
      </trkpt>
      <trkpt lat="42.92629" lon="-0.44755">
        <ele>805.92</ele>
        <time>2024-10-03T12:47:20.000Z</time>
      </trkpt>
      <trkpt lat="42.92682" lon="-0.44759">
        <ele>802.33</ele>
        <time>2024-10-03T12:47:25.000Z</time>
      </trkpt>
      <trkpt lat="42.92731" lon="-0.44712">
        <ele>799.3</ele>
        <time>2024-10-03T12:47:30.000Z</time>
      </trkpt>
      <trkpt lat="42.92786" lon="-0.44717">
        <ele>796.42</ele>
        <time>2024-10-03T12:47:35.000Z</time>
      </trkpt>
      <trkpt lat="42.92848" lon="-0.44747">
        <ele>794.15</ele>
        <time>2024-10-03T12:47:40.999Z</time>
      </trkpt>
      <trkpt lat="42.92892" lon="-0.44775">
        <ele>792.21</ele>
        <time>2024-10-03T12:47:45.999Z</time>
      </trkpt>
      <trkpt lat="42.92932" lon="-0.448">
        <ele>790.66</ele>
        <time>2024-10-03T12:47:50.999Z</time>
      </trkpt>
      <trkpt lat="42.92966" lon="-0.44823">
        <ele>788.84</ele>
        <time>2024-10-03T12:47:55.999Z</time>
      </trkpt>
      <trkpt lat="42.93005" lon="-0.44837">
        <ele>786.71</ele>
        <time>2024-10-03T12:48:00.999Z</time>
      </trkpt>
      <trkpt lat="42.93046" lon="-0.44835">
        <ele>784.79</ele>
        <time>2024-10-03T12:48:05.999Z</time>
      </trkpt>
      <trkpt lat="42.93095" lon="-0.44815">
        <ele>782.96</ele>
        <time>2024-10-03T12:48:10.999Z</time>
      </trkpt>
      <trkpt lat="42.93133" lon="-0.44764">
        <ele>780.91</ele>
        <time>2024-10-03T12:48:15.999Z</time>
      </trkpt>
      <trkpt lat="42.93174" lon="-0.44727">
        <ele>777.95</ele>
        <time>2024-10-03T12:48:20.999Z</time>
      </trkpt>
      <trkpt lat="42.93216" lon="-0.44707">
        <ele>776.28</ele>
        <time>2024-10-03T12:48:25.999Z</time>
      </trkpt>
      <trkpt lat="42.9325" lon="-0.44698">
        <ele>775.18</ele>
        <time>2024-10-03T12:48:30.999Z</time>
      </trkpt>
      <trkpt lat="42.93288" lon="-0.44685">
        <ele>774.65</ele>
        <time>2024-10-03T12:48:35.999Z</time>
      </trkpt>
      <trkpt lat="42.93326" lon="-0.44671">
        <ele>774.02</ele>
        <time>2024-10-03T12:48:40.999Z</time>
      </trkpt>
      <trkpt lat="42.93364" lon="-0.44658">
        <ele>772.61</ele>
        <time>2024-10-03T12:48:45.999Z</time>
      </trkpt>
      <trkpt lat="42.934" lon="-0.44647">
        <ele>770.38</ele>
        <time>2024-10-03T12:48:50.999Z</time>
      </trkpt>
      <trkpt lat="42.93436" lon="-0.44635">
        <ele>768.42</ele>
        <time>2024-10-03T12:48:55.999Z</time>
      </trkpt>
      <trkpt lat="42.93473" lon="-0.44624">
        <ele>767.26</ele>
        <time>2024-10-03T12:49:00.999Z</time>
      </trkpt>
      <trkpt lat="42.9351" lon="-0.44612">
        <ele>766.47</ele>
        <time>2024-10-03T12:49:05.999Z</time>
      </trkpt>
      <trkpt lat="42.93547" lon="-0.44596">
        <ele>765.5</ele>
        <time>2024-10-03T12:49:10.999Z</time>
      </trkpt>
      <trkpt lat="42.9358" lon="-0.44566">
        <ele>764.89</ele>
        <time>2024-10-03T12:49:15.999Z</time>
      </trkpt>
      <trkpt lat="42.93604" lon="-0.44526">
        <ele>763.44</ele>
        <time>2024-10-03T12:49:20.999Z</time>
      </trkpt>
      <trkpt lat="42.93621" lon="-0.44479">
        <ele>760.6</ele>
        <time>2024-10-03T12:49:25.999Z</time>
      </trkpt>
      <trkpt lat="42.9364" lon="-0.44427">
        <ele>758.17</ele>
        <time>2024-10-03T12:49:30.999Z</time>
      </trkpt>
      <trkpt lat="42.93667" lon="-0.44379">
        <ele>755.93</ele>
        <time>2024-10-03T12:49:35.999Z</time>
      </trkpt>
      <trkpt lat="42.937" lon="-0.44349">
        <ele>753.73</ele>
        <time>2024-10-03T12:49:40.999Z</time>
      </trkpt>
      <trkpt lat="42.93743" lon="-0.44329">
        <ele>751.22</ele>
        <time>2024-10-03T12:49:45.999Z</time>
      </trkpt>
      <trkpt lat="42.93793" lon="-0.44306">
        <ele>748.66</ele>
        <time>2024-10-03T12:49:50.999Z</time>
      </trkpt>
      <trkpt lat="42.93848" lon="-0.44317">
        <ele>746.5</ele>
        <time>2024-10-03T12:49:55.999Z</time>
      </trkpt>
      <trkpt lat="42.93897" lon="-0.44345">
        <ele>743.23</ele>
        <time>2024-10-03T12:50:00.999Z</time>
      </trkpt>
      <trkpt lat="42.93952" lon="-0.44363">
        <ele>741.74</ele>
        <time>2024-10-03T12:50:05.999Z</time>
      </trkpt>
      <trkpt lat="42.94006" lon="-0.44374">
        <ele>741.35</ele>
        <time>2024-10-03T12:50:10.999Z</time>
      </trkpt>
      <trkpt lat="42.9406" lon="-0.44367">
        <ele>740.39</ele>
        <time>2024-10-03T12:50:15.999Z</time>
      </trkpt>
      <trkpt lat="42.9411" lon="-0.44344">
        <ele>738.6</ele>
        <time>2024-10-03T12:50:20.999Z</time>
      </trkpt>
      <trkpt lat="42.94158" lon="-0.44313">
        <ele>735.09</ele>
        <time>2024-10-03T12:50:25.999Z</time>
      </trkpt>
      <trkpt lat="42.94204" lon="-0.44285">
        <ele>731.83</ele>
        <time>2024-10-03T12:50:30.999Z</time>
      </trkpt>
      <trkpt lat="42.94252" lon="-0.44283">
        <ele>728.77</ele>
        <time>2024-10-03T12:50:35.999Z</time>
      </trkpt>
      <trkpt lat="42.94293" lon="-0.44283">
        <ele>727.94</ele>
        <time>2024-10-03T12:50:40.999Z</time>
      </trkpt>
      <trkpt lat="42.94327" lon="-0.44283">
        <ele>727.35</ele>
        <time>2024-10-03T12:50:45.999Z</time>
      </trkpt>
      <trkpt lat="42.94363" lon="-0.44283">
        <ele>726.67</ele>
        <time>2024-10-03T12:50:50.999Z</time>
      </trkpt>
      <trkpt lat="42.94399" lon="-0.44277">
        <ele>725.08</ele>
        <time>2024-10-03T12:50:55.999Z</time>
      </trkpt>
      <trkpt lat="42.94434" lon="-0.44266">
        <ele>723.93</ele>
        <time>2024-10-03T12:51:00.999Z</time>
      </trkpt>
      <trkpt lat="42.94467" lon="-0.4425">
        <ele>723.68</ele>
        <time>2024-10-03T12:51:05.999Z</time>
      </trkpt>
      <trkpt lat="42.94502" lon="-0.4424">
        <ele>721.53</ele>
        <time>2024-10-03T12:51:10.999Z</time>
      </trkpt>
      <trkpt lat="42.94541" lon="-0.4422">
        <ele>717.8</ele>
        <time>2024-10-03T12:51:15.999Z</time>
      </trkpt>
      <trkpt lat="42.94585" lon="-0.44223">
        <ele>713.92</ele>
        <time>2024-10-03T12:51:20.999Z</time>
      </trkpt>
      <trkpt lat="42.94629" lon="-0.44254">
        <ele>711.31</ele>
        <time>2024-10-03T12:51:25.999Z</time>
      </trkpt>
      <trkpt lat="42.94668" lon="-0.4428">
        <ele>710.82</ele>
        <time>2024-10-03T12:51:30.999Z</time>
      </trkpt>
      <trkpt lat="42.94707" lon="-0.44289">
        <ele>709.54</ele>
        <time>2024-10-03T12:51:35.999Z</time>
      </trkpt>
      <trkpt lat="42.94746" lon="-0.44282">
        <ele>708.26</ele>
        <time>2024-10-03T12:51:40.999Z</time>
      </trkpt>
      <trkpt lat="42.94783" lon="-0.44279">
        <ele>707.91</ele>
        <time>2024-10-03T12:51:45.999Z</time>
      </trkpt>
      <trkpt lat="42.94817" lon="-0.4429">
        <ele>705.65</ele>
        <time>2024-10-03T12:51:50.999Z</time>
      </trkpt>
      <trkpt lat="42.94854" lon="-0.44311">
        <ele>705.19</ele>
        <time>2024-10-03T12:51:55.999Z</time>
      </trkpt>
      <trkpt lat="42.94888" lon="-0.44324">
        <ele>704.35</ele>
        <time>2024-10-03T12:52:00.999Z</time>
      </trkpt>
      <trkpt lat="42.94927" lon="-0.44326">
        <ele>702.83</ele>
        <time>2024-10-03T12:52:05.999Z</time>
      </trkpt>
      <trkpt lat="42.94954" lon="-0.44286">
        <ele>702.38</ele>
        <time>2024-10-03T12:52:10.999Z</time>
      </trkpt>
      <trkpt lat="42.94982" lon="-0.44256">
        <ele>700.97</ele>
        <time>2024-10-03T12:52:15.999Z</time>
      </trkpt>
      <trkpt lat="42.95008" lon="-0.44227">
        <ele>699.66</ele>
        <time>2024-10-03T12:52:20.999Z</time>
      </trkpt>
      <trkpt lat="42.9503" lon="-0.44198">
        <ele>698.08</ele>
        <time>2024-10-03T12:52:25.999Z</time>
      </trkpt>
      <trkpt lat="42.95052" lon="-0.4416">
        <ele>697.25</ele>
        <time>2024-10-03T12:52:30.999Z</time>
      </trkpt>
      <trkpt lat="42.95077" lon="-0.44127">
        <ele>696.34</ele>
        <time>2024-10-03T12:52:35.999Z</time>
      </trkpt>
      <trkpt lat="42.95115" lon="-0.4411">
        <ele>695.42</ele>
        <time>2024-10-03T12:52:40.999Z</time>
      </trkpt>
      <trkpt lat="42.9515" lon="-0.44086">
        <ele>694.66</ele>
        <time>2024-10-03T12:52:45.999Z</time>
      </trkpt>
      <trkpt lat="42.95184" lon="-0.44062">
        <ele>694.74</ele>
        <time>2024-10-03T12:52:50.999Z</time>
      </trkpt>
      <trkpt lat="42.95213" lon="-0.44031">
        <ele>693.93</ele>
        <time>2024-10-03T12:52:55.999Z</time>
      </trkpt>
      <trkpt lat="42.95239" lon="-0.43998">
        <ele>692.89</ele>
        <time>2024-10-03T12:53:00.999Z</time>
      </trkpt>
      <trkpt lat="42.95264" lon="-0.43963">
        <ele>691.97</ele>
        <time>2024-10-03T12:53:05.999Z</time>
      </trkpt>
      <trkpt lat="42.95296" lon="-0.43934">
        <ele>690.72</ele>
        <time>2024-10-03T12:53:10.999Z</time>
      </trkpt>
      <trkpt lat="42.95328" lon="-0.43912">
        <ele>690.66</ele>
        <time>2024-10-03T12:53:15.999Z</time>
      </trkpt>
      <trkpt lat="42.9536" lon="-0.43902">
        <ele>689.8</ele>
        <time>2024-10-03T12:53:20.999Z</time>
      </trkpt>
      <trkpt lat="42.95395" lon="-0.43892">
        <ele>688.24</ele>
        <time>2024-10-03T12:53:25.999Z</time>
      </trkpt>
      <trkpt lat="42.95433" lon="-0.43907">
        <ele>686.57</ele>
        <time>2024-10-03T12:53:30.999Z</time>
      </trkpt>
      <trkpt lat="42.95471" lon="-0.4391">
        <ele>686.38</ele>
        <time>2024-10-03T12:53:35.999Z</time>
      </trkpt>
      <trkpt lat="42.95504" lon="-0.4389">
        <ele>686.07</ele>
        <time>2024-10-03T12:53:40.999Z</time>
      </trkpt>
      <trkpt lat="42.95538" lon="-0.43868">
        <ele>685.31</ele>
        <time>2024-10-03T12:53:45.999Z</time>
      </trkpt>
      <trkpt lat="42.9558" lon="-0.43877">
        <ele>684.79</ele>
        <time>2024-10-03T12:53:50.999Z</time>
      </trkpt>
      <trkpt lat="42.95622" lon="-0.43889">
        <ele>683.95</ele>
        <time>2024-10-03T12:53:55.999Z</time>
      </trkpt>
      <trkpt lat="42.95662" lon="-0.43912">
        <ele>682.81</ele>
        <time>2024-10-03T12:54:00.999Z</time>
      </trkpt>
      <trkpt lat="42.95701" lon="-0.43947">
        <ele>682.54</ele>
        <time>2024-10-03T12:54:05.999Z</time>
      </trkpt>
      <trkpt lat="42.95741" lon="-0.43976">
        <ele>681.96</ele>
        <time>2024-10-03T12:54:10.999Z</time>
      </trkpt>
      <trkpt lat="42.95781" lon="-0.44001">
        <ele>680.56</ele>
        <time>2024-10-03T12:54:15.999Z</time>
      </trkpt>
      <trkpt lat="42.95823" lon="-0.43999">
        <ele>679.28</ele>
        <time>2024-10-03T12:54:20.999Z</time>
      </trkpt>
      <trkpt lat="42.95863" lon="-0.43989">
        <ele>677.98</ele>
        <time>2024-10-03T12:54:25.999Z</time>
      </trkpt>
      <trkpt lat="42.95906" lon="-0.43984">
        <ele>676.24</ele>
        <time>2024-10-03T12:54:30.999Z</time>
      </trkpt>
      <trkpt lat="42.9595" lon="-0.43979">
        <ele>674.85</ele>
        <time>2024-10-03T12:54:35.999Z</time>
      </trkpt>
      <trkpt lat="42.95996" lon="-0.43979">
        <ele>673.33</ele>
        <time>2024-10-03T12:54:40.999Z</time>
      </trkpt>
      <trkpt lat="42.96044" lon="-0.4399">
        <ele>671.9</ele>
        <time>2024-10-03T12:54:45.999Z</time>
      </trkpt>
      <trkpt lat="42.96092" lon="-0.44004">
        <ele>670.27</ele>
        <time>2024-10-03T12:54:50.999Z</time>
      </trkpt>
      <trkpt lat="42.96141" lon="-0.44029">
        <ele>669.22</ele>
        <time>2024-10-03T12:54:55.999Z</time>
      </trkpt>
      <trkpt lat="42.9619" lon="-0.44029">
        <ele>668.18</ele>
        <time>2024-10-03T12:55:00.999Z</time>
      </trkpt>
      <trkpt lat="42.96235" lon="-0.4402">
        <ele>667.1</ele>
        <time>2024-10-03T12:55:05.999Z</time>
      </trkpt>
      <trkpt lat="42.96276" lon="-0.44012">
        <ele>666.34</ele>
        <time>2024-10-03T12:55:10.999Z</time>
      </trkpt>
      <trkpt lat="42.96319" lon="-0.44023">
        <ele>666.02</ele>
        <time>2024-10-03T12:55:15.999Z</time>
      </trkpt>
      <trkpt lat="42.96362" lon="-0.44026">
        <ele>665.07</ele>
        <time>2024-10-03T12:55:20.999Z</time>
      </trkpt>
      <trkpt lat="42.96404" lon="-0.44027">
        <ele>664.16</ele>
        <time>2024-10-03T12:55:25.999Z</time>
      </trkpt>
      <trkpt lat="42.96444" lon="-0.44022">
        <ele>662.59</ele>
        <time>2024-10-03T12:55:30.999Z</time>
      </trkpt>
      <trkpt lat="42.96482" lon="-0.44009">
        <ele>660.98</ele>
        <time>2024-10-03T12:55:35.999Z</time>
      </trkpt>
      <trkpt lat="42.96517" lon="-0.43997">
        <ele>659.62</ele>
        <time>2024-10-03T12:55:40.999Z</time>
      </trkpt>
      <trkpt lat="42.96551" lon="-0.43984">
        <ele>658.05</ele>
        <time>2024-10-03T12:55:45.999Z</time>
      </trkpt>
      <trkpt lat="42.96585" lon="-0.43976">
        <ele>657.43</ele>
        <time>2024-10-03T12:55:50.999Z</time>
      </trkpt>
      <trkpt lat="42.96617" lon="-0.43958">
        <ele>656.93</ele>
        <time>2024-10-03T12:55:55.999Z</time>
      </trkpt>
      <trkpt lat="42.96647" lon="-0.43936">
        <ele>655.44</ele>
        <time>2024-10-03T12:56:00.999Z</time>
      </trkpt>
      <trkpt lat="42.96671" lon="-0.43905">
        <ele>652.76</ele>
        <time>2024-10-03T12:56:05.999Z</time>
      </trkpt>
      <trkpt lat="42.96691" lon="-0.43874">
        <ele>651.1</ele>
        <time>2024-10-03T12:56:10.999Z</time>
      </trkpt>
      <trkpt lat="42.96711" lon="-0.43843">
        <ele>650.26</ele>
        <time>2024-10-03T12:56:15.999Z</time>
      </trkpt>
      <trkpt lat="42.96739" lon="-0.43816">
        <ele>649.77</ele>
        <time>2024-10-03T12:56:20.999Z</time>
      </trkpt>
      <trkpt lat="42.96776" lon="-0.43803">
        <ele>649.16</ele>
        <time>2024-10-03T12:56:25.999Z</time>
      </trkpt>
      <trkpt lat="42.96816" lon="-0.43798">
        <ele>648.21</ele>
        <time>2024-10-03T12:56:30.999Z</time>
      </trkpt>
      <trkpt lat="42.96858" lon="-0.43799">
        <ele>648.12</ele>
        <time>2024-10-03T12:56:35.999Z</time>
      </trkpt>
      <trkpt lat="42.96901" lon="-0.43802">
        <ele>648.09</ele>
        <time>2024-10-03T12:56:40.999Z</time>
      </trkpt>
      <trkpt lat="42.96942" lon="-0.43792">
        <ele>647.08</ele>
        <time>2024-10-03T12:56:45.999Z</time>
      </trkpt>
      <trkpt lat="42.96979" lon="-0.43757">
        <ele>644.71</ele>
        <time>2024-10-03T12:56:50.999Z</time>
      </trkpt>
      <trkpt lat="42.97007" lon="-0.43712">
        <ele>642.41</ele>
        <time>2024-10-03T12:56:55.999Z</time>
      </trkpt>
      <trkpt lat="42.97037" lon="-0.43671">
        <ele>640.62</ele>
        <time>2024-10-03T12:57:00.999Z</time>
      </trkpt>
      <trkpt lat="42.9707" lon="-0.43641">
        <ele>639.59</ele>
        <time>2024-10-03T12:57:05.999Z</time>
      </trkpt>
      <trkpt lat="42.97109" lon="-0.4363">
        <ele>638.99</ele>
        <time>2024-10-03T12:57:10.999Z</time>
      </trkpt>
      <trkpt lat="42.97148" lon="-0.43625">
        <ele>638.27</ele>
        <time>2024-10-03T12:57:15.999Z</time>
      </trkpt>
      <trkpt lat="42.97179" lon="-0.43594">
        <ele>637.39</ele>
        <time>2024-10-03T12:57:20.999Z</time>
      </trkpt>
      <trkpt lat="42.97206" lon="-0.43555">
        <ele>636.03</ele>
        <time>2024-10-03T12:57:25.999Z</time>
      </trkpt>
      <trkpt lat="42.97235" lon="-0.4351">
        <ele>634.13</ele>
        <time>2024-10-03T12:57:30.999Z</time>
      </trkpt>
      <trkpt lat="42.97262" lon="-0.43461">
        <ele>632.03</ele>
        <time>2024-10-03T12:57:35.999Z</time>
      </trkpt>
      <trkpt lat="42.97288" lon="-0.4341">
        <ele>629.62</ele>
        <time>2024-10-03T12:57:40.999Z</time>
      </trkpt>
      <trkpt lat="42.97312" lon="-0.43356">
        <ele>627.38</ele>
        <time>2024-10-03T12:57:45.999Z</time>
      </trkpt>
      <trkpt lat="42.97335" lon="-0.43301">
        <ele>625.33</ele>
        <time>2024-10-03T12:57:50.999Z</time>
      </trkpt>
      <trkpt lat="42.97362" lon="-0.43245">
        <ele>624.63</ele>
        <time>2024-10-03T12:57:55.999Z</time>
      </trkpt>
      <trkpt lat="42.97394" lon="-0.43199">
        <ele>622.32</ele>
        <time>2024-10-03T12:58:00.999Z</time>
      </trkpt>
      <trkpt lat="42.97419" lon="-0.43149">
        <ele>620.36</ele>
        <time>2024-10-03T12:58:05.999Z</time>
      </trkpt>
      <trkpt lat="42.97448" lon="-0.43106">
        <ele>618.47</ele>
        <time>2024-10-03T12:58:10.999Z</time>
      </trkpt>
      <trkpt lat="42.9748" lon="-0.43067">
        <ele>617.51</ele>
        <time>2024-10-03T12:58:15.999Z</time>
      </trkpt>
      <trkpt lat="42.97514" lon="-0.43022">
        <ele>616.61</ele>
        <time>2024-10-03T12:58:20.999Z</time>
      </trkpt>
      <trkpt lat="42.97548" lon="-0.42983">
        <ele>617</ele>
        <time>2024-10-03T12:58:25.999Z</time>
      </trkpt>
      <trkpt lat="42.97582" lon="-0.42942">
        <ele>616.75</ele>
        <time>2024-10-03T12:58:30.999Z</time>
      </trkpt>
      <trkpt lat="42.97611" lon="-0.42888">
        <ele>614.9</ele>
        <time>2024-10-03T12:58:35.999Z</time>
      </trkpt>
      <trkpt lat="42.97644" lon="-0.42839">
        <ele>612.35</ele>
        <time>2024-10-03T12:58:40.999Z</time>
      </trkpt>
      <trkpt lat="42.97677" lon="-0.42785">
        <ele>608.26</ele>
        <time>2024-10-03T12:58:45.999Z</time>
      </trkpt>
      <trkpt lat="42.97706" lon="-0.42729">
        <ele>604.97</ele>
        <time>2024-10-03T12:58:50.999Z</time>
      </trkpt>
      <trkpt lat="42.97693" lon="-0.42666">
        <ele>603.1</ele>
        <time>2024-10-03T12:58:55.999Z</time>
      </trkpt>
      <trkpt lat="42.97698" lon="-0.42603">
        <ele>599.19</ele>
        <time>2024-10-03T12:59:00.999Z</time>
      </trkpt>
      <trkpt lat="42.97723" lon="-0.42542">
        <ele>594.46</ele>
        <time>2024-10-03T12:59:05.999Z</time>
      </trkpt>
      <trkpt lat="42.97768" lon="-0.42502">
        <ele>592.31</ele>
        <time>2024-10-03T12:59:10.999Z</time>
      </trkpt>
      <trkpt lat="42.97816" lon="-0.42461">
        <ele>592.1</ele>
        <time>2024-10-03T12:59:15.999Z</time>
      </trkpt>
      <trkpt lat="42.97862" lon="-0.42428">
        <ele>591.3</ele>
        <time>2024-10-03T12:59:20.999Z</time>
      </trkpt>
      <trkpt lat="42.97921" lon="-0.42338">
        <ele>590.46</ele>
        <time>2024-10-03T12:59:31.999Z</time>
      </trkpt>
      <trkpt lat="42.97946" lon="-0.42253">
        <ele>590.9</ele>
        <time>2024-10-03T12:59:36.999Z</time>
      </trkpt>
      <trkpt lat="42.97951" lon="-0.42187">
        <ele>592.07</ele>
        <time>2024-10-03T12:59:41.999Z</time>
      </trkpt>
      <trkpt lat="42.97912" lon="-0.42145">
        <ele>590.67</ele>
        <time>2024-10-03T12:59:46.999Z</time>
      </trkpt>
      <trkpt lat="42.97861" lon="-0.42117">
        <ele>583.34</ele>
        <time>2024-10-03T12:59:51.999Z</time>
      </trkpt>
      <trkpt lat="42.97814" lon="-0.42092">
        <ele>578.03</ele>
        <time>2024-10-03T12:59:56.999Z</time>
      </trkpt>
      <trkpt lat="42.97809" lon="-0.42027">
        <ele>575.05</ele>
        <time>2024-10-03T13:00:01.999Z</time>
      </trkpt>
      <trkpt lat="42.97824" lon="-0.41962">
        <ele>572.67</ele>
        <time>2024-10-03T13:00:06.999Z</time>
      </trkpt>
      <trkpt lat="42.97837" lon="-0.41897">
        <ele>571.07</ele>
        <time>2024-10-03T13:00:11.999Z</time>
      </trkpt>
      <trkpt lat="42.97875" lon="-0.41879">
        <ele>568.44</ele>
        <time>2024-10-03T13:00:16.999Z</time>
      </trkpt>
      <trkpt lat="42.97896" lon="-0.41938">
        <ele>565.46</ele>
        <time>2024-10-03T13:00:22.000Z</time>
      </trkpt>
      <trkpt lat="42.97908" lon="-0.42002">
        <ele>561.55</ele>
        <time>2024-10-03T13:00:27.000Z</time>
      </trkpt>
      <trkpt lat="42.97936" lon="-0.42051">
        <ele>558.2</ele>
        <time>2024-10-03T13:00:32.000Z</time>
      </trkpt>
      <trkpt lat="42.97978" lon="-0.42061">
        <ele>555.32</ele>
        <time>2024-10-03T13:00:37.000Z</time>
      </trkpt>
      <trkpt lat="42.9802" lon="-0.42067">
        <ele>553.16</ele>
        <time>2024-10-03T13:00:42.000Z</time>
      </trkpt>
      <trkpt lat="42.98062" lon="-0.42074">
        <ele>550.63</ele>
        <time>2024-10-03T13:00:47.000Z</time>
      </trkpt>
      <trkpt lat="42.98105" lon="-0.42082">
        <ele>548.95</ele>
        <time>2024-10-03T13:00:52.000Z</time>
      </trkpt>
      <trkpt lat="42.98137" lon="-0.42118">
        <ele>547.28</ele>
        <time>2024-10-03T13:00:57.000Z</time>
      </trkpt>
      <trkpt lat="42.9815" lon="-0.4217">
        <ele>545.67</ele>
        <time>2024-10-03T13:01:02.000Z</time>
      </trkpt>
      <trkpt lat="42.98161" lon="-0.42221">
        <ele>544.32</ele>
        <time>2024-10-03T13:01:07.000Z</time>
      </trkpt>
      <trkpt lat="42.98172" lon="-0.42268">
        <ele>543.55</ele>
        <time>2024-10-03T13:01:12.000Z</time>
      </trkpt>
      <trkpt lat="42.98181" lon="-0.42311">
        <ele>542.79</ele>
        <time>2024-10-03T13:01:17.000Z</time>
      </trkpt>
      <trkpt lat="42.98186" lon="-0.42351">
        <ele>542.05</ele>
        <time>2024-10-03T13:01:22.000Z</time>
      </trkpt>
      <trkpt lat="42.9819" lon="-0.4239">
        <ele>541.57</ele>
        <time>2024-10-03T13:01:27.000Z</time>
      </trkpt>
      <trkpt lat="42.98195" lon="-0.42426">
        <ele>541.1</ele>
        <time>2024-10-03T13:01:32.000Z</time>
      </trkpt>
      <trkpt lat="42.982" lon="-0.42461">
        <ele>540.68</ele>
        <time>2024-10-03T13:01:37.000Z</time>
      </trkpt>
      <trkpt lat="42.98204" lon="-0.42494">
        <ele>540.35</ele>
        <time>2024-10-03T13:01:42.000Z</time>
      </trkpt>
      <trkpt lat="42.98208" lon="-0.42525">
        <ele>540.32</ele>
        <time>2024-10-03T13:01:47.000Z</time>
      </trkpt>
      <trkpt lat="42.98213" lon="-0.42552">
        <ele>540.36</ele>
        <time>2024-10-03T13:01:52.000Z</time>
      </trkpt>
      <trkpt lat="42.98221" lon="-0.42579">
        <ele>540.38</ele>
        <time>2024-10-03T13:01:57.000Z</time>
      </trkpt>
      <trkpt lat="42.98231" lon="-0.42604">
        <ele>540.16</ele>
        <time>2024-10-03T13:02:02.000Z</time>
      </trkpt>
      <trkpt lat="42.98241" lon="-0.42631">
        <ele>539.74</ele>
        <time>2024-10-03T13:02:07.000Z</time>
      </trkpt>
      <trkpt lat="42.98252" lon="-0.42658">
        <ele>539.69</ele>
        <time>2024-10-03T13:02:12.000Z</time>
      </trkpt>
      <trkpt lat="42.98263" lon="-0.42683">
        <ele>539.81</ele>
        <time>2024-10-03T13:02:17.000Z</time>
      </trkpt>
      <trkpt lat="42.98275" lon="-0.42704">
        <ele>540.02</ele>
        <time>2024-10-03T13:02:22.000Z</time>
      </trkpt>
      <trkpt lat="42.98288" lon="-0.4272">
        <ele>540.06</ele>
        <time>2024-10-03T13:02:27.000Z</time>
      </trkpt>
      <trkpt lat="42.98301" lon="-0.42735">
        <ele>540.12</ele>
        <time>2024-10-03T13:02:32.000Z</time>
      </trkpt>
      <trkpt lat="42.98315" lon="-0.42748">
        <ele>540.19</ele>
        <time>2024-10-03T13:02:37.000Z</time>
      </trkpt>
      <trkpt lat="42.98326" lon="-0.42764">
        <ele>540.29</ele>
        <time>2024-10-03T13:02:42.000Z</time>
      </trkpt>
      <trkpt lat="42.98338" lon="-0.42777">
        <ele>540.4</ele>
        <time>2024-10-03T13:02:47.000Z</time>
      </trkpt>
      <trkpt lat="42.98351" lon="-0.4279">
        <ele>540.54</ele>
        <time>2024-10-03T13:02:52.000Z</time>
      </trkpt>
      <trkpt lat="42.98365" lon="-0.42795">
        <ele>540.72</ele>
        <time>2024-10-03T13:02:57.000Z</time>
      </trkpt>
      <trkpt lat="42.98383" lon="-0.42793">
        <ele>540.93</ele>
        <time>2024-10-03T13:03:02.000Z</time>
      </trkpt>
      <trkpt lat="42.98401" lon="-0.42786">
        <ele>541.15</ele>
        <time>2024-10-03T13:03:07.000Z</time>
      </trkpt>
      <trkpt lat="42.9842" lon="-0.4278">
        <ele>542.49</ele>
        <time>2024-10-03T13:03:12.000Z</time>
      </trkpt>
      <trkpt lat="42.9844" lon="-0.42771">
        <ele>543.54</ele>
        <time>2024-10-03T13:03:17.000Z</time>
      </trkpt>
      <trkpt lat="42.98462" lon="-0.42762">
        <ele>543.97</ele>
        <time>2024-10-03T13:03:22.000Z</time>
      </trkpt>
      <trkpt lat="42.98485" lon="-0.42754">
        <ele>544.2</ele>
        <time>2024-10-03T13:03:27.000Z</time>
      </trkpt>
      <trkpt lat="42.98507" lon="-0.42743">
        <ele>544.36</ele>
        <time>2024-10-03T13:03:32.000Z</time>
      </trkpt>
      <trkpt lat="42.98528" lon="-0.42733">
        <ele>544.51</ele>
        <time>2024-10-03T13:03:37.000Z</time>
      </trkpt>
      <trkpt lat="42.98549" lon="-0.42724">
        <ele>544.66</ele>
        <time>2024-10-03T13:03:42.000Z</time>
      </trkpt>
      <trkpt lat="42.9857" lon="-0.42716">
        <ele>544.87</ele>
        <time>2024-10-03T13:03:47.000Z</time>
      </trkpt>
      <trkpt lat="42.98593" lon="-0.42707">
        <ele>545.08</ele>
        <time>2024-10-03T13:03:52.000Z</time>
      </trkpt>
      <trkpt lat="42.98618" lon="-0.42699">
        <ele>545.96</ele>
        <time>2024-10-03T13:03:57.000Z</time>
      </trkpt>
      <trkpt lat="42.98643" lon="-0.42686">
        <ele>546.36</ele>
        <time>2024-10-03T13:04:02.000Z</time>
      </trkpt>
      <trkpt lat="42.98671" lon="-0.42672">
        <ele>546.67</ele>
        <time>2024-10-03T13:04:07.000Z</time>
      </trkpt>
      <trkpt lat="42.98702" lon="-0.42659">
        <ele>546.92</ele>
        <time>2024-10-03T13:04:12.000Z</time>
      </trkpt>
      <trkpt lat="42.98736" lon="-0.4265">
        <ele>547.23</ele>
        <time>2024-10-03T13:04:17.000Z</time>
      </trkpt>
      <trkpt lat="42.98768" lon="-0.42647">
        <ele>547.7</ele>
        <time>2024-10-03T13:04:22.000Z</time>
      </trkpt>
      <trkpt lat="42.98797" lon="-0.42639">
        <ele>548.05</ele>
        <time>2024-10-03T13:04:27.000Z</time>
      </trkpt>
      <trkpt lat="42.98819" lon="-0.42625">
        <ele>548.32</ele>
        <time>2024-10-03T13:04:32.000Z</time>
      </trkpt>
      <trkpt lat="42.98818" lon="-0.42646">
        <ele>548.44</ele>
        <time>2024-10-03T13:04:37.000Z</time>
      </trkpt>
      <trkpt lat="42.98824" lon="-0.42636">
        <ele>550.78</ele>
        <time>2024-10-03T13:06:03.000Z</time>
      </trkpt>
      <trkpt lat="42.98822" lon="-0.42621">
        <ele>554.4</ele>
        <time>2024-10-03T13:06:55.000Z</time>
      </trkpt>
      <trkpt lat="42.98829" lon="-0.42627">
        <ele>555.98</ele>
        <time>2024-10-03T13:09:44.000Z</time>
      </trkpt>
      <trkpt lat="42.98823" lon="-0.42617">
        <ele>556.47</ele>
        <time>2024-10-03T13:31:55.000Z</time>
      </trkpt>
      <trkpt lat="42.98816" lon="-0.42609">
        <ele>555.96</ele>
        <time>2024-10-03T13:32:56.000Z</time>
      </trkpt>
      <trkpt lat="42.98808" lon="-0.42601">
        <ele>555.49</ele>
        <time>2024-10-03T13:33:25.000Z</time>
      </trkpt>
      <trkpt lat="42.98808" lon="-0.42578">
        <ele>555.14</ele>
        <time>2024-10-03T13:33:30.000Z</time>
      </trkpt>
      <trkpt lat="42.98808" lon="-0.42544">
        <ele>554.69</ele>
        <time>2024-10-03T13:33:35.000Z</time>
      </trkpt>
      <trkpt lat="42.98809" lon="-0.425">
        <ele>554.47</ele>
        <time>2024-10-03T13:33:40.000Z</time>
      </trkpt>
      <trkpt lat="42.98811" lon="-0.42449">
        <ele>554.05</ele>
        <time>2024-10-03T13:33:45.000Z</time>
      </trkpt>
      <trkpt lat="42.98814" lon="-0.42389">
        <ele>553</ele>
        <time>2024-10-03T13:33:50.000Z</time>
      </trkpt>
      <trkpt lat="42.98816" lon="-0.42325">
        <ele>551.59</ele>
        <time>2024-10-03T13:33:55.000Z</time>
      </trkpt>
      <trkpt lat="42.98816" lon="-0.42259">
        <ele>549.72</ele>
        <time>2024-10-03T13:34:00.000Z</time>
      </trkpt>
      <trkpt lat="42.98849" lon="-0.42233">
        <ele>547.85</ele>
        <time>2024-10-03T13:34:05.000Z</time>
      </trkpt>
      <trkpt lat="42.98887" lon="-0.42237">
        <ele>547.31</ele>
        <time>2024-10-03T13:34:10.000Z</time>
      </trkpt>
      <trkpt lat="42.98919" lon="-0.42243">
        <ele>548.57</ele>
        <time>2024-10-03T13:34:15.000Z</time>
      </trkpt>
      <trkpt lat="42.9895" lon="-0.42253">
        <ele>547.48</ele>
        <time>2024-10-03T13:34:20.000Z</time>
      </trkpt>
      <trkpt lat="42.98982" lon="-0.42256">
        <ele>544.87</ele>
        <time>2024-10-03T13:34:25.000Z</time>
      </trkpt>
      <trkpt lat="42.99014" lon="-0.42238">
        <ele>541.91</ele>
        <time>2024-10-03T13:34:30.000Z</time>
      </trkpt>
      <trkpt lat="42.99046" lon="-0.42215">
        <ele>539.54</ele>
        <time>2024-10-03T13:34:35.000Z</time>
      </trkpt>
      <trkpt lat="42.99084" lon="-0.42212">
        <ele>537.79</ele>
        <time>2024-10-03T13:34:40.000Z</time>
      </trkpt>
      <trkpt lat="42.99122" lon="-0.42221">
        <ele>536.12</ele>
        <time>2024-10-03T13:34:45.000Z</time>
      </trkpt>
      <trkpt lat="42.99159" lon="-0.42229">
        <ele>534.67</ele>
        <time>2024-10-03T13:34:50.000Z</time>
      </trkpt>
      <trkpt lat="42.99193" lon="-0.42236">
        <ele>533.17</ele>
        <time>2024-10-03T13:34:55.000Z</time>
      </trkpt>
      <trkpt lat="42.99233" lon="-0.42242">
        <ele>531.56</ele>
        <time>2024-10-03T13:35:00.000Z</time>
      </trkpt>
      <trkpt lat="42.99278" lon="-0.42237">
        <ele>529.84</ele>
        <time>2024-10-03T13:35:05.000Z</time>
      </trkpt>
      <trkpt lat="42.99326" lon="-0.42229">
        <ele>528.48</ele>
        <time>2024-10-03T13:35:10.000Z</time>
      </trkpt>
      <trkpt lat="42.99376" lon="-0.42221">
        <ele>527.18</ele>
        <time>2024-10-03T13:35:15.000Z</time>
      </trkpt>
      <trkpt lat="42.99427" lon="-0.42212">
        <ele>526.07</ele>
        <time>2024-10-03T13:35:20.000Z</time>
      </trkpt>
      <trkpt lat="42.99476" lon="-0.42206">
        <ele>525.37</ele>
        <time>2024-10-03T13:35:25.000Z</time>
      </trkpt>
      <trkpt lat="42.99521" lon="-0.422">
        <ele>525.18</ele>
        <time>2024-10-03T13:35:30.000Z</time>
      </trkpt>
      <trkpt lat="42.99563" lon="-0.42196">
        <ele>524.63</ele>
        <time>2024-10-03T13:35:35.000Z</time>
      </trkpt>
      <trkpt lat="42.99601" lon="-0.42191">
        <ele>523.75</ele>
        <time>2024-10-03T13:35:40.000Z</time>
      </trkpt>
      <trkpt lat="42.99639" lon="-0.42186">
        <ele>522.79</ele>
        <time>2024-10-03T13:35:45.000Z</time>
      </trkpt>
      <trkpt lat="42.99675" lon="-0.4218">
        <ele>522.19</ele>
        <time>2024-10-03T13:35:50.000Z</time>
      </trkpt>
      <trkpt lat="42.99712" lon="-0.42171">
        <ele>521.56</ele>
        <time>2024-10-03T13:35:55.000Z</time>
      </trkpt>
      <trkpt lat="42.99749" lon="-0.42159">
        <ele>520.37</ele>
        <time>2024-10-03T13:36:00.000Z</time>
      </trkpt>
      <trkpt lat="42.99786" lon="-0.42145">
        <ele>519.15</ele>
        <time>2024-10-03T13:36:05.000Z</time>
      </trkpt>
      <trkpt lat="42.99821" lon="-0.4213">
        <ele>518.12</ele>
        <time>2024-10-03T13:36:10.000Z</time>
      </trkpt>
      <trkpt lat="42.99855" lon="-0.42116">
        <ele>517.18</ele>
        <time>2024-10-03T13:36:15.000Z</time>
      </trkpt>
      <trkpt lat="42.99886" lon="-0.42103">
        <ele>516.6</ele>
        <time>2024-10-03T13:36:20.000Z</time>
      </trkpt>
      <trkpt lat="42.99914" lon="-0.42091">
        <ele>516.22</ele>
        <time>2024-10-03T13:36:25.000Z</time>
      </trkpt>
      <trkpt lat="42.99942" lon="-0.4208">
        <ele>516.15</ele>
        <time>2024-10-03T13:36:30.000Z</time>
      </trkpt>
      <trkpt lat="42.99968" lon="-0.42068">
        <ele>516.01</ele>
        <time>2024-10-03T13:36:35.000Z</time>
      </trkpt>
      <trkpt lat="42.99996" lon="-0.42057">
        <ele>515.93</ele>
        <time>2024-10-03T13:36:40.000Z</time>
      </trkpt>
      <trkpt lat="43.00021" lon="-0.42046">
        <ele>516.21</ele>
        <time>2024-10-03T13:36:45.000Z</time>
      </trkpt>
      <trkpt lat="43.0005" lon="-0.42033">
        <ele>516.46</ele>
        <time>2024-10-03T13:36:50.000Z</time>
      </trkpt>
      <trkpt lat="43.00075" lon="-0.42021">
        <ele>516.55</ele>
        <time>2024-10-03T13:36:55.999Z</time>
      </trkpt>
      <trkpt lat="43.00082" lon="-0.42011">
        <ele>516.08</ele>
        <time>2024-10-03T13:37:14.999Z</time>
      </trkpt>
      <trkpt lat="43.00091" lon="-0.42007">
        <ele>515.8</ele>
        <time>2024-10-03T13:37:19.999Z</time>
      </trkpt>
      <trkpt lat="43.00106" lon="-0.41998">
        <ele>514.55</ele>
        <time>2024-10-03T13:37:24.999Z</time>
      </trkpt>
      <trkpt lat="43.00126" lon="-0.41989">
        <ele>512.94</ele>
        <time>2024-10-03T13:37:29.999Z</time>
      </trkpt>
      <trkpt lat="43.00149" lon="-0.41977">
        <ele>511.77</ele>
        <time>2024-10-03T13:37:34.999Z</time>
      </trkpt>
      <trkpt lat="43.00174" lon="-0.41967">
        <ele>511.11</ele>
        <time>2024-10-03T13:37:39.999Z</time>
      </trkpt>
      <trkpt lat="43.00202" lon="-0.41958">
        <ele>510.86</ele>
        <time>2024-10-03T13:37:44.999Z</time>
      </trkpt>
      <trkpt lat="43.00231" lon="-0.4195">
        <ele>510.8</ele>
        <time>2024-10-03T13:37:49.999Z</time>
      </trkpt>
      <trkpt lat="43.0026" lon="-0.41945">
        <ele>510.75</ele>
        <time>2024-10-03T13:37:54.999Z</time>
      </trkpt>
      <trkpt lat="43.00289" lon="-0.41941">
        <ele>510.59</ele>
        <time>2024-10-03T13:37:59.999Z</time>
      </trkpt>
      <trkpt lat="43.0032" lon="-0.41937">
        <ele>510.37</ele>
        <time>2024-10-03T13:38:04.999Z</time>
      </trkpt>
      <trkpt lat="43.0035" lon="-0.41933">
        <ele>510.11</ele>
        <time>2024-10-03T13:38:09.999Z</time>
      </trkpt>
      <trkpt lat="43.0038" lon="-0.41931">
        <ele>509.88</ele>
        <time>2024-10-03T13:38:14.999Z</time>
      </trkpt>
      <trkpt lat="43.00404" lon="-0.41928">
        <ele>509.71</ele>
        <time>2024-10-03T13:38:19.999Z</time>
      </trkpt>
      <trkpt lat="43.00418" lon="-0.41928">
        <ele>509.56</ele>
        <time>2024-10-03T13:38:24.999Z</time>
      </trkpt>
      <trkpt lat="43.00452" lon="-0.41924">
        <ele>509.19</ele>
        <time>2024-10-03T13:38:29.999Z</time>
      </trkpt>
      <trkpt lat="43.00468" lon="-0.41922">
        <ele>509.15</ele>
        <time>2024-10-03T13:38:34.999Z</time>
      </trkpt>
      <trkpt lat="43.00489" lon="-0.41922">
        <ele>509.01</ele>
        <time>2024-10-03T13:38:39.999Z</time>
      </trkpt>
      <trkpt lat="43.00516" lon="-0.41921">
        <ele>508.85</ele>
        <time>2024-10-03T13:38:44.999Z</time>
      </trkpt>
      <trkpt lat="43.00541" lon="-0.41923">
        <ele>508.69</ele>
        <time>2024-10-03T13:38:49.999Z</time>
      </trkpt>
      <trkpt lat="43.00569" lon="-0.41927">
        <ele>508.3</ele>
        <time>2024-10-03T13:38:54.999Z</time>
      </trkpt>
      <trkpt lat="43.00597" lon="-0.41933">
        <ele>508.17</ele>
        <time>2024-10-03T13:38:59.999Z</time>
      </trkpt>
      <trkpt lat="43.00624" lon="-0.41943">
        <ele>508.1</ele>
        <time>2024-10-03T13:39:04.999Z</time>
      </trkpt>
      <trkpt lat="43.00651" lon="-0.41955">
        <ele>507.89</ele>
        <time>2024-10-03T13:39:09.999Z</time>
      </trkpt>
      <trkpt lat="43.00677" lon="-0.41969">
        <ele>507.71</ele>
        <time>2024-10-03T13:39:14.999Z</time>
      </trkpt>
      <trkpt lat="43.00703" lon="-0.41984">
        <ele>507.57</ele>
        <time>2024-10-03T13:39:19.999Z</time>
      </trkpt>
      <trkpt lat="43.00728" lon="-0.42001">
        <ele>507.42</ele>
        <time>2024-10-03T13:39:24.999Z</time>
      </trkpt>
      <trkpt lat="43.00753" lon="-0.42021">
        <ele>507.28</ele>
        <time>2024-10-03T13:39:29.999Z</time>
      </trkpt>
      <trkpt lat="43.00776" lon="-0.42042">
        <ele>507.14</ele>
        <time>2024-10-03T13:39:34.999Z</time>
      </trkpt>
      <trkpt lat="43.00798" lon="-0.42062">
        <ele>507</ele>
        <time>2024-10-03T13:39:39.999Z</time>
      </trkpt>
      <trkpt lat="43.00811" lon="-0.42072">
        <ele>506.95</ele>
        <time>2024-10-03T13:39:44.999Z</time>
      </trkpt>
      <trkpt lat="43.00823" lon="-0.42081">
        <ele>506.93</ele>
        <time>2024-10-03T13:39:49.999Z</time>
      </trkpt>
      <trkpt lat="43.00842" lon="-0.42089">
        <ele>506.66</ele>
        <time>2024-10-03T13:39:54.999Z</time>
      </trkpt>
      <trkpt lat="43.0086" lon="-0.42098">
        <ele>506.5</ele>
        <time>2024-10-03T13:39:59.999Z</time>
      </trkpt>
      <trkpt lat="43.00871" lon="-0.42107">
        <ele>506.4</ele>
        <time>2024-10-03T13:40:04.999Z</time>
      </trkpt>
      <trkpt lat="43.00873" lon="-0.42121">
        <ele>506.25</ele>
        <time>2024-10-03T13:40:09.999Z</time>
      </trkpt>
      <trkpt lat="43.00872" lon="-0.42144">
        <ele>506.06</ele>
        <time>2024-10-03T13:40:14.999Z</time>
      </trkpt>
      <trkpt lat="43.00882" lon="-0.42148">
        <ele>505.85</ele>
        <time>2024-10-03T13:40:19.999Z</time>
      </trkpt>
      <trkpt lat="43.0089" lon="-0.42154">
        <ele>505.64</ele>
        <time>2024-10-03T13:40:24.999Z</time>
      </trkpt>
      <trkpt lat="43.00903" lon="-0.42167">
        <ele>505.44</ele>
        <time>2024-10-03T13:40:29.999Z</time>
      </trkpt>
      <trkpt lat="43.00918" lon="-0.4218">
        <ele>505.27</ele>
        <time>2024-10-03T13:40:34.999Z</time>
      </trkpt>
      <trkpt lat="43.00932" lon="-0.42192">
        <ele>505.1</ele>
        <time>2024-10-03T13:40:39.999Z</time>
      </trkpt>
      <trkpt lat="43.00947" lon="-0.42205">
        <ele>504.66</ele>
        <time>2024-10-03T13:40:44.999Z</time>
      </trkpt>
      <trkpt lat="43.00962" lon="-0.42218">
        <ele>504.36</ele>
        <time>2024-10-03T13:40:49.999Z</time>
      </trkpt>
      <trkpt lat="43.00973" lon="-0.42231">
        <ele>504.2</ele>
        <time>2024-10-03T13:40:54.999Z</time>
      </trkpt>
      <trkpt lat="43.00994" lon="-0.42245">
        <ele>504.1</ele>
        <time>2024-10-03T13:40:59.999Z</time>
      </trkpt>
      <trkpt lat="43.01012" lon="-0.42257">
        <ele>504</ele>
        <time>2024-10-03T13:41:04.999Z</time>
      </trkpt>
      <trkpt lat="43.01028" lon="-0.42268">
        <ele>503.92</ele>
        <time>2024-10-03T13:41:09.999Z</time>
      </trkpt>
      <trkpt lat="43.01039" lon="-0.42277">
        <ele>503.83</ele>
        <time>2024-10-03T13:41:14.999Z</time>
      </trkpt>
      <trkpt lat="43.01053" lon="-0.42289">
        <ele>503.76</ele>
        <time>2024-10-03T13:41:19.999Z</time>
      </trkpt>
      <trkpt lat="43.01063" lon="-0.42289">
        <ele>503.68</ele>
        <time>2024-10-03T13:41:24.999Z</time>
      </trkpt>
      <trkpt lat="43.01064" lon="-0.42258">
        <ele>502.91</ele>
        <time>2024-10-03T13:41:29.999Z</time>
      </trkpt>
      <trkpt lat="43.01082" lon="-0.42249">
        <ele>502.33</ele>
        <time>2024-10-03T13:41:34.999Z</time>
      </trkpt>
      <trkpt lat="43.01103" lon="-0.4226">
        <ele>501.95</ele>
        <time>2024-10-03T13:41:39.999Z</time>
      </trkpt>
      <trkpt lat="43.01122" lon="-0.42272">
        <ele>501.77</ele>
        <time>2024-10-03T13:41:44.999Z</time>
      </trkpt>
      <trkpt lat="43.0114" lon="-0.42283">
        <ele>501.64</ele>
        <time>2024-10-03T13:41:49.999Z</time>
      </trkpt>
      <trkpt lat="43.01159" lon="-0.42292">
        <ele>501.52</ele>
        <time>2024-10-03T13:41:54.999Z</time>
      </trkpt>
      <trkpt lat="43.01179" lon="-0.42301">
        <ele>501.45</ele>
        <time>2024-10-03T13:41:59.999Z</time>
      </trkpt>
      <trkpt lat="43.01199" lon="-0.42307">
        <ele>501.41</ele>
        <time>2024-10-03T13:42:04.999Z</time>
      </trkpt>
      <trkpt lat="43.01219" lon="-0.42311">
        <ele>501.39</ele>
        <time>2024-10-03T13:42:09.999Z</time>
      </trkpt>
      <trkpt lat="43.0124" lon="-0.42314">
        <ele>501.37</ele>
        <time>2024-10-03T13:42:14.999Z</time>
      </trkpt>
      <trkpt lat="43.01263" lon="-0.42316">
        <ele>501.3</ele>
        <time>2024-10-03T13:42:19.999Z</time>
      </trkpt>
      <trkpt lat="43.01286" lon="-0.42317">
        <ele>501.18</ele>
        <time>2024-10-03T13:42:24.999Z</time>
      </trkpt>
      <trkpt lat="43.0131" lon="-0.42318">
        <ele>500.99</ele>
        <time>2024-10-03T13:42:29.999Z</time>
      </trkpt>
      <trkpt lat="43.01335" lon="-0.42319">
        <ele>500.74</ele>
        <time>2024-10-03T13:42:34.999Z</time>
      </trkpt>
      <trkpt lat="43.01354" lon="-0.42319">
        <ele>500.6</ele>
        <time>2024-10-03T13:42:39.999Z</time>
      </trkpt>
      <trkpt lat="43.0137" lon="-0.42319">
        <ele>500.57</ele>
        <time>2024-10-03T13:42:44.999Z</time>
      </trkpt>
      <trkpt lat="43.01386" lon="-0.42319">
        <ele>500.55</ele>
        <time>2024-10-03T13:42:49.999Z</time>
      </trkpt>
      <trkpt lat="43.01401" lon="-0.4232">
        <ele>500.52</ele>
        <time>2024-10-03T13:42:54.999Z</time>
      </trkpt>
      <trkpt lat="43.01417" lon="-0.42319">
        <ele>500.49</ele>
        <time>2024-10-03T13:42:59.999Z</time>
      </trkpt>
      <trkpt lat="43.01433" lon="-0.42319">
        <ele>500.46</ele>
        <time>2024-10-03T13:43:04.999Z</time>
      </trkpt>
      <trkpt lat="43.01447" lon="-0.42319">
        <ele>500.46</ele>
        <time>2024-10-03T13:43:09.999Z</time>
      </trkpt>
      <trkpt lat="43.01461" lon="-0.42321">
        <ele>500.47</ele>
        <time>2024-10-03T13:43:14.999Z</time>
      </trkpt>
      <trkpt lat="43.01475" lon="-0.4232">
        <ele>500.48</ele>
        <time>2024-10-03T13:43:19.999Z</time>
      </trkpt>
      <trkpt lat="43.01489" lon="-0.42319">
        <ele>500.5</ele>
        <time>2024-10-03T13:43:24.999Z</time>
      </trkpt>
      <trkpt lat="43.01504" lon="-0.42321">
        <ele>500.53</ele>
        <time>2024-10-03T13:43:29.999Z</time>
      </trkpt>
      <trkpt lat="43.01522" lon="-0.42324">
        <ele>500.63</ele>
        <time>2024-10-03T13:43:34.999Z</time>
      </trkpt>
      <trkpt lat="43.01544" lon="-0.42324">
        <ele>500.75</ele>
        <time>2024-10-03T13:43:39.999Z</time>
      </trkpt>
      <trkpt lat="43.01576" lon="-0.42321">
        <ele>500.81</ele>
        <time>2024-10-03T13:43:44.999Z</time>
      </trkpt>
      <trkpt lat="43.01612" lon="-0.42314">
        <ele>500.81</ele>
        <time>2024-10-03T13:43:49.999Z</time>
      </trkpt>
      <trkpt lat="43.01647" lon="-0.42322">
        <ele>500.66</ele>
        <time>2024-10-03T13:43:54.999Z</time>
      </trkpt>
      <trkpt lat="43.01682" lon="-0.42321">
        <ele>500.1</ele>
        <time>2024-10-03T13:43:59.999Z</time>
      </trkpt>
      <trkpt lat="43.01719" lon="-0.42321">
        <ele>499.56</ele>
        <time>2024-10-03T13:44:04.999Z</time>
      </trkpt>
      <trkpt lat="43.01759" lon="-0.42326">
        <ele>498.99</ele>
        <time>2024-10-03T13:44:09.999Z</time>
      </trkpt>
      <trkpt lat="43.018" lon="-0.42329">
        <ele>498.22</ele>
        <time>2024-10-03T13:44:14.999Z</time>
      </trkpt>
      <trkpt lat="43.0184" lon="-0.42332">
        <ele>497.43</ele>
        <time>2024-10-03T13:44:19.999Z</time>
      </trkpt>
      <trkpt lat="43.01876" lon="-0.42329">
        <ele>496.88</ele>
        <time>2024-10-03T13:44:24.999Z</time>
      </trkpt>
      <trkpt lat="43.01909" lon="-0.42324">
        <ele>496.44</ele>
        <time>2024-10-03T13:44:29.999Z</time>
      </trkpt>
      <trkpt lat="43.0194" lon="-0.42319">
        <ele>495.89</ele>
        <time>2024-10-03T13:44:34.999Z</time>
      </trkpt>
      <trkpt lat="43.01969" lon="-0.42313">
        <ele>495.43</ele>
        <time>2024-10-03T13:44:39.999Z</time>
      </trkpt>
      <trkpt lat="43.01996" lon="-0.42311">
        <ele>494.96</ele>
        <time>2024-10-03T13:44:44.999Z</time>
      </trkpt>
      <trkpt lat="43.02023" lon="-0.42303">
        <ele>494.28</ele>
        <time>2024-10-03T13:44:49.999Z</time>
      </trkpt>
      <trkpt lat="43.02049" lon="-0.42295">
        <ele>493.63</ele>
        <time>2024-10-03T13:44:54.999Z</time>
      </trkpt>
      <trkpt lat="43.02075" lon="-0.42286">
        <ele>493.13</ele>
        <time>2024-10-03T13:44:59.999Z</time>
      </trkpt>
      <trkpt lat="43.021" lon="-0.42277">
        <ele>492.67</ele>
        <time>2024-10-03T13:45:04.999Z</time>
      </trkpt>
      <trkpt lat="43.02124" lon="-0.42268">
        <ele>491.95</ele>
        <time>2024-10-03T13:45:09.999Z</time>
      </trkpt>
      <trkpt lat="43.02151" lon="-0.42258">
        <ele>491.31</ele>
        <time>2024-10-03T13:45:14.999Z</time>
      </trkpt>
      <trkpt lat="43.02176" lon="-0.42249">
        <ele>490.71</ele>
        <time>2024-10-03T13:45:19.999Z</time>
      </trkpt>
      <trkpt lat="43.02202" lon="-0.42238">
        <ele>490.06</ele>
        <time>2024-10-03T13:45:24.999Z</time>
      </trkpt>
      <trkpt lat="43.02228" lon="-0.42227">
        <ele>489.48</ele>
        <time>2024-10-03T13:45:29.999Z</time>
      </trkpt>
      <trkpt lat="43.02253" lon="-0.42217">
        <ele>489.05</ele>
        <time>2024-10-03T13:45:34.999Z</time>
      </trkpt>
      <trkpt lat="43.02279" lon="-0.42208">
        <ele>488.69</ele>
        <time>2024-10-03T13:45:39.999Z</time>
      </trkpt>
      <trkpt lat="43.02305" lon="-0.42204">
        <ele>488.3</ele>
        <time>2024-10-03T13:45:44.999Z</time>
      </trkpt>
      <trkpt lat="43.02329" lon="-0.42211">
        <ele>487.89</ele>
        <time>2024-10-03T13:45:49.999Z</time>
      </trkpt>
      <trkpt lat="43.02353" lon="-0.42218">
        <ele>487.57</ele>
        <time>2024-10-03T13:45:54.999Z</time>
      </trkpt>
      <trkpt lat="43.02376" lon="-0.42215">
        <ele>487.32</ele>
        <time>2024-10-03T13:45:59.999Z</time>
      </trkpt>
      <trkpt lat="43.02401" lon="-0.42212">
        <ele>487.04</ele>
        <time>2024-10-03T13:46:04.999Z</time>
      </trkpt>
      <trkpt lat="43.02424" lon="-0.4221">
        <ele>486.8</ele>
        <time>2024-10-03T13:46:09.999Z</time>
      </trkpt>
      <trkpt lat="43.0244" lon="-0.42208">
        <ele>486.76</ele>
        <time>2024-10-03T13:46:14.999Z</time>
      </trkpt>
      <trkpt lat="43.02452" lon="-0.42204">
        <ele>486.73</ele>
        <time>2024-10-03T13:46:19.999Z</time>
      </trkpt>
      <trkpt lat="43.02462" lon="-0.42196">
        <ele>486.7</ele>
        <time>2024-10-03T13:46:24.999Z</time>
      </trkpt>
      <trkpt lat="43.02474" lon="-0.42192">
        <ele>486.67</ele>
        <time>2024-10-03T13:46:29.999Z</time>
      </trkpt>
      <trkpt lat="43.02484" lon="-0.42195">
        <ele>486.65</ele>
        <time>2024-10-03T13:46:34.999Z</time>
      </trkpt>
      <trkpt lat="43.02493" lon="-0.42196">
        <ele>486.6</ele>
        <time>2024-10-03T13:46:39.999Z</time>
      </trkpt>
      <trkpt lat="43.02505" lon="-0.42198">
        <ele>486.55</ele>
        <time>2024-10-03T13:46:44.999Z</time>
      </trkpt>
      <trkpt lat="43.02519" lon="-0.422">
        <ele>486.49</ele>
        <time>2024-10-03T13:46:49.999Z</time>
      </trkpt>
      <trkpt lat="43.02533" lon="-0.42203">
        <ele>486.42</ele>
        <time>2024-10-03T13:46:54.999Z</time>
      </trkpt>
      <trkpt lat="43.0255" lon="-0.42205">
        <ele>486.34</ele>
        <time>2024-10-03T13:46:59.999Z</time>
      </trkpt>
      <trkpt lat="43.02567" lon="-0.42207">
        <ele>486.25</ele>
        <time>2024-10-03T13:47:04.999Z</time>
      </trkpt>
      <trkpt lat="43.02585" lon="-0.42209">
        <ele>485.87</ele>
        <time>2024-10-03T13:47:09.999Z</time>
      </trkpt>
      <trkpt lat="43.02604" lon="-0.42212">
        <ele>485.37</ele>
        <time>2024-10-03T13:47:14.999Z</time>
      </trkpt>
      <trkpt lat="43.02623" lon="-0.42215">
        <ele>485.27</ele>
        <time>2024-10-03T13:47:19.999Z</time>
      </trkpt>
      <trkpt lat="43.02641" lon="-0.42218">
        <ele>484.96</ele>
        <time>2024-10-03T13:47:24.999Z</time>
      </trkpt>
      <trkpt lat="43.02662" lon="-0.4222">
        <ele>484.74</ele>
        <time>2024-10-03T13:47:29.999Z</time>
      </trkpt>
      <trkpt lat="43.02683" lon="-0.42219">
        <ele>484.56</ele>
        <time>2024-10-03T13:47:34.999Z</time>
      </trkpt>
      <trkpt lat="43.02704" lon="-0.42218">
        <ele>484.38</ele>
        <time>2024-10-03T13:47:39.999Z</time>
      </trkpt>
      <trkpt lat="43.02725" lon="-0.42217">
        <ele>484.21</ele>
        <time>2024-10-03T13:47:44.999Z</time>
      </trkpt>
      <trkpt lat="43.02746" lon="-0.4222">
        <ele>484.02</ele>
        <time>2024-10-03T13:47:49.999Z</time>
      </trkpt>
      <trkpt lat="43.02765" lon="-0.42225">
        <ele>483.82</ele>
        <time>2024-10-03T13:47:54.999Z</time>
      </trkpt>
      <trkpt lat="43.02785" lon="-0.42232">
        <ele>483.61</ele>
        <time>2024-10-03T13:47:59.999Z</time>
      </trkpt>
      <trkpt lat="43.02806" lon="-0.4224">
        <ele>483.4</ele>
        <time>2024-10-03T13:48:04.999Z</time>
      </trkpt>
      <trkpt lat="43.02829" lon="-0.42246">
        <ele>483.18</ele>
        <time>2024-10-03T13:48:09.999Z</time>
      </trkpt>
      <trkpt lat="43.0285" lon="-0.4225">
        <ele>483.01</ele>
        <time>2024-10-03T13:48:14.999Z</time>
      </trkpt>
      <trkpt lat="43.02871" lon="-0.42251">
        <ele>482.79</ele>
        <time>2024-10-03T13:48:19.999Z</time>
      </trkpt>
      <trkpt lat="43.02891" lon="-0.42254">
        <ele>482.55</ele>
        <time>2024-10-03T13:48:24.999Z</time>
      </trkpt>
      <trkpt lat="43.02911" lon="-0.42256">
        <ele>482.34</ele>
        <time>2024-10-03T13:48:29.999Z</time>
      </trkpt>
      <trkpt lat="43.02933" lon="-0.42261">
        <ele>482.19</ele>
        <time>2024-10-03T13:48:34.999Z</time>
      </trkpt>
      <trkpt lat="43.02955" lon="-0.4226">
        <ele>482.03</ele>
        <time>2024-10-03T13:48:39.999Z</time>
      </trkpt>
      <trkpt lat="43.02977" lon="-0.42261">
        <ele>481.84</ele>
        <time>2024-10-03T13:48:44.999Z</time>
      </trkpt>
      <trkpt lat="43.02999" lon="-0.42262">
        <ele>481.65</ele>
        <time>2024-10-03T13:48:49.999Z</time>
      </trkpt>
      <trkpt lat="43.0302" lon="-0.42263">
        <ele>481.46</ele>
        <time>2024-10-03T13:48:54.999Z</time>
      </trkpt>
      <trkpt lat="43.0304" lon="-0.42262">
        <ele>481.27</ele>
        <time>2024-10-03T13:48:59.999Z</time>
      </trkpt>
      <trkpt lat="43.03059" lon="-0.42263">
        <ele>481.13</ele>
        <time>2024-10-03T13:49:04.999Z</time>
      </trkpt>
      <trkpt lat="43.03077" lon="-0.42263">
        <ele>480.98</ele>
        <time>2024-10-03T13:49:09.999Z</time>
      </trkpt>
      <trkpt lat="43.03096" lon="-0.42263">
        <ele>480.87</ele>
        <time>2024-10-03T13:49:15.000Z</time>
      </trkpt>
      <trkpt lat="43.03113" lon="-0.42265">
        <ele>480.82</ele>
        <time>2024-10-03T13:49:20.000Z</time>
      </trkpt>
      <trkpt lat="43.03133" lon="-0.42272">
        <ele>480.52</ele>
        <time>2024-10-03T13:49:25.000Z</time>
      </trkpt>
      <trkpt lat="43.03151" lon="-0.4228">
        <ele>480.42</ele>
        <time>2024-10-03T13:49:30.000Z</time>
      </trkpt>
      <trkpt lat="43.0317" lon="-0.42292">
        <ele>480.25</ele>
        <time>2024-10-03T13:49:35.000Z</time>
      </trkpt>
      <trkpt lat="43.03187" lon="-0.42301">
        <ele>480.16</ele>
        <time>2024-10-03T13:49:40.000Z</time>
      </trkpt>
      <trkpt lat="43.03203" lon="-0.42307">
        <ele>480.14</ele>
        <time>2024-10-03T13:49:45.000Z</time>
      </trkpt>
      <trkpt lat="43.0322" lon="-0.42313">
        <ele>480.12</ele>
        <time>2024-10-03T13:49:50.000Z</time>
      </trkpt>
      <trkpt lat="43.03236" lon="-0.42319">
        <ele>480.09</ele>
        <time>2024-10-03T13:49:55.000Z</time>
      </trkpt>
      <trkpt lat="43.03251" lon="-0.42324">
        <ele>480.05</ele>
        <time>2024-10-03T13:50:00.000Z</time>
      </trkpt>
      <trkpt lat="43.03266" lon="-0.42326">
        <ele>480</ele>
        <time>2024-10-03T13:50:05.000Z</time>
      </trkpt>
      <trkpt lat="43.03283" lon="-0.42329">
        <ele>479.96</ele>
        <time>2024-10-03T13:50:10.000Z</time>
      </trkpt>
      <trkpt lat="43.03298" lon="-0.42333">
        <ele>479.91</ele>
        <time>2024-10-03T13:50:15.000Z</time>
      </trkpt>
      <trkpt lat="43.03313" lon="-0.42334">
        <ele>479.87</ele>
        <time>2024-10-03T13:50:20.000Z</time>
      </trkpt>
      <trkpt lat="43.03326" lon="-0.42335">
        <ele>479.82</ele>
        <time>2024-10-03T13:50:25.000Z</time>
      </trkpt>
      <trkpt lat="43.0334" lon="-0.42333">
        <ele>479.78</ele>
        <time>2024-10-03T13:50:30.000Z</time>
      </trkpt>
      <trkpt lat="43.03352" lon="-0.42332">
        <ele>479.74</ele>
        <time>2024-10-03T13:50:35.000Z</time>
      </trkpt>
      <trkpt lat="43.03365" lon="-0.4233">
        <ele>479.7</ele>
        <time>2024-10-03T13:50:40.000Z</time>
      </trkpt>
      <trkpt lat="43.03385" lon="-0.42326">
        <ele>479.48</ele>
        <time>2024-10-03T13:50:45.000Z</time>
      </trkpt>
      <trkpt lat="43.03411" lon="-0.4232">
        <ele>479.34</ele>
        <time>2024-10-03T13:50:50.000Z</time>
      </trkpt>
      <trkpt lat="43.0344" lon="-0.4232">
        <ele>479.24</ele>
        <time>2024-10-03T13:50:55.000Z</time>
      </trkpt>
      <trkpt lat="43.03469" lon="-0.42323">
        <ele>479.1</ele>
        <time>2024-10-03T13:51:00.000Z</time>
      </trkpt>
      <trkpt lat="43.03499" lon="-0.42327">
        <ele>478.91</ele>
        <time>2024-10-03T13:51:05.000Z</time>
      </trkpt>
      <trkpt lat="43.0353" lon="-0.42331">
        <ele>478.67</ele>
        <time>2024-10-03T13:51:10.000Z</time>
      </trkpt>
      <trkpt lat="43.03561" lon="-0.42335">
        <ele>478.38</ele>
        <time>2024-10-03T13:51:15.000Z</time>
      </trkpt>
      <trkpt lat="43.0359" lon="-0.42339">
        <ele>478.19</ele>
        <time>2024-10-03T13:51:20.000Z</time>
      </trkpt>
      <trkpt lat="43.03619" lon="-0.42342">
        <ele>478.02</ele>
        <time>2024-10-03T13:51:25.000Z</time>
      </trkpt>
      <trkpt lat="43.03646" lon="-0.42348">
        <ele>478</ele>
        <time>2024-10-03T13:51:30.000Z</time>
      </trkpt>
      <trkpt lat="43.03668" lon="-0.42363">
        <ele>478.07</ele>
        <time>2024-10-03T13:51:35.000Z</time>
      </trkpt>
      <trkpt lat="43.03687" lon="-0.42374">
        <ele>478.04</ele>
        <time>2024-10-03T13:51:40.000Z</time>
      </trkpt>
      <trkpt lat="43.03704" lon="-0.42376">
        <ele>478.18</ele>
        <time>2024-10-03T13:51:45.000Z</time>
      </trkpt>
      <trkpt lat="43.03722" lon="-0.42383">
        <ele>478.26</ele>
        <time>2024-10-03T13:51:50.000Z</time>
      </trkpt>
      <trkpt lat="43.03748" lon="-0.42395">
        <ele>478.35</ele>
        <time>2024-10-03T13:51:55.000Z</time>
      </trkpt>
      <trkpt lat="43.03774" lon="-0.42411">
        <ele>477.94</ele>
        <time>2024-10-03T13:52:00.000Z</time>
      </trkpt>
      <trkpt lat="43.03797" lon="-0.42425">
        <ele>477.21</ele>
        <time>2024-10-03T13:52:05.000Z</time>
      </trkpt>
      <trkpt lat="43.03818" lon="-0.42436">
        <ele>476.42</ele>
        <time>2024-10-03T13:52:10.000Z</time>
      </trkpt>
      <trkpt lat="43.03837" lon="-0.42444">
        <ele>476.11</ele>
        <time>2024-10-03T13:52:15.000Z</time>
      </trkpt>
      <trkpt lat="43.03853" lon="-0.42452">
        <ele>475.92</ele>
        <time>2024-10-03T13:52:20.000Z</time>
      </trkpt>
      <trkpt lat="43.03872" lon="-0.42461">
        <ele>475.24</ele>
        <time>2024-10-03T13:52:25.000Z</time>
      </trkpt>
      <trkpt lat="43.03894" lon="-0.42471">
        <ele>474.8</ele>
        <time>2024-10-03T13:52:30.000Z</time>
      </trkpt>
      <trkpt lat="43.03915" lon="-0.4248">
        <ele>474.46</ele>
        <time>2024-10-03T13:52:35.000Z</time>
      </trkpt>
      <trkpt lat="43.03937" lon="-0.42487">
        <ele>474.15</ele>
        <time>2024-10-03T13:52:40.000Z</time>
      </trkpt>
      <trkpt lat="43.03958" lon="-0.42494">
        <ele>473.92</ele>
        <time>2024-10-03T13:52:45.000Z</time>
      </trkpt>
      <trkpt lat="43.03983" lon="-0.42502">
        <ele>473.69</ele>
        <time>2024-10-03T13:52:51.000Z</time>
      </trkpt>
      <trkpt lat="43.04004" lon="-0.42508">
        <ele>473.48</ele>
        <time>2024-10-03T13:52:56.000Z</time>
      </trkpt>
      <trkpt lat="43.04025" lon="-0.42514">
        <ele>473.31</ele>
        <time>2024-10-03T13:53:01.000Z</time>
      </trkpt>
      <trkpt lat="43.04045" lon="-0.42521">
        <ele>473.14</ele>
        <time>2024-10-03T13:53:06.000Z</time>
      </trkpt>
      <trkpt lat="43.04066" lon="-0.42528">
        <ele>473.01</ele>
        <time>2024-10-03T13:53:11.000Z</time>
      </trkpt>
      <trkpt lat="43.04087" lon="-0.42534">
        <ele>472.8</ele>
        <time>2024-10-03T13:53:16.000Z</time>
      </trkpt>
      <trkpt lat="43.04108" lon="-0.42541">
        <ele>472.54</ele>
        <time>2024-10-03T13:53:21.000Z</time>
      </trkpt>
      <trkpt lat="43.0413" lon="-0.42547">
        <ele>472.32</ele>
        <time>2024-10-03T13:53:26.000Z</time>
      </trkpt>
      <trkpt lat="43.04151" lon="-0.42554">
        <ele>472.06</ele>
        <time>2024-10-03T13:53:31.000Z</time>
      </trkpt>
      <trkpt lat="43.04173" lon="-0.4256">
        <ele>471.82</ele>
        <time>2024-10-03T13:53:36.000Z</time>
      </trkpt>
      <trkpt lat="43.04195" lon="-0.42568">
        <ele>471.52</ele>
        <time>2024-10-03T13:53:41.000Z</time>
      </trkpt>
      <trkpt lat="43.04218" lon="-0.42577">
        <ele>471.27</ele>
        <time>2024-10-03T13:53:46.000Z</time>
      </trkpt>
      <trkpt lat="43.04241" lon="-0.42589">
        <ele>471.09</ele>
        <time>2024-10-03T13:53:51.000Z</time>
      </trkpt>
      <trkpt lat="43.04262" lon="-0.426">
        <ele>470.91</ele>
        <time>2024-10-03T13:53:56.000Z</time>
      </trkpt>
      <trkpt lat="43.04282" lon="-0.42611">
        <ele>470.63</ele>
        <time>2024-10-03T13:54:01.000Z</time>
      </trkpt>
      <trkpt lat="43.04305" lon="-0.42624">
        <ele>470.35</ele>
        <time>2024-10-03T13:54:06.000Z</time>
      </trkpt>
      <trkpt lat="43.04329" lon="-0.42636">
        <ele>470.13</ele>
        <time>2024-10-03T13:54:11.000Z</time>
      </trkpt>
      <trkpt lat="43.04351" lon="-0.42648">
        <ele>470</ele>
        <time>2024-10-03T13:54:16.000Z</time>
      </trkpt>
      <trkpt lat="43.04371" lon="-0.42663">
        <ele>469.89</ele>
        <time>2024-10-03T13:54:21.000Z</time>
      </trkpt>
      <trkpt lat="43.0439" lon="-0.42677">
        <ele>469.81</ele>
        <time>2024-10-03T13:54:26.000Z</time>
      </trkpt>
      <trkpt lat="43.04408" lon="-0.42691">
        <ele>469.7</ele>
        <time>2024-10-03T13:54:31.000Z</time>
      </trkpt>
      <trkpt lat="43.04431" lon="-0.42707">
        <ele>469.52</ele>
        <time>2024-10-03T13:54:36.000Z</time>
      </trkpt>
      <trkpt lat="43.04452" lon="-0.42723">
        <ele>469.28</ele>
        <time>2024-10-03T13:54:41.000Z</time>
      </trkpt>
      <trkpt lat="43.04472" lon="-0.42738">
        <ele>469</ele>
        <time>2024-10-03T13:54:46.000Z</time>
      </trkpt>
      <trkpt lat="43.04492" lon="-0.42751">
        <ele>468.71</ele>
        <time>2024-10-03T13:54:51.000Z</time>
      </trkpt>
      <trkpt lat="43.0451" lon="-0.42763">
        <ele>468.4</ele>
        <time>2024-10-03T13:54:56.000Z</time>
      </trkpt>
      <trkpt lat="43.04528" lon="-0.42777">
        <ele>468.14</ele>
        <time>2024-10-03T13:55:01.000Z</time>
      </trkpt>
      <trkpt lat="43.04544" lon="-0.42791">
        <ele>468.06</ele>
        <time>2024-10-03T13:55:06.000Z</time>
      </trkpt>
      <trkpt lat="43.04559" lon="-0.42806">
        <ele>467.79</ele>
        <time>2024-10-03T13:55:11.000Z</time>
      </trkpt>
      <trkpt lat="43.04576" lon="-0.4282">
        <ele>467.6</ele>
        <time>2024-10-03T13:55:16.000Z</time>
      </trkpt>
      <trkpt lat="43.04593" lon="-0.42836">
        <ele>467.48</ele>
        <time>2024-10-03T13:55:21.000Z</time>
      </trkpt>
      <trkpt lat="43.0461" lon="-0.42852">
        <ele>467.39</ele>
        <time>2024-10-03T13:55:26.000Z</time>
      </trkpt>
      <trkpt lat="43.04628" lon="-0.42867">
        <ele>467.32</ele>
        <time>2024-10-03T13:55:31.000Z</time>
      </trkpt>
      <trkpt lat="43.04645" lon="-0.42881">
        <ele>467.26</ele>
        <time>2024-10-03T13:55:36.000Z</time>
      </trkpt>
      <trkpt lat="43.04662" lon="-0.42892">
        <ele>467.16</ele>
        <time>2024-10-03T13:55:41.000Z</time>
      </trkpt>
      <trkpt lat="43.04679" lon="-0.42904">
        <ele>467.04</ele>
        <time>2024-10-03T13:55:46.000Z</time>
      </trkpt>
      <trkpt lat="43.04698" lon="-0.42915">
        <ele>466.94</ele>
        <time>2024-10-03T13:55:51.000Z</time>
      </trkpt>
      <trkpt lat="43.04717" lon="-0.42924">
        <ele>466.82</ele>
        <time>2024-10-03T13:55:56.000Z</time>
      </trkpt>
      <trkpt lat="43.04736" lon="-0.42935">
        <ele>466.69</ele>
        <time>2024-10-03T13:56:01.000Z</time>
      </trkpt>
      <trkpt lat="43.04755" lon="-0.42943">
        <ele>466.54</ele>
        <time>2024-10-03T13:56:06.000Z</time>
      </trkpt>
      <trkpt lat="43.04774" lon="-0.4295">
        <ele>466.43</ele>
        <time>2024-10-03T13:56:11.000Z</time>
      </trkpt>
      <trkpt lat="43.04794" lon="-0.42957">
        <ele>466.34</ele>
        <time>2024-10-03T13:56:16.000Z</time>
      </trkpt>
      <trkpt lat="43.04813" lon="-0.42964">
        <ele>466.24</ele>
        <time>2024-10-03T13:56:21.000Z</time>
      </trkpt>
      <trkpt lat="43.04833" lon="-0.42971">
        <ele>466.16</ele>
        <time>2024-10-03T13:56:26.000Z</time>
      </trkpt>
      <trkpt lat="43.04854" lon="-0.42976">
        <ele>466.08</ele>
        <time>2024-10-03T13:56:31.000Z</time>
      </trkpt>
      <trkpt lat="43.04871" lon="-0.42978">
        <ele>466.04</ele>
        <time>2024-10-03T13:56:36.000Z</time>
      </trkpt>
      <trkpt lat="43.04893" lon="-0.42983">
        <ele>465.93</ele>
        <time>2024-10-03T13:56:41.000Z</time>
      </trkpt>
      <trkpt lat="43.04916" lon="-0.42989">
        <ele>465.84</ele>
        <time>2024-10-03T13:56:46.000Z</time>
      </trkpt>
      <trkpt lat="43.04938" lon="-0.42997">
        <ele>465.74</ele>
        <time>2024-10-03T13:56:51.000Z</time>
      </trkpt>
      <trkpt lat="43.0496" lon="-0.43004">
        <ele>465.59</ele>
        <time>2024-10-03T13:56:56.000Z</time>
      </trkpt>
      <trkpt lat="43.04983" lon="-0.4301">
        <ele>465.46</ele>
        <time>2024-10-03T13:57:01.000Z</time>
      </trkpt>
      <trkpt lat="43.05002" lon="-0.43016">
        <ele>465.38</ele>
        <time>2024-10-03T13:57:06.000Z</time>
      </trkpt>
      <trkpt lat="43.0502" lon="-0.43021">
        <ele>465.37</ele>
        <time>2024-10-03T13:57:11.000Z</time>
      </trkpt>
      <trkpt lat="43.05037" lon="-0.43026">
        <ele>465.36</ele>
        <time>2024-10-03T13:57:16.000Z</time>
      </trkpt>
      <trkpt lat="43.05054" lon="-0.43031">
        <ele>465.35</ele>
        <time>2024-10-03T13:57:21.000Z</time>
      </trkpt>
      <trkpt lat="43.05071" lon="-0.43035">
        <ele>465.35</ele>
        <time>2024-10-03T13:57:26.000Z</time>
      </trkpt>
      <trkpt lat="43.05087" lon="-0.43039">
        <ele>465.34</ele>
        <time>2024-10-03T13:57:31.000Z</time>
      </trkpt>
      <trkpt lat="43.05101" lon="-0.43043">
        <ele>465.35</ele>
        <time>2024-10-03T13:57:36.000Z</time>
      </trkpt>
      <trkpt lat="43.05115" lon="-0.43047">
        <ele>465.35</ele>
        <time>2024-10-03T13:57:41.000Z</time>
      </trkpt>
      <trkpt lat="43.05129" lon="-0.43051">
        <ele>465.36</ele>
        <time>2024-10-03T13:57:46.000Z</time>
      </trkpt>
      <trkpt lat="43.05143" lon="-0.43055">
        <ele>465.37</ele>
        <time>2024-10-03T13:57:51.000Z</time>
      </trkpt>
      <trkpt lat="43.05157" lon="-0.43059">
        <ele>465.38</ele>
        <time>2024-10-03T13:57:56.000Z</time>
      </trkpt>
      <trkpt lat="43.05168" lon="-0.43063">
        <ele>465.4</ele>
        <time>2024-10-03T13:58:01.000Z</time>
      </trkpt>
      <trkpt lat="43.0518" lon="-0.43065">
        <ele>465.43</ele>
        <time>2024-10-03T13:58:06.000Z</time>
      </trkpt>
      <trkpt lat="43.05193" lon="-0.43068">
        <ele>465.45</ele>
        <time>2024-10-03T13:58:11.000Z</time>
      </trkpt>
      <trkpt lat="43.05208" lon="-0.43071">
        <ele>465.48</ele>
        <time>2024-10-03T13:58:16.000Z</time>
      </trkpt>
      <trkpt lat="43.05223" lon="-0.43076">
        <ele>465.51</ele>
        <time>2024-10-03T13:58:21.000Z</time>
      </trkpt>
      <trkpt lat="43.05238" lon="-0.43081">
        <ele>465.54</ele>
        <time>2024-10-03T13:58:26.000Z</time>
      </trkpt>
      <trkpt lat="43.05251" lon="-0.43084">
        <ele>465.57</ele>
        <time>2024-10-03T13:58:31.000Z</time>
      </trkpt>
      <trkpt lat="43.05265" lon="-0.43086">
        <ele>465.6</ele>
        <time>2024-10-03T13:58:36.000Z</time>
      </trkpt>
      <trkpt lat="43.0528" lon="-0.43091">
        <ele>465.63</ele>
        <time>2024-10-03T13:58:41.000Z</time>
      </trkpt>
      <trkpt lat="43.05294" lon="-0.43095">
        <ele>465.66</ele>
        <time>2024-10-03T13:58:46.000Z</time>
      </trkpt>
      <trkpt lat="43.05309" lon="-0.43098">
        <ele>465.68</ele>
        <time>2024-10-03T13:58:51.000Z</time>
      </trkpt>
      <trkpt lat="43.05324" lon="-0.431">
        <ele>465.7</ele>
        <time>2024-10-03T13:58:56.000Z</time>
      </trkpt>
      <trkpt lat="43.05341" lon="-0.43102">
        <ele>465.72</ele>
        <time>2024-10-03T13:59:01.000Z</time>
      </trkpt>
      <trkpt lat="43.05359" lon="-0.43105">
        <ele>465.81</ele>
        <time>2024-10-03T13:59:06.000Z</time>
      </trkpt>
      <trkpt lat="43.05377" lon="-0.43109">
        <ele>465.91</ele>
        <time>2024-10-03T13:59:11.000Z</time>
      </trkpt>
      <trkpt lat="43.05395" lon="-0.43114">
        <ele>465.94</ele>
        <time>2024-10-03T13:59:16.000Z</time>
      </trkpt>
      <trkpt lat="43.05414" lon="-0.43118">
        <ele>465.98</ele>
        <time>2024-10-03T13:59:21.000Z</time>
      </trkpt>
      <trkpt lat="43.05431" lon="-0.43124">
        <ele>466</ele>
        <time>2024-10-03T13:59:26.000Z</time>
      </trkpt>
      <trkpt lat="43.05449" lon="-0.43129">
        <ele>466.07</ele>
        <time>2024-10-03T13:59:31.000Z</time>
      </trkpt>
      <trkpt lat="43.05467" lon="-0.43133">
        <ele>466.1</ele>
        <time>2024-10-03T13:59:36.000Z</time>
      </trkpt>
      <trkpt lat="43.05482" lon="-0.43136">
        <ele>466.13</ele>
        <time>2024-10-03T13:59:41.000Z</time>
      </trkpt>
      <trkpt lat="43.05497" lon="-0.43139">
        <ele>466.16</ele>
        <time>2024-10-03T13:59:46.000Z</time>
      </trkpt>
      <trkpt lat="43.05508" lon="-0.43142">
        <ele>466.2</ele>
        <time>2024-10-03T13:59:51.000Z</time>
      </trkpt>
      <trkpt lat="43.0552" lon="-0.4314">
        <ele>466.24</ele>
        <time>2024-10-03T13:59:56.000Z</time>
      </trkpt>
      <trkpt lat="43.05534" lon="-0.43132">
        <ele>466.28</ele>
        <time>2024-10-03T14:00:01.000Z</time>
      </trkpt>
      <trkpt lat="43.05551" lon="-0.43126">
        <ele>466.32</ele>
        <time>2024-10-03T14:00:06.000Z</time>
      </trkpt>
      <trkpt lat="43.05567" lon="-0.43118">
        <ele>466.38</ele>
        <time>2024-10-03T14:00:11.000Z</time>
      </trkpt>
      <trkpt lat="43.05581" lon="-0.4311">
        <ele>466.44</ele>
        <time>2024-10-03T14:00:16.000Z</time>
      </trkpt>
      <trkpt lat="43.05592" lon="-0.43103">
        <ele>466.51</ele>
        <time>2024-10-03T14:00:21.000Z</time>
      </trkpt>
      <trkpt lat="43.05609" lon="-0.43092">
        <ele>466.58</ele>
        <time>2024-10-03T14:00:26.000Z</time>
      </trkpt>
      <trkpt lat="43.05625" lon="-0.43082">
        <ele>466.64</ele>
        <time>2024-10-03T14:00:31.000Z</time>
      </trkpt>
      <trkpt lat="43.0564" lon="-0.43075">
        <ele>466.69</ele>
        <time>2024-10-03T14:00:36.000Z</time>
      </trkpt>
      <trkpt lat="43.05655" lon="-0.43066">
        <ele>466.74</ele>
        <time>2024-10-03T14:00:41.000Z</time>
      </trkpt>
      <trkpt lat="43.05668" lon="-0.43059">
        <ele>466.78</ele>
        <time>2024-10-03T14:00:46.000Z</time>
      </trkpt>
      <trkpt lat="43.05681" lon="-0.43048">
        <ele>466.82</ele>
        <time>2024-10-03T14:00:51.000Z</time>
      </trkpt>
      <trkpt lat="43.05695" lon="-0.43037">
        <ele>466.86</ele>
        <time>2024-10-03T14:00:56.000Z</time>
      </trkpt>
      <trkpt lat="43.0571" lon="-0.43023">
        <ele>466.96</ele>
        <time>2024-10-03T14:01:01.000Z</time>
      </trkpt>
      <trkpt lat="43.05728" lon="-0.43007">
        <ele>467.15</ele>
        <time>2024-10-03T14:01:06.000Z</time>
      </trkpt>
      <trkpt lat="43.05745" lon="-0.42991">
        <ele>467.19</ele>
        <time>2024-10-03T14:01:11.000Z</time>
      </trkpt>
      <trkpt lat="43.05762" lon="-0.42974">
        <ele>467.17</ele>
        <time>2024-10-03T14:01:16.000Z</time>
      </trkpt>
      <trkpt lat="43.05781" lon="-0.42957">
        <ele>467.11</ele>
        <time>2024-10-03T14:01:21.000Z</time>
      </trkpt>
      <trkpt lat="43.058" lon="-0.42938">
        <ele>467.02</ele>
        <time>2024-10-03T14:01:26.000Z</time>
      </trkpt>
      <trkpt lat="43.05825" lon="-0.42916">
        <ele>466.87</ele>
        <time>2024-10-03T14:01:31.999Z</time>
      </trkpt>
      <trkpt lat="43.05849" lon="-0.42893">
        <ele>466.7</ele>
        <time>2024-10-03T14:01:36.999Z</time>
      </trkpt>
      <trkpt lat="43.05875" lon="-0.42869">
        <ele>466.63</ele>
        <time>2024-10-03T14:01:41.999Z</time>
      </trkpt>
      <trkpt lat="43.05905" lon="-0.42842">
        <ele>466.54</ele>
        <time>2024-10-03T14:01:46.999Z</time>
      </trkpt>
      <trkpt lat="43.05936" lon="-0.42814">
        <ele>466.35</ele>
        <time>2024-10-03T14:01:51.999Z</time>
      </trkpt>
      <trkpt lat="43.05961" lon="-0.42785">
        <ele>466.24</ele>
        <time>2024-10-03T14:01:56.999Z</time>
      </trkpt>
      <trkpt lat="43.05976" lon="-0.42757">
        <ele>465.84</ele>
        <time>2024-10-03T14:02:01.999Z</time>
      </trkpt>
      <trkpt lat="43.05982" lon="-0.42737">
        <ele>465.86</ele>
        <time>2024-10-03T14:02:06.999Z</time>
      </trkpt>
      <trkpt lat="43.05981" lon="-0.42723">
        <ele>466.08</ele>
        <time>2024-10-03T14:02:13.999Z</time>
      </trkpt>
      <trkpt lat="43.05976" lon="-0.42702">
        <ele>466.29</ele>
        <time>2024-10-03T14:02:18.999Z</time>
      </trkpt>
      <trkpt lat="43.05988" lon="-0.42678">
        <ele>466.57</ele>
        <time>2024-10-03T14:02:23.999Z</time>
      </trkpt>
      <trkpt lat="43.06008" lon="-0.42689">
        <ele>466.99</ele>
        <time>2024-10-03T14:02:28.999Z</time>
      </trkpt>
      <trkpt lat="43.06012" lon="-0.42715">
        <ele>467.21</ele>
        <time>2024-10-03T14:02:33.999Z</time>
      </trkpt>
      <trkpt lat="43.06014" lon="-0.42729">
        <ele>467.13</ele>
        <time>2024-10-03T14:02:38.999Z</time>
      </trkpt>
      <trkpt lat="43.06011" lon="-0.4274">
        <ele>466.59</ele>
        <time>2024-10-03T14:03:02.999Z</time>
      </trkpt>
      <trkpt lat="43.06015" lon="-0.42729">
        <ele>464.65</ele>
        <time>2024-10-03T14:03:57.999Z</time>
      </trkpt>
      <trkpt lat="43.06026" lon="-0.42722">
        <ele>464.29</ele>
        <time>2024-10-03T14:04:02.999Z</time>
      </trkpt>
      <trkpt lat="43.06032" lon="-0.42714">
        <ele>463.74</ele>
        <time>2024-10-03T14:04:10.999Z</time>
      </trkpt>
      <trkpt lat="43.06039" lon="-0.42704">
        <ele>463.42</ele>
        <time>2024-10-03T14:04:15.999Z</time>
      </trkpt>
      <trkpt lat="43.06047" lon="-0.42694">
        <ele>463.13</ele>
        <time>2024-10-03T14:04:20.999Z</time>
      </trkpt>
      <trkpt lat="43.06057" lon="-0.42685">
        <ele>462.86</ele>
        <time>2024-10-03T14:04:25.999Z</time>
      </trkpt>
      <trkpt lat="43.06068" lon="-0.42677">
        <ele>462.61</ele>
        <time>2024-10-03T14:04:30.999Z</time>
      </trkpt>
      <trkpt lat="43.06083" lon="-0.42665">
        <ele>461.72</ele>
        <time>2024-10-03T14:04:35.999Z</time>
      </trkpt>
      <trkpt lat="43.06103" lon="-0.42648">
        <ele>460.62</ele>
        <time>2024-10-03T14:04:40.999Z</time>
      </trkpt>
      <trkpt lat="43.06128" lon="-0.42643">
        <ele>460.18</ele>
        <time>2024-10-03T14:04:45.999Z</time>
      </trkpt>
      <trkpt lat="43.06152" lon="-0.42635">
        <ele>459.88</ele>
        <time>2024-10-03T14:04:50.999Z</time>
      </trkpt>
      <trkpt lat="43.06177" lon="-0.42627">
        <ele>459.65</ele>
        <time>2024-10-03T14:04:55.999Z</time>
      </trkpt>
      <trkpt lat="43.06199" lon="-0.42618">
        <ele>459.46</ele>
        <time>2024-10-03T14:05:00.999Z</time>
      </trkpt>
      <trkpt lat="43.0622" lon="-0.42609">
        <ele>459.24</ele>
        <time>2024-10-03T14:05:05.999Z</time>
      </trkpt>
      <trkpt lat="43.06241" lon="-0.42597">
        <ele>459.02</ele>
        <time>2024-10-03T14:05:10.999Z</time>
      </trkpt>
      <trkpt lat="43.06261" lon="-0.42585">
        <ele>458.77</ele>
        <time>2024-10-03T14:05:15.999Z</time>
      </trkpt>
      <trkpt lat="43.06281" lon="-0.42574">
        <ele>458.53</ele>
        <time>2024-10-03T14:05:20.999Z</time>
      </trkpt>
      <trkpt lat="43.06299" lon="-0.42562">
        <ele>458.37</ele>
        <time>2024-10-03T14:05:25.999Z</time>
      </trkpt>
      <trkpt lat="43.06317" lon="-0.42551">
        <ele>458.2</ele>
        <time>2024-10-03T14:05:30.999Z</time>
      </trkpt>
      <trkpt lat="43.06334" lon="-0.42541">
        <ele>458.18</ele>
        <time>2024-10-03T14:05:35.999Z</time>
      </trkpt>
      <trkpt lat="43.0635" lon="-0.42532">
        <ele>458.13</ele>
        <time>2024-10-03T14:05:40.999Z</time>
      </trkpt>
      <trkpt lat="43.06363" lon="-0.42525">
        <ele>458.04</ele>
        <time>2024-10-03T14:05:45.999Z</time>
      </trkpt>
      <trkpt lat="43.06378" lon="-0.42515">
        <ele>457.94</ele>
        <time>2024-10-03T14:05:50.999Z</time>
      </trkpt>
      <trkpt lat="43.06392" lon="-0.42507">
        <ele>457.8</ele>
        <time>2024-10-03T14:05:55.999Z</time>
      </trkpt>
      <trkpt lat="43.06406" lon="-0.425">
        <ele>457.65</ele>
        <time>2024-10-03T14:06:00.999Z</time>
      </trkpt>
      <trkpt lat="43.06421" lon="-0.42492">
        <ele>457.48</ele>
        <time>2024-10-03T14:06:05.999Z</time>
      </trkpt>
      <trkpt lat="43.06437" lon="-0.42485">
        <ele>457.29</ele>
        <time>2024-10-03T14:06:10.999Z</time>
      </trkpt>
      <trkpt lat="43.06454" lon="-0.42479">
        <ele>457.11</ele>
        <time>2024-10-03T14:06:15.999Z</time>
      </trkpt>
      <trkpt lat="43.0647" lon="-0.42474">
        <ele>456.92</ele>
        <time>2024-10-03T14:06:20.999Z</time>
      </trkpt>
      <trkpt lat="43.06486" lon="-0.4247">
        <ele>456.74</ele>
        <time>2024-10-03T14:06:25.999Z</time>
      </trkpt>
      <trkpt lat="43.06502" lon="-0.42467">
        <ele>456.56</ele>
        <time>2024-10-03T14:06:30.999Z</time>
      </trkpt>
      <trkpt lat="43.06522" lon="-0.42463">
        <ele>455.44</ele>
        <time>2024-10-03T14:06:35.999Z</time>
      </trkpt>
      <trkpt lat="43.06543" lon="-0.42458">
        <ele>455.07</ele>
        <time>2024-10-03T14:06:40.999Z</time>
      </trkpt>
      <trkpt lat="43.06562" lon="-0.42454">
        <ele>455</ele>
        <time>2024-10-03T14:06:45.999Z</time>
      </trkpt>
      <trkpt lat="43.0658" lon="-0.42451">
        <ele>454.97</ele>
        <time>2024-10-03T14:06:50.999Z</time>
      </trkpt>
      <trkpt lat="43.06598" lon="-0.42447">
        <ele>454.96</ele>
        <time>2024-10-03T14:06:55.999Z</time>
      </trkpt>
      <trkpt lat="43.06615" lon="-0.42443">
        <ele>454.96</ele>
        <time>2024-10-03T14:07:00.999Z</time>
      </trkpt>
      <trkpt lat="43.06632" lon="-0.42439">
        <ele>454.97</ele>
        <time>2024-10-03T14:07:05.999Z</time>
      </trkpt>
      <trkpt lat="43.06648" lon="-0.42435">
        <ele>454.99</ele>
        <time>2024-10-03T14:07:10.999Z</time>
      </trkpt>
      <trkpt lat="43.06666" lon="-0.42431">
        <ele>455.02</ele>
        <time>2024-10-03T14:07:15.999Z</time>
      </trkpt>
      <trkpt lat="43.06683" lon="-0.42427">
        <ele>455.06</ele>
        <time>2024-10-03T14:07:20.999Z</time>
      </trkpt>
      <trkpt lat="43.067" lon="-0.42423">
        <ele>455.1</ele>
        <time>2024-10-03T14:07:25.999Z</time>
      </trkpt>
      <trkpt lat="43.06716" lon="-0.42419">
        <ele>455.15</ele>
        <time>2024-10-03T14:07:30.999Z</time>
      </trkpt>
      <trkpt lat="43.06733" lon="-0.42415">
        <ele>455.2</ele>
        <time>2024-10-03T14:07:35.999Z</time>
      </trkpt>
      <trkpt lat="43.06751" lon="-0.42411">
        <ele>455.25</ele>
        <time>2024-10-03T14:07:40.999Z</time>
      </trkpt>
      <trkpt lat="43.06769" lon="-0.42408">
        <ele>455.36</ele>
        <time>2024-10-03T14:07:45.999Z</time>
      </trkpt>
      <trkpt lat="43.0679" lon="-0.42403">
        <ele>455.62</ele>
        <time>2024-10-03T14:07:50.999Z</time>
      </trkpt>
      <trkpt lat="43.06813" lon="-0.42397">
        <ele>455.74</ele>
        <time>2024-10-03T14:07:55.999Z</time>
      </trkpt>
      <trkpt lat="43.06838" lon="-0.42392">
        <ele>455.8</ele>
        <time>2024-10-03T14:08:00.999Z</time>
      </trkpt>
      <trkpt lat="43.06862" lon="-0.42387">
        <ele>455.78</ele>
        <time>2024-10-03T14:08:05.999Z</time>
      </trkpt>
      <trkpt lat="43.06883" lon="-0.42382">
        <ele>455.74</ele>
        <time>2024-10-03T14:08:10.999Z</time>
      </trkpt>
      <trkpt lat="43.06904" lon="-0.42378">
        <ele>455.7</ele>
        <time>2024-10-03T14:08:15.999Z</time>
      </trkpt>
      <trkpt lat="43.06925" lon="-0.42374">
        <ele>455.69</ele>
        <time>2024-10-03T14:08:20.999Z</time>
      </trkpt>
      <trkpt lat="43.06948" lon="-0.42368">
        <ele>455.65</ele>
        <time>2024-10-03T14:08:25.999Z</time>
      </trkpt>
      <trkpt lat="43.0697" lon="-0.42361">
        <ele>455.63</ele>
        <time>2024-10-03T14:08:30.999Z</time>
      </trkpt>
      <trkpt lat="43.06991" lon="-0.42354">
        <ele>455.61</ele>
        <time>2024-10-03T14:08:35.999Z</time>
      </trkpt>
      <trkpt lat="43.07013" lon="-0.42345">
        <ele>455.6</ele>
        <time>2024-10-03T14:08:40.999Z</time>
      </trkpt>
      <trkpt lat="43.07035" lon="-0.42332">
        <ele>455.59</ele>
        <time>2024-10-03T14:08:45.999Z</time>
      </trkpt>
      <trkpt lat="43.07055" lon="-0.42319">
        <ele>455.55</ele>
        <time>2024-10-03T14:08:50.999Z</time>
      </trkpt>
      <trkpt lat="43.07075" lon="-0.42304">
        <ele>455.5</ele>
        <time>2024-10-03T14:08:55.999Z</time>
      </trkpt>
      <trkpt lat="43.07094" lon="-0.42289">
        <ele>455.49</ele>
        <time>2024-10-03T14:09:00.999Z</time>
      </trkpt>
      <trkpt lat="43.07112" lon="-0.42275">
        <ele>455.48</ele>
        <time>2024-10-03T14:09:05.999Z</time>
      </trkpt>
      <trkpt lat="43.07129" lon="-0.42257">
        <ele>455.45</ele>
        <time>2024-10-03T14:09:10.999Z</time>
      </trkpt>
      <trkpt lat="43.07148" lon="-0.42239">
        <ele>455.37</ele>
        <time>2024-10-03T14:09:15.999Z</time>
      </trkpt>
      <trkpt lat="43.07166" lon="-0.42223">
        <ele>455.27</ele>
        <time>2024-10-03T14:09:20.999Z</time>
      </trkpt>
      <trkpt lat="43.07183" lon="-0.42209">
        <ele>455.15</ele>
        <time>2024-10-03T14:09:25.999Z</time>
      </trkpt>
      <trkpt lat="43.07203" lon="-0.42193">
        <ele>455.05</ele>
        <time>2024-10-03T14:09:30.999Z</time>
      </trkpt>
      <trkpt lat="43.07223" lon="-0.42176">
        <ele>454.95</ele>
        <time>2024-10-03T14:09:35.999Z</time>
      </trkpt>
      <trkpt lat="43.07245" lon="-0.42161">
        <ele>454.85</ele>
        <time>2024-10-03T14:09:40.999Z</time>
      </trkpt>
      <trkpt lat="43.07266" lon="-0.42147">
        <ele>454.78</ele>
        <time>2024-10-03T14:09:45.999Z</time>
      </trkpt>
      <trkpt lat="43.07289" lon="-0.42137">
        <ele>454.72</ele>
        <time>2024-10-03T14:09:50.999Z</time>
      </trkpt>
      <trkpt lat="43.07311" lon="-0.4213">
        <ele>454.64</ele>
        <time>2024-10-03T14:09:55.999Z</time>
      </trkpt>
      <trkpt lat="43.07333" lon="-0.42127">
        <ele>454.55</ele>
        <time>2024-10-03T14:10:00.999Z</time>
      </trkpt>
      <trkpt lat="43.07354" lon="-0.42124">
        <ele>454.39</ele>
        <time>2024-10-03T14:10:05.999Z</time>
      </trkpt>
      <trkpt lat="43.07375" lon="-0.42123">
        <ele>454.23</ele>
        <time>2024-10-03T14:10:10.999Z</time>
      </trkpt>
      <trkpt lat="43.07398" lon="-0.42125">
        <ele>454.08</ele>
        <time>2024-10-03T14:10:15.999Z</time>
      </trkpt>
      <trkpt lat="43.07422" lon="-0.4213">
        <ele>453.94</ele>
        <time>2024-10-03T14:10:20.999Z</time>
      </trkpt>
      <trkpt lat="43.07447" lon="-0.42134">
        <ele>453.79</ele>
        <time>2024-10-03T14:10:25.999Z</time>
      </trkpt>
      <trkpt lat="43.07471" lon="-0.4214">
        <ele>453.62</ele>
        <time>2024-10-03T14:10:30.999Z</time>
      </trkpt>
      <trkpt lat="43.07497" lon="-0.42147">
        <ele>453.42</ele>
        <time>2024-10-03T14:10:35.999Z</time>
      </trkpt>
      <trkpt lat="43.07524" lon="-0.42152">
        <ele>453.23</ele>
        <time>2024-10-03T14:10:40.999Z</time>
      </trkpt>
      <trkpt lat="43.07549" lon="-0.42159">
        <ele>453.03</ele>
        <time>2024-10-03T14:10:45.999Z</time>
      </trkpt>
      <trkpt lat="43.07574" lon="-0.42162">
        <ele>452.89</ele>
        <time>2024-10-03T14:10:50.999Z</time>
      </trkpt>
      <trkpt lat="43.076" lon="-0.42167">
        <ele>452.78</ele>
        <time>2024-10-03T14:10:55.999Z</time>
      </trkpt>
      <trkpt lat="43.07626" lon="-0.4217">
        <ele>452.64</ele>
        <time>2024-10-03T14:11:00.999Z</time>
      </trkpt>
      <trkpt lat="43.07652" lon="-0.4217">
        <ele>452.51</ele>
        <time>2024-10-03T14:11:05.999Z</time>
      </trkpt>
      <trkpt lat="43.07677" lon="-0.42169">
        <ele>452.38</ele>
        <time>2024-10-03T14:11:10.999Z</time>
      </trkpt>
      <trkpt lat="43.07703" lon="-0.42166">
        <ele>452.25</ele>
        <time>2024-10-03T14:11:15.999Z</time>
      </trkpt>
      <trkpt lat="43.07729" lon="-0.42163">
        <ele>452.14</ele>
        <time>2024-10-03T14:11:20.999Z</time>
      </trkpt>
      <trkpt lat="43.07756" lon="-0.4216">
        <ele>452.04</ele>
        <time>2024-10-03T14:11:25.999Z</time>
      </trkpt>
      <trkpt lat="43.07781" lon="-0.42157">
        <ele>451.92</ele>
        <time>2024-10-03T14:11:30.999Z</time>
      </trkpt>
      <trkpt lat="43.07807" lon="-0.42155">
        <ele>451.8</ele>
        <time>2024-10-03T14:11:35.999Z</time>
      </trkpt>
      <trkpt lat="43.07835" lon="-0.42152">
        <ele>451.67</ele>
        <time>2024-10-03T14:11:40.999Z</time>
      </trkpt>
      <trkpt lat="43.0786" lon="-0.42149">
        <ele>451.53</ele>
        <time>2024-10-03T14:11:45.999Z</time>
      </trkpt>
      <trkpt lat="43.07887" lon="-0.42146">
        <ele>451.38</ele>
        <time>2024-10-03T14:11:50.999Z</time>
      </trkpt>
      <trkpt lat="43.07914" lon="-0.42146">
        <ele>451.14</ele>
        <time>2024-10-03T14:11:55.999Z</time>
      </trkpt>
      <trkpt lat="43.07936" lon="-0.42145">
        <ele>450.98</ele>
        <time>2024-10-03T14:12:00.999Z</time>
      </trkpt>
      <trkpt lat="43.07953" lon="-0.42144">
        <ele>450.95</ele>
        <time>2024-10-03T14:12:05.999Z</time>
      </trkpt>
      <trkpt lat="43.07967" lon="-0.42141">
        <ele>450.91</ele>
        <time>2024-10-03T14:12:10.999Z</time>
      </trkpt>
      <trkpt lat="43.07979" lon="-0.42149">
        <ele>450.85</ele>
        <time>2024-10-03T14:12:15.999Z</time>
      </trkpt>
      <trkpt lat="43.07982" lon="-0.42129">
        <ele>450.66</ele>
        <time>2024-10-03T14:12:20.999Z</time>
      </trkpt>
      <trkpt lat="43.0798" lon="-0.42101">
        <ele>450.29</ele>
        <time>2024-10-03T14:12:25.999Z</time>
      </trkpt>
      <trkpt lat="43.07977" lon="-0.42074">
        <ele>450.11</ele>
        <time>2024-10-03T14:12:30.999Z</time>
      </trkpt>
      <trkpt lat="43.07999" lon="-0.42059">
        <ele>449.96</ele>
        <time>2024-10-03T14:12:35.999Z</time>
      </trkpt>
      <trkpt lat="43.08025" lon="-0.4205">
        <ele>449.82</ele>
        <time>2024-10-03T14:12:40.999Z</time>
      </trkpt>
      <trkpt lat="43.08052" lon="-0.4204">
        <ele>449.69</ele>
        <time>2024-10-03T14:12:45.999Z</time>
      </trkpt>
      <trkpt lat="43.08077" lon="-0.42031">
        <ele>449.59</ele>
        <time>2024-10-03T14:12:50.999Z</time>
      </trkpt>
      <trkpt lat="43.08102" lon="-0.42022">
        <ele>449.48</ele>
        <time>2024-10-03T14:12:55.999Z</time>
      </trkpt>
      <trkpt lat="43.08128" lon="-0.42014">
        <ele>449.32</ele>
        <time>2024-10-03T14:13:00.999Z</time>
      </trkpt>
      <trkpt lat="43.08152" lon="-0.42013">
        <ele>449.08</ele>
        <time>2024-10-03T14:13:05.999Z</time>
      </trkpt>
      <trkpt lat="43.08183" lon="-0.42015">
        <ele>448.82</ele>
        <time>2024-10-03T14:13:10.999Z</time>
      </trkpt>
      <trkpt lat="43.08215" lon="-0.42025">
        <ele>448.63</ele>
        <time>2024-10-03T14:13:15.999Z</time>
      </trkpt>
      <trkpt lat="43.08243" lon="-0.4204">
        <ele>448.44</ele>
        <time>2024-10-03T14:13:20.999Z</time>
      </trkpt>
      <trkpt lat="43.08268" lon="-0.42057">
        <ele>448.21</ele>
        <time>2024-10-03T14:13:25.999Z</time>
      </trkpt>
      <trkpt lat="43.08292" lon="-0.42071">
        <ele>447.94</ele>
        <time>2024-10-03T14:13:30.999Z</time>
      </trkpt>
      <trkpt lat="43.08318" lon="-0.42088">
        <ele>447.64</ele>
        <time>2024-10-03T14:13:35.999Z</time>
      </trkpt>
      <trkpt lat="43.08343" lon="-0.42106">
        <ele>447.36</ele>
        <time>2024-10-03T14:13:40.999Z</time>
      </trkpt>
      <trkpt lat="43.08367" lon="-0.42121">
        <ele>447.16</ele>
        <time>2024-10-03T14:13:45.999Z</time>
      </trkpt>
      <trkpt lat="43.0839" lon="-0.42137">
        <ele>447.03</ele>
        <time>2024-10-03T14:13:51.000Z</time>
      </trkpt>
      <trkpt lat="43.08413" lon="-0.42148">
        <ele>446.8</ele>
        <time>2024-10-03T14:13:56.000Z</time>
      </trkpt>
      <trkpt lat="43.08436" lon="-0.42155">
        <ele>446.58</ele>
        <time>2024-10-03T14:14:01.000Z</time>
      </trkpt>
      <trkpt lat="43.08462" lon="-0.42162">
        <ele>446.34</ele>
        <time>2024-10-03T14:14:06.000Z</time>
      </trkpt>
      <trkpt lat="43.08487" lon="-0.42171">
        <ele>446.11</ele>
        <time>2024-10-03T14:14:11.000Z</time>
      </trkpt>
      <trkpt lat="43.0851" lon="-0.42182">
        <ele>445.93</ele>
        <time>2024-10-03T14:14:16.000Z</time>
      </trkpt>
      <trkpt lat="43.08533" lon="-0.42196">
        <ele>445.74</ele>
        <time>2024-10-03T14:14:21.000Z</time>
      </trkpt>
      <trkpt lat="43.08557" lon="-0.42207">
        <ele>445.57</ele>
        <time>2024-10-03T14:14:26.000Z</time>
      </trkpt>
      <trkpt lat="43.08582" lon="-0.42203">
        <ele>445.26</ele>
        <time>2024-10-03T14:14:31.000Z</time>
      </trkpt>
      <trkpt lat="43.08597" lon="-0.4218">
        <ele>444.93</ele>
        <time>2024-10-03T14:14:36.000Z</time>
      </trkpt>
      <trkpt lat="43.08609" lon="-0.42156">
        <ele>444.68</ele>
        <time>2024-10-03T14:14:41.000Z</time>
      </trkpt>
      <trkpt lat="43.08622" lon="-0.4213">
        <ele>444.52</ele>
        <time>2024-10-03T14:14:46.000Z</time>
      </trkpt>
      <trkpt lat="43.0864" lon="-0.42104">
        <ele>444.47</ele>
        <time>2024-10-03T14:14:51.000Z</time>
      </trkpt>
      <trkpt lat="43.08666" lon="-0.42091">
        <ele>444.43</ele>
        <time>2024-10-03T14:14:56.000Z</time>
      </trkpt>
      <trkpt lat="43.08688" lon="-0.42082">
        <ele>444.19</ele>
        <time>2024-10-03T14:15:01.000Z</time>
      </trkpt>
      <trkpt lat="43.08713" lon="-0.42071">
        <ele>443.96</ele>
        <time>2024-10-03T14:15:06.000Z</time>
      </trkpt>
      <trkpt lat="43.0874" lon="-0.42057">
        <ele>443.83</ele>
        <time>2024-10-03T14:15:11.000Z</time>
      </trkpt>
      <trkpt lat="43.08765" lon="-0.42044">
        <ele>443.73</ele>
        <time>2024-10-03T14:15:16.000Z</time>
      </trkpt>
      <trkpt lat="43.08788" lon="-0.42033">
        <ele>443.61</ele>
        <time>2024-10-03T14:15:21.000Z</time>
      </trkpt>
      <trkpt lat="43.08814" lon="-0.4202">
        <ele>443.45</ele>
        <time>2024-10-03T14:15:26.000Z</time>
      </trkpt>
      <trkpt lat="43.08839" lon="-0.42007">
        <ele>443.34</ele>
        <time>2024-10-03T14:15:31.000Z</time>
      </trkpt>
      <trkpt lat="43.08866" lon="-0.41994">
        <ele>443.21</ele>
        <time>2024-10-03T14:15:36.000Z</time>
      </trkpt>
      <trkpt lat="43.08891" lon="-0.41983">
        <ele>443.03</ele>
        <time>2024-10-03T14:15:41.000Z</time>
      </trkpt>
      <trkpt lat="43.08916" lon="-0.4197">
        <ele>442.8</ele>
        <time>2024-10-03T14:15:46.000Z</time>
      </trkpt>
      <trkpt lat="43.08943" lon="-0.41959">
        <ele>442.58</ele>
        <time>2024-10-03T14:15:51.000Z</time>
      </trkpt>
      <trkpt lat="43.0897" lon="-0.41954">
        <ele>442.42</ele>
        <time>2024-10-03T14:15:56.000Z</time>
      </trkpt>
      <trkpt lat="43.08998" lon="-0.41952">
        <ele>442.27</ele>
        <time>2024-10-03T14:16:01.000Z</time>
      </trkpt>
      <trkpt lat="43.09024" lon="-0.4195">
        <ele>442.09</ele>
        <time>2024-10-03T14:16:06.000Z</time>
      </trkpt>
      <trkpt lat="43.09051" lon="-0.41947">
        <ele>441.85</ele>
        <time>2024-10-03T14:16:11.000Z</time>
      </trkpt>
      <trkpt lat="43.09082" lon="-0.41944">
        <ele>441.67</ele>
        <time>2024-10-03T14:16:16.000Z</time>
      </trkpt>
      <trkpt lat="43.09112" lon="-0.41938">
        <ele>441.47</ele>
        <time>2024-10-03T14:16:21.000Z</time>
      </trkpt>
      <trkpt lat="43.09142" lon="-0.41935">
        <ele>441.22</ele>
        <time>2024-10-03T14:16:26.000Z</time>
      </trkpt>
      <trkpt lat="43.09172" lon="-0.41932">
        <ele>440.97</ele>
        <time>2024-10-03T14:16:31.000Z</time>
      </trkpt>
      <trkpt lat="43.09201" lon="-0.41928">
        <ele>440.75</ele>
        <time>2024-10-03T14:16:36.000Z</time>
      </trkpt>
      <trkpt lat="43.09227" lon="-0.41925">
        <ele>440.6</ele>
        <time>2024-10-03T14:16:41.000Z</time>
      </trkpt>
      <trkpt lat="43.09254" lon="-0.41921">
        <ele>440.5</ele>
        <time>2024-10-03T14:16:46.000Z</time>
      </trkpt>
      <trkpt lat="43.0928" lon="-0.41918">
        <ele>440.39</ele>
        <time>2024-10-03T14:16:51.000Z</time>
      </trkpt>
      <trkpt lat="43.09309" lon="-0.41913">
        <ele>440.26</ele>
        <time>2024-10-03T14:16:56.000Z</time>
      </trkpt>
      <trkpt lat="43.09336" lon="-0.4191">
        <ele>440.16</ele>
        <time>2024-10-03T14:17:01.000Z</time>
      </trkpt>
      <trkpt lat="43.09363" lon="-0.41906">
        <ele>440.08</ele>
        <time>2024-10-03T14:17:06.000Z</time>
      </trkpt>
      <trkpt lat="43.09389" lon="-0.41902">
        <ele>439.93</ele>
        <time>2024-10-03T14:17:11.000Z</time>
      </trkpt>
      <trkpt lat="43.09416" lon="-0.41897">
        <ele>439.85</ele>
        <time>2024-10-03T14:17:16.000Z</time>
      </trkpt>
      <trkpt lat="43.09442" lon="-0.4189">
        <ele>439.75</ele>
        <time>2024-10-03T14:17:21.000Z</time>
      </trkpt>
      <trkpt lat="43.09472" lon="-0.41876">
        <ele>439.64</ele>
        <time>2024-10-03T14:17:27.000Z</time>
      </trkpt>
      <trkpt lat="43.09499" lon="-0.4186">
        <ele>439.44</ele>
        <time>2024-10-03T14:17:32.000Z</time>
      </trkpt>
      <trkpt lat="43.09525" lon="-0.41841">
        <ele>439.3</ele>
        <time>2024-10-03T14:17:37.000Z</time>
      </trkpt>
      <trkpt lat="43.0955" lon="-0.41821">
        <ele>439.17</ele>
        <time>2024-10-03T14:17:42.000Z</time>
      </trkpt>
      <trkpt lat="43.09576" lon="-0.418">
        <ele>439.06</ele>
        <time>2024-10-03T14:17:47.000Z</time>
      </trkpt>
      <trkpt lat="43.09599" lon="-0.41781">
        <ele>438.96</ele>
        <time>2024-10-03T14:17:52.000Z</time>
      </trkpt>
      <trkpt lat="43.09625" lon="-0.41761">
        <ele>438.84</ele>
        <time>2024-10-03T14:17:57.000Z</time>
      </trkpt>
      <trkpt lat="43.0965" lon="-0.4174">
        <ele>438.75</ele>
        <time>2024-10-03T14:18:02.000Z</time>
      </trkpt>
      <trkpt lat="43.09674" lon="-0.41721">
        <ele>438.66</ele>
        <time>2024-10-03T14:18:07.000Z</time>
      </trkpt>
      <trkpt lat="43.09699" lon="-0.41701">
        <ele>438.54</ele>
        <time>2024-10-03T14:18:12.000Z</time>
      </trkpt>
      <trkpt lat="43.09723" lon="-0.41682">
        <ele>438.43</ele>
        <time>2024-10-03T14:18:17.000Z</time>
      </trkpt>
      <trkpt lat="43.09748" lon="-0.41662">
        <ele>438.34</ele>
        <time>2024-10-03T14:18:22.000Z</time>
      </trkpt>
      <trkpt lat="43.09772" lon="-0.41642">
        <ele>438.25</ele>
        <time>2024-10-03T14:18:27.000Z</time>
      </trkpt>
      <trkpt lat="43.09798" lon="-0.41621">
        <ele>438.17</ele>
        <time>2024-10-03T14:18:32.000Z</time>
      </trkpt>
      <trkpt lat="43.09822" lon="-0.41602">
        <ele>438.08</ele>
        <time>2024-10-03T14:18:37.000Z</time>
      </trkpt>
      <trkpt lat="43.09847" lon="-0.41581">
        <ele>437.98</ele>
        <time>2024-10-03T14:18:42.000Z</time>
      </trkpt>
      <trkpt lat="43.09872" lon="-0.41562">
        <ele>437.88</ele>
        <time>2024-10-03T14:18:47.000Z</time>
      </trkpt>
      <trkpt lat="43.09899" lon="-0.4154">
        <ele>437.77</ele>
        <time>2024-10-03T14:18:52.000Z</time>
      </trkpt>
      <trkpt lat="43.09927" lon="-0.4152">
        <ele>437.6</ele>
        <time>2024-10-03T14:18:57.000Z</time>
      </trkpt>
      <trkpt lat="43.09955" lon="-0.41499">
        <ele>437.41</ele>
        <time>2024-10-03T14:19:02.000Z</time>
      </trkpt>
      <trkpt lat="43.09981" lon="-0.41477">
        <ele>437.19</ele>
        <time>2024-10-03T14:19:07.000Z</time>
      </trkpt>
      <trkpt lat="43.10009" lon="-0.41457">
        <ele>436.97</ele>
        <time>2024-10-03T14:19:12.000Z</time>
      </trkpt>
      <trkpt lat="43.10034" lon="-0.41442">
        <ele>436.76</ele>
        <time>2024-10-03T14:19:17.000Z</time>
      </trkpt>
      <trkpt lat="43.10058" lon="-0.41435">
        <ele>436.54</ele>
        <time>2024-10-03T14:19:22.000Z</time>
      </trkpt>
      <trkpt lat="43.10082" lon="-0.41431">
        <ele>436.19</ele>
        <time>2024-10-03T14:19:27.000Z</time>
      </trkpt>
      <trkpt lat="43.1011" lon="-0.41434">
        <ele>435.84</ele>
        <time>2024-10-03T14:19:32.000Z</time>
      </trkpt>
      <trkpt lat="43.10141" lon="-0.41438">
        <ele>435.6</ele>
        <time>2024-10-03T14:19:37.000Z</time>
      </trkpt>
      <trkpt lat="43.10168" lon="-0.4145">
        <ele>435.7</ele>
        <time>2024-10-03T14:19:42.000Z</time>
      </trkpt>
      <trkpt lat="43.10193" lon="-0.41463">
        <ele>435.38</ele>
        <time>2024-10-03T14:19:47.000Z</time>
      </trkpt>
      <trkpt lat="43.10216" lon="-0.41478">
        <ele>434.93</ele>
        <time>2024-10-03T14:19:52.000Z</time>
      </trkpt>
      <trkpt lat="43.1024" lon="-0.41493">
        <ele>434.86</ele>
        <time>2024-10-03T14:19:57.000Z</time>
      </trkpt>
      <trkpt lat="43.10263" lon="-0.41509">
        <ele>434.39</ele>
        <time>2024-10-03T14:20:02.000Z</time>
      </trkpt>
      <trkpt lat="43.10288" lon="-0.41525">
        <ele>433.56</ele>
        <time>2024-10-03T14:20:07.000Z</time>
      </trkpt>
      <trkpt lat="43.10314" lon="-0.4154">
        <ele>432.6</ele>
        <time>2024-10-03T14:20:12.000Z</time>
      </trkpt>
      <trkpt lat="43.10343" lon="-0.41546">
        <ele>431.59</ele>
        <time>2024-10-03T14:20:17.000Z</time>
      </trkpt>
      <trkpt lat="43.10367" lon="-0.41537">
        <ele>430.99</ele>
        <time>2024-10-03T14:20:22.000Z</time>
      </trkpt>
      <trkpt lat="43.10379" lon="-0.41525">
        <ele>430.94</ele>
        <time>2024-10-03T14:20:27.000Z</time>
      </trkpt>
      <trkpt lat="43.10385" lon="-0.41514">
        <ele>430.94</ele>
        <time>2024-10-03T14:20:32.000Z</time>
      </trkpt>
      <trkpt lat="43.1039" lon="-0.41502">
        <ele>431.02</ele>
        <time>2024-10-03T14:20:38.000Z</time>
      </trkpt>
      <trkpt lat="43.10392" lon="-0.4149">
        <ele>431.11</ele>
        <time>2024-10-03T14:20:44.000Z</time>
      </trkpt>
      <trkpt lat="43.10394" lon="-0.41477">
        <ele>431.22</ele>
        <time>2024-10-03T14:20:50.000Z</time>
      </trkpt>
      <trkpt lat="43.10394" lon="-0.41464">
        <ele>431.31</ele>
        <time>2024-10-03T14:20:57.000Z</time>
      </trkpt>
      <trkpt lat="43.10395" lon="-0.41451">
        <ele>431.36</ele>
        <time>2024-10-03T14:21:04.000Z</time>
      </trkpt>
      <trkpt lat="43.10397" lon="-0.41438">
        <ele>431.37</ele>
        <time>2024-10-03T14:21:10.000Z</time>
      </trkpt>
      <trkpt lat="43.104" lon="-0.41424">
        <ele>431.34</ele>
        <time>2024-10-03T14:21:16.000Z</time>
      </trkpt>
      <trkpt lat="43.10405" lon="-0.41412">
        <ele>431.31</ele>
        <time>2024-10-03T14:21:22.000Z</time>
      </trkpt>
      <trkpt lat="43.10411" lon="-0.414">
        <ele>431.29</ele>
        <time>2024-10-03T14:21:28.000Z</time>
      </trkpt>
      <trkpt lat="43.10417" lon="-0.4139">
        <ele>431.27</ele>
        <time>2024-10-03T14:21:34.000Z</time>
      </trkpt>
      <trkpt lat="43.10424" lon="-0.41383">
        <ele>431.27</ele>
        <time>2024-10-03T14:21:41.000Z</time>
      </trkpt>
      <trkpt lat="43.10431" lon="-0.41375">
        <ele>431.28</ele>
        <time>2024-10-03T14:21:47.000Z</time>
      </trkpt>
      <trkpt lat="43.10441" lon="-0.41369">
        <ele>431.31</ele>
        <time>2024-10-03T14:21:54.000Z</time>
      </trkpt>
      <trkpt lat="43.10451" lon="-0.41363">
        <ele>431.35</ele>
        <time>2024-10-03T14:21:59.000Z</time>
      </trkpt>
      <trkpt lat="43.10463" lon="-0.41355">
        <ele>431.41</ele>
        <time>2024-10-03T14:22:04.000Z</time>
      </trkpt>
      <trkpt lat="43.10476" lon="-0.41347">
        <ele>431.49</ele>
        <time>2024-10-03T14:22:09.000Z</time>
      </trkpt>
      <trkpt lat="43.10488" lon="-0.41338">
        <ele>431.58</ele>
        <time>2024-10-03T14:22:14.000Z</time>
      </trkpt>
      <trkpt lat="43.10503" lon="-0.41331">
        <ele>431.67</ele>
        <time>2024-10-03T14:22:19.000Z</time>
      </trkpt>
      <trkpt lat="43.10517" lon="-0.41325">
        <ele>431.77</ele>
        <time>2024-10-03T14:22:24.000Z</time>
      </trkpt>
      <trkpt lat="43.10532" lon="-0.41322">
        <ele>431.87</ele>
        <time>2024-10-03T14:22:29.000Z</time>
      </trkpt>
      <trkpt lat="43.10544" lon="-0.41323">
        <ele>431.99</ele>
        <time>2024-10-03T14:22:34.000Z</time>
      </trkpt>
      <trkpt lat="43.10557" lon="-0.41324">
        <ele>432.12</ele>
        <time>2024-10-03T14:22:39.000Z</time>
      </trkpt>
      <trkpt lat="43.10571" lon="-0.41326">
        <ele>432.28</ele>
        <time>2024-10-03T14:22:44.000Z</time>
      </trkpt>
      <trkpt lat="43.10583" lon="-0.41329">
        <ele>432.47</ele>
        <time>2024-10-03T14:22:49.000Z</time>
      </trkpt>
      <trkpt lat="43.10596" lon="-0.41331">
        <ele>432.68</ele>
        <time>2024-10-03T14:22:54.000Z</time>
      </trkpt>
      <trkpt lat="43.10607" lon="-0.41333">
        <ele>432.92</ele>
        <time>2024-10-03T14:22:59.000Z</time>
      </trkpt>
      <trkpt lat="43.10618" lon="-0.41332">
        <ele>433.17</ele>
        <time>2024-10-03T14:23:04.000Z</time>
      </trkpt>
      <trkpt lat="43.10628" lon="-0.4133">
        <ele>433.42</ele>
        <time>2024-10-03T14:23:09.000Z</time>
      </trkpt>
      <trkpt lat="43.10637" lon="-0.41326">
        <ele>433.67</ele>
        <time>2024-10-03T14:23:14.000Z</time>
      </trkpt>
      <trkpt lat="43.10646" lon="-0.41321">
        <ele>433.92</ele>
        <time>2024-10-03T14:23:19.000Z</time>
      </trkpt>
      <trkpt lat="43.10655" lon="-0.41313">
        <ele>434.23</ele>
        <time>2024-10-03T14:23:25.000Z</time>
      </trkpt>
      <trkpt lat="43.10662" lon="-0.41305">
        <ele>434.61</ele>
        <time>2024-10-03T14:23:32.000Z</time>
      </trkpt>
      <trkpt lat="43.10669" lon="-0.41296">
        <ele>434.94</ele>
        <time>2024-10-03T14:23:38.000Z</time>
      </trkpt>
      <trkpt lat="43.10676" lon="-0.41287">
        <ele>435.26</ele>
        <time>2024-10-03T14:23:44.000Z</time>
      </trkpt>
      <trkpt lat="43.10684" lon="-0.4128">
        <ele>435.59</ele>
        <time>2024-10-03T14:23:50.000Z</time>
      </trkpt>
      <trkpt lat="43.10692" lon="-0.41271">
        <ele>435.92</ele>
        <time>2024-10-03T14:23:56.000Z</time>
      </trkpt>
      <trkpt lat="43.107" lon="-0.41264">
        <ele>436.27</ele>
        <time>2024-10-03T14:24:02.000Z</time>
      </trkpt>
      <trkpt lat="43.10708" lon="-0.41255">
        <ele>436.62</ele>
        <time>2024-10-03T14:24:08.000Z</time>
      </trkpt>
      <trkpt lat="43.10716" lon="-0.41247">
        <ele>436.97</ele>
        <time>2024-10-03T14:24:14.000Z</time>
      </trkpt>
      <trkpt lat="43.10725" lon="-0.41241">
        <ele>437.26</ele>
        <time>2024-10-03T14:24:19.000Z</time>
      </trkpt>
      <trkpt lat="43.10736" lon="-0.41235">
        <ele>437.55</ele>
        <time>2024-10-03T14:24:24.000Z</time>
      </trkpt>
      <trkpt lat="43.10749" lon="-0.41229">
        <ele>437.83</ele>
        <time>2024-10-03T14:24:29.000Z</time>
      </trkpt>
      <trkpt lat="43.10762" lon="-0.41222">
        <ele>438.1</ele>
        <time>2024-10-03T14:24:34.000Z</time>
      </trkpt>
      <trkpt lat="43.10777" lon="-0.41212">
        <ele>438.81</ele>
        <time>2024-10-03T14:24:39.000Z</time>
      </trkpt>
      <trkpt lat="43.1079" lon="-0.41198">
        <ele>439.02</ele>
        <time>2024-10-03T14:24:44.000Z</time>
      </trkpt>
      <trkpt lat="43.10801" lon="-0.41187">
        <ele>439.24</ele>
        <time>2024-10-03T14:24:49.000Z</time>
      </trkpt>
      <trkpt lat="43.10811" lon="-0.41179">
        <ele>439.47</ele>
        <time>2024-10-03T14:24:54.000Z</time>
      </trkpt>
      <trkpt lat="43.10822" lon="-0.41173">
        <ele>439.72</ele>
        <time>2024-10-03T14:24:59.000Z</time>
      </trkpt>
      <trkpt lat="43.10831" lon="-0.41167">
        <ele>440</ele>
        <time>2024-10-03T14:25:04.000Z</time>
      </trkpt>
      <trkpt lat="43.10842" lon="-0.41163">
        <ele>440.34</ele>
        <time>2024-10-03T14:25:09.000Z</time>
      </trkpt>
      <trkpt lat="43.10852" lon="-0.41158">
        <ele>440.73</ele>
        <time>2024-10-03T14:25:14.000Z</time>
      </trkpt>
      <trkpt lat="43.10862" lon="-0.41154">
        <ele>441.16</ele>
        <time>2024-10-03T14:25:19.000Z</time>
      </trkpt>
      <trkpt lat="43.10871" lon="-0.4115">
        <ele>441.64</ele>
        <time>2024-10-03T14:25:24.000Z</time>
      </trkpt>
      <trkpt lat="43.10882" lon="-0.41148">
        <ele>442.14</ele>
        <time>2024-10-03T14:25:29.000Z</time>
      </trkpt>
      <trkpt lat="43.10893" lon="-0.41147">
        <ele>442.66</ele>
        <time>2024-10-03T14:25:34.000Z</time>
      </trkpt>
      <trkpt lat="43.10903" lon="-0.41147">
        <ele>443.22</ele>
        <time>2024-10-03T14:25:39.000Z</time>
      </trkpt>
      <trkpt lat="43.10915" lon="-0.41149">
        <ele>443.81</ele>
        <time>2024-10-03T14:25:44.000Z</time>
      </trkpt>
      <trkpt lat="43.1093" lon="-0.41154">
        <ele>444.48</ele>
        <time>2024-10-03T14:25:49.000Z</time>
      </trkpt>
      <trkpt lat="43.10944" lon="-0.4116">
        <ele>445.29</ele>
        <time>2024-10-03T14:25:54.000Z</time>
      </trkpt>
      <trkpt lat="43.10957" lon="-0.41168">
        <ele>446.38</ele>
        <time>2024-10-03T14:25:59.999Z</time>
      </trkpt>
      <trkpt lat="43.10967" lon="-0.41174">
        <ele>447.35</ele>
        <time>2024-10-03T14:26:04.999Z</time>
      </trkpt>
      <trkpt lat="43.10977" lon="-0.4118">
        <ele>448.37</ele>
        <time>2024-10-03T14:26:09.999Z</time>
      </trkpt>
      <trkpt lat="43.10987" lon="-0.41186">
        <ele>449.42</ele>
        <time>2024-10-03T14:26:14.999Z</time>
      </trkpt>
      <trkpt lat="43.10997" lon="-0.41192">
        <ele>450.53</ele>
        <time>2024-10-03T14:26:19.999Z</time>
      </trkpt>
      <trkpt lat="43.11006" lon="-0.41198">
        <ele>451.69</ele>
        <time>2024-10-03T14:26:24.999Z</time>
      </trkpt>
      <trkpt lat="43.11016" lon="-0.41205">
        <ele>452.85</ele>
        <time>2024-10-03T14:26:29.999Z</time>
      </trkpt>
      <trkpt lat="43.11026" lon="-0.41212">
        <ele>454.01</ele>
        <time>2024-10-03T14:26:34.999Z</time>
      </trkpt>
      <trkpt lat="43.11036" lon="-0.41221">
        <ele>455.15</ele>
        <time>2024-10-03T14:26:39.999Z</time>
      </trkpt>
      <trkpt lat="43.11047" lon="-0.41228">
        <ele>456.29</ele>
        <time>2024-10-03T14:26:44.999Z</time>
      </trkpt>
      <trkpt lat="43.11056" lon="-0.41235">
        <ele>457.41</ele>
        <time>2024-10-03T14:26:49.999Z</time>
      </trkpt>
      <trkpt lat="43.11066" lon="-0.41242">
        <ele>458.51</ele>
        <time>2024-10-03T14:26:54.999Z</time>
      </trkpt>
      <trkpt lat="43.11076" lon="-0.41248">
        <ele>459.59</ele>
        <time>2024-10-03T14:26:59.999Z</time>
      </trkpt>
      <trkpt lat="43.11086" lon="-0.41253">
        <ele>460.64</ele>
        <time>2024-10-03T14:27:04.999Z</time>
      </trkpt>
      <trkpt lat="43.11096" lon="-0.41257">
        <ele>461.66</ele>
        <time>2024-10-03T14:27:09.999Z</time>
      </trkpt>
      <trkpt lat="43.11106" lon="-0.4126">
        <ele>462.64</ele>
        <time>2024-10-03T14:27:14.999Z</time>
      </trkpt>
      <trkpt lat="43.11116" lon="-0.41261">
        <ele>463.57</ele>
        <time>2024-10-03T14:27:19.999Z</time>
      </trkpt>
      <trkpt lat="43.11125" lon="-0.41258">
        <ele>464.44</ele>
        <time>2024-10-03T14:27:24.999Z</time>
      </trkpt>
      <trkpt lat="43.11136" lon="-0.41251">
        <ele>465.25</ele>
        <time>2024-10-03T14:27:29.999Z</time>
      </trkpt>
      <trkpt lat="43.11145" lon="-0.41242">
        <ele>466.01</ele>
        <time>2024-10-03T14:27:34.999Z</time>
      </trkpt>
      <trkpt lat="43.11155" lon="-0.41233">
        <ele>466.73</ele>
        <time>2024-10-03T14:27:39.999Z</time>
      </trkpt>
      <trkpt lat="43.11164" lon="-0.41223">
        <ele>467.43</ele>
        <time>2024-10-03T14:27:44.999Z</time>
      </trkpt>
      <trkpt lat="43.11172" lon="-0.41217">
        <ele>468.1</ele>
        <time>2024-10-03T14:27:49.999Z</time>
      </trkpt>
      <trkpt lat="43.11182" lon="-0.41212">
        <ele>468.72</ele>
        <time>2024-10-03T14:27:54.999Z</time>
      </trkpt>
      <trkpt lat="43.11192" lon="-0.41209">
        <ele>469.3</ele>
        <time>2024-10-03T14:27:59.999Z</time>
      </trkpt>
      <trkpt lat="43.11203" lon="-0.41205">
        <ele>469.86</ele>
        <time>2024-10-03T14:28:04.999Z</time>
      </trkpt>
      <trkpt lat="43.11213" lon="-0.41203">
        <ele>470.37</ele>
        <time>2024-10-03T14:28:09.999Z</time>
      </trkpt>
      <trkpt lat="43.11224" lon="-0.41201">
        <ele>470.86</ele>
        <time>2024-10-03T14:28:14.999Z</time>
      </trkpt>
      <trkpt lat="43.11236" lon="-0.412">
        <ele>471.33</ele>
        <time>2024-10-03T14:28:19.999Z</time>
      </trkpt>
      <trkpt lat="43.11247" lon="-0.41196">
        <ele>471.78</ele>
        <time>2024-10-03T14:28:24.999Z</time>
      </trkpt>
      <trkpt lat="43.11258" lon="-0.41194">
        <ele>472.21</ele>
        <time>2024-10-03T14:28:29.999Z</time>
      </trkpt>
      <trkpt lat="43.11268" lon="-0.41189">
        <ele>472.63</ele>
        <time>2024-10-03T14:28:34.999Z</time>
      </trkpt>
      <trkpt lat="43.11279" lon="-0.41187">
        <ele>473.02</ele>
        <time>2024-10-03T14:28:39.999Z</time>
      </trkpt>
      <trkpt lat="43.11291" lon="-0.41187">
        <ele>473.4</ele>
        <time>2024-10-03T14:28:44.999Z</time>
      </trkpt>
      <trkpt lat="43.11298" lon="-0.41178">
        <ele>481.12</ele>
        <time>2024-10-03T14:34:42.999Z</time>
      </trkpt>
      <trkpt lat="43.11304" lon="-0.41167">
        <ele>481.78</ele>
        <time>2024-10-03T14:34:51.999Z</time>
      </trkpt>
      <trkpt lat="43.113" lon="-0.41156">
        <ele>482.33</ele>
        <time>2024-10-03T14:35:00.999Z</time>
      </trkpt>
      <trkpt lat="43.11303" lon="-0.41143">
        <ele>482.85</ele>
        <time>2024-10-03T14:35:10.999Z</time>
      </trkpt>
      <trkpt lat="43.11309" lon="-0.41128">
        <ele>483.06</ele>
        <time>2024-10-03T14:35:15.999Z</time>
      </trkpt>
      <trkpt lat="43.11317" lon="-0.41109">
        <ele>483.79</ele>
        <time>2024-10-03T14:35:20.999Z</time>
      </trkpt>
      <trkpt lat="43.11311" lon="-0.41077">
        <ele>484.7</ele>
        <time>2024-10-03T14:35:25.999Z</time>
      </trkpt>
      <trkpt lat="43.113" lon="-0.41049">
        <ele>484.99</ele>
        <time>2024-10-03T14:35:30.999Z</time>
      </trkpt>
      <trkpt lat="43.1129" lon="-0.41021">
        <ele>485.12</ele>
        <time>2024-10-03T14:35:35.999Z</time>
      </trkpt>
      <trkpt lat="43.11288" lon="-0.40999">
        <ele>485.15</ele>
        <time>2024-10-03T14:35:40.999Z</time>
      </trkpt>
      <trkpt lat="43.11295" lon="-0.40979">
        <ele>485.16</ele>
        <time>2024-10-03T14:35:45.999Z</time>
      </trkpt>
      <trkpt lat="43.1131" lon="-0.40962">
        <ele>485.2</ele>
        <time>2024-10-03T14:35:50.999Z</time>
      </trkpt>
      <trkpt lat="43.11329" lon="-0.40946">
        <ele>485.22</ele>
        <time>2024-10-03T14:35:55.999Z</time>
      </trkpt>
      <trkpt lat="43.1135" lon="-0.40933">
        <ele>485.25</ele>
        <time>2024-10-03T14:36:00.999Z</time>
      </trkpt>
      <trkpt lat="43.11372" lon="-0.40925">
        <ele>485.25</ele>
        <time>2024-10-03T14:36:05.999Z</time>
      </trkpt>
      <trkpt lat="43.11393" lon="-0.40923">
        <ele>485.25</ele>
        <time>2024-10-03T14:36:10.999Z</time>
      </trkpt>
      <trkpt lat="43.11415" lon="-0.40917">
        <ele>485.25</ele>
        <time>2024-10-03T14:36:15.999Z</time>
      </trkpt>
      <trkpt lat="43.11433" lon="-0.40903">
        <ele>485.25</ele>
        <time>2024-10-03T14:36:20.999Z</time>
      </trkpt>
      <trkpt lat="43.11445" lon="-0.40885">
        <ele>485.29</ele>
        <time>2024-10-03T14:36:25.999Z</time>
      </trkpt>
      <trkpt lat="43.11456" lon="-0.40863">
        <ele>485.38</ele>
        <time>2024-10-03T14:36:30.999Z</time>
      </trkpt>
      <trkpt lat="43.1147" lon="-0.4084">
        <ele>485.48</ele>
        <time>2024-10-03T14:36:35.999Z</time>
      </trkpt>
      <trkpt lat="43.11485" lon="-0.40815">
        <ele>485.55</ele>
        <time>2024-10-03T14:36:40.999Z</time>
      </trkpt>
      <trkpt lat="43.11502" lon="-0.40795">
        <ele>485.6</ele>
        <time>2024-10-03T14:36:45.999Z</time>
      </trkpt>
      <trkpt lat="43.1152" lon="-0.40778">
        <ele>485.64</ele>
        <time>2024-10-03T14:36:50.999Z</time>
      </trkpt>
      <trkpt lat="43.11537" lon="-0.40761">
        <ele>485.69</ele>
        <time>2024-10-03T14:36:55.999Z</time>
      </trkpt>
      <trkpt lat="43.11549" lon="-0.40739">
        <ele>485.71</ele>
        <time>2024-10-03T14:37:00.999Z</time>
      </trkpt>
      <trkpt lat="43.11561" lon="-0.40717">
        <ele>485.71</ele>
        <time>2024-10-03T14:37:05.999Z</time>
      </trkpt>
      <trkpt lat="43.11573" lon="-0.40694">
        <ele>485.72</ele>
        <time>2024-10-03T14:37:10.999Z</time>
      </trkpt>
      <trkpt lat="43.11591" lon="-0.40671">
        <ele>485.78</ele>
        <time>2024-10-03T14:37:15.999Z</time>
      </trkpt>
      <trkpt lat="43.11606" lon="-0.40653">
        <ele>485.85</ele>
        <time>2024-10-03T14:37:20.999Z</time>
      </trkpt>
      <trkpt lat="43.11619" lon="-0.40638">
        <ele>485.89</ele>
        <time>2024-10-03T14:37:25.999Z</time>
      </trkpt>
      <trkpt lat="43.11633" lon="-0.40618">
        <ele>486</ele>
        <time>2024-10-03T14:37:30.999Z</time>
      </trkpt>
      <trkpt lat="43.11646" lon="-0.40596">
        <ele>486.08</ele>
        <time>2024-10-03T14:37:35.999Z</time>
      </trkpt>
      <trkpt lat="43.1165" lon="-0.40566">
        <ele>486.15</ele>
        <time>2024-10-03T14:37:40.999Z</time>
      </trkpt>
      <trkpt lat="43.11644" lon="-0.40535">
        <ele>486.2</ele>
        <time>2024-10-03T14:37:45.999Z</time>
      </trkpt>
      <trkpt lat="43.11641" lon="-0.40505">
        <ele>486.22</ele>
        <time>2024-10-03T14:37:50.999Z</time>
      </trkpt>
      <trkpt lat="43.11642" lon="-0.40477">
        <ele>486.24</ele>
        <time>2024-10-03T14:37:55.999Z</time>
      </trkpt>
      <trkpt lat="43.1164" lon="-0.40454">
        <ele>486.24</ele>
        <time>2024-10-03T14:38:00.999Z</time>
      </trkpt>
      <trkpt lat="43.11629" lon="-0.40434">
        <ele>486.26</ele>
        <time>2024-10-03T14:38:05.999Z</time>
      </trkpt>
      <trkpt lat="43.11615" lon="-0.40415">
        <ele>486.31</ele>
        <time>2024-10-03T14:38:11.000Z</time>
      </trkpt>
      <trkpt lat="43.11598" lon="-0.40395">
        <ele>486.38</ele>
        <time>2024-10-03T14:38:16.000Z</time>
      </trkpt>
      <trkpt lat="43.11582" lon="-0.40376">
        <ele>486.44</ele>
        <time>2024-10-03T14:38:21.000Z</time>
      </trkpt>
      <trkpt lat="43.11565" lon="-0.4035">
        <ele>486.49</ele>
        <time>2024-10-03T14:38:26.000Z</time>
      </trkpt>
      <trkpt lat="43.11556" lon="-0.4032">
        <ele>486.52</ele>
        <time>2024-10-03T14:38:31.000Z</time>
      </trkpt>
      <trkpt lat="43.11559" lon="-0.40295">
        <ele>486.54</ele>
        <time>2024-10-03T14:38:36.000Z</time>
      </trkpt>
      <trkpt lat="43.11569" lon="-0.40272">
        <ele>486.61</ele>
        <time>2024-10-03T14:38:41.000Z</time>
      </trkpt>
      <trkpt lat="43.1158" lon="-0.40246">
        <ele>486.71</ele>
        <time>2024-10-03T14:38:46.000Z</time>
      </trkpt>
      <trkpt lat="43.11591" lon="-0.40219">
        <ele>486.9</ele>
        <time>2024-10-03T14:38:51.000Z</time>
      </trkpt>
      <trkpt lat="43.11598" lon="-0.40188">
        <ele>487.11</ele>
        <time>2024-10-03T14:38:56.000Z</time>
      </trkpt>
      <trkpt lat="43.11605" lon="-0.4015">
        <ele>487.25</ele>
        <time>2024-10-03T14:39:01.000Z</time>
      </trkpt>
      <trkpt lat="43.11614" lon="-0.40113">
        <ele>487.3</ele>
        <time>2024-10-03T14:39:06.000Z</time>
      </trkpt>
      <trkpt lat="43.11612" lon="-0.40076">
        <ele>487.32</ele>
        <time>2024-10-03T14:39:11.000Z</time>
      </trkpt>
      <trkpt lat="43.11604" lon="-0.4005">
        <ele>487.31</ele>
        <time>2024-10-03T14:39:16.000Z</time>
      </trkpt>
      <trkpt lat="43.11592" lon="-0.40023">
        <ele>487.33</ele>
        <time>2024-10-03T14:39:21.000Z</time>
      </trkpt>
      <trkpt lat="43.11578" lon="-0.40001">
        <ele>487.42</ele>
        <time>2024-10-03T14:39:26.000Z</time>
      </trkpt>
      <trkpt lat="43.11563" lon="-0.3998">
        <ele>487.51</ele>
        <time>2024-10-03T14:39:31.000Z</time>
      </trkpt>
      <trkpt lat="43.11551" lon="-0.39959">
        <ele>487.59</ele>
        <time>2024-10-03T14:39:36.000Z</time>
      </trkpt>
      <trkpt lat="43.1154" lon="-0.39936">
        <ele>487.66</ele>
        <time>2024-10-03T14:39:41.000Z</time>
      </trkpt>
      <trkpt lat="43.11531" lon="-0.39911">
        <ele>487.79</ele>
        <time>2024-10-03T14:39:46.000Z</time>
      </trkpt>
      <trkpt lat="43.11522" lon="-0.39885">
        <ele>487.94</ele>
        <time>2024-10-03T14:39:51.000Z</time>
      </trkpt>
      <trkpt lat="43.11515" lon="-0.3986">
        <ele>488.1</ele>
        <time>2024-10-03T14:39:56.000Z</time>
      </trkpt>
      <trkpt lat="43.11506" lon="-0.39835">
        <ele>488.26</ele>
        <time>2024-10-03T14:40:01.000Z</time>
      </trkpt>
      <trkpt lat="43.11498" lon="-0.39811">
        <ele>488.42</ele>
        <time>2024-10-03T14:40:06.000Z</time>
      </trkpt>
      <trkpt lat="43.11491" lon="-0.39788">
        <ele>488.51</ele>
        <time>2024-10-03T14:40:11.000Z</time>
      </trkpt>
      <trkpt lat="43.11485" lon="-0.39768">
        <ele>488.54</ele>
        <time>2024-10-03T14:40:16.000Z</time>
      </trkpt>
      <trkpt lat="43.11479" lon="-0.39747">
        <ele>488.58</ele>
        <time>2024-10-03T14:40:21.000Z</time>
      </trkpt>
      <trkpt lat="43.11468" lon="-0.39728">
        <ele>488.63</ele>
        <time>2024-10-03T14:40:26.000Z</time>
      </trkpt>
      <trkpt lat="43.11456" lon="-0.39718">
        <ele>488.69</ele>
        <time>2024-10-03T14:40:31.000Z</time>
      </trkpt>
      <trkpt lat="43.11436" lon="-0.39711">
        <ele>489.12</ele>
        <time>2024-10-03T14:40:36.000Z</time>
      </trkpt>
      <trkpt lat="43.11419" lon="-0.39697">
        <ele>489.34</ele>
        <time>2024-10-03T14:40:41.000Z</time>
      </trkpt>
      <trkpt lat="43.11417" lon="-0.39669">
        <ele>489.47</ele>
        <time>2024-10-03T14:40:46.000Z</time>
      </trkpt>
      <trkpt lat="43.11422" lon="-0.39646">
        <ele>489.5</ele>
        <time>2024-10-03T14:40:51.000Z</time>
      </trkpt>
      <trkpt lat="43.11427" lon="-0.39622">
        <ele>489.54</ele>
        <time>2024-10-03T14:40:56.000Z</time>
      </trkpt>
      <trkpt lat="43.11432" lon="-0.39598">
        <ele>489.59</ele>
        <time>2024-10-03T14:41:01.000Z</time>
      </trkpt>
      <trkpt lat="43.11434" lon="-0.39573">
        <ele>489.66</ele>
        <time>2024-10-03T14:41:06.000Z</time>
      </trkpt>
      <trkpt lat="43.1143" lon="-0.39548">
        <ele>489.85</ele>
        <time>2024-10-03T14:41:11.000Z</time>
      </trkpt>
      <trkpt lat="43.11419" lon="-0.39528">
        <ele>490.11</ele>
        <time>2024-10-03T14:41:16.000Z</time>
      </trkpt>
      <trkpt lat="43.11403" lon="-0.39517">
        <ele>490.19</ele>
        <time>2024-10-03T14:41:21.000Z</time>
      </trkpt>
      <trkpt lat="43.11391" lon="-0.39501">
        <ele>490.43</ele>
        <time>2024-10-03T14:41:26.000Z</time>
      </trkpt>
      <trkpt lat="43.11386" lon="-0.39474">
        <ele>490.64</ele>
        <time>2024-10-03T14:41:31.000Z</time>
      </trkpt>
      <trkpt lat="43.11387" lon="-0.39448">
        <ele>490.81</ele>
        <time>2024-10-03T14:41:36.000Z</time>
      </trkpt>
      <trkpt lat="43.11386" lon="-0.39421">
        <ele>490.87</ele>
        <time>2024-10-03T14:41:41.000Z</time>
      </trkpt>
      <trkpt lat="43.11378" lon="-0.39397">
        <ele>491.21</ele>
        <time>2024-10-03T14:41:46.000Z</time>
      </trkpt>
      <trkpt lat="43.11375" lon="-0.39372">
        <ele>491.37</ele>
        <time>2024-10-03T14:41:51.000Z</time>
      </trkpt>
      <trkpt lat="43.1138" lon="-0.39351">
        <ele>491.42</ele>
        <time>2024-10-03T14:41:56.000Z</time>
      </trkpt>
      <trkpt lat="43.11388" lon="-0.39336">
        <ele>491.48</ele>
        <time>2024-10-03T14:42:01.000Z</time>
      </trkpt>
      <trkpt lat="43.11405" lon="-0.3932">
        <ele>492</ele>
        <time>2024-10-03T14:42:06.000Z</time>
      </trkpt>
      <trkpt lat="43.11422" lon="-0.39305">
        <ele>492.18</ele>
        <time>2024-10-03T14:42:11.000Z</time>
      </trkpt>
      <trkpt lat="43.11437" lon="-0.39288">
        <ele>492.48</ele>
        <time>2024-10-03T14:42:16.000Z</time>
      </trkpt>
      <trkpt lat="43.11446" lon="-0.39266">
        <ele>492.97</ele>
        <time>2024-10-03T14:42:21.000Z</time>
      </trkpt>
      <trkpt lat="43.11448" lon="-0.39239">
        <ele>493.39</ele>
        <time>2024-10-03T14:42:26.000Z</time>
      </trkpt>
      <trkpt lat="43.11453" lon="-0.39217">
        <ele>493.49</ele>
        <time>2024-10-03T14:42:31.000Z</time>
      </trkpt>
      <trkpt lat="43.1147" lon="-0.39204">
        <ele>493.86</ele>
        <time>2024-10-03T14:42:36.000Z</time>
      </trkpt>
      <trkpt lat="43.11495" lon="-0.39195">
        <ele>494.38</ele>
        <time>2024-10-03T14:42:41.000Z</time>
      </trkpt>
      <trkpt lat="43.11517" lon="-0.39195">
        <ele>494.61</ele>
        <time>2024-10-03T14:42:46.000Z</time>
      </trkpt>
      <trkpt lat="43.1154" lon="-0.39198">
        <ele>494.8</ele>
        <time>2024-10-03T14:42:51.000Z</time>
      </trkpt>
      <trkpt lat="43.11563" lon="-0.39208">
        <ele>494.93</ele>
        <time>2024-10-03T14:42:56.000Z</time>
      </trkpt>
      <trkpt lat="43.11587" lon="-0.39223">
        <ele>495.08</ele>
        <time>2024-10-03T14:43:01.000Z</time>
      </trkpt>
      <trkpt lat="43.1161" lon="-0.39241">
        <ele>495.26</ele>
        <time>2024-10-03T14:43:06.000Z</time>
      </trkpt>
      <trkpt lat="43.11634" lon="-0.39234">
        <ele>495.41</ele>
        <time>2024-10-03T14:43:11.000Z</time>
      </trkpt>
      <trkpt lat="43.11653" lon="-0.39209">
        <ele>495.57</ele>
        <time>2024-10-03T14:43:16.000Z</time>
      </trkpt>
      <trkpt lat="43.11676" lon="-0.39192">
        <ele>495.72</ele>
        <time>2024-10-03T14:43:21.000Z</time>
      </trkpt>
      <trkpt lat="43.11707" lon="-0.39192">
        <ele>495.85</ele>
        <time>2024-10-03T14:43:26.000Z</time>
      </trkpt>
      <trkpt lat="43.11735" lon="-0.39217">
        <ele>496</ele>
        <time>2024-10-03T14:43:31.000Z</time>
      </trkpt>
      <trkpt lat="43.11765" lon="-0.39243">
        <ele>496.1</ele>
        <time>2024-10-03T14:43:36.000Z</time>
      </trkpt>
      <trkpt lat="43.11798" lon="-0.39253">
        <ele>496.15</ele>
        <time>2024-10-03T14:43:41.000Z</time>
      </trkpt>
      <trkpt lat="43.11832" lon="-0.3925">
        <ele>496.3</ele>
        <time>2024-10-03T14:43:46.000Z</time>
      </trkpt>
      <trkpt lat="43.11866" lon="-0.39236">
        <ele>496.54</ele>
        <time>2024-10-03T14:43:51.000Z</time>
      </trkpt>
      <trkpt lat="43.11901" lon="-0.39241">
        <ele>497.1</ele>
        <time>2024-10-03T14:43:56.000Z</time>
      </trkpt>
      <trkpt lat="43.1193" lon="-0.39263">
        <ele>497.35</ele>
        <time>2024-10-03T14:44:01.000Z</time>
      </trkpt>
      <trkpt lat="43.11964" lon="-0.39273">
        <ele>497.37</ele>
        <time>2024-10-03T14:44:06.000Z</time>
      </trkpt>
      <trkpt lat="43.11997" lon="-0.39264">
        <ele>497.68</ele>
        <time>2024-10-03T14:44:11.000Z</time>
      </trkpt>
      <trkpt lat="43.12006" lon="-0.39218">
        <ele>497.91</ele>
        <time>2024-10-03T14:44:16.000Z</time>
      </trkpt>
      <trkpt lat="43.12017" lon="-0.39173">
        <ele>498.27</ele>
        <time>2024-10-03T14:44:21.000Z</time>
      </trkpt>
      <trkpt lat="43.1204" lon="-0.39138">
        <ele>498.68</ele>
        <time>2024-10-03T14:44:26.000Z</time>
      </trkpt>
      <trkpt lat="43.12073" lon="-0.39131">
        <ele>499.05</ele>
        <time>2024-10-03T14:44:31.000Z</time>
      </trkpt>
      <trkpt lat="43.12104" lon="-0.3913">
        <ele>499.27</ele>
        <time>2024-10-03T14:44:36.000Z</time>
      </trkpt>
      <trkpt lat="43.12134" lon="-0.39123">
        <ele>499.38</ele>
        <time>2024-10-03T14:44:41.000Z</time>
      </trkpt>
      <trkpt lat="43.12164" lon="-0.39116">
        <ele>499.56</ele>
        <time>2024-10-03T14:44:46.000Z</time>
      </trkpt>
      <trkpt lat="43.12191" lon="-0.39107">
        <ele>499.81</ele>
        <time>2024-10-03T14:44:51.000Z</time>
      </trkpt>
      <trkpt lat="43.12217" lon="-0.39097">
        <ele>499.81</ele>
        <time>2024-10-03T14:44:56.000Z</time>
      </trkpt>
      <trkpt lat="43.12239" lon="-0.39076">
        <ele>499.68</ele>
        <time>2024-10-03T14:45:01.000Z</time>
      </trkpt>
      <trkpt lat="43.12249" lon="-0.39042">
        <ele>499.47</ele>
        <time>2024-10-03T14:45:06.000Z</time>
      </trkpt>
      <trkpt lat="43.12253" lon="-0.39002">
        <ele>499.17</ele>
        <time>2024-10-03T14:45:11.000Z</time>
      </trkpt>
      <trkpt lat="43.12247" lon="-0.38956">
        <ele>498.95</ele>
        <time>2024-10-03T14:45:16.000Z</time>
      </trkpt>
      <trkpt lat="43.12222" lon="-0.38914">
        <ele>498.76</ele>
        <time>2024-10-03T14:45:21.000Z</time>
      </trkpt>
      <trkpt lat="43.12194" lon="-0.38877">
        <ele>498.36</ele>
        <time>2024-10-03T14:45:26.000Z</time>
      </trkpt>
      <trkpt lat="43.12175" lon="-0.3884">
        <ele>497.9</ele>
        <time>2024-10-03T14:45:31.000Z</time>
      </trkpt>
      <trkpt lat="43.12161" lon="-0.38795">
        <ele>497.05</ele>
        <time>2024-10-03T14:45:36.000Z</time>
      </trkpt>
      <trkpt lat="43.12161" lon="-0.38751">
        <ele>495.83</ele>
        <time>2024-10-03T14:45:41.000Z</time>
      </trkpt>
      <trkpt lat="43.12187" lon="-0.38718">
        <ele>495.43</ele>
        <time>2024-10-03T14:45:46.000Z</time>
      </trkpt>
      <trkpt lat="43.12223" lon="-0.38713">
        <ele>494.86</ele>
        <time>2024-10-03T14:45:51.000Z</time>
      </trkpt>
      <trkpt lat="43.12254" lon="-0.38692">
        <ele>494.61</ele>
        <time>2024-10-03T14:45:56.000Z</time>
      </trkpt>
      <trkpt lat="43.12263" lon="-0.38647">
        <ele>494.32</ele>
        <time>2024-10-03T14:46:01.000Z</time>
      </trkpt>
      <trkpt lat="43.12254" lon="-0.38602">
        <ele>493.85</ele>
        <time>2024-10-03T14:46:06.000Z</time>
      </trkpt>
      <trkpt lat="43.12245" lon="-0.38556">
        <ele>493.32</ele>
        <time>2024-10-03T14:46:11.000Z</time>
      </trkpt>
      <trkpt lat="43.1224" lon="-0.38509">
        <ele>492.88</ele>
        <time>2024-10-03T14:46:16.000Z</time>
      </trkpt>
      <trkpt lat="43.12243" lon="-0.38465">
        <ele>492.48</ele>
        <time>2024-10-03T14:46:21.000Z</time>
      </trkpt>
      <trkpt lat="43.12257" lon="-0.38427">
        <ele>492.1</ele>
        <time>2024-10-03T14:46:26.000Z</time>
      </trkpt>
      <trkpt lat="43.1227" lon="-0.38385">
        <ele>490.56</ele>
        <time>2024-10-03T14:46:31.000Z</time>
      </trkpt>
      <trkpt lat="43.12288" lon="-0.38343">
        <ele>489.1</ele>
        <time>2024-10-03T14:46:36.000Z</time>
      </trkpt>
      <trkpt lat="43.12314" lon="-0.38304">
        <ele>488.44</ele>
        <time>2024-10-03T14:46:41.000Z</time>
      </trkpt>
      <trkpt lat="43.12347" lon="-0.38274">
        <ele>487.95</ele>
        <time>2024-10-03T14:46:46.000Z</time>
      </trkpt>
      <trkpt lat="43.12382" lon="-0.38262">
        <ele>487.56</ele>
        <time>2024-10-03T14:46:51.000Z</time>
      </trkpt>
      <trkpt lat="43.12417" lon="-0.38263">
        <ele>486.94</ele>
        <time>2024-10-03T14:46:56.000Z</time>
      </trkpt>
      <trkpt lat="43.12453" lon="-0.38256">
        <ele>486.37</ele>
        <time>2024-10-03T14:47:01.000Z</time>
      </trkpt>
      <trkpt lat="43.12485" lon="-0.38243">
        <ele>485.79</ele>
        <time>2024-10-03T14:47:06.000Z</time>
      </trkpt>
      <trkpt lat="43.12514" lon="-0.38226">
        <ele>485.22</ele>
        <time>2024-10-03T14:47:11.000Z</time>
      </trkpt>
      <trkpt lat="43.12534" lon="-0.38193">
        <ele>484.51</ele>
        <time>2024-10-03T14:47:16.000Z</time>
      </trkpt>
      <trkpt lat="43.1254" lon="-0.38147">
        <ele>484.03</ele>
        <time>2024-10-03T14:47:21.000Z</time>
      </trkpt>
      <trkpt lat="43.12559" lon="-0.38113">
        <ele>483.58</ele>
        <time>2024-10-03T14:47:26.000Z</time>
      </trkpt>
      <trkpt lat="43.12589" lon="-0.38098">
        <ele>483.34</ele>
        <time>2024-10-03T14:47:31.000Z</time>
      </trkpt>
      <trkpt lat="43.12618" lon="-0.38086">
        <ele>482.8</ele>
        <time>2024-10-03T14:47:36.000Z</time>
      </trkpt>
      <trkpt lat="43.12647" lon="-0.38078">
        <ele>482.3</ele>
        <time>2024-10-03T14:47:41.000Z</time>
      </trkpt>
      <trkpt lat="43.12674" lon="-0.38074">
        <ele>481.99</ele>
        <time>2024-10-03T14:47:46.000Z</time>
      </trkpt>
      <trkpt lat="43.12697" lon="-0.38071">
        <ele>482</ele>
        <time>2024-10-03T14:47:51.000Z</time>
      </trkpt>
      <trkpt lat="43.12718" lon="-0.38068">
        <ele>482.22</ele>
        <time>2024-10-03T14:47:56.000Z</time>
      </trkpt>
      <trkpt lat="43.1274" lon="-0.38065">
        <ele>482.49</ele>
        <time>2024-10-03T14:48:01.000Z</time>
      </trkpt>
      <trkpt lat="43.12763" lon="-0.3806">
        <ele>482.43</ele>
        <time>2024-10-03T14:48:06.000Z</time>
      </trkpt>
      <trkpt lat="43.12781" lon="-0.38041">
        <ele>482.54</ele>
        <time>2024-10-03T14:48:11.000Z</time>
      </trkpt>
      <trkpt lat="43.12791" lon="-0.38012">
        <ele>482.67</ele>
        <time>2024-10-03T14:48:16.000Z</time>
      </trkpt>
      <trkpt lat="43.12802" lon="-0.37985">
        <ele>482.81</ele>
        <time>2024-10-03T14:48:21.000Z</time>
      </trkpt>
      <trkpt lat="43.12814" lon="-0.37959">
        <ele>482.95</ele>
        <time>2024-10-03T14:48:26.000Z</time>
      </trkpt>
      <trkpt lat="43.12829" lon="-0.37935">
        <ele>483.09</ele>
        <time>2024-10-03T14:48:31.000Z</time>
      </trkpt>
      <trkpt lat="43.12851" lon="-0.37916">
        <ele>483.18</ele>
        <time>2024-10-03T14:48:36.000Z</time>
      </trkpt>
      <trkpt lat="43.12874" lon="-0.379">
        <ele>483.19</ele>
        <time>2024-10-03T14:48:41.000Z</time>
      </trkpt>
      <trkpt lat="43.12898" lon="-0.37884">
        <ele>483.15</ele>
        <time>2024-10-03T14:48:46.000Z</time>
      </trkpt>
      <trkpt lat="43.12923" lon="-0.3787">
        <ele>483.09</ele>
        <time>2024-10-03T14:48:51.000Z</time>
      </trkpt>
      <trkpt lat="43.12947" lon="-0.37859">
        <ele>483.04</ele>
        <time>2024-10-03T14:48:56.000Z</time>
      </trkpt>
      <trkpt lat="43.12969" lon="-0.37849">
        <ele>483.03</ele>
        <time>2024-10-03T14:49:01.000Z</time>
      </trkpt>
      <trkpt lat="43.12989" lon="-0.3784">
        <ele>483.03</ele>
        <time>2024-10-03T14:49:06.000Z</time>
      </trkpt>
      <trkpt lat="43.13009" lon="-0.37833">
        <ele>483.03</ele>
        <time>2024-10-03T14:49:11.000Z</time>
      </trkpt>
      <trkpt lat="43.13029" lon="-0.37829">
        <ele>483.03</ele>
        <time>2024-10-03T14:49:16.000Z</time>
      </trkpt>
      <trkpt lat="43.13046" lon="-0.3783">
        <ele>483.02</ele>
        <time>2024-10-03T14:49:21.000Z</time>
      </trkpt>
      <trkpt lat="43.13063" lon="-0.37833">
        <ele>483.01</ele>
        <time>2024-10-03T14:49:26.000Z</time>
      </trkpt>
      <trkpt lat="43.1308" lon="-0.37838">
        <ele>482.99</ele>
        <time>2024-10-03T14:49:31.000Z</time>
      </trkpt>
      <trkpt lat="43.13097" lon="-0.37843">
        <ele>482.97</ele>
        <time>2024-10-03T14:49:36.000Z</time>
      </trkpt>
      <trkpt lat="43.13114" lon="-0.37848">
        <ele>482.95</ele>
        <time>2024-10-03T14:49:41.000Z</time>
      </trkpt>
      <trkpt lat="43.13131" lon="-0.37845">
        <ele>482.84</ele>
        <time>2024-10-03T14:49:46.000Z</time>
      </trkpt>
      <trkpt lat="43.1315" lon="-0.3783">
        <ele>482.71</ele>
        <time>2024-10-03T14:49:51.000Z</time>
      </trkpt>
      <trkpt lat="43.13168" lon="-0.37811">
        <ele>482.55</ele>
        <time>2024-10-03T14:49:56.000Z</time>
      </trkpt>
      <trkpt lat="43.13187" lon="-0.37792">
        <ele>482.41</ele>
        <time>2024-10-03T14:50:01.000Z</time>
      </trkpt>
      <trkpt lat="43.13208" lon="-0.37773">
        <ele>482.23</ele>
        <time>2024-10-03T14:50:06.000Z</time>
      </trkpt>
      <trkpt lat="43.1323" lon="-0.37754">
        <ele>482.08</ele>
        <time>2024-10-03T14:50:11.000Z</time>
      </trkpt>
      <trkpt lat="43.13251" lon="-0.37737">
        <ele>481.97</ele>
        <time>2024-10-03T14:50:16.000Z</time>
      </trkpt>
      <trkpt lat="43.1327" lon="-0.37714">
        <ele>481.88</ele>
        <time>2024-10-03T14:50:21.000Z</time>
      </trkpt>
      <trkpt lat="43.13287" lon="-0.37671">
        <ele>481.87</ele>
        <time>2024-10-03T14:50:26.999Z</time>
      </trkpt>
      <trkpt lat="43.13307" lon="-0.37644">
        <ele>481.86</ele>
        <time>2024-10-03T14:50:31.999Z</time>
      </trkpt>
      <trkpt lat="43.13336" lon="-0.37634">
        <ele>481.91</ele>
        <time>2024-10-03T14:50:36.999Z</time>
      </trkpt>
      <trkpt lat="43.13355" lon="-0.37607">
        <ele>481.94</ele>
        <time>2024-10-03T14:50:41.999Z</time>
      </trkpt>
      <trkpt lat="43.13376" lon="-0.37585">
        <ele>481.93</ele>
        <time>2024-10-03T14:50:46.999Z</time>
      </trkpt>
      <trkpt lat="43.13402" lon="-0.37567">
        <ele>481.88</ele>
        <time>2024-10-03T14:50:51.999Z</time>
      </trkpt>
      <trkpt lat="43.13429" lon="-0.37542">
        <ele>481.71</ele>
        <time>2024-10-03T14:50:56.999Z</time>
      </trkpt>
      <trkpt lat="43.13454" lon="-0.37512">
        <ele>481.43</ele>
        <time>2024-10-03T14:51:01.999Z</time>
      </trkpt>
      <trkpt lat="43.13471" lon="-0.37475">
        <ele>481.08</ele>
        <time>2024-10-03T14:51:06.999Z</time>
      </trkpt>
      <trkpt lat="43.13477" lon="-0.37433">
        <ele>480.76</ele>
        <time>2024-10-03T14:51:11.999Z</time>
      </trkpt>
      <trkpt lat="43.13461" lon="-0.374">
        <ele>480.4</ele>
        <time>2024-10-03T14:51:16.999Z</time>
      </trkpt>
      <trkpt lat="43.1344" lon="-0.3737">
        <ele>480.22</ele>
        <time>2024-10-03T14:51:21.999Z</time>
      </trkpt>
      <trkpt lat="43.13434" lon="-0.37327">
        <ele>479.81</ele>
        <time>2024-10-03T14:51:26.999Z</time>
      </trkpt>
      <trkpt lat="43.13442" lon="-0.37273">
        <ele>478.57</ele>
        <time>2024-10-03T14:51:31.999Z</time>
      </trkpt>
      <trkpt lat="43.13439" lon="-0.37222">
        <ele>477.82</ele>
        <time>2024-10-03T14:51:36.999Z</time>
      </trkpt>
      <trkpt lat="43.13466" lon="-0.37185">
        <ele>477.04</ele>
        <time>2024-10-03T14:51:41.999Z</time>
      </trkpt>
      <trkpt lat="43.13498" lon="-0.37157">
        <ele>476.13</ele>
        <time>2024-10-03T14:51:46.999Z</time>
      </trkpt>
      <trkpt lat="43.13501" lon="-0.37107">
        <ele>475.03</ele>
        <time>2024-10-03T14:51:51.999Z</time>
      </trkpt>
      <trkpt lat="43.13499" lon="-0.37056">
        <ele>474.21</ele>
        <time>2024-10-03T14:51:56.999Z</time>
      </trkpt>
      <trkpt lat="43.13516" lon="-0.37012">
        <ele>473.53</ele>
        <time>2024-10-03T14:52:01.999Z</time>
      </trkpt>
      <trkpt lat="43.13549" lon="-0.36993">
        <ele>472.92</ele>
        <time>2024-10-03T14:52:06.999Z</time>
      </trkpt>
      <trkpt lat="43.1358" lon="-0.36988">
        <ele>472.89</ele>
        <time>2024-10-03T14:52:11.999Z</time>
      </trkpt>
      <trkpt lat="43.13611" lon="-0.36977">
        <ele>472.63</ele>
        <time>2024-10-03T14:52:16.999Z</time>
      </trkpt>
      <trkpt lat="43.13641" lon="-0.36955">
        <ele>472.03</ele>
        <time>2024-10-03T14:52:21.999Z</time>
      </trkpt>
      <trkpt lat="43.13667" lon="-0.3692">
        <ele>471.27</ele>
        <time>2024-10-03T14:52:26.999Z</time>
      </trkpt>
      <trkpt lat="43.13683" lon="-0.36872">
        <ele>470.79</ele>
        <time>2024-10-03T14:52:31.999Z</time>
      </trkpt>
      <trkpt lat="43.1369" lon="-0.3682">
        <ele>470.69</ele>
        <time>2024-10-03T14:52:36.999Z</time>
      </trkpt>
      <trkpt lat="43.13693" lon="-0.36763">
        <ele>470.56</ele>
        <time>2024-10-03T14:52:41.999Z</time>
      </trkpt>
      <trkpt lat="43.13699" lon="-0.36702">
        <ele>470.49</ele>
        <time>2024-10-03T14:52:46.999Z</time>
      </trkpt>
      <trkpt lat="43.13706" lon="-0.3664">
        <ele>469.22</ele>
        <time>2024-10-03T14:52:51.999Z</time>
      </trkpt>
      <trkpt lat="43.13708" lon="-0.36574">
        <ele>467.97</ele>
        <time>2024-10-03T14:52:56.999Z</time>
      </trkpt>
      <trkpt lat="43.1371" lon="-0.36504">
        <ele>465.84</ele>
        <time>2024-10-03T14:53:01.999Z</time>
      </trkpt>
      <trkpt lat="43.13709" lon="-0.36436">
        <ele>463.53</ele>
        <time>2024-10-03T14:53:06.999Z</time>
      </trkpt>
      <trkpt lat="43.13711" lon="-0.36366">
        <ele>461.35</ele>
        <time>2024-10-03T14:53:11.999Z</time>
      </trkpt>
      <trkpt lat="43.13721" lon="-0.36295">
        <ele>459.24</ele>
        <time>2024-10-03T14:53:16.999Z</time>
      </trkpt>
      <trkpt lat="43.13735" lon="-0.36226">
        <ele>457.03</ele>
        <time>2024-10-03T14:53:21.999Z</time>
      </trkpt>
      <trkpt lat="43.13757" lon="-0.36161">
        <ele>455.21</ele>
        <time>2024-10-03T14:53:26.999Z</time>
      </trkpt>
      <trkpt lat="43.138" lon="-0.36124">
        <ele>453.3</ele>
        <time>2024-10-03T14:53:31.999Z</time>
      </trkpt>
      <trkpt lat="43.13844" lon="-0.36108">
        <ele>451.4</ele>
        <time>2024-10-03T14:53:36.999Z</time>
      </trkpt>
      <trkpt lat="43.13875" lon="-0.36091">
        <ele>449.77</ele>
        <time>2024-10-03T14:53:41.999Z</time>
      </trkpt>
      <trkpt lat="43.13889" lon="-0.36051">
        <ele>448.01</ele>
        <time>2024-10-03T14:53:46.999Z</time>
      </trkpt>
      <trkpt lat="43.13896" lon="-0.36003">
        <ele>446.17</ele>
        <time>2024-10-03T14:53:51.999Z</time>
      </trkpt>
      <trkpt lat="43.13899" lon="-0.35955">
        <ele>445.01</ele>
        <time>2024-10-03T14:53:56.999Z</time>
      </trkpt>
      <trkpt lat="43.13898" lon="-0.35908">
        <ele>444.3</ele>
        <time>2024-10-03T14:54:01.999Z</time>
      </trkpt>
      <trkpt lat="43.13895" lon="-0.35863">
        <ele>443.68</ele>
        <time>2024-10-03T14:54:06.999Z</time>
      </trkpt>
      <trkpt lat="43.13899" lon="-0.3582">
        <ele>443.16</ele>
        <time>2024-10-03T14:54:11.999Z</time>
      </trkpt>
      <trkpt lat="43.13905" lon="-0.3578">
        <ele>442.84</ele>
        <time>2024-10-03T14:54:16.999Z</time>
      </trkpt>
      <trkpt lat="43.13906" lon="-0.35743">
        <ele>442.32</ele>
        <time>2024-10-03T14:54:21.999Z</time>
      </trkpt>
      <trkpt lat="43.13906" lon="-0.35706">
        <ele>441.57</ele>
        <time>2024-10-03T14:54:26.999Z</time>
      </trkpt>
      <trkpt lat="43.13903" lon="-0.35672">
        <ele>441.23</ele>
        <time>2024-10-03T14:54:31.999Z</time>
      </trkpt>
      <trkpt lat="43.13894" lon="-0.35638">
        <ele>441.09</ele>
        <time>2024-10-03T14:54:36.999Z</time>
      </trkpt>
      <trkpt lat="43.13881" lon="-0.35607">
        <ele>440.93</ele>
        <time>2024-10-03T14:54:41.999Z</time>
      </trkpt>
      <trkpt lat="43.1387" lon="-0.35578">
        <ele>440.8</ele>
        <time>2024-10-03T14:54:46.999Z</time>
      </trkpt>
      <trkpt lat="43.1386" lon="-0.35552">
        <ele>440.59</ele>
        <time>2024-10-03T14:54:51.999Z</time>
      </trkpt>
      <trkpt lat="43.13851" lon="-0.35527">
        <ele>440.26</ele>
        <time>2024-10-03T14:54:56.999Z</time>
      </trkpt>
      <trkpt lat="43.13842" lon="-0.35502">
        <ele>440.1</ele>
        <time>2024-10-03T14:55:01.999Z</time>
      </trkpt>
      <trkpt lat="43.13833" lon="-0.35476">
        <ele>439.94</ele>
        <time>2024-10-03T14:55:06.999Z</time>
      </trkpt>
      <trkpt lat="43.13824" lon="-0.35451">
        <ele>439.81</ele>
        <time>2024-10-03T14:55:11.999Z</time>
      </trkpt>
      <trkpt lat="43.13816" lon="-0.35428">
        <ele>439.6</ele>
        <time>2024-10-03T14:55:16.999Z</time>
      </trkpt>
      <trkpt lat="43.13808" lon="-0.35404">
        <ele>439.42</ele>
        <time>2024-10-03T14:55:21.999Z</time>
      </trkpt>
      <trkpt lat="43.138" lon="-0.35382">
        <ele>439.38</ele>
        <time>2024-10-03T14:55:26.999Z</time>
      </trkpt>
      <trkpt lat="43.1379" lon="-0.35362">
        <ele>439.33</ele>
        <time>2024-10-03T14:55:31.999Z</time>
      </trkpt>
      <trkpt lat="43.13781" lon="-0.35343">
        <ele>439.26</ele>
        <time>2024-10-03T14:55:36.999Z</time>
      </trkpt>
      <trkpt lat="43.1377" lon="-0.35325">
        <ele>439.18</ele>
        <time>2024-10-03T14:55:41.999Z</time>
      </trkpt>
      <trkpt lat="43.1376" lon="-0.35305">
        <ele>439.09</ele>
        <time>2024-10-03T14:55:46.999Z</time>
      </trkpt>
      <trkpt lat="43.13752" lon="-0.35285">
        <ele>439</ele>
        <time>2024-10-03T14:55:51.999Z</time>
      </trkpt>
      <trkpt lat="43.13747" lon="-0.35261">
        <ele>438.5</ele>
        <time>2024-10-03T14:55:56.999Z</time>
      </trkpt>
      <trkpt lat="43.13743" lon="-0.35234">
        <ele>438.04</ele>
        <time>2024-10-03T14:56:01.999Z</time>
      </trkpt>
      <trkpt lat="43.13739" lon="-0.35205">
        <ele>437.83</ele>
        <time>2024-10-03T14:56:06.999Z</time>
      </trkpt>
      <trkpt lat="43.13738" lon="-0.35173">
        <ele>437.65</ele>
        <time>2024-10-03T14:56:11.999Z</time>
      </trkpt>
      <trkpt lat="43.13738" lon="-0.35141">
        <ele>437.5</ele>
        <time>2024-10-03T14:56:16.999Z</time>
      </trkpt>
      <trkpt lat="43.13743" lon="-0.3511">
        <ele>437.39</ele>
        <time>2024-10-03T14:56:21.999Z</time>
      </trkpt>
      <trkpt lat="43.13751" lon="-0.35078">
        <ele>437.28</ele>
        <time>2024-10-03T14:56:26.999Z</time>
      </trkpt>
      <trkpt lat="43.1376" lon="-0.35043">
        <ele>437.15</ele>
        <time>2024-10-03T14:56:31.999Z</time>
      </trkpt>
      <trkpt lat="43.1377" lon="-0.35005">
        <ele>437.02</ele>
        <time>2024-10-03T14:56:36.999Z</time>
      </trkpt>
      <trkpt lat="43.13781" lon="-0.34969">
        <ele>436.89</ele>
        <time>2024-10-03T14:56:41.999Z</time>
      </trkpt>
      <trkpt lat="43.13798" lon="-0.34947">
        <ele>436.79</ele>
        <time>2024-10-03T14:56:46.999Z</time>
      </trkpt>
      <trkpt lat="43.13818" lon="-0.34942">
        <ele>436.78</ele>
        <time>2024-10-03T14:56:51.999Z</time>
      </trkpt>
      <trkpt lat="43.13834" lon="-0.34934">
        <ele>436.77</ele>
        <time>2024-10-03T14:56:56.999Z</time>
      </trkpt>
      <trkpt lat="43.13844" lon="-0.34911">
        <ele>436.75</ele>
        <time>2024-10-03T14:57:01.999Z</time>
      </trkpt>
      <trkpt lat="43.13844" lon="-0.34882">
        <ele>436.75</ele>
        <time>2024-10-03T14:57:06.999Z</time>
      </trkpt>
      <trkpt lat="43.13844" lon="-0.34853">
        <ele>436.77</ele>
        <time>2024-10-03T14:57:11.999Z</time>
      </trkpt>
      <trkpt lat="43.13848" lon="-0.34825">
        <ele>436.79</ele>
        <time>2024-10-03T14:57:16.999Z</time>
      </trkpt>
      <trkpt lat="43.13858" lon="-0.34797">
        <ele>436.8</ele>
        <time>2024-10-03T14:57:21.999Z</time>
      </trkpt>
      <trkpt lat="43.13857" lon="-0.34762">
        <ele>436.79</ele>
        <time>2024-10-03T14:57:26.999Z</time>
      </trkpt>
      <trkpt lat="43.13858" lon="-0.34728">
        <ele>436.75</ele>
        <time>2024-10-03T14:57:31.999Z</time>
      </trkpt>
      <trkpt lat="43.13872" lon="-0.34698">
        <ele>436.72</ele>
        <time>2024-10-03T14:57:36.999Z</time>
      </trkpt>
      <trkpt lat="43.13894" lon="-0.34679">
        <ele>436.69</ele>
        <time>2024-10-03T14:57:41.999Z</time>
      </trkpt>
      <trkpt lat="43.13917" lon="-0.34662">
        <ele>436.68</ele>
        <time>2024-10-03T14:57:46.999Z</time>
      </trkpt>
      <trkpt lat="43.13938" lon="-0.34643">
        <ele>436.71</ele>
        <time>2024-10-03T14:57:51.999Z</time>
      </trkpt>
      <trkpt lat="43.13958" lon="-0.34621">
        <ele>436.76</ele>
        <time>2024-10-03T14:57:56.999Z</time>
      </trkpt>
      <trkpt lat="43.13978" lon="-0.34602">
        <ele>436.8</ele>
        <time>2024-10-03T14:58:01.999Z</time>
      </trkpt>
      <trkpt lat="43.13994" lon="-0.34575">
        <ele>436.82</ele>
        <time>2024-10-03T14:58:06.999Z</time>
      </trkpt>
      <trkpt lat="43.14004" lon="-0.34547">
        <ele>436.85</ele>
        <time>2024-10-03T14:58:11.999Z</time>
      </trkpt>
      <trkpt lat="43.14014" lon="-0.34525">
        <ele>436.85</ele>
        <time>2024-10-03T14:58:16.999Z</time>
      </trkpt>
      <trkpt lat="43.14027" lon="-0.34504">
        <ele>436.88</ele>
        <time>2024-10-03T14:58:21.999Z</time>
      </trkpt>
      <trkpt lat="43.14043" lon="-0.34485">
        <ele>436.98</ele>
        <time>2024-10-03T14:58:26.999Z</time>
      </trkpt>
      <trkpt lat="43.14058" lon="-0.34467">
        <ele>437.08</ele>
        <time>2024-10-03T14:58:31.999Z</time>
      </trkpt>
      <trkpt lat="43.14067" lon="-0.3444">
        <ele>437.21</ele>
        <time>2024-10-03T14:58:36.999Z</time>
      </trkpt>
      <trkpt lat="43.1407" lon="-0.34416">
        <ele>437.24</ele>
        <time>2024-10-03T14:58:41.999Z</time>
      </trkpt>
      <trkpt lat="43.14078" lon="-0.34397">
        <ele>437.25</ele>
        <time>2024-10-03T14:58:46.999Z</time>
      </trkpt>
      <trkpt lat="43.1409" lon="-0.34382">
        <ele>437.29</ele>
        <time>2024-10-03T14:58:51.999Z</time>
      </trkpt>
      <trkpt lat="43.14101" lon="-0.34361">
        <ele>437.32</ele>
        <time>2024-10-03T14:58:56.999Z</time>
      </trkpt>
      <trkpt lat="43.14107" lon="-0.34338">
        <ele>437.35</ele>
        <time>2024-10-03T14:59:01.999Z</time>
      </trkpt>
      <trkpt lat="43.14108" lon="-0.34313">
        <ele>437.37</ele>
        <time>2024-10-03T14:59:06.999Z</time>
      </trkpt>
      <trkpt lat="43.14109" lon="-0.3429">
        <ele>437.41</ele>
        <time>2024-10-03T14:59:11.999Z</time>
      </trkpt>
      <trkpt lat="43.14116" lon="-0.34266">
        <ele>437.45</ele>
        <time>2024-10-03T14:59:16.999Z</time>
      </trkpt>
      <trkpt lat="43.14127" lon="-0.34244">
        <ele>437.71</ele>
        <time>2024-10-03T14:59:21.999Z</time>
      </trkpt>
      <trkpt lat="43.14138" lon="-0.34221">
        <ele>437.88</ele>
        <time>2024-10-03T14:59:26.999Z</time>
      </trkpt>
      <trkpt lat="43.14145" lon="-0.34197">
        <ele>437.97</ele>
        <time>2024-10-03T14:59:31.999Z</time>
      </trkpt>
      <trkpt lat="43.14142" lon="-0.3417">
        <ele>438.05</ele>
        <time>2024-10-03T14:59:36.999Z</time>
      </trkpt>
      <trkpt lat="43.14137" lon="-0.34146">
        <ele>438.06</ele>
        <time>2024-10-03T14:59:41.999Z</time>
      </trkpt>
      <trkpt lat="43.14132" lon="-0.34122">
        <ele>438.07</ele>
        <time>2024-10-03T14:59:46.999Z</time>
      </trkpt>
      <trkpt lat="43.14128" lon="-0.341">
        <ele>438.07</ele>
        <time>2024-10-03T14:59:51.999Z</time>
      </trkpt>
      <trkpt lat="43.14125" lon="-0.34078">
        <ele>438.07</ele>
        <time>2024-10-03T14:59:56.999Z</time>
      </trkpt>
      <trkpt lat="43.14121" lon="-0.34056">
        <ele>438.08</ele>
        <time>2024-10-03T15:00:01.999Z</time>
      </trkpt>
      <trkpt lat="43.14115" lon="-0.34029">
        <ele>438.1</ele>
        <time>2024-10-03T15:00:06.999Z</time>
      </trkpt>
      <trkpt lat="43.1411" lon="-0.34003">
        <ele>438.12</ele>
        <time>2024-10-03T15:00:11.999Z</time>
      </trkpt>
      <trkpt lat="43.14107" lon="-0.33977">
        <ele>438.14</ele>
        <time>2024-10-03T15:00:16.999Z</time>
      </trkpt>
      <trkpt lat="43.14107" lon="-0.33948">
        <ele>438.16</ele>
        <time>2024-10-03T15:00:21.999Z</time>
      </trkpt>
      <trkpt lat="43.14113" lon="-0.33915">
        <ele>438.2</ele>
        <time>2024-10-03T15:00:26.999Z</time>
      </trkpt>
      <trkpt lat="43.1411" lon="-0.33874">
        <ele>438.33</ele>
        <time>2024-10-03T15:00:31.999Z</time>
      </trkpt>
      <trkpt lat="43.14107" lon="-0.3382">
        <ele>438.45</ele>
        <time>2024-10-03T15:00:36.999Z</time>
      </trkpt>
      <trkpt lat="43.14101" lon="-0.33759">
        <ele>438.49</ele>
        <time>2024-10-03T15:00:41.999Z</time>
      </trkpt>
      <trkpt lat="43.14093" lon="-0.33692">
        <ele>438.71</ele>
        <time>2024-10-03T15:00:46.999Z</time>
      </trkpt>
      <trkpt lat="43.14087" lon="-0.33624">
        <ele>438.87</ele>
        <time>2024-10-03T15:00:51.999Z</time>
      </trkpt>
      <trkpt lat="43.14063" lon="-0.33569">
        <ele>438.59</ele>
        <time>2024-10-03T15:00:56.999Z</time>
      </trkpt>
      <trkpt lat="43.14022" lon="-0.33551">
        <ele>438.11</ele>
        <time>2024-10-03T15:01:01.999Z</time>
      </trkpt>
      <trkpt lat="43.14024" lon="-0.33492">
        <ele>437.86</ele>
        <time>2024-10-03T15:01:06.999Z</time>
      </trkpt>
      <trkpt lat="43.14046" lon="-0.33435">
        <ele>437.58</ele>
        <time>2024-10-03T15:01:11.999Z</time>
      </trkpt>
      <trkpt lat="43.14081" lon="-0.3339">
        <ele>437.05</ele>
        <time>2024-10-03T15:01:16.999Z</time>
      </trkpt>
      <trkpt lat="43.1412" lon="-0.33354">
        <ele>437.27</ele>
        <time>2024-10-03T15:01:21.999Z</time>
      </trkpt>
      <trkpt lat="43.14157" lon="-0.33329">
        <ele>436.82</ele>
        <time>2024-10-03T15:01:26.999Z</time>
      </trkpt>
      <trkpt lat="43.1419" lon="-0.3331">
        <ele>435.7</ele>
        <time>2024-10-03T15:01:31.999Z</time>
      </trkpt>
      <trkpt lat="43.14223" lon="-0.33291">
        <ele>434.41</ele>
        <time>2024-10-03T15:01:36.999Z</time>
      </trkpt>
      <trkpt lat="43.14259" lon="-0.33281">
        <ele>433.19</ele>
        <time>2024-10-03T15:01:41.999Z</time>
      </trkpt>
      <trkpt lat="43.14293" lon="-0.3327">
        <ele>432.04</ele>
        <time>2024-10-03T15:01:46.999Z</time>
      </trkpt>
      <trkpt lat="43.14317" lon="-0.33239">
        <ele>430.96</ele>
        <time>2024-10-03T15:01:51.999Z</time>
      </trkpt>
      <trkpt lat="43.14337" lon="-0.33201">
        <ele>429.86</ele>
        <time>2024-10-03T15:01:56.999Z</time>
      </trkpt>
      <trkpt lat="43.14354" lon="-0.3316">
        <ele>428.89</ele>
        <time>2024-10-03T15:02:01.999Z</time>
      </trkpt>
      <trkpt lat="43.14375" lon="-0.33126">
        <ele>428.1</ele>
        <time>2024-10-03T15:02:06.999Z</time>
      </trkpt>
      <trkpt lat="43.14409" lon="-0.33122">
        <ele>427.34</ele>
        <time>2024-10-03T15:02:11.999Z</time>
      </trkpt>
      <trkpt lat="43.14443" lon="-0.33117">
        <ele>426.67</ele>
        <time>2024-10-03T15:02:16.999Z</time>
      </trkpt>
      <trkpt lat="43.14464" lon="-0.3308">
        <ele>426.19</ele>
        <time>2024-10-03T15:02:21.999Z</time>
      </trkpt>
      <trkpt lat="43.14488" lon="-0.33046">
        <ele>424.82</ele>
        <time>2024-10-03T15:02:26.999Z</time>
      </trkpt>
      <trkpt lat="43.145" lon="-0.33005">
        <ele>423.29</ele>
        <time>2024-10-03T15:02:31.999Z</time>
      </trkpt>
      <trkpt lat="43.14505" lon="-0.32958">
        <ele>422.28</ele>
        <time>2024-10-03T15:02:36.999Z</time>
      </trkpt>
      <trkpt lat="43.14511" lon="-0.32908">
        <ele>421.48</ele>
        <time>2024-10-03T15:02:41.999Z</time>
      </trkpt>
      <trkpt lat="43.14517" lon="-0.32858">
        <ele>421.36</ele>
        <time>2024-10-03T15:02:47.000Z</time>
      </trkpt>
      <trkpt lat="43.1452" lon="-0.32809">
        <ele>422.52</ele>
        <time>2024-10-03T15:02:52.000Z</time>
      </trkpt>
      <trkpt lat="43.14517" lon="-0.32758">
        <ele>422.73</ele>
        <time>2024-10-03T15:02:57.000Z</time>
      </trkpt>
      <trkpt lat="43.14479" lon="-0.32741">
        <ele>421.57</ele>
        <time>2024-10-03T15:03:02.000Z</time>
      </trkpt>
      <trkpt lat="43.14447" lon="-0.32709">
        <ele>419.89</ele>
        <time>2024-10-03T15:03:07.000Z</time>
      </trkpt>
      <trkpt lat="43.14448" lon="-0.32657">
        <ele>418.21</ele>
        <time>2024-10-03T15:03:12.000Z</time>
      </trkpt>
      <trkpt lat="43.14472" lon="-0.32615">
        <ele>416.7</ele>
        <time>2024-10-03T15:03:17.000Z</time>
      </trkpt>
      <trkpt lat="43.14497" lon="-0.32576">
        <ele>415.23</ele>
        <time>2024-10-03T15:03:22.000Z</time>
      </trkpt>
      <trkpt lat="43.14515" lon="-0.32531">
        <ele>414.05</ele>
        <time>2024-10-03T15:03:27.000Z</time>
      </trkpt>
      <trkpt lat="43.14543" lon="-0.32498">
        <ele>413.27</ele>
        <time>2024-10-03T15:03:32.000Z</time>
      </trkpt>
      <trkpt lat="43.14573" lon="-0.32464">
        <ele>412.53</ele>
        <time>2024-10-03T15:03:37.000Z</time>
      </trkpt>
      <trkpt lat="43.14589" lon="-0.32413">
        <ele>412.03</ele>
        <time>2024-10-03T15:03:42.000Z</time>
      </trkpt>
      <trkpt lat="43.14587" lon="-0.3236">
        <ele>410.66</ele>
        <time>2024-10-03T15:03:47.000Z</time>
      </trkpt>
      <trkpt lat="43.14599" lon="-0.323">
        <ele>408.18</ele>
        <time>2024-10-03T15:03:52.000Z</time>
      </trkpt>
      <trkpt lat="43.14612" lon="-0.32241">
        <ele>406.67</ele>
        <time>2024-10-03T15:03:57.000Z</time>
      </trkpt>
      <trkpt lat="43.14615" lon="-0.32181">
        <ele>405.15</ele>
        <time>2024-10-03T15:04:02.000Z</time>
      </trkpt>
      <trkpt lat="43.14617" lon="-0.32121">
        <ele>403.9</ele>
        <time>2024-10-03T15:04:07.000Z</time>
      </trkpt>
      <trkpt lat="43.14616" lon="-0.32064">
        <ele>402.79</ele>
        <time>2024-10-03T15:04:12.000Z</time>
      </trkpt>
      <trkpt lat="43.14614" lon="-0.32004">
        <ele>401.84</ele>
        <time>2024-10-03T15:04:17.000Z</time>
      </trkpt>
      <trkpt lat="43.14608" lon="-0.31946">
        <ele>400.55</ele>
        <time>2024-10-03T15:04:22.000Z</time>
      </trkpt>
      <trkpt lat="43.14609" lon="-0.31893">
        <ele>399.1</ele>
        <time>2024-10-03T15:04:27.000Z</time>
      </trkpt>
      <trkpt lat="43.14638" lon="-0.31858">
        <ele>397.44</ele>
        <time>2024-10-03T15:04:32.000Z</time>
      </trkpt>
      <trkpt lat="43.14671" lon="-0.31832">
        <ele>395.84</ele>
        <time>2024-10-03T15:04:37.000Z</time>
      </trkpt>
      <trkpt lat="43.14695" lon="-0.31791">
        <ele>393.93</ele>
        <time>2024-10-03T15:04:42.000Z</time>
      </trkpt>
      <trkpt lat="43.14714" lon="-0.31746">
        <ele>392.2</ele>
        <time>2024-10-03T15:04:47.000Z</time>
      </trkpt>
      <trkpt lat="43.14732" lon="-0.31703">
        <ele>390.85</ele>
        <time>2024-10-03T15:04:52.000Z</time>
      </trkpt>
      <trkpt lat="43.14745" lon="-0.31662">
        <ele>389.85</ele>
        <time>2024-10-03T15:04:57.000Z</time>
      </trkpt>
      <trkpt lat="43.14753" lon="-0.31626">
        <ele>389.27</ele>
        <time>2024-10-03T15:05:02.000Z</time>
      </trkpt>
      <trkpt lat="43.14752" lon="-0.31595">
        <ele>388.76</ele>
        <time>2024-10-03T15:05:07.000Z</time>
      </trkpt>
      <trkpt lat="43.14746" lon="-0.31562">
        <ele>387.99</ele>
        <time>2024-10-03T15:05:12.000Z</time>
      </trkpt>
      <trkpt lat="43.14738" lon="-0.31526">
        <ele>387.49</ele>
        <time>2024-10-03T15:05:17.000Z</time>
      </trkpt>
      <trkpt lat="43.14735" lon="-0.31489">
        <ele>387.23</ele>
        <time>2024-10-03T15:05:22.000Z</time>
      </trkpt>
      <trkpt lat="43.14733" lon="-0.31455">
        <ele>386.65</ele>
        <time>2024-10-03T15:05:27.000Z</time>
      </trkpt>
      <trkpt lat="43.14732" lon="-0.31419">
        <ele>386.25</ele>
        <time>2024-10-03T15:05:32.000Z</time>
      </trkpt>
      <trkpt lat="43.14733" lon="-0.31383">
        <ele>386.19</ele>
        <time>2024-10-03T15:05:37.000Z</time>
      </trkpt>
      <trkpt lat="43.14737" lon="-0.31346">
        <ele>386.12</ele>
        <time>2024-10-03T15:05:42.000Z</time>
      </trkpt>
      <trkpt lat="43.14748" lon="-0.31317">
        <ele>386.14</ele>
        <time>2024-10-03T15:05:47.000Z</time>
      </trkpt>
      <trkpt lat="43.14762" lon="-0.31289">
        <ele>386.21</ele>
        <time>2024-10-03T15:05:52.000Z</time>
      </trkpt>
      <trkpt lat="43.14766" lon="-0.31256">
        <ele>386.32</ele>
        <time>2024-10-03T15:05:57.000Z</time>
      </trkpt>
      <trkpt lat="43.14763" lon="-0.31225">
        <ele>386.34</ele>
        <time>2024-10-03T15:06:02.000Z</time>
      </trkpt>
      <trkpt lat="43.1476" lon="-0.31192">
        <ele>386.38</ele>
        <time>2024-10-03T15:06:07.000Z</time>
      </trkpt>
      <trkpt lat="43.14759" lon="-0.3116">
        <ele>386.41</ele>
        <time>2024-10-03T15:06:12.000Z</time>
      </trkpt>
      <trkpt lat="43.14762" lon="-0.31125">
        <ele>386.49</ele>
        <time>2024-10-03T15:06:17.000Z</time>
      </trkpt>
      <trkpt lat="43.14771" lon="-0.31093">
        <ele>386.61</ele>
        <time>2024-10-03T15:06:22.000Z</time>
      </trkpt>
      <trkpt lat="43.14788" lon="-0.31075">
        <ele>386.68</ele>
        <time>2024-10-03T15:06:27.000Z</time>
      </trkpt>
      <trkpt lat="43.14803" lon="-0.31067">
        <ele>386.72</ele>
        <time>2024-10-03T15:06:32.000Z</time>
      </trkpt>
      <trkpt lat="43.14819" lon="-0.31062">
        <ele>386.9</ele>
        <time>2024-10-03T15:06:37.000Z</time>
      </trkpt>
      <trkpt lat="43.14842" lon="-0.31039">
        <ele>387.17</ele>
        <time>2024-10-03T15:06:42.000Z</time>
      </trkpt>
      <trkpt lat="43.14849" lon="-0.30998">
        <ele>387.2</ele>
        <time>2024-10-03T15:06:47.000Z</time>
      </trkpt>
      <trkpt lat="43.14855" lon="-0.30947">
        <ele>387.14</ele>
        <time>2024-10-03T15:06:52.000Z</time>
      </trkpt>
      <trkpt lat="43.14864" lon="-0.30898">
        <ele>387.27</ele>
        <time>2024-10-03T15:06:57.000Z</time>
      </trkpt>
      <trkpt lat="43.14874" lon="-0.30848">
        <ele>387.7</ele>
        <time>2024-10-03T15:07:02.000Z</time>
      </trkpt>
      <trkpt lat="43.14887" lon="-0.30802">
        <ele>387.96</ele>
        <time>2024-10-03T15:07:07.000Z</time>
      </trkpt>
      <trkpt lat="43.14899" lon="-0.30756">
        <ele>387.89</ele>
        <time>2024-10-03T15:07:12.000Z</time>
      </trkpt>
      <trkpt lat="43.14915" lon="-0.30711">
        <ele>388.55</ele>
        <time>2024-10-03T15:07:17.000Z</time>
      </trkpt>
      <trkpt lat="43.14932" lon="-0.3067">
        <ele>388.92</ele>
        <time>2024-10-03T15:07:22.000Z</time>
      </trkpt>
      <trkpt lat="43.14948" lon="-0.30641">
        <ele>389.26</ele>
        <time>2024-10-03T15:07:27.000Z</time>
      </trkpt>
      <trkpt lat="43.14965" lon="-0.30615">
        <ele>388.76</ele>
        <time>2024-10-03T15:07:32.000Z</time>
      </trkpt>
      <trkpt lat="43.14979" lon="-0.30588">
        <ele>388.17</ele>
        <time>2024-10-03T15:07:37.000Z</time>
      </trkpt>
      <trkpt lat="43.14994" lon="-0.30561">
        <ele>387.98</ele>
        <time>2024-10-03T15:07:42.000Z</time>
      </trkpt>
      <trkpt lat="43.15011" lon="-0.30543">
        <ele>388.1</ele>
        <time>2024-10-03T15:07:47.000Z</time>
      </trkpt>
      <trkpt lat="43.15029" lon="-0.30537">
        <ele>388.42</ele>
        <time>2024-10-03T15:07:52.000Z</time>
      </trkpt>
      <trkpt lat="43.15044" lon="-0.30531">
        <ele>388.48</ele>
        <time>2024-10-03T15:07:57.000Z</time>
      </trkpt>
      <trkpt lat="43.15063" lon="-0.3051">
        <ele>388.91</ele>
        <time>2024-10-03T15:08:02.000Z</time>
      </trkpt>
      <trkpt lat="43.15074" lon="-0.30473">
        <ele>389.07</ele>
        <time>2024-10-03T15:08:07.000Z</time>
      </trkpt>
      <trkpt lat="43.15072" lon="-0.30433">
        <ele>388.98</ele>
        <time>2024-10-03T15:08:12.000Z</time>
      </trkpt>
      <trkpt lat="43.15067" lon="-0.30395">
        <ele>388.94</ele>
        <time>2024-10-03T15:08:17.000Z</time>
      </trkpt>
      <trkpt lat="43.15069" lon="-0.30356">
        <ele>388.95</ele>
        <time>2024-10-03T15:08:22.000Z</time>
      </trkpt>
      <trkpt lat="43.15086" lon="-0.30322">
        <ele>388.95</ele>
        <time>2024-10-03T15:08:27.000Z</time>
      </trkpt>
      <trkpt lat="43.15113" lon="-0.30298">
        <ele>388.92</ele>
        <time>2024-10-03T15:08:32.000Z</time>
      </trkpt>
      <trkpt lat="43.15134" lon="-0.3029">
        <ele>388.9</ele>
        <time>2024-10-03T15:08:37.000Z</time>
      </trkpt>
      <trkpt lat="43.15146" lon="-0.30293">
        <ele>388.9</ele>
        <time>2024-10-03T15:08:42.000Z</time>
      </trkpt>
      <trkpt lat="43.15156" lon="-0.30298">
        <ele>388.9</ele>
        <time>2024-10-03T15:08:47.000Z</time>
      </trkpt>
      <trkpt lat="43.15164" lon="-0.30306">
        <ele>388.91</ele>
        <time>2024-10-03T15:08:52.000Z</time>
      </trkpt>
      <trkpt lat="43.15171" lon="-0.30314">
        <ele>388.92</ele>
        <time>2024-10-03T15:08:57.000Z</time>
      </trkpt>
      <trkpt lat="43.1518" lon="-0.3032">
        <ele>388.92</ele>
        <time>2024-10-03T15:09:02.000Z</time>
      </trkpt>
      <trkpt lat="43.1519" lon="-0.30322">
        <ele>388.9</ele>
        <time>2024-10-03T15:09:07.000Z</time>
      </trkpt>
      <trkpt lat="43.15201" lon="-0.30317">
        <ele>388.88</ele>
        <time>2024-10-03T15:09:12.000Z</time>
      </trkpt>
      <trkpt lat="43.15206" lon="-0.30306">
        <ele>388.85</ele>
        <time>2024-10-03T15:09:17.000Z</time>
      </trkpt>
      <trkpt lat="43.15206" lon="-0.30294">
        <ele>388.81</ele>
        <time>2024-10-03T15:09:22.000Z</time>
      </trkpt>
      <trkpt lat="43.152" lon="-0.3028">
        <ele>388.76</ele>
        <time>2024-10-03T15:09:27.000Z</time>
      </trkpt>
      <trkpt lat="43.15194" lon="-0.30268">
        <ele>388.69</ele>
        <time>2024-10-03T15:09:32.000Z</time>
      </trkpt>
      <trkpt lat="43.1519" lon="-0.30255">
        <ele>388.62</ele>
        <time>2024-10-03T15:09:37.000Z</time>
      </trkpt>
      <trkpt lat="43.15187" lon="-0.30241">
        <ele>388.54</ele>
        <time>2024-10-03T15:09:42.000Z</time>
      </trkpt>
      <trkpt lat="43.1519" lon="-0.30227">
        <ele>388.46</ele>
        <time>2024-10-03T15:09:47.000Z</time>
      </trkpt>
      <trkpt lat="43.15196" lon="-0.30215">
        <ele>388.39</ele>
        <time>2024-10-03T15:09:52.000Z</time>
      </trkpt>
      <trkpt lat="43.15206" lon="-0.30207">
        <ele>388.34</ele>
        <time>2024-10-03T15:09:57.000Z</time>
      </trkpt>
      <trkpt lat="43.15213" lon="-0.302">
        <ele>388.31</ele>
        <time>2024-10-03T15:10:02.000Z</time>
      </trkpt>
      <trkpt lat="43.15221" lon="-0.30192">
        <ele>388.3</ele>
        <time>2024-10-03T15:10:07.000Z</time>
      </trkpt>
      <trkpt lat="43.15228" lon="-0.30184">
        <ele>388.32</ele>
        <time>2024-10-03T15:10:12.000Z</time>
      </trkpt>
      <trkpt lat="43.15235" lon="-0.30173">
        <ele>388.36</ele>
        <time>2024-10-03T15:10:18.000Z</time>
      </trkpt>
      <trkpt lat="43.1524" lon="-0.30162">
        <ele>388.44</ele>
        <time>2024-10-03T15:10:24.000Z</time>
      </trkpt>
      <trkpt lat="43.15247" lon="-0.30151">
        <ele>388.5</ele>
        <time>2024-10-03T15:10:29.000Z</time>
      </trkpt>
      <trkpt lat="43.15253" lon="-0.30141">
        <ele>388.58</ele>
        <time>2024-10-03T15:10:34.000Z</time>
      </trkpt>
      <trkpt lat="43.15258" lon="-0.3013">
        <ele>388.67</ele>
        <time>2024-10-03T15:10:39.000Z</time>
      </trkpt>
      <trkpt lat="43.15263" lon="-0.3012">
        <ele>388.77</ele>
        <time>2024-10-03T15:10:44.000Z</time>
      </trkpt>
      <trkpt lat="43.15269" lon="-0.30109">
        <ele>388.9</ele>
        <time>2024-10-03T15:10:50.000Z</time>
      </trkpt>
      <trkpt lat="43.15274" lon="-0.30098">
        <ele>389.01</ele>
        <time>2024-10-03T15:10:55.000Z</time>
      </trkpt>
      <trkpt lat="43.15279" lon="-0.30087">
        <ele>389.11</ele>
        <time>2024-10-03T15:11:00.000Z</time>
      </trkpt>
      <trkpt lat="43.15287" lon="-0.3008">
        <ele>389.23</ele>
        <time>2024-10-03T15:11:05.000Z</time>
      </trkpt>
      <trkpt lat="43.15294" lon="-0.30072">
        <ele>389.36</ele>
        <time>2024-10-03T15:11:10.000Z</time>
      </trkpt>
      <trkpt lat="43.15302" lon="-0.30062">
        <ele>389.5</ele>
        <time>2024-10-03T15:11:15.000Z</time>
      </trkpt>
      <trkpt lat="43.1531" lon="-0.30052">
        <ele>389.65</ele>
        <time>2024-10-03T15:11:20.000Z</time>
      </trkpt>
      <trkpt lat="43.15318" lon="-0.30031">
        <ele>390.24</ele>
        <time>2024-10-03T15:11:25.000Z</time>
      </trkpt>
      <trkpt lat="43.15325" lon="-0.3">
        <ele>391.03</ele>
        <time>2024-10-03T15:11:30.000Z</time>
      </trkpt>
      <trkpt lat="43.15332" lon="-0.29953">
        <ele>391.47</ele>
        <time>2024-10-03T15:11:35.000Z</time>
      </trkpt>
      <trkpt lat="43.15343" lon="-0.29903">
        <ele>392.01</ele>
        <time>2024-10-03T15:11:40.000Z</time>
      </trkpt>
      <trkpt lat="43.15366" lon="-0.2987">
        <ele>392.77</ele>
        <time>2024-10-03T15:11:45.000Z</time>
      </trkpt>
      <trkpt lat="43.15389" lon="-0.29846">
        <ele>393.7</ele>
        <time>2024-10-03T15:11:50.000Z</time>
      </trkpt>
      <trkpt lat="43.15411" lon="-0.29826">
        <ele>394.69</ele>
        <time>2024-10-03T15:11:55.000Z</time>
      </trkpt>
      <trkpt lat="43.1543" lon="-0.29806">
        <ele>395.68</ele>
        <time>2024-10-03T15:12:00.000Z</time>
      </trkpt>
      <trkpt lat="43.15443" lon="-0.29784">
        <ele>396.5</ele>
        <time>2024-10-03T15:12:05.000Z</time>
      </trkpt>
      <trkpt lat="43.15451" lon="-0.29766">
        <ele>396.7</ele>
        <time>2024-10-03T15:12:10.000Z</time>
      </trkpt>
      <trkpt lat="43.15456" lon="-0.2975">
        <ele>396.94</ele>
        <time>2024-10-03T15:12:15.000Z</time>
      </trkpt>
      <trkpt lat="43.1546" lon="-0.29732">
        <ele>397.2</ele>
        <time>2024-10-03T15:12:20.000Z</time>
      </trkpt>
      <trkpt lat="43.15466" lon="-0.29715">
        <ele>397.45</ele>
        <time>2024-10-03T15:12:25.000Z</time>
      </trkpt>
      <trkpt lat="43.15471" lon="-0.29697">
        <ele>397.67</ele>
        <time>2024-10-03T15:12:30.000Z</time>
      </trkpt>
      <trkpt lat="43.15476" lon="-0.2968">
        <ele>397.9</ele>
        <time>2024-10-03T15:12:35.000Z</time>
      </trkpt>
      <trkpt lat="43.15481" lon="-0.29663">
        <ele>398.1</ele>
        <time>2024-10-03T15:12:40.000Z</time>
      </trkpt>
      <trkpt lat="43.15487" lon="-0.29645">
        <ele>398.3</ele>
        <time>2024-10-03T15:12:45.000Z</time>
      </trkpt>
      <trkpt lat="43.15493" lon="-0.29627">
        <ele>398.49</ele>
        <time>2024-10-03T15:12:50.000Z</time>
      </trkpt>
      <trkpt lat="43.155" lon="-0.29608">
        <ele>398.65</ele>
        <time>2024-10-03T15:12:55.000Z</time>
      </trkpt>
      <trkpt lat="43.15506" lon="-0.2959">
        <ele>399.14</ele>
        <time>2024-10-03T15:13:00.000Z</time>
      </trkpt>
      <trkpt lat="43.1551" lon="-0.29556">
        <ele>399.68</ele>
        <time>2024-10-03T15:13:05.000Z</time>
      </trkpt>
      <trkpt lat="43.15508" lon="-0.29522">
        <ele>399.8</ele>
        <time>2024-10-03T15:13:10.000Z</time>
      </trkpt>
      <trkpt lat="43.15503" lon="-0.2948">
        <ele>399.81</ele>
        <time>2024-10-03T15:13:15.000Z</time>
      </trkpt>
      <trkpt lat="43.15493" lon="-0.29433">
        <ele>399.84</ele>
        <time>2024-10-03T15:13:20.000Z</time>
      </trkpt>
      <trkpt lat="43.15481" lon="-0.29379">
        <ele>399.84</ele>
        <time>2024-10-03T15:13:25.000Z</time>
      </trkpt>
      <trkpt lat="43.15476" lon="-0.29319">
        <ele>399.7</ele>
        <time>2024-10-03T15:13:30.000Z</time>
      </trkpt>
      <trkpt lat="43.15502" lon="-0.29301">
        <ele>399.61</ele>
        <time>2024-10-03T15:13:35.000Z</time>
      </trkpt>
      <trkpt lat="43.1552" lon="-0.2934">
        <ele>399.39</ele>
        <time>2024-10-03T15:13:40.000Z</time>
      </trkpt>
      <trkpt lat="43.15534" lon="-0.29384">
        <ele>399.62</ele>
        <time>2024-10-03T15:13:45.000Z</time>
      </trkpt>
      <trkpt lat="43.15544" lon="-0.2942">
        <ele>399.86</ele>
        <time>2024-10-03T15:13:50.000Z</time>
      </trkpt>
      <trkpt lat="43.15566" lon="-0.29449">
        <ele>400.73</ele>
        <time>2024-10-03T15:13:55.000Z</time>
      </trkpt>
      <trkpt lat="43.15599" lon="-0.2945">
        <ele>401.13</ele>
        <time>2024-10-03T15:14:00.000Z</time>
      </trkpt>
      <trkpt lat="43.15628" lon="-0.29432">
        <ele>401.4</ele>
        <time>2024-10-03T15:14:05.000Z</time>
      </trkpt>
      <trkpt lat="43.15664" lon="-0.29424">
        <ele>400.4</ele>
        <time>2024-10-03T15:14:10.000Z</time>
      </trkpt>
      <trkpt lat="43.15701" lon="-0.29433">
        <ele>399.94</ele>
        <time>2024-10-03T15:14:15.000Z</time>
      </trkpt>
      <trkpt lat="43.15743" lon="-0.29435">
        <ele>398.48</ele>
        <time>2024-10-03T15:14:20.000Z</time>
      </trkpt>
      <trkpt lat="43.15781" lon="-0.29406">
        <ele>395.99</ele>
        <time>2024-10-03T15:14:25.000Z</time>
      </trkpt>
      <trkpt lat="43.15825" lon="-0.29391">
        <ele>393.67</ele>
        <time>2024-10-03T15:14:30.000Z</time>
      </trkpt>
      <trkpt lat="43.15869" lon="-0.29367">
        <ele>392.11</ele>
        <time>2024-10-03T15:14:35.000Z</time>
      </trkpt>
      <trkpt lat="43.15894" lon="-0.29306">
        <ele>390.56</ele>
        <time>2024-10-03T15:14:40.000Z</time>
      </trkpt>
      <trkpt lat="43.15916" lon="-0.29238">
        <ele>388.74</ele>
        <time>2024-10-03T15:14:45.000Z</time>
      </trkpt>
      <trkpt lat="43.15952" lon="-0.29177">
        <ele>386.57</ele>
        <time>2024-10-03T15:14:50.000Z</time>
      </trkpt>
      <trkpt lat="43.15965" lon="-0.29099">
        <ele>384.3</ele>
        <time>2024-10-03T15:14:55.000Z</time>
      </trkpt>
      <trkpt lat="43.15987" lon="-0.29008">
        <ele>381.09</ele>
        <time>2024-10-03T15:15:00.999Z</time>
      </trkpt>
      <trkpt lat="43.16039" lon="-0.28976">
        <ele>378.41</ele>
        <time>2024-10-03T15:15:05.999Z</time>
      </trkpt>
      <trkpt lat="43.16094" lon="-0.28968">
        <ele>376.64</ele>
        <time>2024-10-03T15:15:10.999Z</time>
      </trkpt>
      <trkpt lat="43.16145" lon="-0.28943">
        <ele>375.06</ele>
        <time>2024-10-03T15:15:15.999Z</time>
      </trkpt>
      <trkpt lat="43.16183" lon="-0.28907">
        <ele>372.97</ele>
        <time>2024-10-03T15:15:20.999Z</time>
      </trkpt>
      <trkpt lat="43.16207" lon="-0.28862">
        <ele>370.76</ele>
        <time>2024-10-03T15:15:25.999Z</time>
      </trkpt>
      <trkpt lat="43.16222" lon="-0.28814">
        <ele>368.34</ele>
        <time>2024-10-03T15:15:30.999Z</time>
      </trkpt>
      <trkpt lat="43.16237" lon="-0.28765">
        <ele>366.07</ele>
        <time>2024-10-03T15:15:35.999Z</time>
      </trkpt>
      <trkpt lat="43.16259" lon="-0.28726">
        <ele>364.17</ele>
        <time>2024-10-03T15:15:40.999Z</time>
      </trkpt>
      <trkpt lat="43.16284" lon="-0.28693">
        <ele>362.36</ele>
        <time>2024-10-03T15:15:45.999Z</time>
      </trkpt>
      <trkpt lat="43.16302" lon="-0.28647">
        <ele>360.5</ele>
        <time>2024-10-03T15:15:50.999Z</time>
      </trkpt>
      <trkpt lat="43.16317" lon="-0.28587">
        <ele>358.57</ele>
        <time>2024-10-03T15:15:55.999Z</time>
      </trkpt>
      <trkpt lat="43.16335" lon="-0.28531">
        <ele>357.56</ele>
        <time>2024-10-03T15:16:00.999Z</time>
      </trkpt>
      <trkpt lat="43.16357" lon="-0.28482">
        <ele>356.12</ele>
        <time>2024-10-03T15:16:05.999Z</time>
      </trkpt>
      <trkpt lat="43.16384" lon="-0.28439">
        <ele>354.61</ele>
        <time>2024-10-03T15:16:10.999Z</time>
      </trkpt>
      <trkpt lat="43.16419" lon="-0.28412">
        <ele>353.63</ele>
        <time>2024-10-03T15:16:15.999Z</time>
      </trkpt>
      <trkpt lat="43.16449" lon="-0.28393">
        <ele>352.83</ele>
        <time>2024-10-03T15:16:20.999Z</time>
      </trkpt>
      <trkpt lat="43.16475" lon="-0.28381">
        <ele>352.42</ele>
        <time>2024-10-03T15:16:25.999Z</time>
      </trkpt>
      <trkpt lat="43.16491" lon="-0.28376">
        <ele>352.24</ele>
        <time>2024-10-03T15:16:30.999Z</time>
      </trkpt>
      <trkpt lat="43.16505" lon="-0.28376">
        <ele>352.15</ele>
        <time>2024-10-03T15:16:35.999Z</time>
      </trkpt>
      <trkpt lat="43.16521" lon="-0.28377">
        <ele>351.97</ele>
        <time>2024-10-03T15:16:40.999Z</time>
      </trkpt>
      <trkpt lat="43.16536" lon="-0.28381">
        <ele>351.72</ele>
        <time>2024-10-03T15:16:45.999Z</time>
      </trkpt>
      <trkpt lat="43.16555" lon="-0.28384">
        <ele>349.77</ele>
        <time>2024-10-03T15:16:50.999Z</time>
      </trkpt>
      <trkpt lat="43.16575" lon="-0.28383">
        <ele>348.29</ele>
        <time>2024-10-03T15:16:55.999Z</time>
      </trkpt>
      <trkpt lat="43.16594" lon="-0.28376">
        <ele>347.83</ele>
        <time>2024-10-03T15:17:00.999Z</time>
      </trkpt>
      <trkpt lat="43.16613" lon="-0.28363">
        <ele>346.79</ele>
        <time>2024-10-03T15:17:05.999Z</time>
      </trkpt>
      <trkpt lat="43.16639" lon="-0.28341">
        <ele>346.13</ele>
        <time>2024-10-03T15:17:10.999Z</time>
      </trkpt>
      <trkpt lat="43.16667" lon="-0.2831">
        <ele>345.85</ele>
        <time>2024-10-03T15:17:15.999Z</time>
      </trkpt>
      <trkpt lat="43.16695" lon="-0.28282">
        <ele>345.62</ele>
        <time>2024-10-03T15:17:20.999Z</time>
      </trkpt>
      <trkpt lat="43.16727" lon="-0.28272">
        <ele>345.52</ele>
        <time>2024-10-03T15:17:25.999Z</time>
      </trkpt>
      <trkpt lat="43.16757" lon="-0.28263">
        <ele>345.36</ele>
        <time>2024-10-03T15:17:30.999Z</time>
      </trkpt>
      <trkpt lat="43.16781" lon="-0.28248">
        <ele>345.32</ele>
        <time>2024-10-03T15:17:35.999Z</time>
      </trkpt>
      <trkpt lat="43.16795" lon="-0.28232">
        <ele>345.31</ele>
        <time>2024-10-03T15:17:40.999Z</time>
      </trkpt>
      <trkpt lat="43.16809" lon="-0.28207">
        <ele>344.23</ele>
        <time>2024-10-03T15:17:45.999Z</time>
      </trkpt>
      <trkpt lat="43.16829" lon="-0.28173">
        <ele>342.42</ele>
        <time>2024-10-03T15:17:50.999Z</time>
      </trkpt>
      <trkpt lat="43.16852" lon="-0.28131">
        <ele>341.26</ele>
        <time>2024-10-03T15:17:55.999Z</time>
      </trkpt>
      <trkpt lat="43.16878" lon="-0.28085">
        <ele>340.71</ele>
        <time>2024-10-03T15:18:00.999Z</time>
      </trkpt>
      <trkpt lat="43.16902" lon="-0.2804">
        <ele>340.73</ele>
        <time>2024-10-03T15:18:05.999Z</time>
      </trkpt>
      <trkpt lat="43.16924" lon="-0.27995">
        <ele>340.6</ele>
        <time>2024-10-03T15:18:10.999Z</time>
      </trkpt>
      <trkpt lat="43.16948" lon="-0.27953">
        <ele>340.49</ele>
        <time>2024-10-03T15:18:15.999Z</time>
      </trkpt>
      <trkpt lat="43.16967" lon="-0.27917">
        <ele>340.43</ele>
        <time>2024-10-03T15:18:20.999Z</time>
      </trkpt>
      <trkpt lat="43.16983" lon="-0.27888">
        <ele>340.3</ele>
        <time>2024-10-03T15:18:25.999Z</time>
      </trkpt>
      <trkpt lat="43.16996" lon="-0.27862">
        <ele>339.91</ele>
        <time>2024-10-03T15:18:30.999Z</time>
      </trkpt>
      <trkpt lat="43.17008" lon="-0.27838">
        <ele>339.91</ele>
        <time>2024-10-03T15:18:35.999Z</time>
      </trkpt>
      <trkpt lat="43.17019" lon="-0.27817">
        <ele>340.03</ele>
        <time>2024-10-03T15:18:40.999Z</time>
      </trkpt>
      <trkpt lat="43.17026" lon="-0.27802">
        <ele>340.16</ele>
        <time>2024-10-03T15:18:45.999Z</time>
      </trkpt>
      <trkpt lat="43.17034" lon="-0.27786">
        <ele>340.36</ele>
        <time>2024-10-03T15:18:50.999Z</time>
      </trkpt>
      <trkpt lat="43.17041" lon="-0.27768">
        <ele>340.57</ele>
        <time>2024-10-03T15:18:55.999Z</time>
      </trkpt>
      <trkpt lat="43.17048" lon="-0.27752">
        <ele>340.79</ele>
        <time>2024-10-03T15:19:00.999Z</time>
      </trkpt>
      <trkpt lat="43.17055" lon="-0.27735">
        <ele>341</ele>
        <time>2024-10-03T15:19:05.999Z</time>
      </trkpt>
      <trkpt lat="43.17061" lon="-0.27718">
        <ele>341.2</ele>
        <time>2024-10-03T15:19:10.999Z</time>
      </trkpt>
      <trkpt lat="43.17067" lon="-0.277">
        <ele>341.37</ele>
        <time>2024-10-03T15:19:15.999Z</time>
      </trkpt>
      <trkpt lat="43.17067" lon="-0.27682">
        <ele>341.51</ele>
        <time>2024-10-03T15:19:20.999Z</time>
      </trkpt>
      <trkpt lat="43.17064" lon="-0.27659">
        <ele>341.63</ele>
        <time>2024-10-03T15:19:25.999Z</time>
      </trkpt>
      <trkpt lat="43.17059" lon="-0.27634">
        <ele>342.24</ele>
        <time>2024-10-03T15:19:30.999Z</time>
      </trkpt>
      <trkpt lat="43.17053" lon="-0.2761">
        <ele>342.31</ele>
        <time>2024-10-03T15:19:35.999Z</time>
      </trkpt>
      <trkpt lat="43.17046" lon="-0.2759">
        <ele>342.33</ele>
        <time>2024-10-03T15:19:40.999Z</time>
      </trkpt>
      <trkpt lat="43.17037" lon="-0.27569">
        <ele>342.33</ele>
        <time>2024-10-03T15:19:45.999Z</time>
      </trkpt>
      <trkpt lat="43.17028" lon="-0.27539">
        <ele>342.25</ele>
        <time>2024-10-03T15:19:50.999Z</time>
      </trkpt>
      <trkpt lat="43.17029" lon="-0.27495">
        <ele>342.15</ele>
        <time>2024-10-03T15:19:55.999Z</time>
      </trkpt>
      <trkpt lat="43.17036" lon="-0.27441">
        <ele>341.97</ele>
        <time>2024-10-03T15:20:00.999Z</time>
      </trkpt>
      <trkpt lat="43.17061" lon="-0.27375">
        <ele>340.81</ele>
        <time>2024-10-03T15:20:05.999Z</time>
      </trkpt>
      <trkpt lat="43.17085" lon="-0.27292">
        <ele>339.56</ele>
        <time>2024-10-03T15:20:10.999Z</time>
      </trkpt>
      <trkpt lat="43.17108" lon="-0.2721">
        <ele>340.26</ele>
        <time>2024-10-03T15:20:15.999Z</time>
      </trkpt>
      <trkpt lat="43.17119" lon="-0.2714">
        <ele>340.83</ele>
        <time>2024-10-03T15:20:20.999Z</time>
      </trkpt>
      <trkpt lat="43.17122" lon="-0.27079">
        <ele>339.76</ele>
        <time>2024-10-03T15:20:25.999Z</time>
      </trkpt>
      <trkpt lat="43.17123" lon="-0.2702">
        <ele>338.51</ele>
        <time>2024-10-03T15:20:30.999Z</time>
      </trkpt>
      <trkpt lat="43.17132" lon="-0.26964">
        <ele>337.37</ele>
        <time>2024-10-03T15:20:35.999Z</time>
      </trkpt>
      <trkpt lat="43.17142" lon="-0.26913">
        <ele>336.32</ele>
        <time>2024-10-03T15:20:40.999Z</time>
      </trkpt>
      <trkpt lat="43.1715" lon="-0.26864">
        <ele>335.11</ele>
        <time>2024-10-03T15:20:45.999Z</time>
      </trkpt>
      <trkpt lat="43.17162" lon="-0.26814">
        <ele>333.39</ele>
        <time>2024-10-03T15:20:50.999Z</time>
      </trkpt>
      <trkpt lat="43.17177" lon="-0.26763">
        <ele>331.72</ele>
        <time>2024-10-03T15:20:55.999Z</time>
      </trkpt>
      <trkpt lat="43.17195" lon="-0.26716">
        <ele>330.53</ele>
        <time>2024-10-03T15:21:00.999Z</time>
      </trkpt>
      <trkpt lat="43.17212" lon="-0.2668">
        <ele>329.23</ele>
        <time>2024-10-03T15:21:05.999Z</time>
      </trkpt>
      <trkpt lat="43.17221" lon="-0.2664">
        <ele>327.53</ele>
        <time>2024-10-03T15:21:10.999Z</time>
      </trkpt>
      <trkpt lat="43.17228" lon="-0.26599">
        <ele>326.08</ele>
        <time>2024-10-03T15:21:15.999Z</time>
      </trkpt>
      <trkpt lat="43.17235" lon="-0.26556">
        <ele>325.05</ele>
        <time>2024-10-03T15:21:20.999Z</time>
      </trkpt>
      <trkpt lat="43.1724" lon="-0.26509">
        <ele>323.88</ele>
        <time>2024-10-03T15:21:25.999Z</time>
      </trkpt>
      <trkpt lat="43.17248" lon="-0.26455">
        <ele>322.05</ele>
        <time>2024-10-03T15:21:30.999Z</time>
      </trkpt>
      <trkpt lat="43.17256" lon="-0.264">
        <ele>320.79</ele>
        <time>2024-10-03T15:21:35.999Z</time>
      </trkpt>
      <trkpt lat="43.17279" lon="-0.26356">
        <ele>319.17</ele>
        <time>2024-10-03T15:21:40.999Z</time>
      </trkpt>
      <trkpt lat="43.17313" lon="-0.26324">
        <ele>317.68</ele>
        <time>2024-10-03T15:21:45.999Z</time>
      </trkpt>
      <trkpt lat="43.17341" lon="-0.2631">
        <ele>316.56</ele>
        <time>2024-10-03T15:21:50.999Z</time>
      </trkpt>
      <trkpt lat="43.17362" lon="-0.26292">
        <ele>316.29</ele>
        <time>2024-10-03T15:21:55.999Z</time>
      </trkpt>
      <trkpt lat="43.17372" lon="-0.26286">
        <ele>315.61</ele>
        <time>2024-10-03T15:22:40.999Z</time>
      </trkpt>
      <trkpt lat="43.17382" lon="-0.26283">
        <ele>315.14</ele>
        <time>2024-10-03T15:22:45.999Z</time>
      </trkpt>
      <trkpt lat="43.17401" lon="-0.26276">
        <ele>312.31</ele>
        <time>2024-10-03T15:22:50.999Z</time>
      </trkpt>
      <trkpt lat="43.17424" lon="-0.26263">
        <ele>310.53</ele>
        <time>2024-10-03T15:22:55.999Z</time>
      </trkpt>
      <trkpt lat="43.17449" lon="-0.26248">
        <ele>309.71</ele>
        <time>2024-10-03T15:23:00.999Z</time>
      </trkpt>
      <trkpt lat="43.17481" lon="-0.26224">
        <ele>309.17</ele>
        <time>2024-10-03T15:23:05.999Z</time>
      </trkpt>
      <trkpt lat="43.17519" lon="-0.26198">
        <ele>308.71</ele>
        <time>2024-10-03T15:23:10.999Z</time>
      </trkpt>
      <trkpt lat="43.17556" lon="-0.26173">
        <ele>308.02</ele>
        <time>2024-10-03T15:23:15.999Z</time>
      </trkpt>
      <trkpt lat="43.17595" lon="-0.26191">
        <ele>306.65</ele>
        <time>2024-10-03T15:23:20.999Z</time>
      </trkpt>
      <trkpt lat="43.17637" lon="-0.26206">
        <ele>304.11</ele>
        <time>2024-10-03T15:23:25.999Z</time>
      </trkpt>
      <trkpt lat="43.17662" lon="-0.26209">
        <ele>302.2</ele>
        <time>2024-10-03T15:23:30.999Z</time>
      </trkpt>
      <trkpt lat="43.17676" lon="-0.26207">
        <ele>301.74</ele>
        <time>2024-10-03T15:23:35.999Z</time>
      </trkpt>
      <trkpt lat="43.17697" lon="-0.26205">
        <ele>298.46</ele>
        <time>2024-10-03T15:23:40.999Z</time>
      </trkpt>
      <trkpt lat="43.17723" lon="-0.262">
        <ele>295.51</ele>
        <time>2024-10-03T15:23:45.999Z</time>
      </trkpt>
      <trkpt lat="43.17745" lon="-0.26194">
        <ele>293.57</ele>
        <time>2024-10-03T15:23:50.999Z</time>
      </trkpt>
      <trkpt lat="43.17774" lon="-0.26191">
        <ele>292.52</ele>
        <time>2024-10-03T15:23:55.999Z</time>
      </trkpt>
      <trkpt lat="43.17804" lon="-0.26186">
        <ele>292.68</ele>
        <time>2024-10-03T15:24:00.999Z</time>
      </trkpt>
      <trkpt lat="43.17834" lon="-0.26183">
        <ele>292.39</ele>
        <time>2024-10-03T15:24:05.999Z</time>
      </trkpt>
      <trkpt lat="43.1786" lon="-0.26177">
        <ele>290.85</ele>
        <time>2024-10-03T15:24:10.999Z</time>
      </trkpt>
      <trkpt lat="43.17856" lon="-0.26136">
        <ele>289.12</ele>
        <time>2024-10-03T15:24:15.999Z</time>
      </trkpt>
      <trkpt lat="43.17861" lon="-0.26101">
        <ele>290.29</ele>
        <time>2024-10-03T15:24:20.999Z</time>
      </trkpt>
      <trkpt lat="43.17891" lon="-0.26095">
        <ele>289.34</ele>
        <time>2024-10-03T15:24:25.999Z</time>
      </trkpt>
      <trkpt lat="43.17919" lon="-0.26094">
        <ele>289.85</ele>
        <time>2024-10-03T15:24:30.999Z</time>
      </trkpt>
      <trkpt lat="43.17941" lon="-0.2609">
        <ele>290.43</ele>
        <time>2024-10-03T15:24:35.999Z</time>
      </trkpt>
      <trkpt lat="43.1796" lon="-0.26085">
        <ele>291.17</ele>
        <time>2024-10-03T15:24:40.999Z</time>
      </trkpt>
      <trkpt lat="43.17971" lon="-0.26082">
        <ele>291.29</ele>
        <time>2024-10-03T15:24:45.999Z</time>
      </trkpt>
      <trkpt lat="43.17982" lon="-0.26076">
        <ele>291.33</ele>
        <time>2024-10-03T15:24:51.999Z</time>
      </trkpt>
      <trkpt lat="43.18007" lon="-0.26073">
        <ele>290.49</ele>
        <time>2024-10-03T15:24:56.999Z</time>
      </trkpt>
      <trkpt lat="43.18034" lon="-0.2607">
        <ele>289.94</ele>
        <time>2024-10-03T15:25:01.999Z</time>
      </trkpt>
      <trkpt lat="43.18064" lon="-0.26068">
        <ele>289.05</ele>
        <time>2024-10-03T15:25:06.999Z</time>
      </trkpt>
      <trkpt lat="43.18092" lon="-0.26067">
        <ele>287.7</ele>
        <time>2024-10-03T15:25:11.999Z</time>
      </trkpt>
      <trkpt lat="43.18121" lon="-0.26072">
        <ele>286.38</ele>
        <time>2024-10-03T15:25:16.999Z</time>
      </trkpt>
      <trkpt lat="43.18129" lon="-0.26107">
        <ele>284.92</ele>
        <time>2024-10-03T15:25:21.999Z</time>
      </trkpt>
      <trkpt lat="43.1813" lon="-0.26138">
        <ele>283.91</ele>
        <time>2024-10-03T15:25:26.999Z</time>
      </trkpt>
      <trkpt lat="43.18143" lon="-0.26143">
        <ele>283.64</ele>
        <time>2024-10-03T15:25:31.999Z</time>
      </trkpt>
      <trkpt lat="43.18168" lon="-0.2614">
        <ele>282.97</ele>
        <time>2024-10-03T15:25:36.999Z</time>
      </trkpt>
      <trkpt lat="43.18196" lon="-0.26134">
        <ele>282.48</ele>
        <time>2024-10-03T15:25:41.999Z</time>
      </trkpt>
      <trkpt lat="43.18218" lon="-0.2613">
        <ele>282.21</ele>
        <time>2024-10-03T15:25:46.999Z</time>
      </trkpt>
      <trkpt lat="43.1825" lon="-0.26124">
        <ele>281.94</ele>
        <time>2024-10-03T15:25:51.999Z</time>
      </trkpt>
      <trkpt lat="43.1828" lon="-0.26123">
        <ele>281.47</ele>
        <time>2024-10-03T15:25:56.999Z</time>
      </trkpt>
      <trkpt lat="43.18306" lon="-0.2612">
        <ele>281.06</ele>
        <time>2024-10-03T15:26:01.999Z</time>
      </trkpt>
      <trkpt lat="43.18333" lon="-0.26116">
        <ele>280.73</ele>
        <time>2024-10-03T15:26:06.999Z</time>
      </trkpt>
      <trkpt lat="43.18361" lon="-0.26111">
        <ele>280.25</ele>
        <time>2024-10-03T15:26:11.999Z</time>
      </trkpt>
      <trkpt lat="43.18387" lon="-0.26108">
        <ele>279.93</ele>
        <time>2024-10-03T15:26:16.999Z</time>
      </trkpt>
      <trkpt lat="43.18414" lon="-0.26104">
        <ele>279.73</ele>
        <time>2024-10-03T15:26:21.999Z</time>
      </trkpt>
      <trkpt lat="43.18446" lon="-0.26101">
        <ele>279.47</ele>
        <time>2024-10-03T15:26:26.999Z</time>
      </trkpt>
      <trkpt lat="43.18478" lon="-0.26098">
        <ele>279.17</ele>
        <time>2024-10-03T15:26:31.999Z</time>
      </trkpt>
      <trkpt lat="43.18507" lon="-0.26098">
        <ele>278.97</ele>
        <time>2024-10-03T15:26:36.999Z</time>
      </trkpt>
      <trkpt lat="43.18538" lon="-0.26101">
        <ele>278.78</ele>
        <time>2024-10-03T15:26:41.999Z</time>
      </trkpt>
      <trkpt lat="43.1857" lon="-0.26107">
        <ele>278.47</ele>
        <time>2024-10-03T15:26:46.999Z</time>
      </trkpt>
      <trkpt lat="43.18603" lon="-0.26111">
        <ele>278.05</ele>
        <time>2024-10-03T15:26:51.999Z</time>
      </trkpt>
      <trkpt lat="43.18637" lon="-0.26119">
        <ele>277.43</ele>
        <time>2024-10-03T15:26:56.999Z</time>
      </trkpt>
      <trkpt lat="43.1867" lon="-0.2614">
        <ele>276.82</ele>
        <time>2024-10-03T15:27:01.999Z</time>
      </trkpt>
      <trkpt lat="43.18697" lon="-0.2617">
        <ele>276.48</ele>
        <time>2024-10-03T15:27:06.999Z</time>
      </trkpt>
      <trkpt lat="43.18724" lon="-0.26199">
        <ele>275.95</ele>
        <time>2024-10-03T15:27:11.999Z</time>
      </trkpt>
      <trkpt lat="43.18751" lon="-0.26226">
        <ele>275.52</ele>
        <time>2024-10-03T15:27:17.000Z</time>
      </trkpt>
      <trkpt lat="43.18777" lon="-0.26255">
        <ele>275</ele>
        <time>2024-10-03T15:27:22.000Z</time>
      </trkpt>
      <trkpt lat="43.18803" lon="-0.26283">
        <ele>274.24</ele>
        <time>2024-10-03T15:27:27.000Z</time>
      </trkpt>
      <trkpt lat="43.18829" lon="-0.2631">
        <ele>273.84</ele>
        <time>2024-10-03T15:27:32.000Z</time>
      </trkpt>
      <trkpt lat="43.18853" lon="-0.26336">
        <ele>273.57</ele>
        <time>2024-10-03T15:27:37.000Z</time>
      </trkpt>
      <trkpt lat="43.18877" lon="-0.26362">
        <ele>273.25</ele>
        <time>2024-10-03T15:27:42.000Z</time>
      </trkpt>
      <trkpt lat="43.18901" lon="-0.26387">
        <ele>272.57</ele>
        <time>2024-10-03T15:27:47.000Z</time>
      </trkpt>
      <trkpt lat="43.18925" lon="-0.26412">
        <ele>272.1</ele>
        <time>2024-10-03T15:27:52.000Z</time>
      </trkpt>
      <trkpt lat="43.18948" lon="-0.26438">
        <ele>272.39</ele>
        <time>2024-10-03T15:27:57.000Z</time>
      </trkpt>
      <trkpt lat="43.18971" lon="-0.26462">
        <ele>272.99</ele>
        <time>2024-10-03T15:28:02.000Z</time>
      </trkpt>
      <trkpt lat="43.18991" lon="-0.26491">
        <ele>273.4</ele>
        <time>2024-10-03T15:28:07.000Z</time>
      </trkpt>
      <trkpt lat="43.19009" lon="-0.26521">
        <ele>273.75</ele>
        <time>2024-10-03T15:28:12.000Z</time>
      </trkpt>
      <trkpt lat="43.19027" lon="-0.2655">
        <ele>273.64</ele>
        <time>2024-10-03T15:28:17.000Z</time>
      </trkpt>
      <trkpt lat="43.19045" lon="-0.26578">
        <ele>273.08</ele>
        <time>2024-10-03T15:28:22.000Z</time>
      </trkpt>
      <trkpt lat="43.19063" lon="-0.26607">
        <ele>272.4</ele>
        <time>2024-10-03T15:28:27.000Z</time>
      </trkpt>
      <trkpt lat="43.19082" lon="-0.26636">
        <ele>271.88</ele>
        <time>2024-10-03T15:28:32.000Z</time>
      </trkpt>
      <trkpt lat="43.19099" lon="-0.26665">
        <ele>271.51</ele>
        <time>2024-10-03T15:28:37.000Z</time>
      </trkpt>
      <trkpt lat="43.19116" lon="-0.26694">
        <ele>271.34</ele>
        <time>2024-10-03T15:28:42.000Z</time>
      </trkpt>
      <trkpt lat="43.19135" lon="-0.26725">
        <ele>271.2</ele>
        <time>2024-10-03T15:28:47.000Z</time>
      </trkpt>
      <trkpt lat="43.19155" lon="-0.26755">
        <ele>271.07</ele>
        <time>2024-10-03T15:28:52.000Z</time>
      </trkpt>
      <trkpt lat="43.19174" lon="-0.26787">
        <ele>270.97</ele>
        <time>2024-10-03T15:28:57.000Z</time>
      </trkpt>
      <trkpt lat="43.19194" lon="-0.26821">
        <ele>270.85</ele>
        <time>2024-10-03T15:29:02.000Z</time>
      </trkpt>
      <trkpt lat="43.19213" lon="-0.26854">
        <ele>270.79</ele>
        <time>2024-10-03T15:29:07.000Z</time>
      </trkpt>
      <trkpt lat="43.19233" lon="-0.26885">
        <ele>270.77</ele>
        <time>2024-10-03T15:29:12.000Z</time>
      </trkpt>
      <trkpt lat="43.19252" lon="-0.26915">
        <ele>270.61</ele>
        <time>2024-10-03T15:29:17.000Z</time>
      </trkpt>
      <trkpt lat="43.19271" lon="-0.26943">
        <ele>270.45</ele>
        <time>2024-10-03T15:29:22.000Z</time>
      </trkpt>
      <trkpt lat="43.19289" lon="-0.26974">
        <ele>270.1</ele>
        <time>2024-10-03T15:29:27.000Z</time>
      </trkpt>
      <trkpt lat="43.19306" lon="-0.27004">
        <ele>269.95</ele>
        <time>2024-10-03T15:29:32.000Z</time>
      </trkpt>
      <trkpt lat="43.19324" lon="-0.27033">
        <ele>269.89</ele>
        <time>2024-10-03T15:29:37.000Z</time>
      </trkpt>
      <trkpt lat="43.19341" lon="-0.27061">
        <ele>269.84</ele>
        <time>2024-10-03T15:29:42.000Z</time>
      </trkpt>
      <trkpt lat="43.19358" lon="-0.2709">
        <ele>269.72</ele>
        <time>2024-10-03T15:29:47.000Z</time>
      </trkpt>
      <trkpt lat="43.19376" lon="-0.27119">
        <ele>269.57</ele>
        <time>2024-10-03T15:29:52.000Z</time>
      </trkpt>
      <trkpt lat="43.19394" lon="-0.27148">
        <ele>269.44</ele>
        <time>2024-10-03T15:29:57.000Z</time>
      </trkpt>
      <trkpt lat="43.19411" lon="-0.27179">
        <ele>269.37</ele>
        <time>2024-10-03T15:30:02.000Z</time>
      </trkpt>
      <trkpt lat="43.19429" lon="-0.27209">
        <ele>269.26</ele>
        <time>2024-10-03T15:30:07.000Z</time>
      </trkpt>
      <trkpt lat="43.19448" lon="-0.27239">
        <ele>269.15</ele>
        <time>2024-10-03T15:30:12.000Z</time>
      </trkpt>
      <trkpt lat="43.19468" lon="-0.27268">
        <ele>269.06</ele>
        <time>2024-10-03T15:30:17.000Z</time>
      </trkpt>
      <trkpt lat="43.19492" lon="-0.27293">
        <ele>268.89</ele>
        <time>2024-10-03T15:30:22.000Z</time>
      </trkpt>
      <trkpt lat="43.19512" lon="-0.27323">
        <ele>268.79</ele>
        <time>2024-10-03T15:30:27.000Z</time>
      </trkpt>
      <trkpt lat="43.19531" lon="-0.27354">
        <ele>268.68</ele>
        <time>2024-10-03T15:30:32.000Z</time>
      </trkpt>
      <trkpt lat="43.1955" lon="-0.27387">
        <ele>268.58</ele>
        <time>2024-10-03T15:30:37.000Z</time>
      </trkpt>
      <trkpt lat="43.19567" lon="-0.27418">
        <ele>268.4</ele>
        <time>2024-10-03T15:30:42.000Z</time>
      </trkpt>
      <trkpt lat="43.19577" lon="-0.27449">
        <ele>268.16</ele>
        <time>2024-10-03T15:30:47.000Z</time>
      </trkpt>
      <trkpt lat="43.19582" lon="-0.27476">
        <ele>267.9</ele>
        <time>2024-10-03T15:30:52.000Z</time>
      </trkpt>
      <trkpt lat="43.19586" lon="-0.27505">
        <ele>267.84</ele>
        <time>2024-10-03T15:30:57.000Z</time>
      </trkpt>
      <trkpt lat="43.19591" lon="-0.2753">
        <ele>267.93</ele>
        <time>2024-10-03T15:31:02.000Z</time>
      </trkpt>
      <trkpt lat="43.19599" lon="-0.27552">
        <ele>267.94</ele>
        <time>2024-10-03T15:31:07.000Z</time>
      </trkpt>
      <trkpt lat="43.19606" lon="-0.27572">
        <ele>267.95</ele>
        <time>2024-10-03T15:31:12.000Z</time>
      </trkpt>
      <trkpt lat="43.19613" lon="-0.27591">
        <ele>267.94</ele>
        <time>2024-10-03T15:31:17.000Z</time>
      </trkpt>
      <trkpt lat="43.1962" lon="-0.27612">
        <ele>267.93</ele>
        <time>2024-10-03T15:31:22.000Z</time>
      </trkpt>
      <trkpt lat="43.19627" lon="-0.27634">
        <ele>267.91</ele>
        <time>2024-10-03T15:31:27.000Z</time>
      </trkpt>
      <trkpt lat="43.19635" lon="-0.27657">
        <ele>267.99</ele>
        <time>2024-10-03T15:31:32.000Z</time>
      </trkpt>
      <trkpt lat="43.19643" lon="-0.27683">
        <ele>268.3</ele>
        <time>2024-10-03T15:31:37.000Z</time>
      </trkpt>
      <trkpt lat="43.19651" lon="-0.2771">
        <ele>268.48</ele>
        <time>2024-10-03T15:31:42.000Z</time>
      </trkpt>
      <trkpt lat="43.1966" lon="-0.27739">
        <ele>268.75</ele>
        <time>2024-10-03T15:31:47.000Z</time>
      </trkpt>
      <trkpt lat="43.19669" lon="-0.27765">
        <ele>268.87</ele>
        <time>2024-10-03T15:31:52.000Z</time>
      </trkpt>
      <trkpt lat="43.1968" lon="-0.27795">
        <ele>268.89</ele>
        <time>2024-10-03T15:31:57.000Z</time>
      </trkpt>
      <trkpt lat="43.19692" lon="-0.27825">
        <ele>268.99</ele>
        <time>2024-10-03T15:32:02.000Z</time>
      </trkpt>
      <trkpt lat="43.19709" lon="-0.27855">
        <ele>269.06</ele>
        <time>2024-10-03T15:32:07.000Z</time>
      </trkpt>
      <trkpt lat="43.19723" lon="-0.27886">
        <ele>269.07</ele>
        <time>2024-10-03T15:32:12.000Z</time>
      </trkpt>
      <trkpt lat="43.19738" lon="-0.27919">
        <ele>269.16</ele>
        <time>2024-10-03T15:32:17.000Z</time>
      </trkpt>
      <trkpt lat="43.19755" lon="-0.27955">
        <ele>269.24</ele>
        <time>2024-10-03T15:32:22.000Z</time>
      </trkpt>
      <trkpt lat="43.19774" lon="-0.27992">
        <ele>269.29</ele>
        <time>2024-10-03T15:32:27.000Z</time>
      </trkpt>
      <trkpt lat="43.19794" lon="-0.28032">
        <ele>269.23</ele>
        <time>2024-10-03T15:32:32.000Z</time>
      </trkpt>
      <trkpt lat="43.19814" lon="-0.28073">
        <ele>269.15</ele>
        <time>2024-10-03T15:32:37.000Z</time>
      </trkpt>
      <trkpt lat="43.19832" lon="-0.28113">
        <ele>269.25</ele>
        <time>2024-10-03T15:32:42.000Z</time>
      </trkpt>
      <trkpt lat="43.19847" lon="-0.28149">
        <ele>269.27</ele>
        <time>2024-10-03T15:32:47.000Z</time>
      </trkpt>
      <trkpt lat="43.19861" lon="-0.2818">
        <ele>269.02</ele>
        <time>2024-10-03T15:32:52.000Z</time>
      </trkpt>
      <trkpt lat="43.19873" lon="-0.28205">
        <ele>268.74</ele>
        <time>2024-10-03T15:32:57.000Z</time>
      </trkpt>
      <trkpt lat="43.1989" lon="-0.28228">
        <ele>268.5</ele>
        <time>2024-10-03T15:33:02.000Z</time>
      </trkpt>
      <trkpt lat="43.19903" lon="-0.28255">
        <ele>268.32</ele>
        <time>2024-10-03T15:33:07.000Z</time>
      </trkpt>
      <trkpt lat="43.19917" lon="-0.28285">
        <ele>268.03</ele>
        <time>2024-10-03T15:33:12.000Z</time>
      </trkpt>
      <trkpt lat="43.19931" lon="-0.28315">
        <ele>267.85</ele>
        <time>2024-10-03T15:33:17.000Z</time>
      </trkpt>
      <trkpt lat="43.19942" lon="-0.28348">
        <ele>267.87</ele>
        <time>2024-10-03T15:33:22.000Z</time>
      </trkpt>
      <trkpt lat="43.19952" lon="-0.28381">
        <ele>267.75</ele>
        <time>2024-10-03T15:33:27.000Z</time>
      </trkpt>
      <trkpt lat="43.19963" lon="-0.28418">
        <ele>267.64</ele>
        <time>2024-10-03T15:33:32.000Z</time>
      </trkpt>
      <trkpt lat="43.19975" lon="-0.28452">
        <ele>267.6</ele>
        <time>2024-10-03T15:33:37.000Z</time>
      </trkpt>
      <trkpt lat="43.19989" lon="-0.28483">
        <ele>267.57</ele>
        <time>2024-10-03T15:33:42.000Z</time>
      </trkpt>
      <trkpt lat="43.20003" lon="-0.28515">
        <ele>267.51</ele>
        <time>2024-10-03T15:33:47.000Z</time>
      </trkpt>
      <trkpt lat="43.20018" lon="-0.28546">
        <ele>267.47</ele>
        <time>2024-10-03T15:33:52.000Z</time>
      </trkpt>
      <trkpt lat="43.20031" lon="-0.28576">
        <ele>267.46</ele>
        <time>2024-10-03T15:33:57.000Z</time>
      </trkpt>
      <trkpt lat="43.20044" lon="-0.28596">
        <ele>267.45</ele>
        <time>2024-10-03T15:34:02.000Z</time>
      </trkpt>
      <trkpt lat="43.20057" lon="-0.28593">
        <ele>267.44</ele>
        <time>2024-10-03T15:34:07.000Z</time>
      </trkpt>
      <trkpt lat="43.20073" lon="-0.286">
        <ele>267.39</ele>
        <time>2024-10-03T15:34:12.000Z</time>
      </trkpt>
      <trkpt lat="43.20096" lon="-0.28616">
        <ele>267.19</ele>
        <time>2024-10-03T15:34:17.000Z</time>
      </trkpt>
      <trkpt lat="43.20115" lon="-0.28627">
        <ele>267.1</ele>
        <time>2024-10-03T15:34:22.000Z</time>
      </trkpt>
      <trkpt lat="43.20134" lon="-0.2864">
        <ele>267.02</ele>
        <time>2024-10-03T15:34:27.000Z</time>
      </trkpt>
      <trkpt lat="43.20154" lon="-0.28657">
        <ele>266.89</ele>
        <time>2024-10-03T15:34:32.000Z</time>
      </trkpt>
      <trkpt lat="43.20171" lon="-0.28672">
        <ele>266.78</ele>
        <time>2024-10-03T15:34:37.000Z</time>
      </trkpt>
      <trkpt lat="43.20195" lon="-0.28685">
        <ele>266.74</ele>
        <time>2024-10-03T15:34:42.000Z</time>
      </trkpt>
      <trkpt lat="43.20216" lon="-0.28699">
        <ele>266.74</ele>
        <time>2024-10-03T15:34:47.000Z</time>
      </trkpt>
      <trkpt lat="43.20238" lon="-0.28716">
        <ele>266.71</ele>
        <time>2024-10-03T15:34:52.000Z</time>
      </trkpt>
      <trkpt lat="43.20259" lon="-0.28733">
        <ele>266.62</ele>
        <time>2024-10-03T15:34:57.000Z</time>
      </trkpt>
      <trkpt lat="43.2028" lon="-0.28752">
        <ele>266.5</ele>
        <time>2024-10-03T15:35:02.000Z</time>
      </trkpt>
      <trkpt lat="43.20302" lon="-0.2877">
        <ele>266.41</ele>
        <time>2024-10-03T15:35:07.000Z</time>
      </trkpt>
      <trkpt lat="43.20324" lon="-0.28783">
        <ele>266.29</ele>
        <time>2024-10-03T15:35:12.000Z</time>
      </trkpt>
      <trkpt lat="43.20348" lon="-0.28799">
        <ele>266.19</ele>
        <time>2024-10-03T15:35:17.000Z</time>
      </trkpt>
      <trkpt lat="43.20369" lon="-0.28815">
        <ele>265.99</ele>
        <time>2024-10-03T15:35:22.000Z</time>
      </trkpt>
      <trkpt lat="43.2039" lon="-0.28831">
        <ele>265.76</ele>
        <time>2024-10-03T15:35:27.000Z</time>
      </trkpt>
      <trkpt lat="43.20409" lon="-0.28857">
        <ele>265.61</ele>
        <time>2024-10-03T15:35:32.000Z</time>
      </trkpt>
      <trkpt lat="43.20426" lon="-0.2888">
        <ele>265.52</ele>
        <time>2024-10-03T15:35:37.000Z</time>
      </trkpt>
      <trkpt lat="43.20445" lon="-0.28902">
        <ele>265.42</ele>
        <time>2024-10-03T15:35:42.000Z</time>
      </trkpt>
      <trkpt lat="43.20467" lon="-0.28923">
        <ele>265.26</ele>
        <time>2024-10-03T15:35:47.000Z</time>
      </trkpt>
      <trkpt lat="43.20491" lon="-0.28943">
        <ele>265.09</ele>
        <time>2024-10-03T15:35:52.000Z</time>
      </trkpt>
      <trkpt lat="43.20516" lon="-0.28962">
        <ele>264.92</ele>
        <time>2024-10-03T15:35:57.000Z</time>
      </trkpt>
      <trkpt lat="43.20541" lon="-0.28982">
        <ele>264.74</ele>
        <time>2024-10-03T15:36:02.000Z</time>
      </trkpt>
      <trkpt lat="43.20568" lon="-0.29">
        <ele>264.61</ele>
        <time>2024-10-03T15:36:07.000Z</time>
      </trkpt>
      <trkpt lat="43.20595" lon="-0.29017">
        <ele>264.45</ele>
        <time>2024-10-03T15:36:12.000Z</time>
      </trkpt>
      <trkpt lat="43.2062" lon="-0.29031">
        <ele>264.26</ele>
        <time>2024-10-03T15:36:17.000Z</time>
      </trkpt>
      <trkpt lat="43.20646" lon="-0.29048">
        <ele>264.09</ele>
        <time>2024-10-03T15:36:22.000Z</time>
      </trkpt>
      <trkpt lat="43.20671" lon="-0.29069">
        <ele>263.92</ele>
        <time>2024-10-03T15:36:27.000Z</time>
      </trkpt>
      <trkpt lat="43.20695" lon="-0.29088">
        <ele>263.75</ele>
        <time>2024-10-03T15:36:32.000Z</time>
      </trkpt>
      <trkpt lat="43.20716" lon="-0.29105">
        <ele>263.61</ele>
        <time>2024-10-03T15:36:37.000Z</time>
      </trkpt>
      <trkpt lat="43.20737" lon="-0.29129">
        <ele>263.48</ele>
        <time>2024-10-03T15:36:42.000Z</time>
      </trkpt>
      <trkpt lat="43.20761" lon="-0.29146">
        <ele>263.38</ele>
        <time>2024-10-03T15:36:47.000Z</time>
      </trkpt>
      <trkpt lat="43.20786" lon="-0.29165">
        <ele>263.26</ele>
        <time>2024-10-03T15:36:52.000Z</time>
      </trkpt>
      <trkpt lat="43.20809" lon="-0.29182">
        <ele>263.16</ele>
        <time>2024-10-03T15:36:57.000Z</time>
      </trkpt>
      <trkpt lat="43.20825" lon="-0.29203">
        <ele>263.12</ele>
        <time>2024-10-03T15:37:02.000Z</time>
      </trkpt>
      <trkpt lat="43.20839" lon="-0.29212">
        <ele>263.08</ele>
        <time>2024-10-03T15:37:07.000Z</time>
      </trkpt>
      <trkpt lat="43.20862" lon="-0.29227">
        <ele>262.99</ele>
        <time>2024-10-03T15:37:12.000Z</time>
      </trkpt>
      <trkpt lat="43.2089" lon="-0.29244">
        <ele>262.95</ele>
        <time>2024-10-03T15:37:17.000Z</time>
      </trkpt>
      <trkpt lat="43.20917" lon="-0.29256">
        <ele>262.89</ele>
        <time>2024-10-03T15:37:22.000Z</time>
      </trkpt>
      <trkpt lat="43.20945" lon="-0.29271">
        <ele>262.79</ele>
        <time>2024-10-03T15:37:27.000Z</time>
      </trkpt>
      <trkpt lat="43.20969" lon="-0.29282">
        <ele>262.63</ele>
        <time>2024-10-03T15:37:32.000Z</time>
      </trkpt>
      <trkpt lat="43.20998" lon="-0.29288">
        <ele>262.51</ele>
        <time>2024-10-03T15:37:37.000Z</time>
      </trkpt>
      <trkpt lat="43.21029" lon="-0.29293">
        <ele>262.4</ele>
        <time>2024-10-03T15:37:42.000Z</time>
      </trkpt>
      <trkpt lat="43.21059" lon="-0.29304">
        <ele>262.38</ele>
        <time>2024-10-03T15:37:47.000Z</time>
      </trkpt>
      <trkpt lat="43.21087" lon="-0.29316">
        <ele>262.23</ele>
        <time>2024-10-03T15:37:52.000Z</time>
      </trkpt>
      <trkpt lat="43.21117" lon="-0.29324">
        <ele>261.81</ele>
        <time>2024-10-03T15:37:57.000Z</time>
      </trkpt>
      <trkpt lat="43.21147" lon="-0.29331">
        <ele>261.59</ele>
        <time>2024-10-03T15:38:02.000Z</time>
      </trkpt>
      <trkpt lat="43.21176" lon="-0.29346">
        <ele>261.38</ele>
        <time>2024-10-03T15:38:07.000Z</time>
      </trkpt>
      <trkpt lat="43.21204" lon="-0.29361">
        <ele>260.98</ele>
        <time>2024-10-03T15:38:12.000Z</time>
      </trkpt>
      <trkpt lat="43.21231" lon="-0.29378">
        <ele>260.88</ele>
        <time>2024-10-03T15:38:17.000Z</time>
      </trkpt>
      <trkpt lat="43.21253" lon="-0.29394">
        <ele>261.05</ele>
        <time>2024-10-03T15:38:22.000Z</time>
      </trkpt>
      <trkpt lat="43.21262" lon="-0.29401">
        <ele>261.06</ele>
        <time>2024-10-03T15:38:27.000Z</time>
      </trkpt>
      <trkpt lat="43.21269" lon="-0.29411">
        <ele>260.61</ele>
        <time>2024-10-03T15:39:22.999Z</time>
      </trkpt>
      <trkpt lat="43.21282" lon="-0.29426">
        <ele>260.11</ele>
        <time>2024-10-03T15:39:27.999Z</time>
      </trkpt>
      <trkpt lat="43.213" lon="-0.29446">
        <ele>259.46</ele>
        <time>2024-10-03T15:39:32.999Z</time>
      </trkpt>
      <trkpt lat="43.21319" lon="-0.29467">
        <ele>259.22</ele>
        <time>2024-10-03T15:39:37.999Z</time>
      </trkpt>
      <trkpt lat="43.21335" lon="-0.29482">
        <ele>259.16</ele>
        <time>2024-10-03T15:39:42.999Z</time>
      </trkpt>
      <trkpt lat="43.21352" lon="-0.29497">
        <ele>259.04</ele>
        <time>2024-10-03T15:39:47.999Z</time>
      </trkpt>
      <trkpt lat="43.21371" lon="-0.29519">
        <ele>258.95</ele>
        <time>2024-10-03T15:39:52.999Z</time>
      </trkpt>
      <trkpt lat="43.21388" lon="-0.2954">
        <ele>258.89</ele>
        <time>2024-10-03T15:39:57.999Z</time>
      </trkpt>
      <trkpt lat="43.21407" lon="-0.29562">
        <ele>258.81</ele>
        <time>2024-10-03T15:40:02.999Z</time>
      </trkpt>
      <trkpt lat="43.21427" lon="-0.29585">
        <ele>258.75</ele>
        <time>2024-10-03T15:40:07.999Z</time>
      </trkpt>
      <trkpt lat="43.21444" lon="-0.29613">
        <ele>258.71</ele>
        <time>2024-10-03T15:40:12.999Z</time>
      </trkpt>
      <trkpt lat="43.21459" lon="-0.29642">
        <ele>258.68</ele>
        <time>2024-10-03T15:40:17.999Z</time>
      </trkpt>
      <trkpt lat="43.21467" lon="-0.29676">
        <ele>258.66</ele>
        <time>2024-10-03T15:40:22.999Z</time>
      </trkpt>
      <trkpt lat="43.21477" lon="-0.297">
        <ele>258.65</ele>
        <time>2024-10-03T15:40:27.999Z</time>
      </trkpt>
      <trkpt lat="43.21493" lon="-0.29721">
        <ele>258.57</ele>
        <time>2024-10-03T15:40:32.999Z</time>
      </trkpt>
      <trkpt lat="43.21505" lon="-0.29738">
        <ele>258.48</ele>
        <time>2024-10-03T15:40:37.999Z</time>
      </trkpt>
      <trkpt lat="43.21513" lon="-0.29724">
        <ele>258.47</ele>
        <time>2024-10-03T15:40:42.999Z</time>
      </trkpt>
      <trkpt lat="43.21525" lon="-0.297">
        <ele>258.36</ele>
        <time>2024-10-03T15:40:47.999Z</time>
      </trkpt>
      <trkpt lat="43.21542" lon="-0.29671">
        <ele>258.21</ele>
        <time>2024-10-03T15:40:52.999Z</time>
      </trkpt>
      <trkpt lat="43.21553" lon="-0.29643">
        <ele>258.09</ele>
        <time>2024-10-03T15:40:57.999Z</time>
      </trkpt>
      <trkpt lat="43.21568" lon="-0.29625">
        <ele>258.04</ele>
        <time>2024-10-03T15:41:02.999Z</time>
      </trkpt>
      <trkpt lat="43.21583" lon="-0.2964">
        <ele>258.06</ele>
        <time>2024-10-03T15:41:07.999Z</time>
      </trkpt>
      <trkpt lat="43.21601" lon="-0.29663">
        <ele>258.03</ele>
        <time>2024-10-03T15:41:12.999Z</time>
      </trkpt>
      <trkpt lat="43.21618" lon="-0.2969">
        <ele>257.88</ele>
        <time>2024-10-03T15:41:17.999Z</time>
      </trkpt>
      <trkpt lat="43.21636" lon="-0.29713">
        <ele>257.66</ele>
        <time>2024-10-03T15:41:22.999Z</time>
      </trkpt>
      <trkpt lat="43.21656" lon="-0.2973">
        <ele>257.57</ele>
        <time>2024-10-03T15:41:27.999Z</time>
      </trkpt>
      <trkpt lat="43.21677" lon="-0.29745">
        <ele>257.5</ele>
        <time>2024-10-03T15:41:32.999Z</time>
      </trkpt>
      <trkpt lat="43.21702" lon="-0.29731">
        <ele>257.41</ele>
        <time>2024-10-03T15:41:37.999Z</time>
      </trkpt>
      <trkpt lat="43.21725" lon="-0.29721">
        <ele>257.33</ele>
        <time>2024-10-03T15:41:42.999Z</time>
      </trkpt>
      <trkpt lat="43.21747" lon="-0.29736">
        <ele>257.28</ele>
        <time>2024-10-03T15:41:47.999Z</time>
      </trkpt>
      <trkpt lat="43.2177" lon="-0.29756">
        <ele>257.24</ele>
        <time>2024-10-03T15:41:52.999Z</time>
      </trkpt>
      <trkpt lat="43.21793" lon="-0.29777">
        <ele>257.16</ele>
        <time>2024-10-03T15:41:57.999Z</time>
      </trkpt>
      <trkpt lat="43.21815" lon="-0.29799">
        <ele>257.02</ele>
        <time>2024-10-03T15:42:02.999Z</time>
      </trkpt>
      <trkpt lat="43.21839" lon="-0.29823">
        <ele>256.92</ele>
        <time>2024-10-03T15:42:07.999Z</time>
      </trkpt>
      <trkpt lat="43.21865" lon="-0.29849">
        <ele>256.84</ele>
        <time>2024-10-03T15:42:12.999Z</time>
      </trkpt>
      <trkpt lat="43.21887" lon="-0.29878">
        <ele>256.71</ele>
        <time>2024-10-03T15:42:17.999Z</time>
      </trkpt>
      <trkpt lat="43.21904" lon="-0.29906">
        <ele>256.42</ele>
        <time>2024-10-03T15:42:22.999Z</time>
      </trkpt>
      <trkpt lat="43.21922" lon="-0.29932">
        <ele>256.06</ele>
        <time>2024-10-03T15:42:27.999Z</time>
      </trkpt>
      <trkpt lat="43.21941" lon="-0.29961">
        <ele>255.65</ele>
        <time>2024-10-03T15:42:32.999Z</time>
      </trkpt>
      <trkpt lat="43.21962" lon="-0.29988">
        <ele>255.25</ele>
        <time>2024-10-03T15:42:37.999Z</time>
      </trkpt>
      <trkpt lat="43.21984" lon="-0.3001">
        <ele>255.04</ele>
        <time>2024-10-03T15:42:42.999Z</time>
      </trkpt>
      <trkpt lat="43.22011" lon="-0.30027">
        <ele>254.89</ele>
        <time>2024-10-03T15:42:47.999Z</time>
      </trkpt>
      <trkpt lat="43.22036" lon="-0.30043">
        <ele>254.7</ele>
        <time>2024-10-03T15:42:52.999Z</time>
      </trkpt>
      <trkpt lat="43.22062" lon="-0.30063">
        <ele>254.53</ele>
        <time>2024-10-03T15:42:57.999Z</time>
      </trkpt>
      <trkpt lat="43.22087" lon="-0.30085">
        <ele>254.36</ele>
        <time>2024-10-03T15:43:02.999Z</time>
      </trkpt>
      <trkpt lat="43.22112" lon="-0.30104">
        <ele>254.23</ele>
        <time>2024-10-03T15:43:07.999Z</time>
      </trkpt>
      <trkpt lat="43.22141" lon="-0.30118">
        <ele>254.13</ele>
        <time>2024-10-03T15:43:12.999Z</time>
      </trkpt>
      <trkpt lat="43.22172" lon="-0.30128">
        <ele>254.04</ele>
        <time>2024-10-03T15:43:17.999Z</time>
      </trkpt>
      <trkpt lat="43.22199" lon="-0.3015">
        <ele>253.94</ele>
        <time>2024-10-03T15:43:22.999Z</time>
      </trkpt>
      <trkpt lat="43.22227" lon="-0.30165">
        <ele>253.79</ele>
        <time>2024-10-03T15:43:27.999Z</time>
      </trkpt>
      <trkpt lat="43.22254" lon="-0.30175">
        <ele>253.51</ele>
        <time>2024-10-03T15:43:32.999Z</time>
      </trkpt>
      <trkpt lat="43.2228" lon="-0.30185">
        <ele>252.76</ele>
        <time>2024-10-03T15:43:37.999Z</time>
      </trkpt>
      <trkpt lat="43.22306" lon="-0.30201">
        <ele>252.39</ele>
        <time>2024-10-03T15:43:42.999Z</time>
      </trkpt>
      <trkpt lat="43.22333" lon="-0.30216">
        <ele>252.71</ele>
        <time>2024-10-03T15:43:47.999Z</time>
      </trkpt>
      <trkpt lat="43.2236" lon="-0.3023">
        <ele>253.19</ele>
        <time>2024-10-03T15:43:52.999Z</time>
      </trkpt>
      <trkpt lat="43.22389" lon="-0.30245">
        <ele>253.19</ele>
        <time>2024-10-03T15:43:57.999Z</time>
      </trkpt>
      <trkpt lat="43.22418" lon="-0.30261">
        <ele>253.13</ele>
        <time>2024-10-03T15:44:02.999Z</time>
      </trkpt>
      <trkpt lat="43.22448" lon="-0.30275">
        <ele>252.89</ele>
        <time>2024-10-03T15:44:07.999Z</time>
      </trkpt>
      <trkpt lat="43.22478" lon="-0.30285">
        <ele>252.97</ele>
        <time>2024-10-03T15:44:12.999Z</time>
      </trkpt>
      <trkpt lat="43.22507" lon="-0.30299">
        <ele>253.1</ele>
        <time>2024-10-03T15:44:17.999Z</time>
      </trkpt>
      <trkpt lat="43.22531" lon="-0.30322">
        <ele>253.17</ele>
        <time>2024-10-03T15:44:22.999Z</time>
      </trkpt>
      <trkpt lat="43.22547" lon="-0.30353">
        <ele>253</ele>
        <time>2024-10-03T15:44:27.999Z</time>
      </trkpt>
      <trkpt lat="43.22565" lon="-0.30386">
        <ele>252.38</ele>
        <time>2024-10-03T15:44:32.999Z</time>
      </trkpt>
      <trkpt lat="43.22588" lon="-0.30407">
        <ele>252.21</ele>
        <time>2024-10-03T15:44:37.999Z</time>
      </trkpt>
      <trkpt lat="43.2261" lon="-0.3042">
        <ele>252.5</ele>
        <time>2024-10-03T15:44:42.999Z</time>
      </trkpt>
      <trkpt lat="43.22633" lon="-0.30432">
        <ele>252.13</ele>
        <time>2024-10-03T15:44:47.999Z</time>
      </trkpt>
      <trkpt lat="43.22657" lon="-0.30443">
        <ele>251.85</ele>
        <time>2024-10-03T15:44:52.999Z</time>
      </trkpt>
      <trkpt lat="43.2268" lon="-0.30446">
        <ele>251.61</ele>
        <time>2024-10-03T15:44:57.999Z</time>
      </trkpt>
      <trkpt lat="43.22705" lon="-0.30447">
        <ele>251.48</ele>
        <time>2024-10-03T15:45:02.999Z</time>
      </trkpt>
      <trkpt lat="43.2273" lon="-0.30457">
        <ele>251.32</ele>
        <time>2024-10-03T15:45:07.999Z</time>
      </trkpt>
      <trkpt lat="43.2275" lon="-0.3047">
        <ele>251.3</ele>
        <time>2024-10-03T15:45:12.999Z</time>
      </trkpt>
      <trkpt lat="43.22767" lon="-0.30487">
        <ele>251.32</ele>
        <time>2024-10-03T15:45:17.999Z</time>
      </trkpt>
      <trkpt lat="43.22781" lon="-0.30505">
        <ele>251.35</ele>
        <time>2024-10-03T15:45:22.999Z</time>
      </trkpt>
      <trkpt lat="43.22784" lon="-0.30534">
        <ele>251.2</ele>
        <time>2024-10-03T15:45:27.999Z</time>
      </trkpt>
      <trkpt lat="43.22787" lon="-0.30564">
        <ele>251.18</ele>
        <time>2024-10-03T15:45:32.999Z</time>
      </trkpt>
      <trkpt lat="43.22793" lon="-0.3059">
        <ele>251.21</ele>
        <time>2024-10-03T15:45:37.999Z</time>
      </trkpt>
      <trkpt lat="43.2281" lon="-0.306">
        <ele>251.21</ele>
        <time>2024-10-03T15:45:42.999Z</time>
      </trkpt>
      <trkpt lat="43.22825" lon="-0.30619">
        <ele>251.21</ele>
        <time>2024-10-03T15:45:47.999Z</time>
      </trkpt>
      <trkpt lat="43.22836" lon="-0.30643">
        <ele>251.12</ele>
        <time>2024-10-03T15:45:52.999Z</time>
      </trkpt>
      <trkpt lat="43.22859" lon="-0.30668">
        <ele>251</ele>
        <time>2024-10-03T15:45:57.999Z</time>
      </trkpt>
      <trkpt lat="43.22879" lon="-0.30703">
        <ele>250.51</ele>
        <time>2024-10-03T15:46:02.999Z</time>
      </trkpt>
      <trkpt lat="43.2286" lon="-0.30722">
        <ele>250</ele>
        <time>2024-10-03T15:46:07.999Z</time>
      </trkpt>
      <trkpt lat="43.22856" lon="-0.30738">
        <ele>249.86</ele>
        <time>2024-10-03T15:46:12.999Z</time>
      </trkpt>
      <trkpt lat="43.22865" lon="-0.30749">
        <ele>249.56</ele>
        <time>2024-10-03T15:46:18.999Z</time>
      </trkpt>
      <trkpt lat="43.22882" lon="-0.30755">
        <ele>249.32</ele>
        <time>2024-10-03T15:46:23.999Z</time>
      </trkpt>
      <trkpt lat="43.22904" lon="-0.30757">
        <ele>247.65</ele>
        <time>2024-10-03T15:46:28.999Z</time>
      </trkpt>
      <trkpt lat="43.22931" lon="-0.30757">
        <ele>246.37</ele>
        <time>2024-10-03T15:46:33.999Z</time>
      </trkpt>
      <trkpt lat="43.22965" lon="-0.3076">
        <ele>245.97</ele>
        <time>2024-10-03T15:46:38.999Z</time>
      </trkpt>
      <trkpt lat="43.22998" lon="-0.30765">
        <ele>245.76</ele>
        <time>2024-10-03T15:46:43.999Z</time>
      </trkpt>
      <trkpt lat="43.23028" lon="-0.30765">
        <ele>245.48</ele>
        <time>2024-10-03T15:46:48.999Z</time>
      </trkpt>
      <trkpt lat="43.23058" lon="-0.30764">
        <ele>245.09</ele>
        <time>2024-10-03T15:46:53.999Z</time>
      </trkpt>
      <trkpt lat="43.23084" lon="-0.30761">
        <ele>245.41</ele>
        <time>2024-10-03T15:46:58.999Z</time>
      </trkpt>
      <trkpt lat="43.23106" lon="-0.30753">
        <ele>246.08</ele>
        <time>2024-10-03T15:47:03.999Z</time>
      </trkpt>
      <trkpt lat="43.23125" lon="-0.30749">
        <ele>246.6</ele>
        <time>2024-10-03T15:47:08.999Z</time>
      </trkpt>
      <trkpt lat="43.23141" lon="-0.30747">
        <ele>246.76</ele>
        <time>2024-10-03T15:47:13.999Z</time>
      </trkpt>
      <trkpt lat="43.23156" lon="-0.30743">
        <ele>246.91</ele>
        <time>2024-10-03T15:47:18.999Z</time>
      </trkpt>
      <trkpt lat="43.23172" lon="-0.30741">
        <ele>247.09</ele>
        <time>2024-10-03T15:47:23.999Z</time>
      </trkpt>
      <trkpt lat="43.23188" lon="-0.3074">
        <ele>247.27</ele>
        <time>2024-10-03T15:47:28.999Z</time>
      </trkpt>
      <trkpt lat="43.23203" lon="-0.30741">
        <ele>247.41</ele>
        <time>2024-10-03T15:47:33.999Z</time>
      </trkpt>
      <trkpt lat="43.2322" lon="-0.30746">
        <ele>247.53</ele>
        <time>2024-10-03T15:47:38.999Z</time>
      </trkpt>
      <trkpt lat="43.2324" lon="-0.30748">
        <ele>248.1</ele>
        <time>2024-10-03T15:47:43.999Z</time>
      </trkpt>
      <trkpt lat="43.23261" lon="-0.30749">
        <ele>248.33</ele>
        <time>2024-10-03T15:47:48.999Z</time>
      </trkpt>
      <trkpt lat="43.23287" lon="-0.30751">
        <ele>248.47</ele>
        <time>2024-10-03T15:47:53.999Z</time>
      </trkpt>
      <trkpt lat="43.23315" lon="-0.30755">
        <ele>248.36</ele>
        <time>2024-10-03T15:47:58.999Z</time>
      </trkpt>
      <trkpt lat="43.23337" lon="-0.30756">
        <ele>248.2</ele>
        <time>2024-10-03T15:48:03.999Z</time>
      </trkpt>
      <trkpt lat="43.23354" lon="-0.30755">
        <ele>248.17</ele>
        <time>2024-10-03T15:48:08.999Z</time>
      </trkpt>
      <trkpt lat="43.23369" lon="-0.30756">
        <ele>248.14</ele>
        <time>2024-10-03T15:48:13.999Z</time>
      </trkpt>
      <trkpt lat="43.23384" lon="-0.30758">
        <ele>248.11</ele>
        <time>2024-10-03T15:48:18.999Z</time>
      </trkpt>
      <trkpt lat="43.23398" lon="-0.3076">
        <ele>248.08</ele>
        <time>2024-10-03T15:48:23.999Z</time>
      </trkpt>
      <trkpt lat="43.23413" lon="-0.30762">
        <ele>248.07</ele>
        <time>2024-10-03T15:48:28.999Z</time>
      </trkpt>
      <trkpt lat="43.23429" lon="-0.30762">
        <ele>248.09</ele>
        <time>2024-10-03T15:48:33.999Z</time>
      </trkpt>
      <trkpt lat="43.23445" lon="-0.30765">
        <ele>248.12</ele>
        <time>2024-10-03T15:48:38.999Z</time>
      </trkpt>
      <trkpt lat="43.23461" lon="-0.30767">
        <ele>248.16</ele>
        <time>2024-10-03T15:48:43.999Z</time>
      </trkpt>
      <trkpt lat="43.23477" lon="-0.30771">
        <ele>248.19</ele>
        <time>2024-10-03T15:48:48.999Z</time>
      </trkpt>
      <trkpt lat="43.23492" lon="-0.30776">
        <ele>248.17</ele>
        <time>2024-10-03T15:48:53.999Z</time>
      </trkpt>
      <trkpt lat="43.2351" lon="-0.3078">
        <ele>248.16</ele>
        <time>2024-10-03T15:48:58.999Z</time>
      </trkpt>
      <trkpt lat="43.23526" lon="-0.30779">
        <ele>248.14</ele>
        <time>2024-10-03T15:49:03.999Z</time>
      </trkpt>
      <trkpt lat="43.2354" lon="-0.30778">
        <ele>248.16</ele>
        <time>2024-10-03T15:49:08.999Z</time>
      </trkpt>
      <trkpt lat="43.23554" lon="-0.30778">
        <ele>248.19</ele>
        <time>2024-10-03T15:49:13.999Z</time>
      </trkpt>
      <trkpt lat="43.23568" lon="-0.30776">
        <ele>248.22</ele>
        <time>2024-10-03T15:49:18.999Z</time>
      </trkpt>
      <trkpt lat="43.23583" lon="-0.30779">
        <ele>248.27</ele>
        <time>2024-10-03T15:49:23.999Z</time>
      </trkpt>
      <trkpt lat="43.23597" lon="-0.30784">
        <ele>248.33</ele>
        <time>2024-10-03T15:49:28.999Z</time>
      </trkpt>
      <trkpt lat="43.23609" lon="-0.30793">
        <ele>248.4</ele>
        <time>2024-10-03T15:49:33.999Z</time>
      </trkpt>
      <trkpt lat="43.23622" lon="-0.30802">
        <ele>248.48</ele>
        <time>2024-10-03T15:49:38.999Z</time>
      </trkpt>
      <trkpt lat="43.23634" lon="-0.30809">
        <ele>248.56</ele>
        <time>2024-10-03T15:49:43.999Z</time>
      </trkpt>
      <trkpt lat="43.2365" lon="-0.30816">
        <ele>248.65</ele>
        <time>2024-10-03T15:49:48.999Z</time>
      </trkpt>
      <trkpt lat="43.23672" lon="-0.30814">
        <ele>249.21</ele>
        <time>2024-10-03T15:49:53.999Z</time>
      </trkpt>
      <trkpt lat="43.23699" lon="-0.30807">
        <ele>249.51</ele>
        <time>2024-10-03T15:49:58.999Z</time>
      </trkpt>
      <trkpt lat="43.23729" lon="-0.30794">
        <ele>249.64</ele>
        <time>2024-10-03T15:50:03.999Z</time>
      </trkpt>
      <trkpt lat="43.23763" lon="-0.30783">
        <ele>249.72</ele>
        <time>2024-10-03T15:50:08.999Z</time>
      </trkpt>
      <trkpt lat="43.23791" lon="-0.30784">
        <ele>249.9</ele>
        <time>2024-10-03T15:50:13.999Z</time>
      </trkpt>
      <trkpt lat="43.23808" lon="-0.30786">
        <ele>250.03</ele>
        <time>2024-10-03T15:50:18.999Z</time>
      </trkpt>
      <trkpt lat="43.23828" lon="-0.30794">
        <ele>250.47</ele>
        <time>2024-10-03T15:50:23.999Z</time>
      </trkpt>
      <trkpt lat="43.23848" lon="-0.30811">
        <ele>250.6</ele>
        <time>2024-10-03T15:50:28.999Z</time>
      </trkpt>
      <trkpt lat="43.23868" lon="-0.30829">
        <ele>250.54</ele>
        <time>2024-10-03T15:50:33.999Z</time>
      </trkpt>
      <trkpt lat="43.23892" lon="-0.3085">
        <ele>250.45</ele>
        <time>2024-10-03T15:50:38.999Z</time>
      </trkpt>
      <trkpt lat="43.2392" lon="-0.30869">
        <ele>250.37</ele>
        <time>2024-10-03T15:50:43.999Z</time>
      </trkpt>
      <trkpt lat="43.23958" lon="-0.30884">
        <ele>250.37</ele>
        <time>2024-10-03T15:50:48.999Z</time>
      </trkpt>
      <trkpt lat="43.24" lon="-0.30905">
        <ele>250.39</ele>
        <time>2024-10-03T15:50:53.999Z</time>
      </trkpt>
      <trkpt lat="43.24037" lon="-0.30924">
        <ele>250.16</ele>
        <time>2024-10-03T15:50:58.999Z</time>
      </trkpt>
      <trkpt lat="43.2407" lon="-0.30939">
        <ele>249.9</ele>
        <time>2024-10-03T15:51:03.999Z</time>
      </trkpt>
      <trkpt lat="43.24105" lon="-0.30959">
        <ele>249.55</ele>
        <time>2024-10-03T15:51:08.999Z</time>
      </trkpt>
      <trkpt lat="43.24137" lon="-0.30975">
        <ele>248.98</ele>
        <time>2024-10-03T15:51:13.999Z</time>
      </trkpt>
      <trkpt lat="43.2417" lon="-0.30992">
        <ele>248.72</ele>
        <time>2024-10-03T15:51:18.999Z</time>
      </trkpt>
      <trkpt lat="43.24205" lon="-0.31021">
        <ele>248.32</ele>
        <time>2024-10-03T15:51:23.999Z</time>
      </trkpt>
      <trkpt lat="43.24244" lon="-0.31058">
        <ele>248.5</ele>
        <time>2024-10-03T15:51:28.999Z</time>
      </trkpt>
      <trkpt lat="43.24287" lon="-0.31066">
        <ele>247</ele>
        <time>2024-10-03T15:51:33.999Z</time>
      </trkpt>
      <trkpt lat="43.24325" lon="-0.31073">
        <ele>244.16</ele>
        <time>2024-10-03T15:51:39.000Z</time>
      </trkpt>
      <trkpt lat="43.24356" lon="-0.31086">
        <ele>244.05</ele>
        <time>2024-10-03T15:51:44.000Z</time>
      </trkpt>
      <trkpt lat="43.24387" lon="-0.31094">
        <ele>243.51</ele>
        <time>2024-10-03T15:51:49.000Z</time>
      </trkpt>
      <trkpt lat="43.24417" lon="-0.31111">
        <ele>242.83</ele>
        <time>2024-10-03T15:51:54.000Z</time>
      </trkpt>
      <trkpt lat="43.24447" lon="-0.31133">
        <ele>240.91</ele>
        <time>2024-10-03T15:51:59.000Z</time>
      </trkpt>
      <trkpt lat="43.24477" lon="-0.31154">
        <ele>238.12</ele>
        <time>2024-10-03T15:52:04.000Z</time>
      </trkpt>
      <trkpt lat="43.24505" lon="-0.31178">
        <ele>235.71</ele>
        <time>2024-10-03T15:52:09.000Z</time>
      </trkpt>
      <trkpt lat="43.24532" lon="-0.31212">
        <ele>233.88</ele>
        <time>2024-10-03T15:52:14.000Z</time>
      </trkpt>
      <trkpt lat="43.24554" lon="-0.31246">
        <ele>232.3</ele>
        <time>2024-10-03T15:52:19.000Z</time>
      </trkpt>
      <trkpt lat="43.24573" lon="-0.31281">
        <ele>229.98</ele>
        <time>2024-10-03T15:52:24.000Z</time>
      </trkpt>
      <trkpt lat="43.24592" lon="-0.31317">
        <ele>228.46</ele>
        <time>2024-10-03T15:52:29.000Z</time>
      </trkpt>
      <trkpt lat="43.24613" lon="-0.31351">
        <ele>228.08</ele>
        <time>2024-10-03T15:52:34.000Z</time>
      </trkpt>
      <trkpt lat="43.24632" lon="-0.31381">
        <ele>227.11</ele>
        <time>2024-10-03T15:52:39.000Z</time>
      </trkpt>
      <trkpt lat="43.2465" lon="-0.31413">
        <ele>225.86</ele>
        <time>2024-10-03T15:52:44.000Z</time>
      </trkpt>
      <trkpt lat="43.24672" lon="-0.31441">
        <ele>226.09</ele>
        <time>2024-10-03T15:52:49.000Z</time>
      </trkpt>
      <trkpt lat="43.24699" lon="-0.3146">
        <ele>228.03</ele>
        <time>2024-10-03T15:52:54.000Z</time>
      </trkpt>
      <trkpt lat="43.24727" lon="-0.31472">
        <ele>229.8</ele>
        <time>2024-10-03T15:52:59.000Z</time>
      </trkpt>
      <trkpt lat="43.24753" lon="-0.31483">
        <ele>229.59</ele>
        <time>2024-10-03T15:53:04.000Z</time>
      </trkpt>
      <trkpt lat="43.24778" lon="-0.31497">
        <ele>229.48</ele>
        <time>2024-10-03T15:53:09.000Z</time>
      </trkpt>
      <trkpt lat="43.24807" lon="-0.31512">
        <ele>228.73</ele>
        <time>2024-10-03T15:53:14.000Z</time>
      </trkpt>
      <trkpt lat="43.2484" lon="-0.31534">
        <ele>228.26</ele>
        <time>2024-10-03T15:53:19.000Z</time>
      </trkpt>
      <trkpt lat="43.24858" lon="-0.31556">
        <ele>229.93</ele>
        <time>2024-10-03T15:53:24.000Z</time>
      </trkpt>
      <trkpt lat="43.24871" lon="-0.31582">
        <ele>229.75</ele>
        <time>2024-10-03T15:53:29.000Z</time>
      </trkpt>
      <trkpt lat="43.24885" lon="-0.31614">
        <ele>229.08</ele>
        <time>2024-10-03T15:53:34.000Z</time>
      </trkpt>
      <trkpt lat="43.24904" lon="-0.31647">
        <ele>228.82</ele>
        <time>2024-10-03T15:53:39.000Z</time>
      </trkpt>
      <trkpt lat="43.24923" lon="-0.31676">
        <ele>228.88</ele>
        <time>2024-10-03T15:53:44.000Z</time>
      </trkpt>
      <trkpt lat="43.24943" lon="-0.31701">
        <ele>229</ele>
        <time>2024-10-03T15:53:49.000Z</time>
      </trkpt>
      <trkpt lat="43.24964" lon="-0.31729">
        <ele>229.18</ele>
        <time>2024-10-03T15:53:54.000Z</time>
      </trkpt>
      <trkpt lat="43.24984" lon="-0.31754">
        <ele>228.74</ele>
        <time>2024-10-03T15:53:59.000Z</time>
      </trkpt>
      <trkpt lat="43.25001" lon="-0.31782">
        <ele>228.11</ele>
        <time>2024-10-03T15:54:04.000Z</time>
      </trkpt>
      <trkpt lat="43.25019" lon="-0.31807">
        <ele>228.34</ele>
        <time>2024-10-03T15:54:09.000Z</time>
      </trkpt>
      <trkpt lat="43.25033" lon="-0.31839">
        <ele>228.45</ele>
        <time>2024-10-03T15:54:14.000Z</time>
      </trkpt>
      <trkpt lat="43.25048" lon="-0.31868">
        <ele>228.37</ele>
        <time>2024-10-03T15:54:19.000Z</time>
      </trkpt>
      <trkpt lat="43.25063" lon="-0.31896">
        <ele>228.3</ele>
        <time>2024-10-03T15:54:24.000Z</time>
      </trkpt>
      <trkpt lat="43.25078" lon="-0.3192">
        <ele>228.45</ele>
        <time>2024-10-03T15:54:29.000Z</time>
      </trkpt>
      <trkpt lat="43.25093" lon="-0.31944">
        <ele>228.52</ele>
        <time>2024-10-03T15:54:34.000Z</time>
      </trkpt>
      <trkpt lat="43.2511" lon="-0.31966">
        <ele>228.55</ele>
        <time>2024-10-03T15:54:39.000Z</time>
      </trkpt>
      <trkpt lat="43.2513" lon="-0.31984">
        <ele>228.54</ele>
        <time>2024-10-03T15:54:44.000Z</time>
      </trkpt>
      <trkpt lat="43.25153" lon="-0.32008">
        <ele>228.52</ele>
        <time>2024-10-03T15:54:49.000Z</time>
      </trkpt>
      <trkpt lat="43.25171" lon="-0.3203">
        <ele>228.46</ele>
        <time>2024-10-03T15:54:54.000Z</time>
      </trkpt>
      <trkpt lat="43.25192" lon="-0.32051">
        <ele>228.54</ele>
        <time>2024-10-03T15:54:59.000Z</time>
      </trkpt>
      <trkpt lat="43.25209" lon="-0.32079">
        <ele>228.66</ele>
        <time>2024-10-03T15:55:04.000Z</time>
      </trkpt>
      <trkpt lat="43.25224" lon="-0.32108">
        <ele>228.71</ele>
        <time>2024-10-03T15:55:09.000Z</time>
      </trkpt>
      <trkpt lat="43.25239" lon="-0.32136">
        <ele>228.76</ele>
        <time>2024-10-03T15:55:14.000Z</time>
      </trkpt>
      <trkpt lat="43.25254" lon="-0.32166">
        <ele>228.77</ele>
        <time>2024-10-03T15:55:19.000Z</time>
      </trkpt>
      <trkpt lat="43.2527" lon="-0.32194">
        <ele>228.62</ele>
        <time>2024-10-03T15:55:24.000Z</time>
      </trkpt>
      <trkpt lat="43.25293" lon="-0.3221">
        <ele>228.5</ele>
        <time>2024-10-03T15:55:29.000Z</time>
      </trkpt>
      <trkpt lat="43.25319" lon="-0.32222">
        <ele>228.4</ele>
        <time>2024-10-03T15:55:34.000Z</time>
      </trkpt>
      <trkpt lat="43.25343" lon="-0.32236">
        <ele>228.29</ele>
        <time>2024-10-03T15:55:39.000Z</time>
      </trkpt>
      <trkpt lat="43.25361" lon="-0.32261">
        <ele>228.26</ele>
        <time>2024-10-03T15:55:44.000Z</time>
      </trkpt>
      <trkpt lat="43.25376" lon="-0.32287">
        <ele>228.43</ele>
        <time>2024-10-03T15:55:49.000Z</time>
      </trkpt>
      <trkpt lat="43.2539" lon="-0.32315">
        <ele>228.61</ele>
        <time>2024-10-03T15:55:54.000Z</time>
      </trkpt>
      <trkpt lat="43.25405" lon="-0.32342">
        <ele>228.78</ele>
        <time>2024-10-03T15:55:59.000Z</time>
      </trkpt>
      <trkpt lat="43.25423" lon="-0.32368">
        <ele>228.98</ele>
        <time>2024-10-03T15:56:04.000Z</time>
      </trkpt>
      <trkpt lat="43.25443" lon="-0.32389">
        <ele>229.11</ele>
        <time>2024-10-03T15:56:09.000Z</time>
      </trkpt>
      <trkpt lat="43.25462" lon="-0.32406">
        <ele>229.2</ele>
        <time>2024-10-03T15:56:14.000Z</time>
      </trkpt>
      <trkpt lat="43.25484" lon="-0.32425">
        <ele>229.26</ele>
        <time>2024-10-03T15:56:19.000Z</time>
      </trkpt>
      <trkpt lat="43.25505" lon="-0.32443">
        <ele>229.32</ele>
        <time>2024-10-03T15:56:24.000Z</time>
      </trkpt>
      <trkpt lat="43.25526" lon="-0.32459">
        <ele>229.25</ele>
        <time>2024-10-03T15:56:29.000Z</time>
      </trkpt>
      <trkpt lat="43.25548" lon="-0.32467">
        <ele>229.06</ele>
        <time>2024-10-03T15:56:34.000Z</time>
      </trkpt>
      <trkpt lat="43.25569" lon="-0.32451">
        <ele>228.9</ele>
        <time>2024-10-03T15:56:39.000Z</time>
      </trkpt>
      <trkpt lat="43.25583" lon="-0.32424">
        <ele>228.73</ele>
        <time>2024-10-03T15:56:44.000Z</time>
      </trkpt>
      <trkpt lat="43.25598" lon="-0.32397">
        <ele>228.54</ele>
        <time>2024-10-03T15:56:49.000Z</time>
      </trkpt>
      <trkpt lat="43.25613" lon="-0.32371">
        <ele>228.5</ele>
        <time>2024-10-03T15:56:54.000Z</time>
      </trkpt>
      <trkpt lat="43.25628" lon="-0.32347">
        <ele>228.52</ele>
        <time>2024-10-03T15:56:59.000Z</time>
      </trkpt>
      <trkpt lat="43.25641" lon="-0.32322">
        <ele>228.57</ele>
        <time>2024-10-03T15:57:04.000Z</time>
      </trkpt>
      <trkpt lat="43.2565" lon="-0.32304">
        <ele>228.57</ele>
        <time>2024-10-03T15:57:09.000Z</time>
      </trkpt>
      <trkpt lat="43.25657" lon="-0.32294">
        <ele>228.04</ele>
        <time>2024-10-03T16:00:08.000Z</time>
      </trkpt>
      <trkpt lat="43.25648" lon="-0.32295">
        <ele>228.07</ele>
        <time>2024-10-03T16:00:43.000Z</time>
      </trkpt>
      <trkpt lat="43.25654" lon="-0.32305">
        <ele>227.82</ele>
        <time>2024-10-03T16:01:28.000Z</time>
      </trkpt>
      <trkpt lat="43.25648" lon="-0.32295">
        <ele>227.72</ele>
        <time>2024-10-03T16:01:47.000Z</time>
      </trkpt>
      <trkpt lat="43.25648" lon="-0.32281">
        <ele>227.66</ele>
        <time>2024-10-03T16:02:12.000Z</time>
      </trkpt>
      <trkpt lat="43.25639" lon="-0.32288">
        <ele>227.66</ele>
        <time>2024-10-03T16:02:31.000Z</time>
      </trkpt>
      <trkpt lat="43.25651" lon="-0.32287">
        <ele>227.68</ele>
        <time>2024-10-03T16:02:36.000Z</time>
      </trkpt>
      <trkpt lat="43.25669" lon="-0.32281">
        <ele>227.69</ele>
        <time>2024-10-03T16:02:43.000Z</time>
      </trkpt>
      <trkpt lat="43.25666" lon="-0.32293">
        <ele>227.73</ele>
        <time>2024-10-03T16:03:06.000Z</time>
      </trkpt>
      <trkpt lat="43.25663" lon="-0.32305">
        <ele>227.72</ele>
        <time>2024-10-03T16:03:24.000Z</time>
      </trkpt>
      <trkpt lat="43.25665" lon="-0.3229">
        <ele>227.77</ele>
        <time>2024-10-03T16:03:59.999Z</time>
      </trkpt>
      <trkpt lat="43.25659" lon="-0.3228">
        <ele>227.77</ele>
        <time>2024-10-03T16:04:06.999Z</time>
      </trkpt>
      <trkpt lat="43.25658" lon="-0.32292">
        <ele>227.74</ele>
        <time>2024-10-03T16:04:20.999Z</time>
      </trkpt>
      <trkpt lat="43.25668" lon="-0.3229">
        <ele>227.84</ele>
        <time>2024-10-03T16:05:10.999Z</time>
      </trkpt>
      <trkpt lat="43.25658" lon="-0.3229">
        <ele>227.6</ele>
        <time>2024-10-03T16:06:10.999Z</time>
      </trkpt>
      <trkpt lat="43.25648" lon="-0.32281">
        <ele>227.82</ele>
        <time>2024-10-03T16:07:33.999Z</time>
      </trkpt>
    </trkseg>
  </trk>
</gpx>